<?xml version="1.0" encoding="UTF-8" standalone="no" ?>
<gpx xmlns="http://www.topografix.com/GPX/1/1" xmlns:xsi="http://www.w3.org/2001/XMLSchema-instance" xsi:schemaLocation="http://www.topografix.com/GPX/1/1 http://www.topografix.com/GPX/1/1/gpx.xsd" version="1.1" creator="VisuGPX - https://www.visugpx.com">
  <metadata>
    <name>Edirne-Mostar</name>
  </metadata>
  <trk>
    <name><![CDATA[Tour d'Europe: étape 608]]></name>
    <extensions>
      <line xmlns="http://www.topografix.com/GPX/gpx_style/0/2">
        <color>880000</color>
        <width>4</width>
      </line>
    </extensions>
    <trkseg>
      <trkpt lat="41.67244" lon="26.5575">
        <ele>92.189913</ele>
        <time>2022-02-26T06:34:58.387Z</time>
      </trkpt>
      <trkpt lat="41.67246" lon="26.55728">
        <ele>92.189913</ele>
        <time>2022-02-26T06:38:43.298Z</time>
      </trkpt>
      <trkpt lat="41.6725" lon="26.55715">
        <ele>92.189913</ele>
        <time>2022-02-26T06:38:46.253Z</time>
      </trkpt>
      <trkpt lat="41.67253" lon="26.55701">
        <ele>92.189913</ele>
        <time>2022-02-26T06:38:49.239Z</time>
      </trkpt>
      <trkpt lat="41.67257" lon="26.55687">
        <ele>92.189913</ele>
        <time>2022-02-26T06:38:52.229Z</time>
      </trkpt>
      <trkpt lat="41.67261" lon="26.55674">
        <ele>92.189913</ele>
        <time>2022-02-26T06:38:55.251Z</time>
      </trkpt>
      <trkpt lat="41.67264" lon="26.55661">
        <ele>92.189913</ele>
        <time>2022-02-26T06:38:58.228Z</time>
      </trkpt>
      <trkpt lat="41.67266" lon="26.55648">
        <ele>92.189913</ele>
        <time>2022-02-26T06:39:01.234Z</time>
      </trkpt>
      <trkpt lat="41.67265" lon="26.55635">
        <ele>92.189913</ele>
        <time>2022-02-26T06:39:04.248Z</time>
      </trkpt>
      <trkpt lat="41.67265" lon="26.55621">
        <ele>91.836049</ele>
        <time>2022-02-26T06:39:07.254Z</time>
      </trkpt>
      <trkpt lat="41.67261" lon="26.55607">
        <ele>91.456935</ele>
        <time>2022-02-26T06:39:11.249Z</time>
      </trkpt>
      <trkpt lat="41.6726" lon="26.55593">
        <ele>91.100375</ele>
        <time>2022-02-26T06:39:15.300Z</time>
      </trkpt>
      <trkpt lat="41.67255" lon="26.55582">
        <ele>90.756803</ele>
        <time>2022-02-26T06:39:19.225Z</time>
      </trkpt>
      <trkpt lat="41.67249" lon="26.55572">
        <ele>90.426213</ele>
        <time>2022-02-26T06:39:22.248Z</time>
      </trkpt>
      <trkpt lat="41.67241" lon="26.55564">
        <ele>90.076925</ele>
        <time>2022-02-26T06:39:27.263Z</time>
      </trkpt>
      <trkpt lat="41.6723" lon="26.55558">
        <ele>89.691363</ele>
        <time>2022-02-26T06:39:31.291Z</time>
      </trkpt>
      <trkpt lat="41.67222" lon="26.5555">
        <ele>89.335456</ele>
        <time>2022-02-26T06:39:35.278Z</time>
      </trkpt>
      <trkpt lat="41.67213" lon="26.55544">
        <ele>88.988515</ele>
        <time>2022-02-26T06:39:38.243Z</time>
      </trkpt>
      <trkpt lat="41.67204" lon="26.55536">
        <ele>88.633987</ele>
        <time>2022-02-26T06:39:42.256Z</time>
      </trkpt>
      <trkpt lat="41.67199" lon="26.55523">
        <ele>88.249573</ele>
        <time>2022-02-26T06:39:47.249Z</time>
      </trkpt>
      <trkpt lat="41.67189" lon="26.55515">
        <ele>87.856108</ele>
        <time>2022-02-26T06:39:51.247Z</time>
      </trkpt>
      <trkpt lat="41.67182" lon="26.55503">
        <ele>87.446426</ele>
        <time>2022-02-26T06:39:55.255Z</time>
      </trkpt>
      <trkpt lat="41.67177" lon="26.5549">
        <ele>87.076894</ele>
        <time>2022-02-26T06:39:59.249Z</time>
      </trkpt>
      <trkpt lat="41.67173" lon="26.55479">
        <ele>86.757919</ele>
        <time>2022-02-26T06:40:02.285Z</time>
      </trkpt>
      <trkpt lat="41.6717" lon="26.55467">
        <ele>86.437673</ele>
        <time>2022-02-26T06:40:05.252Z</time>
      </trkpt>
      <trkpt lat="41.67166" lon="26.55454">
        <ele>86.089834</ele>
        <time>2022-02-26T06:40:08.259Z</time>
      </trkpt>
      <trkpt lat="41.67161" lon="26.55444">
        <ele>85.900942</ele>
        <time>2022-02-26T06:40:11.255Z</time>
      </trkpt>
      <trkpt lat="41.67156" lon="26.55433">
        <ele>85.753516</ele>
        <time>2022-02-26T06:40:14.245Z</time>
      </trkpt>
      <trkpt lat="41.67151" lon="26.55422">
        <ele>85.611678</ele>
        <time>2022-02-26T06:40:17.250Z</time>
      </trkpt>
      <trkpt lat="41.67147" lon="26.5541">
        <ele>85.459835</ele>
        <time>2022-02-26T06:40:20.241Z</time>
      </trkpt>
      <trkpt lat="41.67143" lon="26.55398">
        <ele>85.303579</ele>
        <time>2022-02-26T06:40:23.248Z</time>
      </trkpt>
      <trkpt lat="41.67138" lon="26.55386">
        <ele>85.152092</ele>
        <time>2022-02-26T06:40:26.248Z</time>
      </trkpt>
      <trkpt lat="41.67134" lon="26.55374">
        <ele>85.006329</ele>
        <time>2022-02-26T06:40:29.283Z</time>
      </trkpt>
      <trkpt lat="41.67128" lon="26.55363">
        <ele>84.850903</ele>
        <time>2022-02-26T06:40:33.238Z</time>
      </trkpt>
      <trkpt lat="41.67119" lon="26.55354">
        <ele>84.674651</ele>
        <time>2022-02-26T06:40:37.240Z</time>
      </trkpt>
      <trkpt lat="41.67109" lon="26.55351">
        <ele>84.519619</ele>
        <time>2022-02-26T06:40:40.247Z</time>
      </trkpt>
      <trkpt lat="41.671" lon="26.55348">
        <ele>84.371287</ele>
        <time>2022-02-26T06:40:43.228Z</time>
      </trkpt>
      <trkpt lat="41.67088" lon="26.55346">
        <ele>84.192503</ele>
        <time>2022-02-26T06:40:46.225Z</time>
      </trkpt>
      <trkpt lat="41.67079" lon="26.55346">
        <ele>84.051983</ele>
        <time>2022-02-26T06:40:50.242Z</time>
      </trkpt>
      <trkpt lat="41.67064" lon="26.55347">
        <ele>83.816438</ele>
        <time>2022-02-26T06:44:00.272Z</time>
      </trkpt>
      <trkpt lat="41.67054" lon="26.55356">
        <ele>83.646307</ele>
        <time>2022-02-26T06:44:03.253Z</time>
      </trkpt>
      <trkpt lat="41.67045" lon="26.55366">
        <ele>83.454806</ele>
        <time>2022-02-26T06:44:06.253Z</time>
      </trkpt>
      <trkpt lat="41.67036" lon="26.55376">
        <ele>83.277798</ele>
        <time>2022-02-26T06:44:09.243Z</time>
      </trkpt>
      <trkpt lat="41.67028" lon="26.55388">
        <ele>83.190053</ele>
        <time>2022-02-26T06:44:12.269Z</time>
      </trkpt>
      <trkpt lat="41.6702" lon="26.55401">
        <ele>83.111553</ele>
        <time>2022-02-26T06:44:15.248Z</time>
      </trkpt>
      <trkpt lat="41.67011" lon="26.55414">
        <ele>83.027024</ele>
        <time>2022-02-26T06:44:18.267Z</time>
      </trkpt>
      <trkpt lat="41.67005" lon="26.55424">
        <ele>82.96837</ele>
        <time>2022-02-26T06:44:20.237Z</time>
      </trkpt>
      <trkpt lat="41.66999" lon="26.55433">
        <ele>82.909396</ele>
        <time>2022-02-26T06:44:22.241Z</time>
      </trkpt>
      <trkpt lat="41.66993" lon="26.55442">
        <ele>82.851472</ele>
        <time>2022-02-26T06:44:24.263Z</time>
      </trkpt>
      <trkpt lat="41.66985" lon="26.55448">
        <ele>82.793863</ele>
        <time>2022-02-26T06:44:26.241Z</time>
      </trkpt>
      <trkpt lat="41.66977" lon="26.55453">
        <ele>82.736241</ele>
        <time>2022-02-26T06:44:28.249Z</time>
      </trkpt>
      <trkpt lat="41.66966" lon="26.55461">
        <ele>82.657298</ele>
        <time>2022-02-26T06:44:31.257Z</time>
      </trkpt>
      <trkpt lat="41.66956" lon="26.55469">
        <ele>82.582724</ele>
        <time>2022-02-26T06:44:34.237Z</time>
      </trkpt>
      <trkpt lat="41.66944" lon="26.55475">
        <ele>82.504512</ele>
        <time>2022-02-26T06:44:37.268Z</time>
      </trkpt>
      <trkpt lat="41.66933" lon="26.55475">
        <ele>82.432015</ele>
        <time>2022-02-26T06:44:40.295Z</time>
      </trkpt>
      <trkpt lat="41.66921" lon="26.55473">
        <ele>82.356846</ele>
        <time>2022-02-26T06:44:43.248Z</time>
      </trkpt>
      <trkpt lat="41.66908" lon="26.55472">
        <ele>82.276024</ele>
        <time>2022-02-26T06:44:46.258Z</time>
      </trkpt>
      <trkpt lat="41.66899" lon="26.5547">
        <ele>82.212755</ele>
        <time>2022-02-26T06:44:49.260Z</time>
      </trkpt>
      <trkpt lat="41.66888" lon="26.55468">
        <ele>82.146849</ele>
        <time>2022-02-26T06:44:52.236Z</time>
      </trkpt>
      <trkpt lat="41.66878" lon="26.55466">
        <ele>82.018498</ele>
        <time>2022-02-26T06:44:55.260Z</time>
      </trkpt>
      <trkpt lat="41.66867" lon="26.55464">
        <ele>81.803587</ele>
        <time>2022-02-26T06:44:58.247Z</time>
      </trkpt>
      <trkpt lat="41.66858" lon="26.55461">
        <ele>81.636589</ele>
        <time>2022-02-26T06:45:00.228Z</time>
      </trkpt>
      <trkpt lat="41.66847" lon="26.55456">
        <ele>81.433743</ele>
        <time>2022-02-26T06:45:03.238Z</time>
      </trkpt>
      <trkpt lat="41.66838" lon="26.55449">
        <ele>81.231334</ele>
        <time>2022-02-26T06:45:07.251Z</time>
      </trkpt>
      <trkpt lat="41.66829" lon="26.55444">
        <ele>81.052394</ele>
        <time>2022-02-26T06:45:11.252Z</time>
      </trkpt>
      <trkpt lat="41.6682" lon="26.55438">
        <ele>80.876169</ele>
        <time>2022-02-26T06:45:15.250Z</time>
      </trkpt>
      <trkpt lat="41.6681" lon="26.55432">
        <ele>80.672981</ele>
        <time>2022-02-26T06:45:20.239Z</time>
      </trkpt>
      <trkpt lat="41.66801" lon="26.55427">
        <ele>80.493948</ele>
        <time>2022-02-26T06:45:24.252Z</time>
      </trkpt>
      <trkpt lat="41.66793" lon="26.55421">
        <ele>80.317722</ele>
        <time>2022-02-26T06:45:28.280Z</time>
      </trkpt>
      <trkpt lat="41.66784" lon="26.55416">
        <ele>80.14435</ele>
        <time>2022-02-26T06:45:32.237Z</time>
      </trkpt>
      <trkpt lat="41.66775" lon="26.5541">
        <ele>79.967097</ele>
        <time>2022-02-26T06:45:35.268Z</time>
      </trkpt>
      <trkpt lat="41.66765" lon="26.55405">
        <ele>79.765724</ele>
        <time>2022-02-26T06:45:38.279Z</time>
      </trkpt>
      <trkpt lat="41.66756" lon="26.55399">
        <ele>79.573843</ele>
        <time>2022-02-26T06:45:41.244Z</time>
      </trkpt>
      <trkpt lat="41.66745" lon="26.55393">
        <ele>79.36283</ele>
        <time>2022-02-26T06:45:44.253Z</time>
      </trkpt>
      <trkpt lat="41.66734" lon="26.55387">
        <ele>79.134534</ele>
        <time>2022-02-26T06:45:47.253Z</time>
      </trkpt>
      <trkpt lat="41.66726" lon="26.55381">
        <ele>78.965669</ele>
        <time>2022-02-26T06:45:50.252Z</time>
      </trkpt>
      <trkpt lat="41.66717" lon="26.55377">
        <ele>78.802819</ele>
        <time>2022-02-26T06:45:54.258Z</time>
      </trkpt>
      <trkpt lat="41.66707" lon="26.55373">
        <ele>78.890255</ele>
        <time>2022-02-26T06:45:58.241Z</time>
      </trkpt>
      <trkpt lat="41.66698" lon="26.55369">
        <ele>78.978585</ele>
        <time>2022-02-26T06:46:01.235Z</time>
      </trkpt>
      <trkpt lat="41.66688" lon="26.55365">
        <ele>79.068136</ele>
        <time>2022-02-26T06:46:04.324Z</time>
      </trkpt>
      <trkpt lat="41.66678" lon="26.5536">
        <ele>79.162049</ele>
        <time>2022-02-26T06:46:07.247Z</time>
      </trkpt>
      <trkpt lat="41.66667" lon="26.55355">
        <ele>79.267488</ele>
        <time>2022-02-26T06:46:10.244Z</time>
      </trkpt>
      <trkpt lat="41.66657" lon="26.5535">
        <ele>79.363532</ele>
        <time>2022-02-26T06:46:13.284Z</time>
      </trkpt>
      <trkpt lat="41.66646" lon="26.55346">
        <ele>79.465233</ele>
        <time>2022-02-26T06:46:16.233Z</time>
      </trkpt>
      <trkpt lat="41.66635" lon="26.55341">
        <ele>79.565645</ele>
        <time>2022-02-26T06:46:19.259Z</time>
      </trkpt>
      <trkpt lat="41.66625" lon="26.55336">
        <ele>79.659558</ele>
        <time>2022-02-26T06:46:22.271Z</time>
      </trkpt>
      <trkpt lat="41.66615" lon="26.55333">
        <ele>79.752502</ele>
        <time>2022-02-26T06:46:25.259Z</time>
      </trkpt>
      <trkpt lat="41.66604" lon="26.55329">
        <ele>79.851582</ele>
        <time>2022-02-26T06:46:28.255Z</time>
      </trkpt>
      <trkpt lat="41.66593" lon="26.55323">
        <ele>79.953164</ele>
        <time>2022-02-26T06:46:31.261Z</time>
      </trkpt>
      <trkpt lat="41.66582" lon="26.55316">
        <ele>80.0654</ele>
        <time>2022-02-26T06:46:34.241Z</time>
      </trkpt>
      <trkpt lat="41.66569" lon="26.55311">
        <ele>80.178408</ele>
        <time>2022-02-26T06:46:37.298Z</time>
      </trkpt>
      <trkpt lat="41.66561" lon="26.55307">
        <ele>80.258752</ele>
        <time>2022-02-26T06:46:39.243Z</time>
      </trkpt>
      <trkpt lat="41.66553" lon="26.55302">
        <ele>80.338999</ele>
        <time>2022-02-26T06:46:41.256Z</time>
      </trkpt>
      <trkpt lat="41.66541" lon="26.55297">
        <ele>80.332427</ele>
        <time>2022-02-26T06:46:44.244Z</time>
      </trkpt>
      <trkpt lat="41.66532" lon="26.55294">
        <ele>80.246379</ele>
        <time>2022-02-26T06:46:46.255Z</time>
      </trkpt>
      <trkpt lat="41.66523" lon="26.5529">
        <ele>80.157264</ele>
        <time>2022-02-26T06:46:48.302Z</time>
      </trkpt>
      <trkpt lat="41.66515" lon="26.55285">
        <ele>80.071323</ele>
        <time>2022-02-26T06:46:50.248Z</time>
      </trkpt>
      <trkpt lat="41.66506" lon="26.55279">
        <ele>79.984195</ele>
        <time>2022-02-26T06:46:52.265Z</time>
      </trkpt>
      <trkpt lat="41.66494" lon="26.55273">
        <ele>79.861849</ele>
        <time>2022-02-26T06:46:55.256Z</time>
      </trkpt>
      <trkpt lat="41.66486" lon="26.55269">
        <ele>79.777183</ele>
        <time>2022-02-26T06:46:57.300Z</time>
      </trkpt>
      <trkpt lat="41.66476" lon="26.55265">
        <ele>79.688616</ele>
        <time>2022-02-26T06:46:59.286Z</time>
      </trkpt>
      <trkpt lat="41.66467" lon="26.55262">
        <ele>79.600771</ele>
        <time>2022-02-26T06:47:01.263Z</time>
      </trkpt>
      <trkpt lat="41.66456" lon="26.55258">
        <ele>79.489884</ele>
        <time>2022-02-26T06:47:04.269Z</time>
      </trkpt>
      <trkpt lat="41.66445" lon="26.55254">
        <ele>79.3842</ele>
        <time>2022-02-26T06:47:07.240Z</time>
      </trkpt>
      <trkpt lat="41.66436" lon="26.5525">
        <ele>79.299145</ele>
        <time>2022-02-26T06:47:10.267Z</time>
      </trkpt>
      <trkpt lat="41.66427" lon="26.55247">
        <ele>79.20554</ele>
        <time>2022-02-26T06:47:13.247Z</time>
      </trkpt>
      <trkpt lat="41.66418" lon="26.55244">
        <ele>79.120662</ele>
        <time>2022-02-26T06:47:16.303Z</time>
      </trkpt>
      <trkpt lat="41.66407" lon="26.55239">
        <ele>79.01176</ele>
        <time>2022-02-26T06:47:20.260Z</time>
      </trkpt>
      <trkpt lat="41.66396" lon="26.55235">
        <ele>78.907534</ele>
        <time>2022-02-26T06:47:24.245Z</time>
      </trkpt>
      <trkpt lat="41.66385" lon="26.5523">
        <ele>78.804093</ele>
        <time>2022-02-26T06:47:28.246Z</time>
      </trkpt>
      <trkpt lat="41.66376" lon="26.55226">
        <ele>78.72259</ele>
        <time>2022-02-26T06:47:32.248Z</time>
      </trkpt>
      <trkpt lat="41.66366" lon="26.55222">
        <ele>78.895114</ele>
        <time>2022-02-26T06:47:36.245Z</time>
      </trkpt>
      <trkpt lat="41.66356" lon="26.55218">
        <ele>79.065222</ele>
        <time>2022-02-26T06:47:40.250Z</time>
      </trkpt>
      <trkpt lat="41.66346" lon="26.55214">
        <ele>79.22606</ele>
        <time>2022-02-26T06:47:44.243Z</time>
      </trkpt>
      <trkpt lat="41.66338" lon="26.5521">
        <ele>79.374023</ele>
        <time>2022-02-26T06:47:47.254Z</time>
      </trkpt>
      <trkpt lat="41.66328" lon="26.55207">
        <ele>79.535416</ele>
        <time>2022-02-26T06:47:50.286Z</time>
      </trkpt>
      <trkpt lat="41.66318" lon="26.55203">
        <ele>79.701872</ele>
        <time>2022-02-26T06:47:53.268Z</time>
      </trkpt>
      <trkpt lat="41.66308" lon="26.55199">
        <ele>79.877203</ele>
        <time>2022-02-26T06:47:56.244Z</time>
      </trkpt>
      <trkpt lat="41.66297" lon="26.55195">
        <ele>80.062843</ele>
        <time>2022-02-26T06:47:59.247Z</time>
      </trkpt>
      <trkpt lat="41.66286" lon="26.55189">
        <ele>80.257018</ele>
        <time>2022-02-26T06:48:02.248Z</time>
      </trkpt>
      <trkpt lat="41.66275" lon="26.55184">
        <ele>80.441518</ele>
        <time>2022-02-26T06:48:05.265Z</time>
      </trkpt>
      <trkpt lat="41.66264" lon="26.55179">
        <ele>80.640759</ele>
        <time>2022-02-26T06:48:08.264Z</time>
      </trkpt>
      <trkpt lat="41.66253" lon="26.55175">
        <ele>80.83195</ele>
        <time>2022-02-26T06:48:11.256Z</time>
      </trkpt>
      <trkpt lat="41.66244" lon="26.55168">
        <ele>81.006355</ele>
        <time>2022-02-26T06:48:15.260Z</time>
      </trkpt>
      <trkpt lat="41.66242" lon="26.55154">
        <ele>81.176573</ele>
        <time>2022-02-26T06:48:20.263Z</time>
      </trkpt>
      <trkpt lat="41.66238" lon="26.55139">
        <ele>81.375034</ele>
        <time>2022-02-26T06:48:24.264Z</time>
      </trkpt>
      <trkpt lat="41.66236" lon="26.55126">
        <ele>81.526336</ele>
        <time>2022-02-26T06:48:27.255Z</time>
      </trkpt>
      <trkpt lat="41.66233" lon="26.55113">
        <ele>81.702014</ele>
        <time>2022-02-26T06:48:31.235Z</time>
      </trkpt>
      <trkpt lat="41.6623" lon="26.55099">
        <ele>81.933079</ele>
        <time>2022-02-26T06:48:35.279Z</time>
      </trkpt>
      <trkpt lat="41.66227" lon="26.55087">
        <ele>82.127311</ele>
        <time>2022-02-26T06:48:38.253Z</time>
      </trkpt>
      <trkpt lat="41.66224" lon="26.55073">
        <ele>82.34951</ele>
        <time>2022-02-26T06:48:41.242Z</time>
      </trkpt>
      <trkpt lat="41.66221" lon="26.55059">
        <ele>82.57559</ele>
        <time>2022-02-26T06:48:44.254Z</time>
      </trkpt>
      <trkpt lat="41.66218" lon="26.55046">
        <ele>82.78577</ele>
        <time>2022-02-26T06:48:47.246Z</time>
      </trkpt>
      <trkpt lat="41.66215" lon="26.55032">
        <ele>83.00485</ele>
        <time>2022-02-26T06:48:50.265Z</time>
      </trkpt>
      <trkpt lat="41.66212" lon="26.55017">
        <ele>83.244722</ele>
        <time>2022-02-26T06:48:54.249Z</time>
      </trkpt>
      <trkpt lat="41.66208" lon="26.55003">
        <ele>83.476468</ele>
        <time>2022-02-26T06:48:57.246Z</time>
      </trkpt>
      <trkpt lat="41.66204" lon="26.54991">
        <ele>83.684161</ele>
        <time>2022-02-26T06:49:00.258Z</time>
      </trkpt>
      <trkpt lat="41.662" lon="26.54979">
        <ele>83.881999</ele>
        <time>2022-02-26T06:49:03.251Z</time>
      </trkpt>
      <trkpt lat="41.66197" lon="26.54967">
        <ele>84.073345</ele>
        <time>2022-02-26T06:49:06.254Z</time>
      </trkpt>
      <trkpt lat="41.66194" lon="26.54954">
        <ele>84.289227</ele>
        <time>2022-02-26T06:49:09.250Z</time>
      </trkpt>
      <trkpt lat="41.6619" lon="26.54942">
        <ele>84.486566</ele>
        <time>2022-02-26T06:49:12.299Z</time>
      </trkpt>
      <trkpt lat="41.66186" lon="26.54929">
        <ele>84.690201</ele>
        <time>2022-02-26T06:49:15.239Z</time>
      </trkpt>
      <trkpt lat="41.66183" lon="26.54917">
        <ele>84.898834</ele>
        <time>2022-02-26T06:49:18.259Z</time>
      </trkpt>
      <trkpt lat="41.6618" lon="26.54903">
        <ele>85.115139</ele>
        <time>2022-02-26T06:49:21.244Z</time>
      </trkpt>
      <trkpt lat="41.66177" lon="26.54891">
        <ele>85.314971</ele>
        <time>2022-02-26T06:49:24.255Z</time>
      </trkpt>
      <trkpt lat="41.66174" lon="26.54879">
        <ele>85.625339</ele>
        <time>2022-02-26T06:49:27.247Z</time>
      </trkpt>
      <trkpt lat="41.6617" lon="26.54867">
        <ele>86.004903</ele>
        <time>2022-02-26T06:49:30.237Z</time>
      </trkpt>
      <trkpt lat="41.66165" lon="26.54852">
        <ele>86.462959</ele>
        <time>2022-02-26T06:49:34.268Z</time>
      </trkpt>
      <trkpt lat="41.66162" lon="26.5484">
        <ele>86.819879</ele>
        <time>2022-02-26T06:49:37.615Z</time>
      </trkpt>
      <trkpt lat="41.66158" lon="26.54826">
        <ele>87.255052</ele>
        <time>2022-02-26T06:49:41.235Z</time>
      </trkpt>
      <trkpt lat="41.66154" lon="26.54814">
        <ele>87.630565</ele>
        <time>2022-02-26T06:49:45.261Z</time>
      </trkpt>
      <trkpt lat="41.6615" lon="26.54803">
        <ele>87.974789</ele>
        <time>2022-02-26T06:49:50.311Z</time>
      </trkpt>
      <trkpt lat="41.6615" lon="26.54817">
        <ele>88.368894</ele>
        <time>2022-02-26T06:50:00.252Z</time>
      </trkpt>
      <trkpt lat="41.66151" lon="26.54829">
        <ele>88.715652</ele>
        <time>2022-02-26T06:50:07.260Z</time>
      </trkpt>
      <trkpt lat="41.66154" lon="26.54841">
        <ele>89.056704</ele>
        <time>2022-02-26T06:50:14.247Z</time>
      </trkpt>
      <trkpt lat="41.66158" lon="26.54829">
        <ele>89.420605</ele>
        <time>2022-02-26T06:50:26.242Z</time>
      </trkpt>
      <trkpt lat="41.66152" lon="26.54817">
        <ele>89.824658</ele>
        <time>2022-02-26T06:50:32.261Z</time>
      </trkpt>
      <trkpt lat="41.66152" lon="26.54794">
        <ele>90.481728</ele>
        <time>2022-02-26T06:56:11.297Z</time>
      </trkpt>
      <trkpt lat="41.6615" lon="26.54782">
        <ele>90.834403</ele>
        <time>2022-02-26T06:56:15.243Z</time>
      </trkpt>
      <trkpt lat="41.66145" lon="26.54769">
        <ele>91.238584</ele>
        <time>2022-02-26T06:56:19.245Z</time>
      </trkpt>
      <trkpt lat="41.66141" lon="26.54756">
        <ele>91.628654</ele>
        <time>2022-02-26T06:56:23.249Z</time>
      </trkpt>
      <trkpt lat="41.66137" lon="26.54742">
        <ele>92.04688</ele>
        <time>2022-02-26T06:56:27.265Z</time>
      </trkpt>
      <trkpt lat="41.66134" lon="26.54728">
        <ele>92.130247</ele>
        <time>2022-02-26T06:56:31.249Z</time>
      </trkpt>
      <trkpt lat="41.6613" lon="26.54715">
        <ele>92.074196</ele>
        <time>2022-02-26T06:56:34.252Z</time>
      </trkpt>
      <trkpt lat="41.66127" lon="26.54701">
        <ele>92.011607</ele>
        <time>2022-02-26T06:56:37.247Z</time>
      </trkpt>
      <trkpt lat="41.66123" lon="26.54688">
        <ele>91.950401</ele>
        <time>2022-02-26T06:56:40.226Z</time>
      </trkpt>
      <trkpt lat="41.66119" lon="26.54675">
        <ele>91.893528</ele>
        <time>2022-02-26T06:56:43.259Z</time>
      </trkpt>
      <trkpt lat="41.66116" lon="26.54663">
        <ele>91.839859</ele>
        <time>2022-02-26T06:56:46.239Z</time>
      </trkpt>
      <trkpt lat="41.66113" lon="26.5465">
        <ele>91.782703</ele>
        <time>2022-02-26T06:56:49.256Z</time>
      </trkpt>
      <trkpt lat="41.66109" lon="26.54637">
        <ele>91.722373</ele>
        <time>2022-02-26T06:56:52.261Z</time>
      </trkpt>
      <trkpt lat="41.66106" lon="26.54624">
        <ele>91.663553</ele>
        <time>2022-02-26T06:56:55.271Z</time>
      </trkpt>
      <trkpt lat="41.66103" lon="26.5461">
        <ele>91.601059</ele>
        <time>2022-02-26T06:56:58.248Z</time>
      </trkpt>
      <trkpt lat="41.661" lon="26.54597">
        <ele>91.543638</ele>
        <time>2022-02-26T06:57:01.274Z</time>
      </trkpt>
      <trkpt lat="41.66096" lon="26.54585">
        <ele>91.489758</ele>
        <time>2022-02-26T06:57:04.260Z</time>
      </trkpt>
      <trkpt lat="41.66093" lon="26.54574">
        <ele>91.438627</ele>
        <time>2022-02-26T06:57:07.250Z</time>
      </trkpt>
      <trkpt lat="41.6609" lon="26.54562">
        <ele>91.386308</ele>
        <time>2022-02-26T06:57:10.237Z</time>
      </trkpt>
      <trkpt lat="41.66086" lon="26.5455">
        <ele>91.329907</ele>
        <time>2022-02-26T06:57:13.260Z</time>
      </trkpt>
      <trkpt lat="41.66084" lon="26.54538">
        <ele>91.278467</ele>
        <time>2022-02-26T06:57:16.260Z</time>
      </trkpt>
      <trkpt lat="41.66081" lon="26.54526">
        <ele>91.224919</ele>
        <time>2022-02-26T06:57:19.255Z</time>
      </trkpt>
      <trkpt lat="41.66078" lon="26.54514">
        <ele>91.173028</ele>
        <time>2022-02-26T06:57:22.264Z</time>
      </trkpt>
      <trkpt lat="41.66074" lon="26.54503">
        <ele>91.085888</ele>
        <time>2022-02-26T06:57:26.264Z</time>
      </trkpt>
      <trkpt lat="41.66071" lon="26.54488">
        <ele>90.972614</ele>
        <time>2022-02-26T06:57:30.293Z</time>
      </trkpt>
      <trkpt lat="41.66067" lon="26.54473">
        <ele>90.853913</ele>
        <time>2022-02-26T06:57:34.271Z</time>
      </trkpt>
      <trkpt lat="41.66063" lon="26.5446">
        <ele>90.740188</ele>
        <time>2022-02-26T06:57:37.260Z</time>
      </trkpt>
      <trkpt lat="41.66058" lon="26.54444">
        <ele>90.610427</ele>
        <time>2022-02-26T06:57:40.246Z</time>
      </trkpt>
      <trkpt lat="41.66054" lon="26.5443">
        <ele>90.494327</ele>
        <time>2022-02-26T06:57:43.235Z</time>
      </trkpt>
      <trkpt lat="41.66051" lon="26.54417">
        <ele>90.387449</ele>
        <time>2022-02-26T06:57:46.253Z</time>
      </trkpt>
      <trkpt lat="41.66048" lon="26.54404">
        <ele>90.291143</ele>
        <time>2022-02-26T06:57:49.242Z</time>
      </trkpt>
      <trkpt lat="41.66046" lon="26.54393">
        <ele>90.198612</ele>
        <time>2022-02-26T06:57:52.243Z</time>
      </trkpt>
      <trkpt lat="41.66042" lon="26.54379">
        <ele>90.086436</ele>
        <time>2022-02-26T06:57:55.273Z</time>
      </trkpt>
      <trkpt lat="41.66037" lon="26.54367">
        <ele>89.983299</ele>
        <time>2022-02-26T06:57:58.293Z</time>
      </trkpt>
      <trkpt lat="41.66035" lon="26.54354">
        <ele>89.884507</ele>
        <time>2022-02-26T06:58:01.231Z</time>
      </trkpt>
      <trkpt lat="41.66032" lon="26.54341">
        <ele>89.78234</ele>
        <time>2022-02-26T06:58:04.251Z</time>
      </trkpt>
      <trkpt lat="41.66028" lon="26.54327">
        <ele>89.669087</ele>
        <time>2022-02-26T06:58:07.235Z</time>
      </trkpt>
      <trkpt lat="41.66024" lon="26.54312">
        <ele>89.54656</ele>
        <time>2022-02-26T06:58:10.255Z</time>
      </trkpt>
      <trkpt lat="41.66021" lon="26.54298">
        <ele>89.429058</ele>
        <time>2022-02-26T06:58:13.305Z</time>
      </trkpt>
      <trkpt lat="41.66018" lon="26.54283">
        <ele>89.310313</ele>
        <time>2022-02-26T06:58:16.263Z</time>
      </trkpt>
      <trkpt lat="41.66014" lon="26.54268">
        <ele>89.157553</ele>
        <time>2022-02-26T06:58:19.251Z</time>
      </trkpt>
      <trkpt lat="41.66012" lon="26.54255">
        <ele>89.029694</ele>
        <time>2022-02-26T06:58:22.257Z</time>
      </trkpt>
      <trkpt lat="41.66008" lon="26.54243">
        <ele>88.896613</ele>
        <time>2022-02-26T06:58:25.272Z</time>
      </trkpt>
      <trkpt lat="41.66006" lon="26.54231">
        <ele>88.779777</ele>
        <time>2022-02-26T06:58:28.217Z</time>
      </trkpt>
      <trkpt lat="41.66003" lon="26.54218">
        <ele>88.647555</ele>
        <time>2022-02-26T06:58:31.314Z</time>
      </trkpt>
      <trkpt lat="41.65999" lon="26.54204">
        <ele>88.508844</ele>
        <time>2022-02-26T06:58:34.245Z</time>
      </trkpt>
      <trkpt lat="41.65997" lon="26.54191">
        <ele>88.380225</ele>
        <time>2022-02-26T06:58:37.250Z</time>
      </trkpt>
      <trkpt lat="41.65996" lon="26.54178">
        <ele>88.248464</ele>
        <time>2022-02-26T06:58:40.247Z</time>
      </trkpt>
      <trkpt lat="41.65993" lon="26.54164">
        <ele>88.110018</ele>
        <time>2022-02-26T06:58:43.249Z</time>
      </trkpt>
      <trkpt lat="41.65989" lon="26.54151">
        <ele>87.972191</ele>
        <time>2022-02-26T06:58:46.248Z</time>
      </trkpt>
      <trkpt lat="41.65984" lon="26.54138">
        <ele>87.824714</ele>
        <time>2022-02-26T06:58:49.260Z</time>
      </trkpt>
      <trkpt lat="41.65979" lon="26.54125">
        <ele>87.689705</ele>
        <time>2022-02-26T06:58:52.245Z</time>
      </trkpt>
      <trkpt lat="41.65973" lon="26.54112">
        <ele>87.542013</ele>
        <time>2022-02-26T06:58:55.254Z</time>
      </trkpt>
      <trkpt lat="41.65969" lon="26.54098">
        <ele>87.39498</ele>
        <time>2022-02-26T06:58:59.253Z</time>
      </trkpt>
      <trkpt lat="41.65967" lon="26.54086">
        <ele>87.276457</ele>
        <time>2022-02-26T06:59:02.252Z</time>
      </trkpt>
      <trkpt lat="41.65962" lon="26.54072">
        <ele>87.122604</ele>
        <time>2022-02-26T06:59:05.280Z</time>
      </trkpt>
      <trkpt lat="41.65957" lon="26.54056">
        <ele>87.013327</ele>
        <time>2022-02-26T06:59:08.265Z</time>
      </trkpt>
      <trkpt lat="41.65953" lon="26.54041">
        <ele>87.156672</ele>
        <time>2022-02-26T06:59:11.250Z</time>
      </trkpt>
      <trkpt lat="41.6595" lon="26.54028">
        <ele>87.292076</ele>
        <time>2022-02-26T06:59:14.258Z</time>
      </trkpt>
      <trkpt lat="41.65945" lon="26.54014">
        <ele>87.432939</ele>
        <time>2022-02-26T06:59:17.267Z</time>
      </trkpt>
      <trkpt lat="41.65941" lon="26.54">
        <ele>87.567902</ele>
        <time>2022-02-26T06:59:20.254Z</time>
      </trkpt>
      <trkpt lat="41.65938" lon="26.53986">
        <ele>87.707024</ele>
        <time>2022-02-26T06:59:23.243Z</time>
      </trkpt>
      <trkpt lat="41.65935" lon="26.53971">
        <ele>87.854416</ele>
        <time>2022-02-26T06:59:26.254Z</time>
      </trkpt>
      <trkpt lat="41.65931" lon="26.53956">
        <ele>87.998908</ele>
        <time>2022-02-26T06:59:29.230Z</time>
      </trkpt>
      <trkpt lat="41.65927" lon="26.53942">
        <ele>88.142634</ele>
        <time>2022-02-26T06:59:32.240Z</time>
      </trkpt>
      <trkpt lat="41.65923" lon="26.53929">
        <ele>88.26985</ele>
        <time>2022-02-26T06:59:35.245Z</time>
      </trkpt>
      <trkpt lat="41.65919" lon="26.53917">
        <ele>88.401347</ele>
        <time>2022-02-26T06:59:38.295Z</time>
      </trkpt>
      <trkpt lat="41.65916" lon="26.53904">
        <ele>88.529902</ele>
        <time>2022-02-26T06:59:41.243Z</time>
      </trkpt>
      <trkpt lat="41.65913" lon="26.53891">
        <ele>88.655231</ele>
        <time>2022-02-26T06:59:44.252Z</time>
      </trkpt>
      <trkpt lat="41.6591" lon="26.53875">
        <ele>88.810515</ele>
        <time>2022-02-26T06:59:47.263Z</time>
      </trkpt>
      <trkpt lat="41.65906" lon="26.53859">
        <ele>88.964527</ele>
        <time>2022-02-26T06:59:50.239Z</time>
      </trkpt>
      <trkpt lat="41.65902" lon="26.53846">
        <ele>89.099128</ele>
        <time>2022-02-26T06:59:53.254Z</time>
      </trkpt>
      <trkpt lat="41.65897" lon="26.53835">
        <ele>89.218656</ele>
        <time>2022-02-26T06:59:57.268Z</time>
      </trkpt>
      <trkpt lat="41.65892" lon="26.53822">
        <ele>88.93236</ele>
        <time>2022-02-26T07:00:01.275Z</time>
      </trkpt>
      <trkpt lat="41.6589" lon="26.53809">
        <ele>88.617985</ele>
        <time>2022-02-26T07:00:05.255Z</time>
      </trkpt>
      <trkpt lat="41.65889" lon="26.53796">
        <ele>88.267798</ele>
        <time>2022-02-26T07:00:09.248Z</time>
      </trkpt>
      <trkpt lat="41.65886" lon="26.53783">
        <ele>87.956682</ele>
        <time>2022-02-26T07:00:12.245Z</time>
      </trkpt>
      <trkpt lat="41.65883" lon="26.53772">
        <ele>87.646702</ele>
        <time>2022-02-26T07:00:15.258Z</time>
      </trkpt>
      <trkpt lat="41.65879" lon="26.53759">
        <ele>87.31008</ele>
        <time>2022-02-26T07:00:18.297Z</time>
      </trkpt>
      <trkpt lat="41.65876" lon="26.53746">
        <ele>86.962967</ele>
        <time>2022-02-26T07:00:21.248Z</time>
      </trkpt>
      <trkpt lat="41.65871" lon="26.53735">
        <ele>86.645589</ele>
        <time>2022-02-26T07:00:24.271Z</time>
      </trkpt>
      <trkpt lat="41.65869" lon="26.53722">
        <ele>86.318525</ele>
        <time>2022-02-26T07:00:28.240Z</time>
      </trkpt>
      <trkpt lat="41.65865" lon="26.53709">
        <ele>85.972579</ele>
        <time>2022-02-26T07:00:32.242Z</time>
      </trkpt>
      <trkpt lat="41.65864" lon="26.53696">
        <ele>85.647363</ele>
        <time>2022-02-26T07:00:35.264Z</time>
      </trkpt>
      <trkpt lat="41.65861" lon="26.53683">
        <ele>85.315888</ele>
        <time>2022-02-26T07:00:38.251Z</time>
      </trkpt>
      <trkpt lat="41.65857" lon="26.53671">
        <ele>84.992023</ele>
        <time>2022-02-26T07:00:41.239Z</time>
      </trkpt>
      <trkpt lat="41.65854" lon="26.53656">
        <ele>84.602133</ele>
        <time>2022-02-26T07:00:45.236Z</time>
      </trkpt>
      <trkpt lat="41.65849" lon="26.53644">
        <ele>84.261318</ele>
        <time>2022-02-26T07:00:49.230Z</time>
      </trkpt>
      <trkpt lat="41.65845" lon="26.53631">
        <ele>83.920055</ele>
        <time>2022-02-26T07:00:53.273Z</time>
      </trkpt>
      <trkpt lat="41.65842" lon="26.5362">
        <ele>83.621736</ele>
        <time>2022-02-26T07:00:56.260Z</time>
      </trkpt>
      <trkpt lat="41.65839" lon="26.53606">
        <ele>83.271731</ele>
        <time>2022-02-26T07:01:00.257Z</time>
      </trkpt>
      <trkpt lat="41.65834" lon="26.53593">
        <ele>83.112947</ele>
        <time>2022-02-26T07:01:04.266Z</time>
      </trkpt>
      <trkpt lat="41.65831" lon="26.53581">
        <ele>82.979394</ele>
        <time>2022-02-26T07:01:07.246Z</time>
      </trkpt>
      <trkpt lat="41.65827" lon="26.53567">
        <ele>82.822688</ele>
        <time>2022-02-26T07:01:10.253Z</time>
      </trkpt>
      <trkpt lat="41.65824" lon="26.53555">
        <ele>82.687132</ele>
        <time>2022-02-26T07:01:13.285Z</time>
      </trkpt>
      <trkpt lat="41.65822" lon="26.53539">
        <ele>82.51947</ele>
        <time>2022-02-26T07:01:17.279Z</time>
      </trkpt>
      <trkpt lat="41.65819" lon="26.53527">
        <ele>82.381329</ele>
        <time>2022-02-26T07:01:20.263Z</time>
      </trkpt>
      <trkpt lat="41.65815" lon="26.53513">
        <ele>82.224516</ele>
        <time>2022-02-26T07:01:23.283Z</time>
      </trkpt>
      <trkpt lat="41.65811" lon="26.53499">
        <ele>82.074178</ele>
        <time>2022-02-26T07:01:26.240Z</time>
      </trkpt>
      <trkpt lat="41.65808" lon="26.53487">
        <ele>81.936716</ele>
        <time>2022-02-26T07:01:29.297Z</time>
      </trkpt>
      <trkpt lat="41.65804" lon="26.53474">
        <ele>81.791379</ele>
        <time>2022-02-26T07:01:32.249Z</time>
      </trkpt>
      <trkpt lat="41.65801" lon="26.53459">
        <ele>81.625807</ele>
        <time>2022-02-26T07:01:36.285Z</time>
      </trkpt>
      <trkpt lat="41.65799" lon="26.53446">
        <ele>81.487547</ele>
        <time>2022-02-26T07:01:39.248Z</time>
      </trkpt>
      <trkpt lat="41.65796" lon="26.53434">
        <ele>81.354065</ele>
        <time>2022-02-26T07:01:42.260Z</time>
      </trkpt>
      <trkpt lat="41.65791" lon="26.53421">
        <ele>81.202589</ele>
        <time>2022-02-26T07:01:46.245Z</time>
      </trkpt>
      <trkpt lat="41.65787" lon="26.53408">
        <ele>81.045989</ele>
        <time>2022-02-26T07:01:49.263Z</time>
      </trkpt>
      <trkpt lat="41.65782" lon="26.53394">
        <ele>80.886661</ele>
        <time>2022-02-26T07:01:52.287Z</time>
      </trkpt>
      <trkpt lat="41.65778" lon="26.53382">
        <ele>80.749649</ele>
        <time>2022-02-26T07:01:55.271Z</time>
      </trkpt>
      <trkpt lat="41.65775" lon="26.5337">
        <ele>80.643403</ele>
        <time>2022-02-26T07:01:58.255Z</time>
      </trkpt>
      <trkpt lat="41.65773" lon="26.53354">
        <ele>80.522468</ele>
        <time>2022-02-26T07:02:02.266Z</time>
      </trkpt>
      <trkpt lat="41.65769" lon="26.5334">
        <ele>80.407519</ele>
        <time>2022-02-26T07:02:06.262Z</time>
      </trkpt>
      <trkpt lat="41.65766" lon="26.53328">
        <ele>80.312461</ele>
        <time>2022-02-26T07:02:09.306Z</time>
      </trkpt>
      <trkpt lat="41.65763" lon="26.53315">
        <ele>80.206236</ele>
        <time>2022-02-26T07:02:12.242Z</time>
      </trkpt>
      <trkpt lat="41.6576" lon="26.53301">
        <ele>80.090626</ele>
        <time>2022-02-26T07:02:15.248Z</time>
      </trkpt>
      <trkpt lat="41.65756" lon="26.53289">
        <ele>79.988358</ele>
        <time>2022-02-26T07:02:18.260Z</time>
      </trkpt>
      <trkpt lat="41.65753" lon="26.53277">
        <ele>79.892864</ele>
        <time>2022-02-26T07:02:21.260Z</time>
      </trkpt>
      <trkpt lat="41.6575" lon="26.53264">
        <ele>79.790885</ele>
        <time>2022-02-26T07:02:24.257Z</time>
      </trkpt>
      <trkpt lat="41.65747" lon="26.53252">
        <ele>79.693807</ele>
        <time>2022-02-26T07:02:27.241Z</time>
      </trkpt>
      <trkpt lat="41.65745" lon="26.5324">
        <ele>79.601763</ele>
        <time>2022-02-26T07:02:30.258Z</time>
      </trkpt>
      <trkpt lat="41.65743" lon="26.53228">
        <ele>79.499792</ele>
        <time>2022-02-26T07:02:34.247Z</time>
      </trkpt>
      <trkpt lat="41.65738" lon="26.53215">
        <ele>79.392872</ele>
        <time>2022-02-26T07:02:38.249Z</time>
      </trkpt>
      <trkpt lat="41.65734" lon="26.53204">
        <ele>79.299058</ele>
        <time>2022-02-26T07:02:41.263Z</time>
      </trkpt>
      <trkpt lat="41.6573" lon="26.5319">
        <ele>79.184823</ele>
        <time>2022-02-26T07:02:45.255Z</time>
      </trkpt>
      <trkpt lat="41.65726" lon="26.53175">
        <ele>79.057838</ele>
        <time>2022-02-26T07:02:49.261Z</time>
      </trkpt>
      <trkpt lat="41.65723" lon="26.53162">
        <ele>78.954478</ele>
        <time>2022-02-26T07:02:52.255Z</time>
      </trkpt>
      <trkpt lat="41.65719" lon="26.5315">
        <ele>78.858395</ele>
        <time>2022-02-26T07:02:55.252Z</time>
      </trkpt>
      <trkpt lat="41.65716" lon="26.53139">
        <ele>78.776008</ele>
        <time>2022-02-26T07:02:58.287Z</time>
      </trkpt>
      <trkpt lat="41.65713" lon="26.53125">
        <ele>78.683114</ele>
        <time>2022-02-26T07:03:01.255Z</time>
      </trkpt>
      <trkpt lat="41.65708" lon="26.53113">
        <ele>78.588893</ele>
        <time>2022-02-26T07:03:04.275Z</time>
      </trkpt>
      <trkpt lat="41.65705" lon="26.53101">
        <ele>78.502267</ele>
        <time>2022-02-26T07:03:07.245Z</time>
      </trkpt>
      <trkpt lat="41.65701" lon="26.53089">
        <ele>78.417679</ele>
        <time>2022-02-26T07:03:10.297Z</time>
      </trkpt>
      <trkpt lat="41.65698" lon="26.53077">
        <ele>78.334559</ele>
        <time>2022-02-26T07:03:13.260Z</time>
      </trkpt>
      <trkpt lat="41.65694" lon="26.53063">
        <ele>78.230778</ele>
        <time>2022-02-26T07:03:17.248Z</time>
      </trkpt>
      <trkpt lat="41.65691" lon="26.5305">
        <ele>78.140206</ele>
        <time>2022-02-26T07:03:20.237Z</time>
      </trkpt>
      <trkpt lat="41.65687" lon="26.53038">
        <ele>78.050267</ele>
        <time>2022-02-26T07:03:23.249Z</time>
      </trkpt>
      <trkpt lat="41.65681" lon="26.53028">
        <ele>77.961797</ele>
        <time>2022-02-26T07:03:26.283Z</time>
      </trkpt>
      <trkpt lat="41.65674" lon="26.53016">
        <ele>77.857989</ele>
        <time>2022-02-26T07:03:29.235Z</time>
      </trkpt>
      <trkpt lat="41.65669" lon="26.53001">
        <ele>77.75354</ele>
        <time>2022-02-26T07:03:32.247Z</time>
      </trkpt>
      <trkpt lat="41.65665" lon="26.52989">
        <ele>77.666914</ele>
        <time>2022-02-26T07:03:35.263Z</time>
      </trkpt>
      <trkpt lat="41.65661" lon="26.52975">
        <ele>77.563143</ele>
        <time>2022-02-26T07:03:39.263Z</time>
      </trkpt>
      <trkpt lat="41.65657" lon="26.52961">
        <ele>77.459361</ele>
        <time>2022-02-26T07:03:43.328Z</time>
      </trkpt>
      <trkpt lat="41.65654" lon="26.52946">
        <ele>77.357416</ele>
        <time>2022-02-26T07:03:47.273Z</time>
      </trkpt>
      <trkpt lat="41.6565" lon="26.52932">
        <ele>77.268536</ele>
        <time>2022-02-26T07:03:51.254Z</time>
      </trkpt>
      <trkpt lat="41.65647" lon="26.5292">
        <ele>77.389924</ele>
        <time>2022-02-26T07:03:55.269Z</time>
      </trkpt>
      <trkpt lat="41.65644" lon="26.52907">
        <ele>77.519206</ele>
        <time>2022-02-26T07:03:59.284Z</time>
      </trkpt>
      <trkpt lat="41.6564" lon="26.52895">
        <ele>77.640624</ele>
        <time>2022-02-26T07:04:03.269Z</time>
      </trkpt>
      <trkpt lat="41.65636" lon="26.52883">
        <ele>77.762911</ele>
        <time>2022-02-26T07:04:07.259Z</time>
      </trkpt>
      <trkpt lat="41.65633" lon="26.52871">
        <ele>77.884409</ele>
        <time>2022-02-26T07:04:11.296Z</time>
      </trkpt>
      <trkpt lat="41.6563" lon="26.52858">
        <ele>78.011557</ele>
        <time>2022-02-26T07:04:15.271Z</time>
      </trkpt>
      <trkpt lat="41.65626" lon="26.52844">
        <ele>78.155394</ele>
        <time>2022-02-26T07:04:19.267Z</time>
      </trkpt>
      <trkpt lat="41.65623" lon="26.52828">
        <ele>78.306663</ele>
        <time>2022-02-26T07:04:23.255Z</time>
      </trkpt>
      <trkpt lat="41.6562" lon="26.52816">
        <ele>78.42906</ele>
        <time>2022-02-26T07:04:26.242Z</time>
      </trkpt>
      <trkpt lat="41.65616" lon="26.52802">
        <ele>78.568948</ele>
        <time>2022-02-26T07:04:29.275Z</time>
      </trkpt>
      <trkpt lat="41.65613" lon="26.52786">
        <ele>78.726723</ele>
        <time>2022-02-26T07:04:32.279Z</time>
      </trkpt>
      <trkpt lat="41.65609" lon="26.52774">
        <ele>78.844975</ele>
        <time>2022-02-26T07:04:34.265Z</time>
      </trkpt>
      <trkpt lat="41.65606" lon="26.52762">
        <ele>78.964111</ele>
        <time>2022-02-26T07:04:36.279Z</time>
      </trkpt>
      <trkpt lat="41.65601" lon="26.52745">
        <ele>79.141489</ele>
        <time>2022-02-26T07:04:39.288Z</time>
      </trkpt>
      <trkpt lat="41.65598" lon="26.52733">
        <ele>79.258117</ele>
        <time>2022-02-26T07:04:41.837Z</time>
      </trkpt>
      <trkpt lat="41.65596" lon="26.5272">
        <ele>79.379438</ele>
        <time>2022-02-26T07:04:43.249Z</time>
      </trkpt>
      <trkpt lat="41.65593" lon="26.52709">
        <ele>79.495169</ele>
        <time>2022-02-26T07:04:45.260Z</time>
      </trkpt>
      <trkpt lat="41.65589" lon="26.52694">
        <ele>79.953527</ele>
        <time>2022-02-26T07:04:48.256Z</time>
      </trkpt>
      <trkpt lat="41.65585" lon="26.52679">
        <ele>80.479165</ele>
        <time>2022-02-26T07:04:51.249Z</time>
      </trkpt>
      <trkpt lat="41.65581" lon="26.52666">
        <ele>80.965547</ele>
        <time>2022-02-26T07:04:54.262Z</time>
      </trkpt>
      <trkpt lat="41.65575" lon="26.52655">
        <ele>81.451136</ele>
        <time>2022-02-26T07:04:58.238Z</time>
      </trkpt>
      <trkpt lat="41.65568" lon="26.52647">
        <ele>81.881418</ele>
        <time>2022-02-26T07:05:02.231Z</time>
      </trkpt>
      <trkpt lat="41.65559" lon="26.5264">
        <ele>82.3272</ele>
        <time>2022-02-26T07:05:07.245Z</time>
      </trkpt>
      <trkpt lat="41.65552" lon="26.52631">
        <ele>82.766225</ele>
        <time>2022-02-26T07:05:12.277Z</time>
      </trkpt>
      <trkpt lat="41.65546" lon="26.52623">
        <ele>83.181899</ele>
        <time>2022-02-26T07:05:16.276Z</time>
      </trkpt>
      <trkpt lat="41.6554" lon="26.52613">
        <ele>83.604948</ele>
        <time>2022-02-26T07:05:20.238Z</time>
      </trkpt>
      <trkpt lat="41.65532" lon="26.52604">
        <ele>84.094095</ele>
        <time>2022-02-26T07:05:24.278Z</time>
      </trkpt>
      <trkpt lat="41.65525" lon="26.52596">
        <ele>84.525012</ele>
        <time>2022-02-26T07:05:27.257Z</time>
      </trkpt>
      <trkpt lat="41.65518" lon="26.52585">
        <ele>84.987546</ele>
        <time>2022-02-26T07:05:30.272Z</time>
      </trkpt>
      <trkpt lat="41.65511" lon="26.52577">
        <ele>85.413037</ele>
        <time>2022-02-26T07:05:33.285Z</time>
      </trkpt>
      <trkpt lat="41.65503" lon="26.52567">
        <ele>85.935198</ele>
        <time>2022-02-26T07:05:37.264Z</time>
      </trkpt>
      <trkpt lat="41.65496" lon="26.52558">
        <ele>86.368409</ele>
        <time>2022-02-26T07:05:40.268Z</time>
      </trkpt>
      <trkpt lat="41.65488" lon="26.52549">
        <ele>86.837487</ele>
        <time>2022-02-26T07:05:43.288Z</time>
      </trkpt>
      <trkpt lat="41.6548" lon="26.5254">
        <ele>87.327917</ele>
        <time>2022-02-26T07:05:46.248Z</time>
      </trkpt>
      <trkpt lat="41.65472" lon="26.52532">
        <ele>87.786959</ele>
        <time>2022-02-26T07:05:49.252Z</time>
      </trkpt>
      <trkpt lat="41.65464" lon="26.52523">
        <ele>87.982283</ele>
        <time>2022-02-26T07:05:52.248Z</time>
      </trkpt>
      <trkpt lat="41.65457" lon="26.52516">
        <ele>88.169944</ele>
        <time>2022-02-26T07:05:55.242Z</time>
      </trkpt>
      <trkpt lat="41.65448" lon="26.52506">
        <ele>88.414441</ele>
        <time>2022-02-26T07:05:59.256Z</time>
      </trkpt>
      <trkpt lat="41.65441" lon="26.52496">
        <ele>88.623538</ele>
        <time>2022-02-26T07:06:02.272Z</time>
      </trkpt>
      <trkpt lat="41.65433" lon="26.52487">
        <ele>88.826419</ele>
        <time>2022-02-26T07:06:05.251Z</time>
      </trkpt>
      <trkpt lat="41.65425" lon="26.52478">
        <ele>89.048873</ele>
        <time>2022-02-26T07:06:08.273Z</time>
      </trkpt>
      <trkpt lat="41.65416" lon="26.52466">
        <ele>89.31394</ele>
        <time>2022-02-26T07:06:11.261Z</time>
      </trkpt>
      <trkpt lat="41.65407" lon="26.52456">
        <ele>89.546425</ele>
        <time>2022-02-26T07:06:14.288Z</time>
      </trkpt>
      <trkpt lat="41.65399" lon="26.52448">
        <ele>89.750386</ele>
        <time>2022-02-26T07:06:17.274Z</time>
      </trkpt>
      <trkpt lat="41.65391" lon="26.52439">
        <ele>89.962956</ele>
        <time>2022-02-26T07:06:20.263Z</time>
      </trkpt>
      <trkpt lat="41.65383" lon="26.52431">
        <ele>90.182267</ele>
        <time>2022-02-26T07:06:23.234Z</time>
      </trkpt>
      <trkpt lat="41.65374" lon="26.52421">
        <ele>90.411783</ele>
        <time>2022-02-26T07:06:26.264Z</time>
      </trkpt>
      <trkpt lat="41.65365" lon="26.52411">
        <ele>90.65949</ele>
        <time>2022-02-26T07:06:29.244Z</time>
      </trkpt>
      <trkpt lat="41.65357" lon="26.52401">
        <ele>90.875784</ele>
        <time>2022-02-26T07:06:32.277Z</time>
      </trkpt>
      <trkpt lat="41.65349" lon="26.52392">
        <ele>91.092506</ele>
        <time>2022-02-26T07:06:35.265Z</time>
      </trkpt>
      <trkpt lat="41.65342" lon="26.52381">
        <ele>91.302076</ele>
        <time>2022-02-26T07:06:38.253Z</time>
      </trkpt>
      <trkpt lat="41.65335" lon="26.52373">
        <ele>91.475061</ele>
        <time>2022-02-26T07:06:41.259Z</time>
      </trkpt>
      <trkpt lat="41.65328" lon="26.52363">
        <ele>91.545292</ele>
        <time>2022-02-26T07:06:45.261Z</time>
      </trkpt>
      <trkpt lat="41.6532" lon="26.52352">
        <ele>91.623911</ele>
        <time>2022-02-26T07:06:49.245Z</time>
      </trkpt>
      <trkpt lat="41.65313" lon="26.52343">
        <ele>91.689628</ele>
        <time>2022-02-26T07:06:52.259Z</time>
      </trkpt>
      <trkpt lat="41.65305" lon="26.52332">
        <ele>91.769101</ele>
        <time>2022-02-26T07:06:56.280Z</time>
      </trkpt>
      <trkpt lat="41.65297" lon="26.5232">
        <ele>91.851758</ele>
        <time>2022-02-26T07:07:00.235Z</time>
      </trkpt>
      <trkpt lat="41.65288" lon="26.52311">
        <ele>91.929944</ele>
        <time>2022-02-26T07:07:04.257Z</time>
      </trkpt>
      <trkpt lat="41.65278" lon="26.52304">
        <ele>92.005601</ele>
        <time>2022-02-26T07:07:08.251Z</time>
      </trkpt>
      <trkpt lat="41.6527" lon="26.52296">
        <ele>92.075579</ele>
        <time>2022-02-26T07:07:12.257Z</time>
      </trkpt>
      <trkpt lat="41.65262" lon="26.52286">
        <ele>92.14993</ele>
        <time>2022-02-26T07:07:16.287Z</time>
      </trkpt>
      <trkpt lat="41.65256" lon="26.52277">
        <ele>92.218375</ele>
        <time>2022-02-26T07:07:20.242Z</time>
      </trkpt>
      <trkpt lat="41.65247" lon="26.52268">
        <ele>92.290075</ele>
        <time>2022-02-26T07:07:24.254Z</time>
      </trkpt>
      <trkpt lat="41.65239" lon="26.5226">
        <ele>92.361527</ele>
        <time>2022-02-26T07:07:28.259Z</time>
      </trkpt>
      <trkpt lat="41.65231" lon="26.52249">
        <ele>92.436749</ele>
        <time>2022-02-26T07:07:32.249Z</time>
      </trkpt>
      <trkpt lat="41.65227" lon="26.52238">
        <ele>92.504096</ele>
        <time>2022-02-26T07:07:37.260Z</time>
      </trkpt>
      <trkpt lat="41.6522" lon="26.5223">
        <ele>92.568302</ele>
        <time>2022-02-26T07:07:42.250Z</time>
      </trkpt>
      <trkpt lat="41.65212" lon="26.52221">
        <ele>92.63537</ele>
        <time>2022-02-26T07:07:47.257Z</time>
      </trkpt>
      <trkpt lat="41.65199" lon="26.52227">
        <ele>92.639316</ele>
        <time>2022-02-26T07:14:46.308Z</time>
      </trkpt>
      <trkpt lat="41.65205" lon="26.52236">
        <ele>92.523693</ele>
        <time>2022-02-26T07:14:52.247Z</time>
      </trkpt>
      <trkpt lat="41.65214" lon="26.5224">
        <ele>92.404258</ele>
        <time>2022-02-26T07:14:57.282Z</time>
      </trkpt>
      <trkpt lat="41.65223" lon="26.52242">
        <ele>92.28432</ele>
        <time>2022-02-26T07:15:03.269Z</time>
      </trkpt>
      <trkpt lat="41.65232" lon="26.52246">
        <ele>92.166434</ele>
        <time>2022-02-26T07:15:09.252Z</time>
      </trkpt>
      <trkpt lat="41.65237" lon="26.52235">
        <ele>92.045535</ele>
        <time>2022-02-26T07:15:16.246Z</time>
      </trkpt>
      <trkpt lat="41.65242" lon="26.52223">
        <ele>91.915036</ele>
        <time>2022-02-26T07:15:21.247Z</time>
      </trkpt>
      <trkpt lat="41.65249" lon="26.5221">
        <ele>91.764342</ele>
        <time>2022-02-26T07:15:25.257Z</time>
      </trkpt>
      <trkpt lat="41.65253" lon="26.52199">
        <ele>91.647085</ele>
        <time>2022-02-26T07:15:28.254Z</time>
      </trkpt>
      <trkpt lat="41.65258" lon="26.52189">
        <ele>91.530742</ele>
        <time>2022-02-26T07:15:31.302Z</time>
      </trkpt>
      <trkpt lat="41.65262" lon="26.52175">
        <ele>91.391515</ele>
        <time>2022-02-26T07:15:35.262Z</time>
      </trkpt>
      <trkpt lat="41.65266" lon="26.52162">
        <ele>91.257472</ele>
        <time>2022-02-26T07:15:39.264Z</time>
      </trkpt>
      <trkpt lat="41.65271" lon="26.52151">
        <ele>91.13319</ele>
        <time>2022-02-26T07:15:43.258Z</time>
      </trkpt>
      <trkpt lat="41.65277" lon="26.52139">
        <ele>90.997147</ele>
        <time>2022-02-26T07:15:47.269Z</time>
      </trkpt>
      <trkpt lat="41.65282" lon="26.52128">
        <ele>90.875612</ele>
        <time>2022-02-26T07:15:50.244Z</time>
      </trkpt>
      <trkpt lat="41.65287" lon="26.52115">
        <ele>90.736117</ele>
        <time>2022-02-26T07:15:53.264Z</time>
      </trkpt>
      <trkpt lat="41.65295" lon="26.52102">
        <ele>90.581968</ele>
        <time>2022-02-26T07:15:56.248Z</time>
      </trkpt>
      <trkpt lat="41.653" lon="26.52091">
        <ele>90.446718</ele>
        <time>2022-02-26T07:15:59.257Z</time>
      </trkpt>
      <trkpt lat="41.65306" lon="26.52079">
        <ele>90.302761</ele>
        <time>2022-02-26T07:16:02.279Z</time>
      </trkpt>
      <trkpt lat="41.65312" lon="26.52067">
        <ele>90.152366</ele>
        <time>2022-02-26T07:16:05.291Z</time>
      </trkpt>
      <trkpt lat="41.65317" lon="26.52055">
        <ele>90.019564</ele>
        <time>2022-02-26T07:16:08.239Z</time>
      </trkpt>
      <trkpt lat="41.65322" lon="26.52043">
        <ele>89.873114</ele>
        <time>2022-02-26T07:16:11.253Z</time>
      </trkpt>
      <trkpt lat="41.65327" lon="26.52031">
        <ele>89.726265</ele>
        <time>2022-02-26T07:16:14.256Z</time>
      </trkpt>
      <trkpt lat="41.65332" lon="26.5202">
        <ele>89.59386</ele>
        <time>2022-02-26T07:16:17.260Z</time>
      </trkpt>
      <trkpt lat="41.65338" lon="26.52009">
        <ele>89.449855</ele>
        <time>2022-02-26T07:16:20.246Z</time>
      </trkpt>
      <trkpt lat="41.65344" lon="26.51997">
        <ele>89.300848</ele>
        <time>2022-02-26T07:16:23.271Z</time>
      </trkpt>
      <trkpt lat="41.6535" lon="26.51985">
        <ele>89.151008</ele>
        <time>2022-02-26T07:16:26.253Z</time>
      </trkpt>
      <trkpt lat="41.65355" lon="26.51972">
        <ele>89.005251</ele>
        <time>2022-02-26T07:16:29.260Z</time>
      </trkpt>
      <trkpt lat="41.65361" lon="26.51962">
        <ele>88.86705</ele>
        <time>2022-02-26T07:16:32.260Z</time>
      </trkpt>
      <trkpt lat="41.65367" lon="26.51949">
        <ele>88.709657</ele>
        <time>2022-02-26T07:16:35.246Z</time>
      </trkpt>
      <trkpt lat="41.65374" lon="26.51938">
        <ele>88.558154</ele>
        <time>2022-02-26T07:16:38.268Z</time>
      </trkpt>
      <trkpt lat="41.65381" lon="26.51926">
        <ele>88.405767</ele>
        <time>2022-02-26T07:16:41.250Z</time>
      </trkpt>
      <trkpt lat="41.65388" lon="26.51915">
        <ele>88.252353</ele>
        <time>2022-02-26T07:16:44.295Z</time>
      </trkpt>
      <trkpt lat="41.65394" lon="26.51903">
        <ele>88.105755</ele>
        <time>2022-02-26T07:16:47.259Z</time>
      </trkpt>
      <trkpt lat="41.65399" lon="26.51892">
        <ele>87.966709</ele>
        <time>2022-02-26T07:16:50.244Z</time>
      </trkpt>
      <trkpt lat="41.65405" lon="26.51882">
        <ele>87.673813</ele>
        <time>2022-02-26T07:16:53.298Z</time>
      </trkpt>
      <trkpt lat="41.65411" lon="26.51871">
        <ele>87.207982</ele>
        <time>2022-02-26T07:16:56.290Z</time>
      </trkpt>
      <trkpt lat="41.65416" lon="26.51858">
        <ele>86.725825</ele>
        <time>2022-02-26T07:16:59.244Z</time>
      </trkpt>
      <trkpt lat="41.65421" lon="26.51846">
        <ele>86.269499</ele>
        <time>2022-02-26T07:17:02.276Z</time>
      </trkpt>
      <trkpt lat="41.65426" lon="26.51834">
        <ele>85.81429</ele>
        <time>2022-02-26T07:17:05.258Z</time>
      </trkpt>
      <trkpt lat="41.6543" lon="26.51822">
        <ele>85.386964</ele>
        <time>2022-02-26T07:17:08.258Z</time>
      </trkpt>
      <trkpt lat="41.65434" lon="26.5181">
        <ele>84.926244</ele>
        <time>2022-02-26T07:17:11.260Z</time>
      </trkpt>
      <trkpt lat="41.65435" lon="26.51797">
        <ele>84.490294</ele>
        <time>2022-02-26T07:17:14.259Z</time>
      </trkpt>
      <trkpt lat="41.65432" lon="26.51783">
        <ele>83.999176</ele>
        <time>2022-02-26T07:17:17.259Z</time>
      </trkpt>
      <trkpt lat="41.65426" lon="26.51771">
        <ele>83.516695</ele>
        <time>2022-02-26T07:17:20.231Z</time>
      </trkpt>
      <trkpt lat="41.6542" lon="26.51759">
        <ele>83.054627</ele>
        <time>2022-02-26T07:17:23.275Z</time>
      </trkpt>
      <trkpt lat="41.65417" lon="26.51747">
        <ele>82.607082</ele>
        <time>2022-02-26T07:17:26.257Z</time>
      </trkpt>
      <trkpt lat="41.65415" lon="26.51734">
        <ele>82.168868</ele>
        <time>2022-02-26T07:17:29.245Z</time>
      </trkpt>
      <trkpt lat="41.65415" lon="26.51721">
        <ele>81.73467</ele>
        <time>2022-02-26T07:17:32.272Z</time>
      </trkpt>
      <trkpt lat="41.65417" lon="26.51708">
        <ele>81.287269</ele>
        <time>2022-02-26T07:17:35.256Z</time>
      </trkpt>
      <trkpt lat="41.65419" lon="26.51696">
        <ele>80.885107</ele>
        <time>2022-02-26T07:17:38.272Z</time>
      </trkpt>
      <trkpt lat="41.65421" lon="26.5168">
        <ele>80.354982</ele>
        <time>2022-02-26T07:17:42.283Z</time>
      </trkpt>
      <trkpt lat="41.65422" lon="26.51668">
        <ele>79.937453</ele>
        <time>2022-02-26T07:17:45.301Z</time>
      </trkpt>
      <trkpt lat="41.65424" lon="26.51655">
        <ele>79.595879</ele>
        <time>2022-02-26T07:17:48.304Z</time>
      </trkpt>
      <trkpt lat="41.65425" lon="26.51641">
        <ele>79.254514</ele>
        <time>2022-02-26T07:17:51.251Z</time>
      </trkpt>
      <trkpt lat="41.65425" lon="26.51625">
        <ele>78.877824</ele>
        <time>2022-02-26T07:17:54.251Z</time>
      </trkpt>
      <trkpt lat="41.65425" lon="26.5161">
        <ele>78.491363</ele>
        <time>2022-02-26T07:17:57.253Z</time>
      </trkpt>
      <trkpt lat="41.65424" lon="26.51595">
        <ele>78.139286</ele>
        <time>2022-02-26T07:18:00.257Z</time>
      </trkpt>
      <trkpt lat="41.65424" lon="26.51582">
        <ele>77.80927</ele>
        <time>2022-02-26T07:18:03.259Z</time>
      </trkpt>
      <trkpt lat="41.65423" lon="26.51569">
        <ele>77.484588</ele>
        <time>2022-02-26T07:18:06.253Z</time>
      </trkpt>
      <trkpt lat="41.65423" lon="26.51556">
        <ele>77.181463</ele>
        <time>2022-02-26T07:18:09.265Z</time>
      </trkpt>
      <trkpt lat="41.65424" lon="26.51544">
        <ele>76.884516</ele>
        <time>2022-02-26T07:18:12.299Z</time>
      </trkpt>
      <trkpt lat="41.65424" lon="26.51531">
        <ele>76.564128</ele>
        <time>2022-02-26T07:18:15.317Z</time>
      </trkpt>
      <trkpt lat="41.65426" lon="26.51518">
        <ele>76.243893</ele>
        <time>2022-02-26T07:18:18.273Z</time>
      </trkpt>
      <trkpt lat="41.6543" lon="26.51505">
        <ele>75.895635</ele>
        <time>2022-02-26T07:18:21.266Z</time>
      </trkpt>
      <trkpt lat="41.65433" lon="26.51491">
        <ele>75.538096</ele>
        <time>2022-02-26T07:18:24.242Z</time>
      </trkpt>
      <trkpt lat="41.65436" lon="26.51477">
        <ele>75.179232</ele>
        <time>2022-02-26T07:18:27.237Z</time>
      </trkpt>
      <trkpt lat="41.65437" lon="26.51463">
        <ele>74.841741</ele>
        <time>2022-02-26T07:18:30.262Z</time>
      </trkpt>
      <trkpt lat="41.65434" lon="26.5145">
        <ele>74.507043</ele>
        <time>2022-02-26T07:18:33.256Z</time>
      </trkpt>
      <trkpt lat="41.65434" lon="26.51437">
        <ele>74.208162</ele>
        <time>2022-02-26T07:18:36.249Z</time>
      </trkpt>
      <trkpt lat="41.65434" lon="26.51424">
        <ele>73.962581</ele>
        <time>2022-02-26T07:18:39.262Z</time>
      </trkpt>
      <trkpt lat="41.6544" lon="26.51412">
        <ele>73.895923</ele>
        <time>2022-02-26T07:18:42.259Z</time>
      </trkpt>
      <trkpt lat="41.65444" lon="26.514">
        <ele>73.837343</ele>
        <time>2022-02-26T07:18:45.274Z</time>
      </trkpt>
      <trkpt lat="41.65449" lon="26.51388">
        <ele>73.77223</ele>
        <time>2022-02-26T07:18:48.267Z</time>
      </trkpt>
      <trkpt lat="41.65455" lon="26.51376">
        <ele>73.703284</ele>
        <time>2022-02-26T07:18:51.267Z</time>
      </trkpt>
      <trkpt lat="41.6546" lon="26.51362">
        <ele>73.632686</ele>
        <time>2022-02-26T07:18:54.270Z</time>
      </trkpt>
      <trkpt lat="41.65466" lon="26.5135">
        <ele>73.565169</ele>
        <time>2022-02-26T07:18:57.274Z</time>
      </trkpt>
      <trkpt lat="41.65471" lon="26.51337">
        <ele>73.498858</ele>
        <time>2022-02-26T07:19:00.279Z</time>
      </trkpt>
      <trkpt lat="41.65475" lon="26.51325">
        <ele>73.434727</ele>
        <time>2022-02-26T07:19:03.264Z</time>
      </trkpt>
      <trkpt lat="41.6548" lon="26.51311">
        <ele>73.366341</ele>
        <time>2022-02-26T07:19:06.271Z</time>
      </trkpt>
      <trkpt lat="41.65486" lon="26.51298">
        <ele>73.293728</ele>
        <time>2022-02-26T07:19:09.252Z</time>
      </trkpt>
      <trkpt lat="41.65491" lon="26.51284">
        <ele>73.220325</ele>
        <time>2022-02-26T07:19:12.270Z</time>
      </trkpt>
      <trkpt lat="41.65497" lon="26.51269">
        <ele>73.142779</ele>
        <time>2022-02-26T07:19:15.266Z</time>
      </trkpt>
      <trkpt lat="41.65502" lon="26.51255">
        <ele>73.067889</ele>
        <time>2022-02-26T07:19:18.303Z</time>
      </trkpt>
      <trkpt lat="41.65508" lon="26.51243">
        <ele>73.002577</ele>
        <time>2022-02-26T07:19:21.281Z</time>
      </trkpt>
      <trkpt lat="41.65512" lon="26.51232">
        <ele>72.945714</ele>
        <time>2022-02-26T07:19:25.308Z</time>
      </trkpt>
      <trkpt lat="41.65517" lon="26.51219">
        <ele>72.880513</ele>
        <time>2022-02-26T07:19:29.251Z</time>
      </trkpt>
      <trkpt lat="41.65522" lon="26.51206">
        <ele>73.052817</ele>
        <time>2022-02-26T07:19:33.263Z</time>
      </trkpt>
      <trkpt lat="41.65528" lon="26.51191">
        <ele>73.308078</ele>
        <time>2022-02-26T07:19:37.305Z</time>
      </trkpt>
      <trkpt lat="41.65532" lon="26.5118">
        <ele>73.506715</ele>
        <time>2022-02-26T07:19:40.260Z</time>
      </trkpt>
      <trkpt lat="41.65536" lon="26.51169">
        <ele>73.702579</ele>
        <time>2022-02-26T07:19:43.276Z</time>
      </trkpt>
      <trkpt lat="41.6554" lon="26.51157">
        <ele>73.907753</ele>
        <time>2022-02-26T07:19:46.254Z</time>
      </trkpt>
      <trkpt lat="41.65545" lon="26.51146">
        <ele>74.101816</ele>
        <time>2022-02-26T07:19:49.266Z</time>
      </trkpt>
      <trkpt lat="41.65547" lon="26.51133">
        <ele>74.306571</ele>
        <time>2022-02-26T07:19:53.257Z</time>
      </trkpt>
      <trkpt lat="41.65551" lon="26.51121">
        <ele>74.520151</ele>
        <time>2022-02-26T07:19:57.289Z</time>
      </trkpt>
      <trkpt lat="41.65556" lon="26.51109">
        <ele>74.732641</ele>
        <time>2022-02-26T07:20:00.255Z</time>
      </trkpt>
      <trkpt lat="41.65562" lon="26.51094">
        <ele>74.991265</ele>
        <time>2022-02-26T07:20:03.285Z</time>
      </trkpt>
      <trkpt lat="41.65566" lon="26.51081">
        <ele>75.215163</ele>
        <time>2022-02-26T07:20:06.293Z</time>
      </trkpt>
      <trkpt lat="41.65571" lon="26.51069">
        <ele>75.430745</ele>
        <time>2022-02-26T07:20:09.263Z</time>
      </trkpt>
      <trkpt lat="41.65576" lon="26.51057">
        <ele>75.657239</ele>
        <time>2022-02-26T07:20:12.266Z</time>
      </trkpt>
      <trkpt lat="41.6558" lon="26.51045">
        <ele>75.860783</ele>
        <time>2022-02-26T07:20:15.266Z</time>
      </trkpt>
      <trkpt lat="41.65586" lon="26.51034">
        <ele>76.071616</ele>
        <time>2022-02-26T07:20:18.275Z</time>
      </trkpt>
      <trkpt lat="41.65591" lon="26.51023">
        <ele>76.270243</ele>
        <time>2022-02-26T07:20:21.255Z</time>
      </trkpt>
      <trkpt lat="41.65597" lon="26.51009">
        <ele>76.515623</ele>
        <time>2022-02-26T07:20:24.276Z</time>
      </trkpt>
      <trkpt lat="41.65603" lon="26.50995">
        <ele>76.633398</ele>
        <time>2022-02-26T07:20:27.251Z</time>
      </trkpt>
      <trkpt lat="41.65609" lon="26.50983">
        <ele>76.629824</ele>
        <time>2022-02-26T07:20:30.277Z</time>
      </trkpt>
      <trkpt lat="41.65614" lon="26.50971">
        <ele>76.626435</ele>
        <time>2022-02-26T07:20:33.292Z</time>
      </trkpt>
      <trkpt lat="41.65618" lon="26.50959">
        <ele>76.623178</ele>
        <time>2022-02-26T07:20:36.250Z</time>
      </trkpt>
      <trkpt lat="41.65622" lon="26.50947">
        <ele>76.620066</ele>
        <time>2022-02-26T07:20:39.270Z</time>
      </trkpt>
      <trkpt lat="41.65625" lon="26.50935">
        <ele>76.616905</ele>
        <time>2022-02-26T07:20:42.277Z</time>
      </trkpt>
      <trkpt lat="41.6563" lon="26.50921">
        <ele>76.61305</ele>
        <time>2022-02-26T07:20:46.271Z</time>
      </trkpt>
      <trkpt lat="41.65635" lon="26.50906">
        <ele>76.609186</ele>
        <time>2022-02-26T07:20:50.263Z</time>
      </trkpt>
      <trkpt lat="41.65639" lon="26.50895">
        <ele>76.606082</ele>
        <time>2022-02-26T07:20:53.269Z</time>
      </trkpt>
      <trkpt lat="41.65643" lon="26.50884">
        <ele>76.603032</ele>
        <time>2022-02-26T07:20:56.241Z</time>
      </trkpt>
      <trkpt lat="41.65648" lon="26.50874">
        <ele>76.600081</ele>
        <time>2022-02-26T07:20:59.269Z</time>
      </trkpt>
      <trkpt lat="41.65652" lon="26.50859">
        <ele>76.596207</ele>
        <time>2022-02-26T07:21:03.273Z</time>
      </trkpt>
      <trkpt lat="41.65655" lon="26.50847">
        <ele>76.593146</ele>
        <time>2022-02-26T07:21:06.270Z</time>
      </trkpt>
      <trkpt lat="41.65659" lon="26.50835">
        <ele>76.589979</ele>
        <time>2022-02-26T07:21:09.263Z</time>
      </trkpt>
      <trkpt lat="41.65665" lon="26.50823">
        <ele>76.586526</ele>
        <time>2022-02-26T07:21:12.301Z</time>
      </trkpt>
      <trkpt lat="41.6567" lon="26.50812">
        <ele>76.583216</ele>
        <time>2022-02-26T07:21:15.287Z</time>
      </trkpt>
      <trkpt lat="41.65675" lon="26.50801">
        <ele>76.580141</ele>
        <time>2022-02-26T07:21:18.276Z</time>
      </trkpt>
      <trkpt lat="41.65679" lon="26.5079">
        <ele>76.57706</ele>
        <time>2022-02-26T07:21:21.312Z</time>
      </trkpt>
      <trkpt lat="41.65684" lon="26.50777">
        <ele>76.526761</ele>
        <time>2022-02-26T07:21:25.255Z</time>
      </trkpt>
      <trkpt lat="41.65689" lon="26.50763">
        <ele>76.468464</ele>
        <time>2022-02-26T07:21:30.294Z</time>
      </trkpt>
      <trkpt lat="41.65691" lon="26.50751">
        <ele>76.417637</ele>
        <time>2022-02-26T07:21:34.253Z</time>
      </trkpt>
      <trkpt lat="41.65695" lon="26.5074">
        <ele>76.368835</ele>
        <time>2022-02-26T07:21:38.263Z</time>
      </trkpt>
      <trkpt lat="41.65699" lon="26.50728">
        <ele>76.317228</ele>
        <time>2022-02-26T07:21:42.273Z</time>
      </trkpt>
      <trkpt lat="41.65704" lon="26.50716">
        <ele>76.264062</ele>
        <time>2022-02-26T07:21:46.286Z</time>
      </trkpt>
      <trkpt lat="41.65708" lon="26.50702">
        <ele>76.205744</ele>
        <time>2022-02-26T07:21:50.273Z</time>
      </trkpt>
      <trkpt lat="41.65712" lon="26.50691">
        <ele>76.157794</ele>
        <time>2022-02-26T07:21:53.271Z</time>
      </trkpt>
      <trkpt lat="41.65717" lon="26.5068">
        <ele>76.10796</ele>
        <time>2022-02-26T07:21:56.251Z</time>
      </trkpt>
      <trkpt lat="41.65721" lon="26.50669">
        <ele>76.06001</ele>
        <time>2022-02-26T07:21:59.306Z</time>
      </trkpt>
      <trkpt lat="41.65724" lon="26.50658">
        <ele>76.012036</ele>
        <time>2022-02-26T07:22:02.252Z</time>
      </trkpt>
      <trkpt lat="41.65728" lon="26.50644">
        <ele>75.955222</ele>
        <time>2022-02-26T07:22:06.306Z</time>
      </trkpt>
      <trkpt lat="41.65732" lon="26.5063">
        <ele>75.896929</ele>
        <time>2022-02-26T07:22:10.271Z</time>
      </trkpt>
      <trkpt lat="41.65735" lon="26.50616">
        <ele>75.83858</ele>
        <time>2022-02-26T07:22:14.269Z</time>
      </trkpt>
      <trkpt lat="41.65739" lon="26.50602">
        <ele>75.778983</ele>
        <time>2022-02-26T07:22:18.277Z</time>
      </trkpt>
      <trkpt lat="41.65742" lon="26.50588">
        <ele>75.722804</ele>
        <time>2022-02-26T07:22:22.275Z</time>
      </trkpt>
      <trkpt lat="41.65744" lon="26.50576">
        <ele>75.671939</ele>
        <time>2022-02-26T07:22:26.259Z</time>
      </trkpt>
      <trkpt lat="41.65747" lon="26.50564">
        <ele>75.612686</ele>
        <time>2022-02-26T07:22:30.297Z</time>
      </trkpt>
      <trkpt lat="41.6575" lon="26.50553">
        <ele>75.446861</ele>
        <time>2022-02-26T07:22:34.269Z</time>
      </trkpt>
      <trkpt lat="41.65752" lon="26.50541">
        <ele>75.280603</ele>
        <time>2022-02-26T07:22:38.272Z</time>
      </trkpt>
      <trkpt lat="41.65755" lon="26.50529">
        <ele>75.107274</ele>
        <time>2022-02-26T07:22:42.261Z</time>
      </trkpt>
      <trkpt lat="41.65758" lon="26.50516">
        <ele>74.922929</ele>
        <time>2022-02-26T07:22:46.274Z</time>
      </trkpt>
      <trkpt lat="41.65761" lon="26.50503">
        <ele>74.743089</ele>
        <time>2022-02-26T07:22:50.265Z</time>
      </trkpt>
      <trkpt lat="41.65764" lon="26.50489">
        <ele>74.53669</ele>
        <time>2022-02-26T07:22:54.280Z</time>
      </trkpt>
      <trkpt lat="41.65767" lon="26.50474">
        <ele>74.323565</ele>
        <time>2022-02-26T07:22:58.276Z</time>
      </trkpt>
      <trkpt lat="41.65771" lon="26.5046">
        <ele>74.11854</ele>
        <time>2022-02-26T07:23:02.284Z</time>
      </trkpt>
      <trkpt lat="41.65775" lon="26.50446">
        <ele>73.920124</ele>
        <time>2022-02-26T07:23:06.264Z</time>
      </trkpt>
      <trkpt lat="41.65778" lon="26.50434">
        <ele>73.744721</ele>
        <time>2022-02-26T07:23:10.270Z</time>
      </trkpt>
      <trkpt lat="41.65783" lon="26.50422">
        <ele>73.563719</ele>
        <time>2022-02-26T07:23:15.326Z</time>
      </trkpt>
      <trkpt lat="41.65788" lon="26.5041">
        <ele>73.366702</ele>
        <time>2022-02-26T07:23:19.255Z</time>
      </trkpt>
      <trkpt lat="41.65792" lon="26.50395">
        <ele>73.152292</ele>
        <time>2022-02-26T07:23:23.274Z</time>
      </trkpt>
      <trkpt lat="41.65795" lon="26.50383">
        <ele>72.978215</ele>
        <time>2022-02-26T07:23:26.292Z</time>
      </trkpt>
      <trkpt lat="41.65799" lon="26.50369">
        <ele>72.772432</ele>
        <time>2022-02-26T07:23:30.280Z</time>
      </trkpt>
      <trkpt lat="41.65802" lon="26.50355">
        <ele>72.577072</ele>
        <time>2022-02-26T07:23:34.325Z</time>
      </trkpt>
      <trkpt lat="41.65805" lon="26.50341">
        <ele>72.372784</ele>
        <time>2022-02-26T07:23:38.288Z</time>
      </trkpt>
      <trkpt lat="41.65808" lon="26.50326">
        <ele>72.45129</ele>
        <time>2022-02-26T07:23:42.301Z</time>
      </trkpt>
      <trkpt lat="41.65811" lon="26.50312">
        <ele>72.581801</ele>
        <time>2022-02-26T07:23:46.270Z</time>
      </trkpt>
      <trkpt lat="41.65814" lon="26.50297">
        <ele>72.709238</ele>
        <time>2022-02-26T07:23:50.253Z</time>
      </trkpt>
      <trkpt lat="41.65816" lon="26.50283">
        <ele>72.834416</ele>
        <time>2022-02-26T07:23:54.272Z</time>
      </trkpt>
      <trkpt lat="41.65819" lon="26.5027">
        <ele>72.953142</ele>
        <time>2022-02-26T07:23:58.254Z</time>
      </trkpt>
      <trkpt lat="41.65821" lon="26.50258">
        <ele>73.062915</ele>
        <time>2022-02-26T07:24:02.266Z</time>
      </trkpt>
      <trkpt lat="41.65825" lon="26.50245">
        <ele>73.182405</ele>
        <time>2022-02-26T07:24:07.277Z</time>
      </trkpt>
      <trkpt lat="41.65828" lon="26.50233">
        <ele>73.295499</ele>
        <time>2022-02-26T07:24:11.260Z</time>
      </trkpt>
      <trkpt lat="41.65832" lon="26.50219">
        <ele>73.418296</ele>
        <time>2022-02-26T07:24:15.260Z</time>
      </trkpt>
      <trkpt lat="41.65836" lon="26.50206">
        <ele>73.545103</ele>
        <time>2022-02-26T07:24:19.248Z</time>
      </trkpt>
      <trkpt lat="41.6584" lon="26.50193">
        <ele>73.668602</ele>
        <time>2022-02-26T07:24:23.277Z</time>
      </trkpt>
      <trkpt lat="41.65844" lon="26.5018">
        <ele>73.788118</ele>
        <time>2022-02-26T07:24:27.271Z</time>
      </trkpt>
      <trkpt lat="41.65845" lon="26.50165">
        <ele>73.92286</ele>
        <time>2022-02-26T07:24:31.254Z</time>
      </trkpt>
      <trkpt lat="41.65846" lon="26.5015">
        <ele>74.055899</ele>
        <time>2022-02-26T07:24:35.265Z</time>
      </trkpt>
      <trkpt lat="41.6585" lon="26.50135">
        <ele>74.189208</ele>
        <time>2022-02-26T07:24:39.282Z</time>
      </trkpt>
      <trkpt lat="41.65856" lon="26.50121">
        <ele>74.325693</ele>
        <time>2022-02-26T07:24:43.259Z</time>
      </trkpt>
      <trkpt lat="41.65861" lon="26.5011">
        <ele>74.44724</ele>
        <time>2022-02-26T07:24:46.291Z</time>
      </trkpt>
      <trkpt lat="41.65864" lon="26.50099">
        <ele>74.757373</ele>
        <time>2022-02-26T07:24:49.266Z</time>
      </trkpt>
      <trkpt lat="41.65869" lon="26.50085">
        <ele>75.130953</ele>
        <time>2022-02-26T07:24:53.284Z</time>
      </trkpt>
      <trkpt lat="41.65872" lon="26.50072">
        <ele>75.467134</ele>
        <time>2022-02-26T07:24:57.272Z</time>
      </trkpt>
      <trkpt lat="41.65873" lon="26.50058">
        <ele>75.807544</ele>
        <time>2022-02-26T07:25:01.266Z</time>
      </trkpt>
      <trkpt lat="41.65871" lon="26.50045">
        <ele>76.123839</ele>
        <time>2022-02-26T07:25:04.269Z</time>
      </trkpt>
      <trkpt lat="41.65867" lon="26.50032">
        <ele>76.470351</ele>
        <time>2022-02-26T07:25:07.258Z</time>
      </trkpt>
      <trkpt lat="41.65863" lon="26.50019">
        <ele>76.820377</ele>
        <time>2022-02-26T07:25:10.268Z</time>
      </trkpt>
      <trkpt lat="41.65859" lon="26.50005">
        <ele>77.185098</ele>
        <time>2022-02-26T07:25:13.273Z</time>
      </trkpt>
      <trkpt lat="41.65855" lon="26.49991">
        <ele>77.555569</ele>
        <time>2022-02-26T07:25:16.267Z</time>
      </trkpt>
      <trkpt lat="41.65851" lon="26.49976">
        <ele>77.942109</ele>
        <time>2022-02-26T07:25:19.282Z</time>
      </trkpt>
      <trkpt lat="41.65846" lon="26.49962">
        <ele>78.317276</ele>
        <time>2022-02-26T07:25:22.287Z</time>
      </trkpt>
      <trkpt lat="41.65842" lon="26.49948">
        <ele>78.685645</ele>
        <time>2022-02-26T07:25:25.286Z</time>
      </trkpt>
      <trkpt lat="41.65837" lon="26.49934">
        <ele>79.069222</ele>
        <time>2022-02-26T07:25:28.271Z</time>
      </trkpt>
      <trkpt lat="41.65832" lon="26.4992">
        <ele>79.445036</ele>
        <time>2022-02-26T07:25:31.295Z</time>
      </trkpt>
      <trkpt lat="41.65828" lon="26.49906">
        <ele>79.822714</ele>
        <time>2022-02-26T07:25:34.278Z</time>
      </trkpt>
      <trkpt lat="41.65823" lon="26.49891">
        <ele>80.207483</ele>
        <time>2022-02-26T07:25:37.252Z</time>
      </trkpt>
      <trkpt lat="41.65819" lon="26.49877">
        <ele>80.348844</ele>
        <time>2022-02-26T07:25:40.245Z</time>
      </trkpt>
      <trkpt lat="41.65814" lon="26.49863">
        <ele>80.385209</ele>
        <time>2022-02-26T07:25:43.269Z</time>
      </trkpt>
      <trkpt lat="41.6581" lon="26.4985">
        <ele>80.419532</ele>
        <time>2022-02-26T07:25:46.276Z</time>
      </trkpt>
      <trkpt lat="41.65806" lon="26.49836">
        <ele>80.456122</ele>
        <time>2022-02-26T07:25:49.316Z</time>
      </trkpt>
      <trkpt lat="41.65802" lon="26.49823">
        <ele>80.491754</ele>
        <time>2022-02-26T07:25:52.258Z</time>
      </trkpt>
      <trkpt lat="41.65798" lon="26.49809">
        <ele>80.526633</ele>
        <time>2022-02-26T07:25:55.258Z</time>
      </trkpt>
      <trkpt lat="41.65794" lon="26.49796">
        <ele>80.560984</ele>
        <time>2022-02-26T07:25:58.267Z</time>
      </trkpt>
      <trkpt lat="41.6579" lon="26.49783">
        <ele>80.596885</ele>
        <time>2022-02-26T07:26:01.283Z</time>
      </trkpt>
      <trkpt lat="41.65785" lon="26.49769">
        <ele>80.632702</ele>
        <time>2022-02-26T07:26:04.257Z</time>
      </trkpt>
      <trkpt lat="41.65781" lon="26.49756">
        <ele>80.667012</ele>
        <time>2022-02-26T07:26:07.258Z</time>
      </trkpt>
      <trkpt lat="41.65777" lon="26.49744">
        <ele>80.698854</ele>
        <time>2022-02-26T07:26:10.254Z</time>
      </trkpt>
      <trkpt lat="41.65773" lon="26.49733">
        <ele>80.73006</ele>
        <time>2022-02-26T07:26:13.261Z</time>
      </trkpt>
      <trkpt lat="41.65768" lon="26.49721">
        <ele>80.763287</ele>
        <time>2022-02-26T07:26:16.268Z</time>
      </trkpt>
      <trkpt lat="41.65761" lon="26.49708">
        <ele>80.799816</ele>
        <time>2022-02-26T07:26:19.266Z</time>
      </trkpt>
      <trkpt lat="41.65754" lon="26.49696">
        <ele>80.837901</ele>
        <time>2022-02-26T07:26:22.261Z</time>
      </trkpt>
      <trkpt lat="41.65747" lon="26.49683">
        <ele>80.8756</ele>
        <time>2022-02-26T07:26:25.247Z</time>
      </trkpt>
      <trkpt lat="41.65741" lon="26.49671">
        <ele>80.878606</ele>
        <time>2022-02-26T07:26:28.262Z</time>
      </trkpt>
      <trkpt lat="41.65734" lon="26.49658">
        <ele>80.659495</ele>
        <time>2022-02-26T07:26:31.265Z</time>
      </trkpt>
      <trkpt lat="41.65727" lon="26.49645">
        <ele>80.436016</ele>
        <time>2022-02-26T07:26:34.300Z</time>
      </trkpt>
      <trkpt lat="41.65719" lon="26.49635">
        <ele>80.23347</ele>
        <time>2022-02-26T07:26:37.276Z</time>
      </trkpt>
      <trkpt lat="41.65711" lon="26.49624">
        <ele>80.032196</ele>
        <time>2022-02-26T07:26:40.317Z</time>
      </trkpt>
      <trkpt lat="41.65704" lon="26.49613">
        <ele>79.82411</ele>
        <time>2022-02-26T07:26:43.269Z</time>
      </trkpt>
      <trkpt lat="41.65696" lon="26.49602">
        <ele>79.616534</ele>
        <time>2022-02-26T07:26:46.261Z</time>
      </trkpt>
      <trkpt lat="41.65688" lon="26.49591">
        <ele>79.406695</ele>
        <time>2022-02-26T07:26:49.261Z</time>
      </trkpt>
      <trkpt lat="41.65681" lon="26.49579">
        <ele>79.186363</ele>
        <time>2022-02-26T07:26:52.279Z</time>
      </trkpt>
      <trkpt lat="41.65673" lon="26.49566">
        <ele>78.966407</ele>
        <time>2022-02-26T07:26:55.269Z</time>
      </trkpt>
      <trkpt lat="41.65665" lon="26.49555">
        <ele>78.752476</ele>
        <time>2022-02-26T07:26:58.281Z</time>
      </trkpt>
      <trkpt lat="41.65658" lon="26.49543">
        <ele>78.549036</ele>
        <time>2022-02-26T07:27:01.279Z</time>
      </trkpt>
      <trkpt lat="41.65651" lon="26.49532">
        <ele>78.343531</ele>
        <time>2022-02-26T07:27:04.268Z</time>
      </trkpt>
      <trkpt lat="41.65644" lon="26.4952">
        <ele>78.131132</ele>
        <time>2022-02-26T07:27:07.283Z</time>
      </trkpt>
      <trkpt lat="41.65637" lon="26.49508">
        <ele>77.922927</ele>
        <time>2022-02-26T07:27:10.280Z</time>
      </trkpt>
      <trkpt lat="41.6563" lon="26.49497">
        <ele>77.727343</ele>
        <time>2022-02-26T07:27:13.301Z</time>
      </trkpt>
      <trkpt lat="41.65622" lon="26.49486">
        <ele>77.683968</ele>
        <time>2022-02-26T07:27:16.270Z</time>
      </trkpt>
      <trkpt lat="41.65615" lon="26.49475">
        <ele>77.965495</ele>
        <time>2022-02-26T07:27:19.278Z</time>
      </trkpt>
      <trkpt lat="41.65607" lon="26.49463">
        <ele>78.251434</ele>
        <time>2022-02-26T07:27:22.246Z</time>
      </trkpt>
      <trkpt lat="41.65601" lon="26.4945">
        <ele>78.537087</ele>
        <time>2022-02-26T07:27:25.273Z</time>
      </trkpt>
      <trkpt lat="41.65595" lon="26.49437">
        <ele>78.808398</ele>
        <time>2022-02-26T07:27:28.257Z</time>
      </trkpt>
      <trkpt lat="41.6559" lon="26.49424">
        <ele>79.073356</ele>
        <time>2022-02-26T07:27:31.261Z</time>
      </trkpt>
      <trkpt lat="41.65586" lon="26.49412">
        <ele>79.340456</ele>
        <time>2022-02-26T07:27:34.262Z</time>
      </trkpt>
      <trkpt lat="41.65581" lon="26.49399">
        <ele>79.597807</ele>
        <time>2022-02-26T07:27:37.308Z</time>
      </trkpt>
      <trkpt lat="41.65577" lon="26.49387">
        <ele>79.845403</ele>
        <time>2022-02-26T07:27:40.266Z</time>
      </trkpt>
      <trkpt lat="41.65572" lon="26.49374">
        <ele>80.109469</ele>
        <time>2022-02-26T07:27:43.300Z</time>
      </trkpt>
      <trkpt lat="41.65568" lon="26.49362">
        <ele>80.363463</ele>
        <time>2022-02-26T07:27:46.249Z</time>
      </trkpt>
      <trkpt lat="41.65563" lon="26.49348">
        <ele>80.629583</ele>
        <time>2022-02-26T07:27:49.239Z</time>
      </trkpt>
      <trkpt lat="41.65558" lon="26.49334">
        <ele>80.925945</ele>
        <time>2022-02-26T07:27:52.271Z</time>
      </trkpt>
      <trkpt lat="41.65552" lon="26.49321">
        <ele>81.212703</ele>
        <time>2022-02-26T07:27:55.270Z</time>
      </trkpt>
      <trkpt lat="41.65546" lon="26.49307">
        <ele>81.509065</ele>
        <time>2022-02-26T07:27:58.250Z</time>
      </trkpt>
      <trkpt lat="41.65541" lon="26.49293">
        <ele>81.788828</ele>
        <time>2022-02-26T07:28:01.273Z</time>
      </trkpt>
      <trkpt lat="41.65536" lon="26.4928">
        <ele>82.033964</ele>
        <time>2022-02-26T07:28:04.258Z</time>
      </trkpt>
      <trkpt lat="41.65531" lon="26.49268">
        <ele>82.059528</ele>
        <time>2022-02-26T07:28:07.308Z</time>
      </trkpt>
      <trkpt lat="41.65526" lon="26.49256">
        <ele>82.085051</ele>
        <time>2022-02-26T07:28:10.261Z</time>
      </trkpt>
      <trkpt lat="41.65521" lon="26.49244">
        <ele>82.110574</ele>
        <time>2022-02-26T07:28:13.241Z</time>
      </trkpt>
      <trkpt lat="41.65516" lon="26.49231">
        <ele>82.136184</ele>
        <time>2022-02-26T07:28:16.283Z</time>
      </trkpt>
      <trkpt lat="41.65511" lon="26.49219">
        <ele>82.161794</ele>
        <time>2022-02-26T07:28:19.268Z</time>
      </trkpt>
      <trkpt lat="41.65506" lon="26.49208">
        <ele>82.184928</ele>
        <time>2022-02-26T07:28:22.281Z</time>
      </trkpt>
      <trkpt lat="41.65501" lon="26.49195">
        <ele>82.21119</ele>
        <time>2022-02-26T07:28:26.289Z</time>
      </trkpt>
      <trkpt lat="41.65498" lon="26.49184">
        <ele>82.233647</ele>
        <time>2022-02-26T07:28:30.267Z</time>
      </trkpt>
      <trkpt lat="41.65495" lon="26.49169">
        <ele>82.260889</ele>
        <time>2022-02-26T07:28:34.265Z</time>
      </trkpt>
      <trkpt lat="41.65497" lon="26.49155">
        <ele>82.285953</ele>
        <time>2022-02-26T07:28:38.265Z</time>
      </trkpt>
      <trkpt lat="41.65499" lon="26.49142">
        <ele>82.310755</ele>
        <time>2022-02-26T07:28:42.260Z</time>
      </trkpt>
      <trkpt lat="41.65499" lon="26.49128">
        <ele>82.336685</ele>
        <time>2022-02-26T07:28:46.279Z</time>
      </trkpt>
      <trkpt lat="41.65497" lon="26.49115">
        <ele>82.361003</ele>
        <time>2022-02-26T07:28:49.270Z</time>
      </trkpt>
      <trkpt lat="41.65495" lon="26.491">
        <ele>82.388171</ele>
        <time>2022-02-26T07:28:53.277Z</time>
      </trkpt>
      <trkpt lat="41.6549" lon="26.49087">
        <ele>82.415467</ele>
        <time>2022-02-26T07:28:57.260Z</time>
      </trkpt>
      <trkpt lat="41.65484" lon="26.49077">
        <ele>82.439456</ele>
        <time>2022-02-26T07:29:01.276Z</time>
      </trkpt>
      <trkpt lat="41.65474" lon="26.49072">
        <ele>82.464542</ele>
        <time>2022-02-26T07:29:06.247Z</time>
      </trkpt>
      <trkpt lat="41.65464" lon="26.49073">
        <ele>82.35445</ele>
        <time>2022-02-26T07:29:12.280Z</time>
      </trkpt>
      <trkpt lat="41.65455" lon="26.49074">
        <ele>82.214468</ele>
        <time>2022-02-26T07:29:19.264Z</time>
      </trkpt>
      <trkpt lat="41.65444" lon="26.49077">
        <ele>82.043702</ele>
        <time>2022-02-26T07:29:44.261Z</time>
      </trkpt>
      <trkpt lat="41.65434" lon="26.49079">
        <ele>81.89515</ele>
        <time>2022-02-26T07:29:51.270Z</time>
      </trkpt>
      <trkpt lat="41.6543" lon="26.49068">
        <ele>81.752913</ele>
        <time>2022-02-26T07:29:58.279Z</time>
      </trkpt>
      <trkpt lat="41.65428" lon="26.49041">
        <ele>81.442343</ele>
        <time>2022-02-26T07:33:38.279Z</time>
      </trkpt>
      <trkpt lat="41.65431" lon="26.49028">
        <ele>81.294643</ele>
        <time>2022-02-26T07:33:45.248Z</time>
      </trkpt>
      <trkpt lat="41.65429" lon="26.49015">
        <ele>81.139728</ele>
        <time>2022-02-26T07:33:49.277Z</time>
      </trkpt>
      <trkpt lat="41.65424" lon="26.49002">
        <ele>80.981659</ele>
        <time>2022-02-26T07:33:53.302Z</time>
      </trkpt>
      <trkpt lat="41.65421" lon="26.4899">
        <ele>80.828592</ele>
        <time>2022-02-26T07:33:57.247Z</time>
      </trkpt>
      <trkpt lat="41.65418" lon="26.48975">
        <ele>80.657946</ele>
        <time>2022-02-26T07:34:01.279Z</time>
      </trkpt>
      <trkpt lat="41.65415" lon="26.48962">
        <ele>80.501787</ele>
        <time>2022-02-26T07:34:05.271Z</time>
      </trkpt>
      <trkpt lat="41.65412" lon="26.48949">
        <ele>80.347876</ele>
        <time>2022-02-26T07:34:08.279Z</time>
      </trkpt>
      <trkpt lat="41.65407" lon="26.48935">
        <ele>80.174684</ele>
        <time>2022-02-26T07:34:11.263Z</time>
      </trkpt>
      <trkpt lat="41.65403" lon="26.4892">
        <ele>79.99837</ele>
        <time>2022-02-26T07:34:14.278Z</time>
      </trkpt>
      <trkpt lat="41.65399" lon="26.48907">
        <ele>79.836421</ele>
        <time>2022-02-26T07:34:17.282Z</time>
      </trkpt>
      <trkpt lat="41.65396" lon="26.48895">
        <ele>79.766347</ele>
        <time>2022-02-26T07:34:20.309Z</time>
      </trkpt>
      <trkpt lat="41.65392" lon="26.48881">
        <ele>79.806249</ele>
        <time>2022-02-26T07:34:24.254Z</time>
      </trkpt>
      <trkpt lat="41.65389" lon="26.48868">
        <ele>79.844716</ele>
        <time>2022-02-26T07:34:28.249Z</time>
      </trkpt>
      <trkpt lat="41.65385" lon="26.48853">
        <ele>79.887497</ele>
        <time>2022-02-26T07:34:33.271Z</time>
      </trkpt>
      <trkpt lat="41.65381" lon="26.48841">
        <ele>79.924067</ele>
        <time>2022-02-26T07:34:37.263Z</time>
      </trkpt>
      <trkpt lat="41.65377" lon="26.48828">
        <ele>79.963147</ele>
        <time>2022-02-26T07:34:41.284Z</time>
      </trkpt>
      <trkpt lat="41.65373" lon="26.48815">
        <ele>80.000714</ele>
        <time>2022-02-26T07:34:45.243Z</time>
      </trkpt>
      <trkpt lat="41.65369" lon="26.48801">
        <ele>80.043621</ele>
        <time>2022-02-26T07:34:50.259Z</time>
      </trkpt>
      <trkpt lat="41.65364" lon="26.48789">
        <ele>80.08089</ele>
        <time>2022-02-26T07:34:53.264Z</time>
      </trkpt>
      <trkpt lat="41.65358" lon="26.48777">
        <ele>80.121056</ele>
        <time>2022-02-26T07:34:58.304Z</time>
      </trkpt>
      <trkpt lat="41.65353" lon="26.48763">
        <ele>80.164232</ele>
        <time>2022-02-26T07:35:02.280Z</time>
      </trkpt>
      <trkpt lat="41.65347" lon="26.48749">
        <ele>80.206672</ele>
        <time>2022-02-26T07:35:06.262Z</time>
      </trkpt>
      <trkpt lat="41.65343" lon="26.48739">
        <ele>80.240331</ele>
        <time>2022-02-26T07:35:09.261Z</time>
      </trkpt>
      <trkpt lat="41.65338" lon="26.48728">
        <ele>80.274064</ele>
        <time>2022-02-26T07:35:12.288Z</time>
      </trkpt>
      <trkpt lat="41.65331" lon="26.48716">
        <ele>80.316237</ele>
        <time>2022-02-26T07:35:16.281Z</time>
      </trkpt>
      <trkpt lat="41.65323" lon="26.48706">
        <ele>80.355286</ele>
        <time>2022-02-26T07:35:20.277Z</time>
      </trkpt>
      <trkpt lat="41.65317" lon="26.48698">
        <ele>80.389139</ele>
        <time>2022-02-26T07:35:23.267Z</time>
      </trkpt>
      <trkpt lat="41.65308" lon="26.48687">
        <ele>80.488326</ele>
        <time>2022-02-26T07:35:27.270Z</time>
      </trkpt>
      <trkpt lat="41.65299" lon="26.48676">
        <ele>80.675013</ele>
        <time>2022-02-26T07:35:31.269Z</time>
      </trkpt>
      <trkpt lat="41.65292" lon="26.48667">
        <ele>80.816059</ele>
        <time>2022-02-26T07:35:34.268Z</time>
      </trkpt>
      <trkpt lat="41.65286" lon="26.48659">
        <ele>80.958004</ele>
        <time>2022-02-26T07:35:37.271Z</time>
      </trkpt>
      <trkpt lat="41.65278" lon="26.48647">
        <ele>81.136733</ele>
        <time>2022-02-26T07:35:41.271Z</time>
      </trkpt>
      <trkpt lat="41.6527" lon="26.48636">
        <ele>81.306313</ele>
        <time>2022-02-26T07:35:45.280Z</time>
      </trkpt>
      <trkpt lat="41.65262" lon="26.48625">
        <ele>81.485049</ele>
        <time>2022-02-26T07:35:49.332Z</time>
      </trkpt>
      <trkpt lat="41.65254" lon="26.48613">
        <ele>81.667206</ele>
        <time>2022-02-26T07:35:53.272Z</time>
      </trkpt>
      <trkpt lat="41.65247" lon="26.48604">
        <ele>81.822848</ele>
        <time>2022-02-26T07:35:56.263Z</time>
      </trkpt>
      <trkpt lat="41.65239" lon="26.48595">
        <ele>81.981114</ele>
        <time>2022-02-26T07:35:59.280Z</time>
      </trkpt>
      <trkpt lat="41.65231" lon="26.48585">
        <ele>82.141619</ele>
        <time>2022-02-26T07:36:02.279Z</time>
      </trkpt>
      <trkpt lat="41.65223" lon="26.48576">
        <ele>82.302506</ele>
        <time>2022-02-26T07:36:05.269Z</time>
      </trkpt>
      <trkpt lat="41.65216" lon="26.48566">
        <ele>82.46401</ele>
        <time>2022-02-26T07:36:08.251Z</time>
      </trkpt>
      <trkpt lat="41.65209" lon="26.48556">
        <ele>82.612916</ele>
        <time>2022-02-26T07:36:11.301Z</time>
      </trkpt>
      <trkpt lat="41.65203" lon="26.48545">
        <ele>82.775487</ele>
        <time>2022-02-26T07:36:14.260Z</time>
      </trkpt>
      <trkpt lat="41.65196" lon="26.48535">
        <ele>82.920272</ele>
        <time>2022-02-26T07:36:17.279Z</time>
      </trkpt>
      <trkpt lat="41.65188" lon="26.48527">
        <ele>83.075392</ele>
        <time>2022-02-26T07:36:20.279Z</time>
      </trkpt>
      <trkpt lat="41.6518" lon="26.48517">
        <ele>83.212836</ele>
        <time>2022-02-26T07:36:23.271Z</time>
      </trkpt>
      <trkpt lat="41.65172" lon="26.48506">
        <ele>83.325871</ele>
        <time>2022-02-26T07:36:26.266Z</time>
      </trkpt>
      <trkpt lat="41.65165" lon="26.48494">
        <ele>83.433535</ele>
        <time>2022-02-26T07:36:29.268Z</time>
      </trkpt>
      <trkpt lat="41.65158" lon="26.48483">
        <ele>83.536223</ele>
        <time>2022-02-26T07:36:32.270Z</time>
      </trkpt>
      <trkpt lat="41.6515" lon="26.48473">
        <ele>83.641643</ele>
        <time>2022-02-26T07:36:35.269Z</time>
      </trkpt>
      <trkpt lat="41.65142" lon="26.48462">
        <ele>83.749444</ele>
        <time>2022-02-26T07:36:38.277Z</time>
      </trkpt>
      <trkpt lat="41.65134" lon="26.48451">
        <ele>83.85844</ele>
        <time>2022-02-26T07:36:41.272Z</time>
      </trkpt>
      <trkpt lat="41.65127" lon="26.48439">
        <ele>83.969482</ele>
        <time>2022-02-26T07:36:44.285Z</time>
      </trkpt>
      <trkpt lat="41.6512" lon="26.48428">
        <ele>84.073882</ele>
        <time>2022-02-26T07:36:47.263Z</time>
      </trkpt>
      <trkpt lat="41.65113" lon="26.48418">
        <ele>84.171252</ele>
        <time>2022-02-26T07:36:50.266Z</time>
      </trkpt>
      <trkpt lat="41.65106" lon="26.48408">
        <ele>84.271062</ele>
        <time>2022-02-26T07:36:53.271Z</time>
      </trkpt>
      <trkpt lat="41.65098" lon="26.48399">
        <ele>84.370447</ele>
        <time>2022-02-26T07:36:56.282Z</time>
      </trkpt>
      <trkpt lat="41.65092" lon="26.48389">
        <ele>84.462134</ele>
        <time>2022-02-26T07:36:59.264Z</time>
      </trkpt>
      <trkpt lat="41.65086" lon="26.48378">
        <ele>84.560512</ele>
        <time>2022-02-26T07:37:02.276Z</time>
      </trkpt>
      <trkpt lat="41.65081" lon="26.48366">
        <ele>84.660671</ele>
        <time>2022-02-26T07:37:05.271Z</time>
      </trkpt>
      <trkpt lat="41.65074" lon="26.48356">
        <ele>84.761013</ele>
        <time>2022-02-26T07:37:08.268Z</time>
      </trkpt>
      <trkpt lat="41.65067" lon="26.48344">
        <ele>84.864016</ele>
        <time>2022-02-26T07:37:11.280Z</time>
      </trkpt>
      <trkpt lat="41.65059" lon="26.48333">
        <ele>84.826022</ele>
        <time>2022-02-26T07:37:14.259Z</time>
      </trkpt>
      <trkpt lat="41.65052" lon="26.48322">
        <ele>84.751016</ele>
        <time>2022-02-26T07:37:17.266Z</time>
      </trkpt>
      <trkpt lat="41.65046" lon="26.4831">
        <ele>84.676493</ele>
        <time>2022-02-26T07:37:20.288Z</time>
      </trkpt>
      <trkpt lat="41.6504" lon="26.483">
        <ele>84.610241</ele>
        <time>2022-02-26T07:37:23.267Z</time>
      </trkpt>
      <trkpt lat="41.65035" lon="26.48291">
        <ele>84.547178</ele>
        <time>2022-02-26T07:37:26.263Z</time>
      </trkpt>
      <trkpt lat="41.65029" lon="26.48282">
        <ele>84.484835</ele>
        <time>2022-02-26T07:37:29.267Z</time>
      </trkpt>
      <trkpt lat="41.65023" lon="26.48271">
        <ele>84.416845</ele>
        <time>2022-02-26T07:37:32.266Z</time>
      </trkpt>
      <trkpt lat="41.65016" lon="26.4826">
        <ele>84.341725</ele>
        <time>2022-02-26T07:37:35.307Z</time>
      </trkpt>
      <trkpt lat="41.65009" lon="26.48249">
        <ele>84.269171</ele>
        <time>2022-02-26T07:37:38.270Z</time>
      </trkpt>
      <trkpt lat="41.65001" lon="26.48239">
        <ele>84.197561</ele>
        <time>2022-02-26T07:37:41.271Z</time>
      </trkpt>
      <trkpt lat="41.64994" lon="26.48231">
        <ele>84.131727</ele>
        <time>2022-02-26T07:37:44.257Z</time>
      </trkpt>
      <trkpt lat="41.64986" lon="26.4822">
        <ele>84.05375</ele>
        <time>2022-02-26T07:37:48.265Z</time>
      </trkpt>
      <trkpt lat="41.64986" lon="26.48208">
        <ele>83.990551</ele>
        <time>2022-02-26T07:37:52.303Z</time>
      </trkpt>
      <trkpt lat="41.64987" lon="26.48194">
        <ele>83.915765</ele>
        <time>2022-02-26T07:37:57.268Z</time>
      </trkpt>
      <trkpt lat="41.64983" lon="26.48181">
        <ele>83.84428</ele>
        <time>2022-02-26T07:38:02.269Z</time>
      </trkpt>
      <trkpt lat="41.6498" lon="26.48168">
        <ele>83.772096</ele>
        <time>2022-02-26T07:45:15.270Z</time>
      </trkpt>
      <trkpt lat="41.64974" lon="26.48158">
        <ele>83.7083</ele>
        <time>2022-02-26T07:45:23.288Z</time>
      </trkpt>
      <trkpt lat="41.64959" lon="26.48152">
        <ele>83.986228</ele>
        <time>2022-02-26T07:48:40.277Z</time>
      </trkpt>
      <trkpt lat="41.6495" lon="26.48146">
        <ele>84.503434</ele>
        <time>2022-02-26T07:48:44.268Z</time>
      </trkpt>
      <trkpt lat="41.64943" lon="26.48138">
        <ele>84.975253</ele>
        <time>2022-02-26T07:48:48.283Z</time>
      </trkpt>
      <trkpt lat="41.64935" lon="26.48127">
        <ele>85.532424</ele>
        <time>2022-02-26T07:48:52.276Z</time>
      </trkpt>
      <trkpt lat="41.64928" lon="26.48119">
        <ele>85.983301</ele>
        <time>2022-02-26T07:48:55.314Z</time>
      </trkpt>
      <trkpt lat="41.64922" lon="26.4811">
        <ele>86.429675</ele>
        <time>2022-02-26T07:48:58.282Z</time>
      </trkpt>
      <trkpt lat="41.64916" lon="26.481">
        <ele>86.916541</ele>
        <time>2022-02-26T07:49:01.284Z</time>
      </trkpt>
      <trkpt lat="41.6491" lon="26.48091">
        <ele>87.364559</ele>
        <time>2022-02-26T07:49:04.288Z</time>
      </trkpt>
      <trkpt lat="41.64903" lon="26.48082">
        <ele>87.825135</ele>
        <time>2022-02-26T07:49:07.279Z</time>
      </trkpt>
      <trkpt lat="41.64896" lon="26.48071">
        <ele>88.373507</ele>
        <time>2022-02-26T07:49:11.257Z</time>
      </trkpt>
      <trkpt lat="41.64889" lon="26.4806">
        <ele>88.907001</ele>
        <time>2022-02-26T07:49:15.296Z</time>
      </trkpt>
      <trkpt lat="41.64882" lon="26.48047">
        <ele>89.512318</ele>
        <time>2022-02-26T07:49:19.271Z</time>
      </trkpt>
      <trkpt lat="41.64876" lon="26.48037">
        <ele>89.995823</ele>
        <time>2022-02-26T07:49:22.273Z</time>
      </trkpt>
      <trkpt lat="41.6487" lon="26.48027">
        <ele>90.467575</ele>
        <time>2022-02-26T07:49:25.283Z</time>
      </trkpt>
      <trkpt lat="41.64863" lon="26.48016">
        <ele>90.971731</ele>
        <time>2022-02-26T07:49:28.328Z</time>
      </trkpt>
      <trkpt lat="41.64857" lon="26.48007">
        <ele>91.443009</ele>
        <time>2022-02-26T07:49:31.271Z</time>
      </trkpt>
      <trkpt lat="41.64851" lon="26.47997">
        <ele>91.90303</ele>
        <time>2022-02-26T07:49:34.265Z</time>
      </trkpt>
      <trkpt lat="41.64844" lon="26.47987">
        <ele>92.408426</ele>
        <time>2022-02-26T07:49:37.280Z</time>
      </trkpt>
      <trkpt lat="41.64838" lon="26.47977">
        <ele>92.537984</ele>
        <time>2022-02-26T07:49:40.309Z</time>
      </trkpt>
      <trkpt lat="41.64833" lon="26.47968">
        <ele>92.509646</ele>
        <time>2022-02-26T07:49:43.290Z</time>
      </trkpt>
      <trkpt lat="41.64827" lon="26.47958">
        <ele>92.480134</ele>
        <time>2022-02-26T07:49:46.278Z</time>
      </trkpt>
      <trkpt lat="41.64821" lon="26.47948">
        <ele>92.45105</ele>
        <time>2022-02-26T07:49:49.251Z</time>
      </trkpt>
      <trkpt lat="41.64814" lon="26.47939">
        <ele>92.420191</ele>
        <time>2022-02-26T07:49:52.264Z</time>
      </trkpt>
      <trkpt lat="41.64807" lon="26.47929">
        <ele>92.388101</ele>
        <time>2022-02-26T07:49:55.266Z</time>
      </trkpt>
      <trkpt lat="41.64799" lon="26.4792">
        <ele>92.355695</ele>
        <time>2022-02-26T07:49:58.274Z</time>
      </trkpt>
      <trkpt lat="41.64791" lon="26.47911">
        <ele>92.324588</ele>
        <time>2022-02-26T07:50:01.279Z</time>
      </trkpt>
      <trkpt lat="41.64786" lon="26.47898">
        <ele>92.28766</ele>
        <time>2022-02-26T07:50:05.267Z</time>
      </trkpt>
      <trkpt lat="41.6478" lon="26.47886">
        <ele>92.256444</ele>
        <time>2022-02-26T07:50:08.300Z</time>
      </trkpt>
      <trkpt lat="41.64772" lon="26.47876">
        <ele>92.221357</ele>
        <time>2022-02-26T07:50:11.268Z</time>
      </trkpt>
      <trkpt lat="41.64766" lon="26.47865">
        <ele>92.189462</ele>
        <time>2022-02-26T07:50:14.314Z</time>
      </trkpt>
      <trkpt lat="41.64759" lon="26.47854">
        <ele>92.154739</ele>
        <time>2022-02-26T07:50:17.260Z</time>
      </trkpt>
      <trkpt lat="41.64754" lon="26.47842">
        <ele>92.121732</ele>
        <time>2022-02-26T07:50:20.273Z</time>
      </trkpt>
      <trkpt lat="41.64747" lon="26.4783">
        <ele>92.086796</ele>
        <time>2022-02-26T07:50:23.279Z</time>
      </trkpt>
      <trkpt lat="41.6474" lon="26.4782">
        <ele>92.053764</ele>
        <time>2022-02-26T07:50:26.272Z</time>
      </trkpt>
      <trkpt lat="41.64733" lon="26.47809">
        <ele>92.022054</ele>
        <time>2022-02-26T07:50:29.265Z</time>
      </trkpt>
      <trkpt lat="41.64729" lon="26.47798">
        <ele>92.003631</ele>
        <time>2022-02-26T07:50:32.300Z</time>
      </trkpt>
      <trkpt lat="41.64723" lon="26.47788">
        <ele>92.129248</ele>
        <time>2022-02-26T07:50:35.279Z</time>
      </trkpt>
      <trkpt lat="41.64714" lon="26.47779">
        <ele>92.282904</ele>
        <time>2022-02-26T07:50:38.272Z</time>
      </trkpt>
      <trkpt lat="41.64705" lon="26.47769">
        <ele>92.444258</ele>
        <time>2022-02-26T07:50:41.289Z</time>
      </trkpt>
      <trkpt lat="41.64695" lon="26.47761">
        <ele>92.598691</ele>
        <time>2022-02-26T07:50:44.267Z</time>
      </trkpt>
      <trkpt lat="41.64687" lon="26.47752">
        <ele>92.749565</ele>
        <time>2022-02-26T07:50:47.270Z</time>
      </trkpt>
      <trkpt lat="41.64681" lon="26.47742">
        <ele>92.875901</ele>
        <time>2022-02-26T07:50:50.271Z</time>
      </trkpt>
      <trkpt lat="41.64678" lon="26.47731">
        <ele>93.00317</ele>
        <time>2022-02-26T07:50:53.299Z</time>
      </trkpt>
      <trkpt lat="41.64671" lon="26.4772">
        <ele>93.139661</ele>
        <time>2022-02-26T07:50:56.253Z</time>
      </trkpt>
      <trkpt lat="41.64664" lon="26.4771">
        <ele>93.283611</ele>
        <time>2022-02-26T07:50:59.300Z</time>
      </trkpt>
      <trkpt lat="41.64659" lon="26.47699">
        <ele>93.418631</ele>
        <time>2022-02-26T07:51:02.259Z</time>
      </trkpt>
      <trkpt lat="41.64653" lon="26.47689">
        <ele>93.55602</ele>
        <time>2022-02-26T07:51:05.272Z</time>
      </trkpt>
      <trkpt lat="41.64647" lon="26.47677">
        <ele>93.695626</ele>
        <time>2022-02-26T07:51:08.263Z</time>
      </trkpt>
      <trkpt lat="41.64641" lon="26.47666">
        <ele>93.840834</ele>
        <time>2022-02-26T07:51:11.269Z</time>
      </trkpt>
      <trkpt lat="41.64634" lon="26.47655">
        <ele>93.981939</ele>
        <time>2022-02-26T07:51:14.273Z</time>
      </trkpt>
      <trkpt lat="41.64629" lon="26.47644">
        <ele>94.11901</ele>
        <time>2022-02-26T07:51:17.272Z</time>
      </trkpt>
      <trkpt lat="41.64621" lon="26.47632">
        <ele>94.281099</ele>
        <time>2022-02-26T07:51:20.279Z</time>
      </trkpt>
      <trkpt lat="41.64614" lon="26.4762">
        <ele>94.435375</ele>
        <time>2022-02-26T07:51:23.261Z</time>
      </trkpt>
      <trkpt lat="41.64608" lon="26.47609">
        <ele>94.681201</ele>
        <time>2022-02-26T07:51:26.288Z</time>
      </trkpt>
      <trkpt lat="41.64602" lon="26.47596">
        <ele>94.988544</ele>
        <time>2022-02-26T07:51:30.272Z</time>
      </trkpt>
      <trkpt lat="41.64597" lon="26.47582">
        <ele>95.290465</ele>
        <time>2022-02-26T07:51:34.256Z</time>
      </trkpt>
      <trkpt lat="41.64595" lon="26.47567">
        <ele>95.595988</ele>
        <time>2022-02-26T07:51:38.290Z</time>
      </trkpt>
      <trkpt lat="41.64596" lon="26.47551">
        <ele>95.901957</ele>
        <time>2022-02-26T07:51:41.273Z</time>
      </trkpt>
      <trkpt lat="41.64599" lon="26.47536">
        <ele>96.223073</ele>
        <time>2022-02-26T07:51:44.267Z</time>
      </trkpt>
      <trkpt lat="41.64607" lon="26.47528">
        <ele>96.489116</ele>
        <time>2022-02-26T07:51:48.259Z</time>
      </trkpt>
      <trkpt lat="41.64617" lon="26.47528">
        <ele>96.756212</ele>
        <time>2022-02-26T07:51:51.269Z</time>
      </trkpt>
      <trkpt lat="41.64628" lon="26.47528">
        <ele>97.041873</ele>
        <time>2022-02-26T07:51:54.259Z</time>
      </trkpt>
      <trkpt lat="41.64639" lon="26.47527">
        <ele>97.325269</ele>
        <time>2022-02-26T07:51:57.308Z</time>
      </trkpt>
      <trkpt lat="41.6465" lon="26.47525">
        <ele>97.631937</ele>
        <time>2022-02-26T07:52:00.274Z</time>
      </trkpt>
      <trkpt lat="41.64662" lon="26.4752">
        <ele>97.940062</ele>
        <time>2022-02-26T07:52:03.277Z</time>
      </trkpt>
      <trkpt lat="41.64672" lon="26.47514">
        <ele>98.243557</ele>
        <time>2022-02-26T07:52:06.272Z</time>
      </trkpt>
      <trkpt lat="41.64684" lon="26.47507">
        <ele>98.589007</ele>
        <time>2022-02-26T07:52:09.304Z</time>
      </trkpt>
      <trkpt lat="41.64696" lon="26.47498">
        <ele>98.948174</ele>
        <time>2022-02-26T07:52:12.264Z</time>
      </trkpt>
      <trkpt lat="41.64705" lon="26.47491">
        <ele>99.21303</ele>
        <time>2022-02-26T07:52:14.273Z</time>
      </trkpt>
      <trkpt lat="41.64714" lon="26.47485">
        <ele>98.912112</ele>
        <time>2022-02-26T07:52:16.280Z</time>
      </trkpt>
      <trkpt lat="41.64723" lon="26.47478">
        <ele>98.58842</ele>
        <time>2022-02-26T07:52:18.273Z</time>
      </trkpt>
      <trkpt lat="41.64732" lon="26.4747">
        <ele>98.267024</ele>
        <time>2022-02-26T07:52:20.242Z</time>
      </trkpt>
      <trkpt lat="41.64742" lon="26.47464">
        <ele>97.952225</ele>
        <time>2022-02-26T07:52:22.283Z</time>
      </trkpt>
      <trkpt lat="41.6475" lon="26.47457">
        <ele>97.656629</ele>
        <time>2022-02-26T07:52:24.274Z</time>
      </trkpt>
      <trkpt lat="41.64759" lon="26.4745">
        <ele>97.366514</ele>
        <time>2022-02-26T07:52:26.279Z</time>
      </trkpt>
      <trkpt lat="41.64767" lon="26.47443">
        <ele>97.080135</ele>
        <time>2022-02-26T07:52:28.283Z</time>
      </trkpt>
      <trkpt lat="41.64775" lon="26.47435">
        <ele>96.785103</ele>
        <time>2022-02-26T07:52:30.273Z</time>
      </trkpt>
      <trkpt lat="41.64783" lon="26.47427">
        <ele>96.476423</ele>
        <time>2022-02-26T07:52:32.248Z</time>
      </trkpt>
      <trkpt lat="41.6479" lon="26.47419">
        <ele>96.202985</ele>
        <time>2022-02-26T07:52:34.278Z</time>
      </trkpt>
      <trkpt lat="41.64799" lon="26.47409">
        <ele>95.86746</ele>
        <time>2022-02-26T07:52:37.297Z</time>
      </trkpt>
      <trkpt lat="41.64806" lon="26.474">
        <ele>95.558541</ele>
        <time>2022-02-26T07:52:40.276Z</time>
      </trkpt>
      <trkpt lat="41.64814" lon="26.47389">
        <ele>95.222732</ele>
        <time>2022-02-26T07:52:43.264Z</time>
      </trkpt>
      <trkpt lat="41.64821" lon="26.47378">
        <ele>94.908735</ele>
        <time>2022-02-26T07:52:46.270Z</time>
      </trkpt>
      <trkpt lat="41.64828" lon="26.47368">
        <ele>94.614671</ele>
        <time>2022-02-26T07:52:49.307Z</time>
      </trkpt>
      <trkpt lat="41.64834" lon="26.4736">
        <ele>94.344715</ele>
        <time>2022-02-26T07:52:52.283Z</time>
      </trkpt>
      <trkpt lat="41.64842" lon="26.47351">
        <ele>94.038508</ele>
        <time>2022-02-26T07:52:55.307Z</time>
      </trkpt>
      <trkpt lat="41.64852" lon="26.47343">
        <ele>93.627724</ele>
        <time>2022-02-26T07:52:58.267Z</time>
      </trkpt>
      <trkpt lat="41.6486" lon="26.47337">
        <ele>93.225388</ele>
        <time>2022-02-26T07:53:00.260Z</time>
      </trkpt>
      <trkpt lat="41.64869" lon="26.47332">
        <ele>92.83303</ele>
        <time>2022-02-26T07:53:02.274Z</time>
      </trkpt>
      <trkpt lat="41.64881" lon="26.47325">
        <ele>92.276597</ele>
        <time>2022-02-26T07:53:05.270Z</time>
      </trkpt>
      <trkpt lat="41.6489" lon="26.47319">
        <ele>91.864112</ele>
        <time>2022-02-26T07:53:07.309Z</time>
      </trkpt>
      <trkpt lat="41.64898" lon="26.47314">
        <ele>91.478597</ele>
        <time>2022-02-26T07:53:09.278Z</time>
      </trkpt>
      <trkpt lat="41.64909" lon="26.47308">
        <ele>90.955537</ele>
        <time>2022-02-26T07:53:12.251Z</time>
      </trkpt>
      <trkpt lat="41.64921" lon="26.47301">
        <ele>90.444104</ele>
        <time>2022-02-26T07:53:15.266Z</time>
      </trkpt>
      <trkpt lat="41.64931" lon="26.47295">
        <ele>89.954527</ele>
        <time>2022-02-26T07:53:18.253Z</time>
      </trkpt>
      <trkpt lat="41.64941" lon="26.47289">
        <ele>89.490636</ele>
        <time>2022-02-26T07:53:21.260Z</time>
      </trkpt>
      <trkpt lat="41.64951" lon="26.47282">
        <ele>89.041689</ele>
        <time>2022-02-26T07:53:24.269Z</time>
      </trkpt>
      <trkpt lat="41.64961" lon="26.47276">
        <ele>88.564817</ele>
        <time>2022-02-26T07:53:27.266Z</time>
      </trkpt>
      <trkpt lat="41.6497" lon="26.47269">
        <ele>88.123395</ele>
        <time>2022-02-26T07:53:30.264Z</time>
      </trkpt>
      <trkpt lat="41.64979" lon="26.47263">
        <ele>87.688675</ele>
        <time>2022-02-26T07:53:33.306Z</time>
      </trkpt>
      <trkpt lat="41.64989" lon="26.47258">
        <ele>87.2617</ele>
        <time>2022-02-26T07:53:36.277Z</time>
      </trkpt>
      <trkpt lat="41.64998" lon="26.47254">
        <ele>86.857099</ele>
        <time>2022-02-26T07:53:39.260Z</time>
      </trkpt>
      <trkpt lat="41.65008" lon="26.47252">
        <ele>86.406461</ele>
        <time>2022-02-26T07:53:42.273Z</time>
      </trkpt>
      <trkpt lat="41.6502" lon="26.47253">
        <ele>86.108644</ele>
        <time>2022-02-26T07:53:45.264Z</time>
      </trkpt>
      <trkpt lat="41.65031" lon="26.47253">
        <ele>85.874665</ele>
        <time>2022-02-26T07:53:48.277Z</time>
      </trkpt>
      <trkpt lat="41.65044" lon="26.47254">
        <ele>85.624622</ele>
        <time>2022-02-26T07:53:51.280Z</time>
      </trkpt>
      <trkpt lat="41.65056" lon="26.47255">
        <ele>85.376544</ele>
        <time>2022-02-26T07:53:54.275Z</time>
      </trkpt>
      <trkpt lat="41.65067" lon="26.47255">
        <ele>85.164568</ele>
        <time>2022-02-26T07:53:57.297Z</time>
      </trkpt>
      <trkpt lat="41.65076" lon="26.47256">
        <ele>84.973036</ele>
        <time>2022-02-26T07:54:00.276Z</time>
      </trkpt>
      <trkpt lat="41.65087" lon="26.47255">
        <ele>84.753155</ele>
        <time>2022-02-26T07:54:04.289Z</time>
      </trkpt>
      <trkpt lat="41.65077" lon="26.47247">
        <ele>84.520202</ele>
        <time>2022-02-26T07:58:29.252Z</time>
      </trkpt>
      <trkpt lat="41.65065" lon="26.47247">
        <ele>84.282323</ele>
        <time>2022-02-26T07:58:32.263Z</time>
      </trkpt>
      <trkpt lat="41.65052" lon="26.47247">
        <ele>84.020193</ele>
        <time>2022-02-26T07:58:35.266Z</time>
      </trkpt>
      <trkpt lat="41.6504" lon="26.47247">
        <ele>83.774179</ele>
        <time>2022-02-26T07:58:38.258Z</time>
      </trkpt>
      <trkpt lat="41.65028" lon="26.47246">
        <ele>83.536339</ele>
        <time>2022-02-26T07:58:41.261Z</time>
      </trkpt>
      <trkpt lat="41.65017" lon="26.47246">
        <ele>83.314622</ele>
        <time>2022-02-26T07:58:44.291Z</time>
      </trkpt>
      <trkpt lat="41.65006" lon="26.4725">
        <ele>83.081505</ele>
        <time>2022-02-26T07:58:47.280Z</time>
      </trkpt>
      <trkpt lat="41.64998" lon="26.47253">
        <ele>82.89943</ele>
        <time>2022-02-26T07:58:49.282Z</time>
      </trkpt>
      <trkpt lat="41.64985" lon="26.47259">
        <ele>82.640844</ele>
        <time>2022-02-26T07:58:52.258Z</time>
      </trkpt>
      <trkpt lat="41.64973" lon="26.47265">
        <ele>82.395807</ele>
        <time>2022-02-26T07:58:55.263Z</time>
      </trkpt>
      <trkpt lat="41.64962" lon="26.47272">
        <ele>82.158473</ele>
        <time>2022-02-26T07:58:58.268Z</time>
      </trkpt>
      <trkpt lat="41.6495" lon="26.47279">
        <ele>81.918249</ele>
        <time>2022-02-26T07:59:01.264Z</time>
      </trkpt>
      <trkpt lat="41.64942" lon="26.47284">
        <ele>81.743247</ele>
        <time>2022-02-26T07:59:03.281Z</time>
      </trkpt>
      <trkpt lat="41.64933" lon="26.47288">
        <ele>81.570369</ele>
        <time>2022-02-26T07:59:05.270Z</time>
      </trkpt>
      <trkpt lat="41.64924" lon="26.47293">
        <ele>81.387273</ele>
        <time>2022-02-26T07:59:07.272Z</time>
      </trkpt>
      <trkpt lat="41.64915" lon="26.47298">
        <ele>81.200673</ele>
        <time>2022-02-26T07:59:09.268Z</time>
      </trkpt>
      <trkpt lat="41.64906" lon="26.47303">
        <ele>81.015279</ele>
        <time>2022-02-26T07:59:11.280Z</time>
      </trkpt>
      <trkpt lat="41.64897" lon="26.47308">
        <ele>80.832021</ele>
        <time>2022-02-26T07:59:13.283Z</time>
      </trkpt>
      <trkpt lat="41.64889" lon="26.47313">
        <ele>80.652417</ele>
        <time>2022-02-26T07:59:15.285Z</time>
      </trkpt>
      <trkpt lat="41.6488" lon="26.47318">
        <ele>80.473367</ele>
        <time>2022-02-26T07:59:17.325Z</time>
      </trkpt>
      <trkpt lat="41.64868" lon="26.47326">
        <ele>80.225828</ele>
        <time>2022-02-26T07:59:20.274Z</time>
      </trkpt>
      <trkpt lat="41.6486" lon="26.47331">
        <ele>80.052887</ele>
        <time>2022-02-26T07:59:22.277Z</time>
      </trkpt>
      <trkpt lat="41.6485" lon="26.47342">
        <ele>79.813721</ele>
        <time>2022-02-26T07:59:25.265Z</time>
      </trkpt>
      <trkpt lat="41.64842" lon="26.47351">
        <ele>79.602192</ele>
        <time>2022-02-26T07:59:28.256Z</time>
      </trkpt>
      <trkpt lat="41.64834" lon="26.47361">
        <ele>79.404345</ele>
        <time>2022-02-26T07:59:31.285Z</time>
      </trkpt>
      <trkpt lat="41.64827" lon="26.4737">
        <ele>79.35314</ele>
        <time>2022-02-26T07:59:34.266Z</time>
      </trkpt>
      <trkpt lat="41.64818" lon="26.47382">
        <ele>80.203969</ele>
        <time>2022-02-26T07:59:37.280Z</time>
      </trkpt>
      <trkpt lat="41.64809" lon="26.47393">
        <ele>81.078286</ele>
        <time>2022-02-26T07:59:40.266Z</time>
      </trkpt>
      <trkpt lat="41.648" lon="26.47404">
        <ele>81.935325</ele>
        <time>2022-02-26T07:59:43.262Z</time>
      </trkpt>
      <trkpt lat="41.64793" lon="26.47412">
        <ele>82.564297</ele>
        <time>2022-02-26T07:59:45.280Z</time>
      </trkpt>
      <trkpt lat="41.64786" lon="26.47421">
        <ele>83.260894</ele>
        <time>2022-02-26T07:59:47.266Z</time>
      </trkpt>
      <trkpt lat="41.64778" lon="26.47429">
        <ele>83.934913</ele>
        <time>2022-02-26T07:59:49.273Z</time>
      </trkpt>
      <trkpt lat="41.6477" lon="26.47436">
        <ele>84.590258</ele>
        <time>2022-02-26T07:59:51.272Z</time>
      </trkpt>
      <trkpt lat="41.64759" lon="26.47446">
        <ele>85.485164</ele>
        <time>2022-02-26T07:59:54.264Z</time>
      </trkpt>
      <trkpt lat="41.64749" lon="26.47454">
        <ele>86.299891</ele>
        <time>2022-02-26T07:59:57.274Z</time>
      </trkpt>
      <trkpt lat="41.6474" lon="26.47462">
        <ele>87.064916</ele>
        <time>2022-02-26T08:00:00.299Z</time>
      </trkpt>
      <trkpt lat="41.6473" lon="26.47471">
        <ele>87.884878</ele>
        <time>2022-02-26T08:00:04.287Z</time>
      </trkpt>
      <trkpt lat="41.6472" lon="26.47478">
        <ele>88.72541</ele>
        <time>2022-02-26T08:00:08.264Z</time>
      </trkpt>
      <trkpt lat="41.64711" lon="26.47484">
        <ele>89.371086</ele>
        <time>2022-02-26T08:00:11.281Z</time>
      </trkpt>
      <trkpt lat="41.64702" lon="26.47493">
        <ele>90.144994</ele>
        <time>2022-02-26T08:00:15.271Z</time>
      </trkpt>
      <trkpt lat="41.64695" lon="26.47499">
        <ele>90.774679</ele>
        <time>2022-02-26T08:00:18.316Z</time>
      </trkpt>
      <trkpt lat="41.64684" lon="26.47507">
        <ele>91.60288</ele>
        <time>2022-02-26T08:00:22.269Z</time>
      </trkpt>
      <trkpt lat="41.64676" lon="26.47512">
        <ele>91.787698</ele>
        <time>2022-02-26T08:00:25.275Z</time>
      </trkpt>
      <trkpt lat="41.64665" lon="26.47517">
        <ele>91.864298</ele>
        <time>2022-02-26T08:00:29.300Z</time>
      </trkpt>
      <trkpt lat="41.64655" lon="26.4752">
        <ele>91.933131</ele>
        <time>2022-02-26T08:00:32.294Z</time>
      </trkpt>
      <trkpt lat="41.64644" lon="26.47523">
        <ele>92.011729</ele>
        <time>2022-02-26T08:00:35.315Z</time>
      </trkpt>
      <trkpt lat="41.64634" lon="26.47524">
        <ele>92.081001</ele>
        <time>2022-02-26T08:00:38.276Z</time>
      </trkpt>
      <trkpt lat="41.64622" lon="26.47526">
        <ele>92.161387</ele>
        <time>2022-02-26T08:00:42.274Z</time>
      </trkpt>
      <trkpt lat="41.64612" lon="26.47528">
        <ele>92.226111</ele>
        <time>2022-02-26T08:00:45.290Z</time>
      </trkpt>
      <trkpt lat="41.64601" lon="26.47529">
        <ele>92.302214</ele>
        <time>2022-02-26T08:00:49.262Z</time>
      </trkpt>
      <trkpt lat="41.64592" lon="26.47526">
        <ele>92.367281</ele>
        <time>2022-02-26T08:00:52.260Z</time>
      </trkpt>
      <trkpt lat="41.64583" lon="26.47519">
        <ele>92.434099</ele>
        <time>2022-02-26T08:00:55.266Z</time>
      </trkpt>
      <trkpt lat="41.64575" lon="26.47513">
        <ele>92.498981</ele>
        <time>2022-02-26T08:00:58.285Z</time>
      </trkpt>
      <trkpt lat="41.64567" lon="26.47506">
        <ele>92.562061</ele>
        <time>2022-02-26T08:01:01.277Z</time>
      </trkpt>
      <trkpt lat="41.6456" lon="26.47499">
        <ele>92.625397</ele>
        <time>2022-02-26T08:01:04.284Z</time>
      </trkpt>
      <trkpt lat="41.64551" lon="26.47489">
        <ele>92.702507</ele>
        <time>2022-02-26T08:01:08.277Z</time>
      </trkpt>
      <trkpt lat="41.64545" lon="26.47479">
        <ele>92.76943</ele>
        <time>2022-02-26T08:01:11.289Z</time>
      </trkpt>
      <trkpt lat="41.64539" lon="26.47465">
        <ele>92.849038</ele>
        <time>2022-02-26T08:01:14.301Z</time>
      </trkpt>
      <trkpt lat="41.64536" lon="26.4745">
        <ele>92.927991</ele>
        <time>2022-02-26T08:01:17.272Z</time>
      </trkpt>
      <trkpt lat="41.64532" lon="26.47435">
        <ele>93.042936</ele>
        <time>2022-02-26T08:01:20.270Z</time>
      </trkpt>
      <trkpt lat="41.64529" lon="26.47421">
        <ele>93.16296</ele>
        <time>2022-02-26T08:01:23.276Z</time>
      </trkpt>
      <trkpt lat="41.64527" lon="26.47405">
        <ele>93.290561</ele>
        <time>2022-02-26T08:01:26.280Z</time>
      </trkpt>
      <trkpt lat="41.64526" lon="26.47391">
        <ele>93.411693</ele>
        <time>2022-02-26T08:01:29.266Z</time>
      </trkpt>
      <trkpt lat="41.64524" lon="26.47377">
        <ele>93.52632</ele>
        <time>2022-02-26T08:01:32.288Z</time>
      </trkpt>
      <trkpt lat="41.64523" lon="26.47363">
        <ele>93.64369</ele>
        <time>2022-02-26T08:01:35.280Z</time>
      </trkpt>
      <trkpt lat="41.64522" lon="26.47349">
        <ele>93.759149</ele>
        <time>2022-02-26T08:01:38.324Z</time>
      </trkpt>
      <trkpt lat="41.6452" lon="26.47333">
        <ele>93.890997</ele>
        <time>2022-02-26T08:01:41.278Z</time>
      </trkpt>
      <trkpt lat="41.64517" lon="26.47317">
        <ele>94.024325</ele>
        <time>2022-02-26T08:01:44.276Z</time>
      </trkpt>
      <trkpt lat="41.64517" lon="26.47302">
        <ele>94.155654</ele>
        <time>2022-02-26T08:01:47.305Z</time>
      </trkpt>
      <trkpt lat="41.64515" lon="26.47285">
        <ele>94.293205</ele>
        <time>2022-02-26T08:01:50.285Z</time>
      </trkpt>
      <trkpt lat="41.64514" lon="26.47268">
        <ele>94.430469</ele>
        <time>2022-02-26T08:01:53.271Z</time>
      </trkpt>
      <trkpt lat="41.64512" lon="26.47252">
        <ele>94.564995</ele>
        <time>2022-02-26T08:01:56.293Z</time>
      </trkpt>
      <trkpt lat="41.6451" lon="26.47237">
        <ele>94.695625</ele>
        <time>2022-02-26T08:01:59.264Z</time>
      </trkpt>
      <trkpt lat="41.64506" lon="26.47223">
        <ele>94.818011</ele>
        <time>2022-02-26T08:02:02.275Z</time>
      </trkpt>
      <trkpt lat="41.64503" lon="26.4721">
        <ele>94.931031</ele>
        <time>2022-02-26T08:02:05.267Z</time>
      </trkpt>
      <trkpt lat="41.64501" lon="26.47194">
        <ele>94.902198</ele>
        <time>2022-02-26T08:02:08.279Z</time>
      </trkpt>
      <trkpt lat="41.64499" lon="26.47179">
        <ele>94.865607</ele>
        <time>2022-02-26T08:02:11.280Z</time>
      </trkpt>
      <trkpt lat="41.64497" lon="26.47163">
        <ele>94.824347</ele>
        <time>2022-02-26T08:02:14.275Z</time>
      </trkpt>
      <trkpt lat="41.64494" lon="26.47146">
        <ele>94.781045</ele>
        <time>2022-02-26T08:02:17.288Z</time>
      </trkpt>
      <trkpt lat="41.64492" lon="26.4713">
        <ele>94.740738</ele>
        <time>2022-02-26T08:02:20.278Z</time>
      </trkpt>
      <trkpt lat="41.64489" lon="26.47114">
        <ele>94.699288</ele>
        <time>2022-02-26T08:02:23.256Z</time>
      </trkpt>
      <trkpt lat="41.64487" lon="26.47097">
        <ele>94.656145</ele>
        <time>2022-02-26T08:02:26.263Z</time>
      </trkpt>
      <trkpt lat="41.64483" lon="26.47081">
        <ele>94.6137</ele>
        <time>2022-02-26T08:02:29.307Z</time>
      </trkpt>
      <trkpt lat="41.64479" lon="26.47065">
        <ele>94.572962</ele>
        <time>2022-02-26T08:02:32.257Z</time>
      </trkpt>
      <trkpt lat="41.64475" lon="26.47051">
        <ele>94.534355</ele>
        <time>2022-02-26T08:02:35.298Z</time>
      </trkpt>
      <trkpt lat="41.64473" lon="26.47034">
        <ele>94.492732</ele>
        <time>2022-02-26T08:02:38.285Z</time>
      </trkpt>
      <trkpt lat="41.6447" lon="26.47018">
        <ele>94.45016</ele>
        <time>2022-02-26T08:02:41.258Z</time>
      </trkpt>
      <trkpt lat="41.64467" lon="26.47003">
        <ele>94.412107</ele>
        <time>2022-02-26T08:02:44.308Z</time>
      </trkpt>
      <trkpt lat="41.64463" lon="26.46989">
        <ele>94.373917</ele>
        <time>2022-02-26T08:02:47.279Z</time>
      </trkpt>
      <trkpt lat="41.6446" lon="26.46974">
        <ele>94.329229</ele>
        <time>2022-02-26T08:02:50.249Z</time>
      </trkpt>
      <trkpt lat="41.64457" lon="26.46959">
        <ele>94.216929</ele>
        <time>2022-02-26T08:02:53.268Z</time>
      </trkpt>
      <trkpt lat="41.64452" lon="26.46944">
        <ele>94.097675</ele>
        <time>2022-02-26T08:02:56.340Z</time>
      </trkpt>
      <trkpt lat="41.64448" lon="26.46929">
        <ele>93.980749</ele>
        <time>2022-02-26T08:02:59.283Z</time>
      </trkpt>
      <trkpt lat="41.64445" lon="26.46913">
        <ele>93.861809</ele>
        <time>2022-02-26T08:03:02.279Z</time>
      </trkpt>
      <trkpt lat="41.6444" lon="26.46896">
        <ele>93.731258</ele>
        <time>2022-02-26T08:03:05.298Z</time>
      </trkpt>
      <trkpt lat="41.64437" lon="26.46884">
        <ele>93.63834</ele>
        <time>2022-02-26T08:03:07.312Z</time>
      </trkpt>
      <trkpt lat="41.64433" lon="26.46873">
        <ele>93.545682</ele>
        <time>2022-02-26T08:03:09.269Z</time>
      </trkpt>
      <trkpt lat="41.64427" lon="26.46861">
        <ele>93.44543</ele>
        <time>2022-02-26T08:03:11.273Z</time>
      </trkpt>
      <trkpt lat="41.64421" lon="26.46849">
        <ele>93.343704</ele>
        <time>2022-02-26T08:03:13.276Z</time>
      </trkpt>
      <trkpt lat="41.64415" lon="26.46838">
        <ele>93.240827</ele>
        <time>2022-02-26T08:03:15.261Z</time>
      </trkpt>
      <trkpt lat="41.64408" lon="26.46826">
        <ele>93.135084</ele>
        <time>2022-02-26T08:03:17.271Z</time>
      </trkpt>
      <trkpt lat="41.64401" lon="26.46816">
        <ele>93.033692</ele>
        <time>2022-02-26T08:03:19.279Z</time>
      </trkpt>
      <trkpt lat="41.64394" lon="26.46806">
        <ele>92.932058</ele>
        <time>2022-02-26T08:03:21.287Z</time>
      </trkpt>
      <trkpt lat="41.64387" lon="26.46795">
        <ele>92.829233</ele>
        <time>2022-02-26T08:03:23.281Z</time>
      </trkpt>
      <trkpt lat="41.6438" lon="26.46785">
        <ele>92.731821</ele>
        <time>2022-02-26T08:03:25.279Z</time>
      </trkpt>
      <trkpt lat="41.64373" lon="26.46776">
        <ele>92.635884</ele>
        <time>2022-02-26T08:03:27.299Z</time>
      </trkpt>
      <trkpt lat="41.64367" lon="26.46767">
        <ele>92.630687</ele>
        <time>2022-02-26T08:03:29.266Z</time>
      </trkpt>
      <trkpt lat="41.6436" lon="26.46758">
        <ele>92.700254</ele>
        <time>2022-02-26T08:03:31.261Z</time>
      </trkpt>
      <trkpt lat="41.64351" lon="26.46745">
        <ele>92.797005</ele>
        <time>2022-02-26T08:03:34.309Z</time>
      </trkpt>
      <trkpt lat="41.64342" lon="26.46733">
        <ele>92.894847</ele>
        <time>2022-02-26T08:03:37.276Z</time>
      </trkpt>
      <trkpt lat="41.64334" lon="26.4672">
        <ele>92.987025</ele>
        <time>2022-02-26T08:03:40.270Z</time>
      </trkpt>
      <trkpt lat="41.64326" lon="26.46707">
        <ele>93.078972</ele>
        <time>2022-02-26T08:03:43.266Z</time>
      </trkpt>
      <trkpt lat="41.64317" lon="26.46694">
        <ele>93.176537</ele>
        <time>2022-02-26T08:03:46.268Z</time>
      </trkpt>
      <trkpt lat="41.64309" lon="26.46682">
        <ele>93.269298</ele>
        <time>2022-02-26T08:03:49.269Z</time>
      </trkpt>
      <trkpt lat="41.64301" lon="26.4667">
        <ele>93.357774</ele>
        <time>2022-02-26T08:03:52.280Z</time>
      </trkpt>
      <trkpt lat="41.64292" lon="26.46659">
        <ele>93.449332</ele>
        <time>2022-02-26T08:03:55.287Z</time>
      </trkpt>
      <trkpt lat="41.64286" lon="26.46651">
        <ele>93.516597</ele>
        <time>2022-02-26T08:03:57.291Z</time>
      </trkpt>
      <trkpt lat="41.64278" lon="26.46636">
        <ele>93.615606</ele>
        <time>2022-02-26T08:04:00.261Z</time>
      </trkpt>
      <trkpt lat="41.64272" lon="26.46627">
        <ele>93.685278</ele>
        <time>2022-02-26T08:04:02.273Z</time>
      </trkpt>
      <trkpt lat="41.64266" lon="26.46617">
        <ele>93.754949</ele>
        <time>2022-02-26T08:04:04.283Z</time>
      </trkpt>
      <trkpt lat="41.64259" lon="26.46607">
        <ele>93.831132</ele>
        <time>2022-02-26T08:04:06.280Z</time>
      </trkpt>
      <trkpt lat="41.64252" lon="26.46597">
        <ele>93.906603</ele>
        <time>2022-02-26T08:04:08.293Z</time>
      </trkpt>
      <trkpt lat="41.64245" lon="26.46588">
        <ele>93.92937</ele>
        <time>2022-02-26T08:04:10.281Z</time>
      </trkpt>
      <trkpt lat="41.64239" lon="26.46578">
        <ele>93.923348</ele>
        <time>2022-02-26T08:04:12.256Z</time>
      </trkpt>
      <trkpt lat="41.6423" lon="26.46565">
        <ele>93.915646</ele>
        <time>2022-02-26T08:04:15.269Z</time>
      </trkpt>
      <trkpt lat="41.64222" lon="26.46553">
        <ele>93.908338</ele>
        <time>2022-02-26T08:04:18.279Z</time>
      </trkpt>
      <trkpt lat="41.64212" lon="26.46542">
        <ele>93.900605</ele>
        <time>2022-02-26T08:04:21.277Z</time>
      </trkpt>
      <trkpt lat="41.64202" lon="26.46534">
        <ele>93.893268</ele>
        <time>2022-02-26T08:04:24.282Z</time>
      </trkpt>
      <trkpt lat="41.6419" lon="26.46531">
        <ele>93.88594</ele>
        <time>2022-02-26T08:04:27.279Z</time>
      </trkpt>
      <trkpt lat="41.6418" lon="26.46536">
        <ele>93.88001</ele>
        <time>2022-02-26T08:04:29.287Z</time>
      </trkpt>
      <trkpt lat="41.64172" lon="26.46543">
        <ele>93.873791</ele>
        <time>2022-02-26T08:04:31.280Z</time>
      </trkpt>
      <trkpt lat="41.64162" lon="26.4655">
        <ele>93.867384</ele>
        <time>2022-02-26T08:04:33.268Z</time>
      </trkpt>
      <trkpt lat="41.64153" lon="26.46556">
        <ele>93.861062</ele>
        <time>2022-02-26T08:04:35.267Z</time>
      </trkpt>
      <trkpt lat="41.64145" lon="26.46562">
        <ele>93.855348</ele>
        <time>2022-02-26T08:04:37.275Z</time>
      </trkpt>
      <trkpt lat="41.64134" lon="26.46569">
        <ele>93.848225</ele>
        <time>2022-02-26T08:04:40.281Z</time>
      </trkpt>
      <trkpt lat="41.64124" lon="26.46573">
        <ele>93.842102</ele>
        <time>2022-02-26T08:04:43.274Z</time>
      </trkpt>
      <trkpt lat="41.64114" lon="26.46574">
        <ele>93.836023</ele>
        <time>2022-02-26T08:04:47.277Z</time>
      </trkpt>
      <trkpt lat="41.64104" lon="26.46573">
        <ele>93.830085</ele>
        <time>2022-02-26T08:04:51.293Z</time>
      </trkpt>
      <trkpt lat="41.64095" lon="26.46567">
        <ele>93.832812</ele>
        <time>2022-02-26T08:04:55.264Z</time>
      </trkpt>
      <trkpt lat="41.64087" lon="26.4656">
        <ele>93.917826</ele>
        <time>2022-02-26T08:04:59.268Z</time>
      </trkpt>
      <trkpt lat="41.64078" lon="26.46552">
        <ele>94.010849</ele>
        <time>2022-02-26T08:05:03.289Z</time>
      </trkpt>
      <trkpt lat="41.64072" lon="26.46541">
        <ele>94.098081</ele>
        <time>2022-02-26T08:05:07.279Z</time>
      </trkpt>
      <trkpt lat="41.64068" lon="26.4653">
        <ele>94.181839</ele>
        <time>2022-02-26T08:05:11.310Z</time>
      </trkpt>
      <trkpt lat="41.64066" lon="26.46517">
        <ele>94.265686</ele>
        <time>2022-02-26T08:05:15.289Z</time>
      </trkpt>
      <trkpt lat="41.64065" lon="26.46504">
        <ele>94.349808</ele>
        <time>2022-02-26T08:05:19.268Z</time>
      </trkpt>
      <trkpt lat="41.64066" lon="26.46492">
        <ele>94.433666</ele>
        <time>2022-02-26T08:05:23.317Z</time>
      </trkpt>
      <trkpt lat="41.64069" lon="26.4648">
        <ele>94.515496</ele>
        <time>2022-02-26T08:05:27.264Z</time>
      </trkpt>
      <trkpt lat="41.64074" lon="26.46467">
        <ele>94.612789</ele>
        <time>2022-02-26T08:05:32.276Z</time>
      </trkpt>
      <trkpt lat="41.64082" lon="26.46455">
        <ele>94.716805</ele>
        <time>2022-02-26T08:05:36.273Z</time>
      </trkpt>
      <trkpt lat="41.64091" lon="26.46446">
        <ele>94.809061</ele>
        <time>2022-02-26T08:05:39.276Z</time>
      </trkpt>
      <trkpt lat="41.641" lon="26.46437">
        <ele>94.911985</ele>
        <time>2022-02-26T08:05:42.271Z</time>
      </trkpt>
      <trkpt lat="41.6411" lon="26.46428">
        <ele>95.018196</ele>
        <time>2022-02-26T08:05:45.309Z</time>
      </trkpt>
      <trkpt lat="41.64121" lon="26.46417">
        <ele>95.134936</ele>
        <time>2022-02-26T08:05:48.295Z</time>
      </trkpt>
      <trkpt lat="41.64128" lon="26.4641">
        <ele>95.214854</ele>
        <time>2022-02-26T08:05:50.277Z</time>
      </trkpt>
      <trkpt lat="41.64136" lon="26.46403">
        <ele>95.29839</ele>
        <time>2022-02-26T08:05:52.266Z</time>
      </trkpt>
      <trkpt lat="41.64145" lon="26.46396">
        <ele>95.384897</ele>
        <time>2022-02-26T08:05:54.275Z</time>
      </trkpt>
      <trkpt lat="41.64153" lon="26.46389">
        <ele>95.292976</ele>
        <time>2022-02-26T08:05:56.318Z</time>
      </trkpt>
      <trkpt lat="41.64162" lon="26.46382">
        <ele>95.151323</ele>
        <time>2022-02-26T08:05:58.279Z</time>
      </trkpt>
      <trkpt lat="41.64171" lon="26.46374">
        <ele>95.012991</ele>
        <time>2022-02-26T08:06:00.286Z</time>
      </trkpt>
      <trkpt lat="41.6418" lon="26.46365">
        <ele>94.866339</ele>
        <time>2022-02-26T08:06:02.333Z</time>
      </trkpt>
      <trkpt lat="41.64189" lon="26.46357">
        <ele>94.719687</ele>
        <time>2022-02-26T08:06:04.242Z</time>
      </trkpt>
      <trkpt lat="41.64198" lon="26.46348">
        <ele>94.570723</ele>
        <time>2022-02-26T08:06:06.265Z</time>
      </trkpt>
      <trkpt lat="41.64207" lon="26.4634">
        <ele>94.422324</ele>
        <time>2022-02-26T08:06:08.281Z</time>
      </trkpt>
      <trkpt lat="41.64217" lon="26.46332">
        <ele>94.267306</ele>
        <time>2022-02-26T08:06:10.275Z</time>
      </trkpt>
      <trkpt lat="41.64226" lon="26.46323">
        <ele>94.113959</ele>
        <time>2022-02-26T08:06:12.251Z</time>
      </trkpt>
      <trkpt lat="41.64236" lon="26.46315">
        <ele>93.957286</ele>
        <time>2022-02-26T08:06:14.275Z</time>
      </trkpt>
      <trkpt lat="41.64246" lon="26.46306">
        <ele>93.797244</ele>
        <time>2022-02-26T08:06:16.263Z</time>
      </trkpt>
      <trkpt lat="41.64256" lon="26.46296">
        <ele>93.633855</ele>
        <time>2022-02-26T08:06:18.293Z</time>
      </trkpt>
      <trkpt lat="41.64266" lon="26.46287">
        <ele>93.472709</ele>
        <time>2022-02-26T08:06:20.268Z</time>
      </trkpt>
      <trkpt lat="41.64275" lon="26.46278">
        <ele>93.312691</ele>
        <time>2022-02-26T08:06:22.262Z</time>
      </trkpt>
      <trkpt lat="41.64285" lon="26.46269">
        <ele>93.150437</ele>
        <time>2022-02-26T08:06:24.282Z</time>
      </trkpt>
      <trkpt lat="41.64295" lon="26.4626">
        <ele>92.991544</ele>
        <time>2022-02-26T08:06:26.269Z</time>
      </trkpt>
      <trkpt lat="41.64305" lon="26.46251">
        <ele>93.08683</ele>
        <time>2022-02-26T08:06:28.282Z</time>
      </trkpt>
      <trkpt lat="41.64314" lon="26.46243">
        <ele>93.180049</ele>
        <time>2022-02-26T08:06:30.300Z</time>
      </trkpt>
      <trkpt lat="41.64324" lon="26.46235">
        <ele>93.275678</ele>
        <time>2022-02-26T08:06:32.289Z</time>
      </trkpt>
      <trkpt lat="41.64334" lon="26.46226">
        <ele>93.376873</ele>
        <time>2022-02-26T08:06:34.268Z</time>
      </trkpt>
      <trkpt lat="41.64344" lon="26.46217">
        <ele>93.474588</ele>
        <time>2022-02-26T08:06:36.291Z</time>
      </trkpt>
      <trkpt lat="41.64354" lon="26.46208">
        <ele>93.57718</ele>
        <time>2022-02-26T08:06:38.281Z</time>
      </trkpt>
      <trkpt lat="41.64363" lon="26.46199">
        <ele>93.677713</ele>
        <time>2022-02-26T08:06:40.286Z</time>
      </trkpt>
      <trkpt lat="41.64373" lon="26.4619">
        <ele>93.772996</ele>
        <time>2022-02-26T08:06:42.282Z</time>
      </trkpt>
      <trkpt lat="41.64382" lon="26.46182">
        <ele>93.86446</ele>
        <time>2022-02-26T08:06:44.290Z</time>
      </trkpt>
      <trkpt lat="41.6439" lon="26.46174">
        <ele>93.950791</ele>
        <time>2022-02-26T08:06:46.296Z</time>
      </trkpt>
      <trkpt lat="41.64399" lon="26.46166">
        <ele>94.035661</ele>
        <time>2022-02-26T08:06:48.320Z</time>
      </trkpt>
      <trkpt lat="41.64407" lon="26.46158">
        <ele>94.118859</ele>
        <time>2022-02-26T08:06:50.281Z</time>
      </trkpt>
      <trkpt lat="41.64414" lon="26.46151">
        <ele>94.197798</ele>
        <time>2022-02-26T08:06:52.269Z</time>
      </trkpt>
      <trkpt lat="41.64423" lon="26.46144">
        <ele>94.278523</ele>
        <time>2022-02-26T08:06:54.279Z</time>
      </trkpt>
      <trkpt lat="41.64434" lon="26.46133">
        <ele>94.392997</ele>
        <time>2022-02-26T08:06:57.324Z</time>
      </trkpt>
      <trkpt lat="41.64441" lon="26.46126">
        <ele>94.469873</ele>
        <time>2022-02-26T08:06:59.279Z</time>
      </trkpt>
      <trkpt lat="41.64449" lon="26.46119">
        <ele>94.508383</ele>
        <time>2022-02-26T08:07:01.263Z</time>
      </trkpt>
      <trkpt lat="41.64456" lon="26.46112">
        <ele>94.52784</ele>
        <time>2022-02-26T08:07:03.269Z</time>
      </trkpt>
      <trkpt lat="41.64464" lon="26.46105">
        <ele>94.547472</ele>
        <time>2022-02-26T08:07:05.280Z</time>
      </trkpt>
      <trkpt lat="41.64472" lon="26.46099">
        <ele>94.56658</ele>
        <time>2022-02-26T08:07:07.280Z</time>
      </trkpt>
      <trkpt lat="41.64479" lon="26.46092">
        <ele>94.585684</ele>
        <time>2022-02-26T08:07:09.271Z</time>
      </trkpt>
      <trkpt lat="41.6449" lon="26.46083">
        <ele>94.613598</ele>
        <time>2022-02-26T08:07:12.271Z</time>
      </trkpt>
      <trkpt lat="41.64501" lon="26.46073">
        <ele>94.64072</ele>
        <time>2022-02-26T08:07:15.296Z</time>
      </trkpt>
      <trkpt lat="41.64512" lon="26.46065">
        <ele>94.66741</ele>
        <time>2022-02-26T08:07:18.288Z</time>
      </trkpt>
      <trkpt lat="41.64522" lon="26.46056">
        <ele>94.693563</ele>
        <time>2022-02-26T08:07:21.266Z</time>
      </trkpt>
      <trkpt lat="41.64533" lon="26.46047">
        <ele>94.719726</ele>
        <time>2022-02-26T08:07:24.277Z</time>
      </trkpt>
      <trkpt lat="41.64544" lon="26.46038">
        <ele>94.747376</ele>
        <time>2022-02-26T08:07:27.276Z</time>
      </trkpt>
      <trkpt lat="41.64551" lon="26.46031">
        <ele>94.766744</ele>
        <time>2022-02-26T08:07:29.292Z</time>
      </trkpt>
      <trkpt lat="41.64562" lon="26.46021">
        <ele>94.793507</ele>
        <time>2022-02-26T08:07:32.268Z</time>
      </trkpt>
      <trkpt lat="41.64572" lon="26.46012">
        <ele>94.819918</ele>
        <time>2022-02-26T08:07:35.265Z</time>
      </trkpt>
      <trkpt lat="41.64583" lon="26.46003">
        <ele>94.846507</ele>
        <time>2022-02-26T08:07:38.269Z</time>
      </trkpt>
      <trkpt lat="41.64593" lon="26.45994">
        <ele>94.872477</ele>
        <time>2022-02-26T08:07:41.259Z</time>
      </trkpt>
      <trkpt lat="41.64604" lon="26.45984">
        <ele>95.038951</ele>
        <time>2022-02-26T08:07:44.304Z</time>
      </trkpt>
      <trkpt lat="41.64611" lon="26.45977">
        <ele>95.169396</ele>
        <time>2022-02-26T08:07:46.290Z</time>
      </trkpt>
      <trkpt lat="41.64622" lon="26.45967">
        <ele>95.359021</ele>
        <time>2022-02-26T08:07:49.280Z</time>
      </trkpt>
      <trkpt lat="41.64633" lon="26.45957">
        <ele>95.546851</ele>
        <time>2022-02-26T08:07:52.278Z</time>
      </trkpt>
      <trkpt lat="41.64644" lon="26.45947">
        <ele>95.737692</ele>
        <time>2022-02-26T08:07:55.298Z</time>
      </trkpt>
      <trkpt lat="41.64655" lon="26.45937">
        <ele>95.929111</ele>
        <time>2022-02-26T08:07:58.301Z</time>
      </trkpt>
      <trkpt lat="41.64666" lon="26.45928">
        <ele>96.115149</ele>
        <time>2022-02-26T08:08:01.280Z</time>
      </trkpt>
      <trkpt lat="41.64675" lon="26.45918">
        <ele>96.291767</ele>
        <time>2022-02-26T08:08:04.279Z</time>
      </trkpt>
      <trkpt lat="41.64686" lon="26.45908">
        <ele>96.477221</ele>
        <time>2022-02-26T08:08:07.269Z</time>
      </trkpt>
      <trkpt lat="41.64697" lon="26.45899">
        <ele>96.667439</ele>
        <time>2022-02-26T08:08:10.303Z</time>
      </trkpt>
      <trkpt lat="41.64708" lon="26.45889">
        <ele>96.850488</ele>
        <time>2022-02-26T08:08:13.305Z</time>
      </trkpt>
      <trkpt lat="41.64718" lon="26.4588">
        <ele>97.032938</ele>
        <time>2022-02-26T08:08:16.271Z</time>
      </trkpt>
      <trkpt lat="41.64728" lon="26.45871">
        <ele>97.204044</ele>
        <time>2022-02-26T08:08:19.273Z</time>
      </trkpt>
      <trkpt lat="41.64739" lon="26.45862">
        <ele>97.3847</ele>
        <time>2022-02-26T08:08:22.278Z</time>
      </trkpt>
      <trkpt lat="41.64749" lon="26.45853">
        <ele>97.625187</ele>
        <time>2022-02-26T08:08:25.295Z</time>
      </trkpt>
      <trkpt lat="41.64758" lon="26.45843">
        <ele>97.927525</ele>
        <time>2022-02-26T08:08:28.283Z</time>
      </trkpt>
      <trkpt lat="41.64768" lon="26.45834">
        <ele>98.221617</ele>
        <time>2022-02-26T08:08:31.269Z</time>
      </trkpt>
      <trkpt lat="41.64778" lon="26.45825">
        <ele>98.518819</ele>
        <time>2022-02-26T08:08:34.324Z</time>
      </trkpt>
      <trkpt lat="41.64787" lon="26.45816">
        <ele>98.799548</ele>
        <time>2022-02-26T08:08:37.273Z</time>
      </trkpt>
      <trkpt lat="41.64796" lon="26.45808">
        <ele>99.068772</ele>
        <time>2022-02-26T08:08:40.269Z</time>
      </trkpt>
      <trkpt lat="41.64804" lon="26.45799">
        <ele>99.333812</ele>
        <time>2022-02-26T08:08:43.297Z</time>
      </trkpt>
      <trkpt lat="41.64814" lon="26.45791">
        <ele>99.616388</ele>
        <time>2022-02-26T08:08:46.272Z</time>
      </trkpt>
      <trkpt lat="41.64823" lon="26.45783">
        <ele>99.878262</ele>
        <time>2022-02-26T08:08:49.285Z</time>
      </trkpt>
      <trkpt lat="41.64832" lon="26.45776">
        <ele>100.138256</ele>
        <time>2022-02-26T08:08:52.265Z</time>
      </trkpt>
      <trkpt lat="41.64841" lon="26.45769">
        <ele>100.402326</ele>
        <time>2022-02-26T08:08:55.261Z</time>
      </trkpt>
      <trkpt lat="41.64849" lon="26.45761">
        <ele>100.664199</ele>
        <time>2022-02-26T08:08:58.281Z</time>
      </trkpt>
      <trkpt lat="41.64858" lon="26.45753">
        <ele>100.927154</ele>
        <time>2022-02-26T08:09:01.288Z</time>
      </trkpt>
      <trkpt lat="41.64867" lon="26.45746">
        <ele>101.194217</ele>
        <time>2022-02-26T08:09:04.271Z</time>
      </trkpt>
      <trkpt lat="41.64876" lon="26.45738">
        <ele>101.459666</ele>
        <time>2022-02-26T08:09:07.280Z</time>
      </trkpt>
      <trkpt lat="41.64885" lon="26.45731">
        <ele>101.724642</ele>
        <time>2022-02-26T08:09:10.266Z</time>
      </trkpt>
      <trkpt lat="41.64894" lon="26.45724">
        <ele>101.941613</ele>
        <time>2022-02-26T08:09:13.273Z</time>
      </trkpt>
      <trkpt lat="41.64904" lon="26.45715">
        <ele>101.899272</ele>
        <time>2022-02-26T08:09:17.294Z</time>
      </trkpt>
      <trkpt lat="41.64912" lon="26.45707">
        <ele>101.864842</ele>
        <time>2022-02-26T08:09:20.290Z</time>
      </trkpt>
      <trkpt lat="41.64919" lon="26.457">
        <ele>101.832146</ele>
        <time>2022-02-26T08:09:23.280Z</time>
      </trkpt>
      <trkpt lat="41.64927" lon="26.45693">
        <ele>101.80006</ele>
        <time>2022-02-26T08:09:26.290Z</time>
      </trkpt>
      <trkpt lat="41.64935" lon="26.45687">
        <ele>101.767679</ele>
        <time>2022-02-26T08:09:29.263Z</time>
      </trkpt>
      <trkpt lat="41.64942" lon="26.4568">
        <ele>101.73442</ele>
        <time>2022-02-26T08:09:32.290Z</time>
      </trkpt>
      <trkpt lat="41.6495" lon="26.45673">
        <ele>101.701161</ele>
        <time>2022-02-26T08:09:35.286Z</time>
      </trkpt>
      <trkpt lat="41.64959" lon="26.45665">
        <ele>101.665999</ele>
        <time>2022-02-26T08:09:38.288Z</time>
      </trkpt>
      <trkpt lat="41.64967" lon="26.45658">
        <ele>101.630344</ele>
        <time>2022-02-26T08:09:41.265Z</time>
      </trkpt>
      <trkpt lat="41.64976" lon="26.45651">
        <ele>101.593814</ele>
        <time>2022-02-26T08:09:44.276Z</time>
      </trkpt>
      <trkpt lat="41.64986" lon="26.45644">
        <ele>101.555759</ele>
        <time>2022-02-26T08:09:47.319Z</time>
      </trkpt>
      <trkpt lat="41.64995" lon="26.45637">
        <ele>101.517267</ele>
        <time>2022-02-26T08:09:50.259Z</time>
      </trkpt>
      <trkpt lat="41.65004" lon="26.4563">
        <ele>101.479996</ele>
        <time>2022-02-26T08:09:53.316Z</time>
      </trkpt>
      <trkpt lat="41.65013" lon="26.45623">
        <ele>101.442685</ele>
        <time>2022-02-26T08:09:56.273Z</time>
      </trkpt>
      <trkpt lat="41.65023" lon="26.45615">
        <ele>101.404003</ele>
        <time>2022-02-26T08:09:59.326Z</time>
      </trkpt>
      <trkpt lat="41.65032" lon="26.45606">
        <ele>101.364006</ele>
        <time>2022-02-26T08:10:02.289Z</time>
      </trkpt>
      <trkpt lat="41.65041" lon="26.45598">
        <ele>101.32385</ele>
        <time>2022-02-26T08:10:05.275Z</time>
      </trkpt>
      <trkpt lat="41.65051" lon="26.45588">
        <ele>101.215024</ele>
        <time>2022-02-26T08:10:08.276Z</time>
      </trkpt>
      <trkpt lat="41.6506" lon="26.45579">
        <ele>101.076661</ele>
        <time>2022-02-26T08:10:11.283Z</time>
      </trkpt>
      <trkpt lat="41.65069" lon="26.45569">
        <ele>100.94153</ele>
        <time>2022-02-26T08:10:14.275Z</time>
      </trkpt>
      <trkpt lat="41.65079" lon="26.4556">
        <ele>100.796861</ele>
        <time>2022-02-26T08:10:17.260Z</time>
      </trkpt>
      <trkpt lat="41.65089" lon="26.45549">
        <ele>100.653262</ele>
        <time>2022-02-26T08:10:20.283Z</time>
      </trkpt>
      <trkpt lat="41.65098" lon="26.4554">
        <ele>100.51404</ele>
        <time>2022-02-26T08:10:23.282Z</time>
      </trkpt>
      <trkpt lat="41.65108" lon="26.45531">
        <ele>100.377256</ele>
        <time>2022-02-26T08:10:26.278Z</time>
      </trkpt>
      <trkpt lat="41.65118" lon="26.45523">
        <ele>100.239991</ele>
        <time>2022-02-26T08:10:29.293Z</time>
      </trkpt>
      <trkpt lat="41.65127" lon="26.45515">
        <ele>100.105122</ele>
        <time>2022-02-26T08:10:32.303Z</time>
      </trkpt>
      <trkpt lat="41.65136" lon="26.45506">
        <ele>99.975633</ele>
        <time>2022-02-26T08:10:35.266Z</time>
      </trkpt>
      <trkpt lat="41.65145" lon="26.45498">
        <ele>99.851054</ele>
        <time>2022-02-26T08:10:38.261Z</time>
      </trkpt>
      <trkpt lat="41.65155" lon="26.4549">
        <ele>99.720136</ele>
        <time>2022-02-26T08:10:41.277Z</time>
      </trkpt>
      <trkpt lat="41.65164" lon="26.45482">
        <ele>99.590581</ele>
        <time>2022-02-26T08:10:44.268Z</time>
      </trkpt>
      <trkpt lat="41.65173" lon="26.45475">
        <ele>99.46595</ele>
        <time>2022-02-26T08:10:47.293Z</time>
      </trkpt>
      <trkpt lat="41.65182" lon="26.45467">
        <ele>99.338944</ele>
        <time>2022-02-26T08:10:50.283Z</time>
      </trkpt>
      <trkpt lat="41.65191" lon="26.45459">
        <ele>99.208026</ele>
        <time>2022-02-26T08:10:53.279Z</time>
      </trkpt>
      <trkpt lat="41.65201" lon="26.4545">
        <ele>99.313983</ele>
        <time>2022-02-26T08:10:56.275Z</time>
      </trkpt>
      <trkpt lat="41.6521" lon="26.45441">
        <ele>99.445517</ele>
        <time>2022-02-26T08:10:59.280Z</time>
      </trkpt>
      <trkpt lat="41.6522" lon="26.45433">
        <ele>99.578928</ele>
        <time>2022-02-26T08:11:02.264Z</time>
      </trkpt>
      <trkpt lat="41.65231" lon="26.45424">
        <ele>99.718998</ele>
        <time>2022-02-26T08:11:05.282Z</time>
      </trkpt>
      <trkpt lat="41.65239" lon="26.45417">
        <ele>99.823382</ele>
        <time>2022-02-26T08:11:07.269Z</time>
      </trkpt>
      <trkpt lat="41.65247" lon="26.4541">
        <ele>99.934789</ele>
        <time>2022-02-26T08:11:09.271Z</time>
      </trkpt>
      <trkpt lat="41.65255" lon="26.45403">
        <ele>100.038246</ele>
        <time>2022-02-26T08:11:11.307Z</time>
      </trkpt>
      <trkpt lat="41.65262" lon="26.45396">
        <ele>100.13984</ele>
        <time>2022-02-26T08:11:13.264Z</time>
      </trkpt>
      <trkpt lat="41.65273" lon="26.45386">
        <ele>100.291502</ele>
        <time>2022-02-26T08:11:16.267Z</time>
      </trkpt>
      <trkpt lat="41.65283" lon="26.45377">
        <ele>100.43241</ele>
        <time>2022-02-26T08:11:19.281Z</time>
      </trkpt>
      <trkpt lat="41.65293" lon="26.45367">
        <ele>100.566771</ele>
        <time>2022-02-26T08:11:22.285Z</time>
      </trkpt>
      <trkpt lat="41.65303" lon="26.45359">
        <ele>100.701125</ele>
        <time>2022-02-26T08:11:25.264Z</time>
      </trkpt>
      <trkpt lat="41.65313" lon="26.4535">
        <ele>100.833133</ele>
        <time>2022-02-26T08:11:28.278Z</time>
      </trkpt>
      <trkpt lat="41.65323" lon="26.45341">
        <ele>100.972624</ele>
        <time>2022-02-26T08:11:31.251Z</time>
      </trkpt>
      <trkpt lat="41.65333" lon="26.45332">
        <ele>101.105094</ele>
        <time>2022-02-26T08:11:34.286Z</time>
      </trkpt>
      <trkpt lat="41.65343" lon="26.45324">
        <ele>101.274834</ele>
        <time>2022-02-26T08:11:37.301Z</time>
      </trkpt>
      <trkpt lat="41.65353" lon="26.45315">
        <ele>101.828184</ele>
        <time>2022-02-26T08:11:40.260Z</time>
      </trkpt>
      <trkpt lat="41.65363" lon="26.45306">
        <ele>102.38536</ele>
        <time>2022-02-26T08:11:43.281Z</time>
      </trkpt>
      <trkpt lat="41.65373" lon="26.45297">
        <ele>102.960008</ele>
        <time>2022-02-26T08:11:46.302Z</time>
      </trkpt>
      <trkpt lat="41.65383" lon="26.45289">
        <ele>103.476916</ele>
        <time>2022-02-26T08:11:49.261Z</time>
      </trkpt>
      <trkpt lat="41.65394" lon="26.4528">
        <ele>104.065479</ele>
        <time>2022-02-26T08:11:52.274Z</time>
      </trkpt>
      <trkpt lat="41.65404" lon="26.4527">
        <ele>104.659327</ele>
        <time>2022-02-26T08:11:55.282Z</time>
      </trkpt>
      <trkpt lat="41.65415" lon="26.45261">
        <ele>105.256867</ele>
        <time>2022-02-26T08:11:58.268Z</time>
      </trkpt>
      <trkpt lat="41.65423" lon="26.45254">
        <ele>105.700688</ele>
        <time>2022-02-26T08:12:00.287Z</time>
      </trkpt>
      <trkpt lat="41.65434" lon="26.45244">
        <ele>106.305928</ele>
        <time>2022-02-26T08:12:03.274Z</time>
      </trkpt>
      <trkpt lat="41.65444" lon="26.45234">
        <ele>106.905803</ele>
        <time>2022-02-26T08:12:06.280Z</time>
      </trkpt>
      <trkpt lat="41.65451" lon="26.45226">
        <ele>107.327646</ele>
        <time>2022-02-26T08:12:08.310Z</time>
      </trkpt>
      <trkpt lat="41.65459" lon="26.45219">
        <ele>107.754395</ele>
        <time>2022-02-26T08:12:10.276Z</time>
      </trkpt>
      <trkpt lat="41.65466" lon="26.45211">
        <ele>108.194215</ele>
        <time>2022-02-26T08:12:12.276Z</time>
      </trkpt>
      <trkpt lat="41.65477" lon="26.45201">
        <ele>108.795828</ele>
        <time>2022-02-26T08:12:15.285Z</time>
      </trkpt>
      <trkpt lat="41.65486" lon="26.45191">
        <ele>109.341634</ele>
        <time>2022-02-26T08:12:18.283Z</time>
      </trkpt>
      <trkpt lat="41.65495" lon="26.45182">
        <ele>109.359524</ele>
        <time>2022-02-26T08:12:21.273Z</time>
      </trkpt>
      <trkpt lat="41.65506" lon="26.45171">
        <ele>109.02155</ele>
        <time>2022-02-26T08:12:24.282Z</time>
      </trkpt>
      <trkpt lat="41.65516" lon="26.45161">
        <ele>108.68797</ele>
        <time>2022-02-26T08:12:27.275Z</time>
      </trkpt>
      <trkpt lat="41.65525" lon="26.45152">
        <ele>108.386041</ele>
        <time>2022-02-26T08:12:30.278Z</time>
      </trkpt>
      <trkpt lat="41.65536" lon="26.45143">
        <ele>108.055139</ele>
        <time>2022-02-26T08:12:33.260Z</time>
      </trkpt>
      <trkpt lat="41.65547" lon="26.45132">
        <ele>107.703829</ele>
        <time>2022-02-26T08:12:36.305Z</time>
      </trkpt>
      <trkpt lat="41.65555" lon="26.45126">
        <ele>107.468463</ele>
        <time>2022-02-26T08:12:38.277Z</time>
      </trkpt>
      <trkpt lat="41.65566" lon="26.45116">
        <ele>107.122505</ele>
        <time>2022-02-26T08:12:41.270Z</time>
      </trkpt>
      <trkpt lat="41.65574" lon="26.4511">
        <ele>106.882749</ele>
        <time>2022-02-26T08:12:43.293Z</time>
      </trkpt>
      <trkpt lat="41.65582" lon="26.45103">
        <ele>106.634361</ele>
        <time>2022-02-26T08:12:45.272Z</time>
      </trkpt>
      <trkpt lat="41.6559" lon="26.45096">
        <ele>106.390185</ele>
        <time>2022-02-26T08:12:47.311Z</time>
      </trkpt>
      <trkpt lat="41.65602" lon="26.45087">
        <ele>106.050217</ele>
        <time>2022-02-26T08:12:50.264Z</time>
      </trkpt>
      <trkpt lat="41.65613" lon="26.45078">
        <ele>105.716891</ele>
        <time>2022-02-26T08:12:53.304Z</time>
      </trkpt>
      <trkpt lat="41.6562" lon="26.45072">
        <ele>105.483759</ele>
        <time>2022-02-26T08:12:55.278Z</time>
      </trkpt>
      <trkpt lat="41.65628" lon="26.45065">
        <ele>105.249478</ele>
        <time>2022-02-26T08:12:57.276Z</time>
      </trkpt>
      <trkpt lat="41.65639" lon="26.45056">
        <ele>104.907519</ele>
        <time>2022-02-26T08:13:00.289Z</time>
      </trkpt>
      <trkpt lat="41.6565" lon="26.45046">
        <ele>104.545528</ele>
        <time>2022-02-26T08:13:03.264Z</time>
      </trkpt>
      <trkpt lat="41.65661" lon="26.45036">
        <ele>104.178719</ele>
        <time>2022-02-26T08:13:06.284Z</time>
      </trkpt>
      <trkpt lat="41.65672" lon="26.45027">
        <ele>103.829148</ele>
        <time>2022-02-26T08:13:09.271Z</time>
      </trkpt>
      <trkpt lat="41.65682" lon="26.45018">
        <ele>103.479444</ele>
        <time>2022-02-26T08:13:12.269Z</time>
      </trkpt>
      <trkpt lat="41.65693" lon="26.45009">
        <ele>103.128785</ele>
        <time>2022-02-26T08:13:15.292Z</time>
      </trkpt>
      <trkpt lat="41.65703" lon="26.45">
        <ele>102.78619</ele>
        <time>2022-02-26T08:13:18.267Z</time>
      </trkpt>
      <trkpt lat="41.65713" lon="26.44989">
        <ele>102.431751</ele>
        <time>2022-02-26T08:13:21.273Z</time>
      </trkpt>
      <trkpt lat="41.65723" lon="26.4498">
        <ele>102.086803</ele>
        <time>2022-02-26T08:13:24.281Z</time>
      </trkpt>
      <trkpt lat="41.65733" lon="26.44971">
        <ele>101.761448</ele>
        <time>2022-02-26T08:13:27.253Z</time>
      </trkpt>
      <trkpt lat="41.65743" lon="26.44962">
        <ele>101.426939</ele>
        <time>2022-02-26T08:13:30.267Z</time>
      </trkpt>
      <trkpt lat="41.65753" lon="26.44953">
        <ele>101.079742</ele>
        <time>2022-02-26T08:13:33.305Z</time>
      </trkpt>
      <trkpt lat="41.65764" lon="26.44944">
        <ele>100.741651</ele>
        <time>2022-02-26T08:13:36.323Z</time>
      </trkpt>
      <trkpt lat="41.65775" lon="26.44934">
        <ele>100.372463</ele>
        <time>2022-02-26T08:13:39.279Z</time>
      </trkpt>
      <trkpt lat="41.65786" lon="26.44925">
        <ele>100.011133</ele>
        <time>2022-02-26T08:13:42.278Z</time>
      </trkpt>
      <trkpt lat="41.65797" lon="26.44917">
        <ele>99.747838</ele>
        <time>2022-02-26T08:13:45.254Z</time>
      </trkpt>
      <trkpt lat="41.65807" lon="26.44907">
        <ele>99.539693</ele>
        <time>2022-02-26T08:13:48.283Z</time>
      </trkpt>
      <trkpt lat="41.65818" lon="26.44899">
        <ele>99.330333</ele>
        <time>2022-02-26T08:13:51.289Z</time>
      </trkpt>
      <trkpt lat="41.65828" lon="26.44891">
        <ele>99.12496</ele>
        <time>2022-02-26T08:13:54.277Z</time>
      </trkpt>
      <trkpt lat="41.65838" lon="26.44882">
        <ele>98.925979</ele>
        <time>2022-02-26T08:13:57.303Z</time>
      </trkpt>
      <trkpt lat="41.65848" lon="26.44873">
        <ele>98.729829</ele>
        <time>2022-02-26T08:14:00.277Z</time>
      </trkpt>
      <trkpt lat="41.65856" lon="26.44865">
        <ele>98.550537</ele>
        <time>2022-02-26T08:14:03.270Z</time>
      </trkpt>
      <trkpt lat="41.65865" lon="26.44858">
        <ele>98.379779</ele>
        <time>2022-02-26T08:14:06.299Z</time>
      </trkpt>
      <trkpt lat="41.65872" lon="26.4485">
        <ele>98.217492</ele>
        <time>2022-02-26T08:14:09.265Z</time>
      </trkpt>
      <trkpt lat="41.65881" lon="26.44843">
        <ele>98.053086</ele>
        <time>2022-02-26T08:14:12.268Z</time>
      </trkpt>
      <trkpt lat="41.6589" lon="26.44835">
        <ele>97.868931</ele>
        <time>2022-02-26T08:14:15.280Z</time>
      </trkpt>
      <trkpt lat="41.65898" lon="26.44827">
        <ele>97.690372</ele>
        <time>2022-02-26T08:14:18.292Z</time>
      </trkpt>
      <trkpt lat="41.65907" lon="26.44819">
        <ele>97.509026</ele>
        <time>2022-02-26T08:14:21.284Z</time>
      </trkpt>
      <trkpt lat="41.65915" lon="26.44811">
        <ele>97.336157</ele>
        <time>2022-02-26T08:14:24.272Z</time>
      </trkpt>
      <trkpt lat="41.65924" lon="26.44804">
        <ele>97.165403</ele>
        <time>2022-02-26T08:14:27.276Z</time>
      </trkpt>
      <trkpt lat="41.65932" lon="26.44797">
        <ele>96.996764</ele>
        <time>2022-02-26T08:14:30.263Z</time>
      </trkpt>
      <trkpt lat="41.6594" lon="26.4479">
        <ele>96.843989</ele>
        <time>2022-02-26T08:14:33.279Z</time>
      </trkpt>
      <trkpt lat="41.65948" lon="26.44782">
        <ele>97.156405</ele>
        <time>2022-02-26T08:14:37.268Z</time>
      </trkpt>
      <trkpt lat="41.65957" lon="26.44773">
        <ele>97.51853</ele>
        <time>2022-02-26T08:14:41.305Z</time>
      </trkpt>
      <trkpt lat="41.65966" lon="26.44765">
        <ele>97.88993</ele>
        <time>2022-02-26T08:14:45.271Z</time>
      </trkpt>
      <trkpt lat="41.65976" lon="26.44757">
        <ele>98.260193</ele>
        <time>2022-02-26T08:14:49.283Z</time>
      </trkpt>
      <trkpt lat="41.65986" lon="26.44749">
        <ele>98.629529</ele>
        <time>2022-02-26T08:14:53.273Z</time>
      </trkpt>
      <trkpt lat="41.65996" lon="26.44741">
        <ele>99.00781</ele>
        <time>2022-02-26T08:14:57.279Z</time>
      </trkpt>
      <trkpt lat="41.66006" lon="26.44732">
        <ele>99.38609</ele>
        <time>2022-02-26T08:15:01.255Z</time>
      </trkpt>
      <trkpt lat="41.66016" lon="26.44724">
        <ele>99.762898</ele>
        <time>2022-02-26T08:15:05.291Z</time>
      </trkpt>
      <trkpt lat="41.66025" lon="26.44717">
        <ele>100.109116</ele>
        <time>2022-02-26T08:15:09.276Z</time>
      </trkpt>
      <trkpt lat="41.66035" lon="26.44709">
        <ele>100.479378</ele>
        <time>2022-02-26T08:15:13.284Z</time>
      </trkpt>
      <trkpt lat="41.66044" lon="26.447">
        <ele>100.850657</ele>
        <time>2022-02-26T08:15:17.266Z</time>
      </trkpt>
      <trkpt lat="41.66054" lon="26.44692">
        <ele>101.227684</ele>
        <time>2022-02-26T08:15:21.277Z</time>
      </trkpt>
      <trkpt lat="41.66063" lon="26.44684">
        <ele>101.582885</ele>
        <time>2022-02-26T08:15:25.257Z</time>
      </trkpt>
      <trkpt lat="41.66073" lon="26.44676">
        <ele>101.954241</ele>
        <time>2022-02-26T08:15:29.267Z</time>
      </trkpt>
      <trkpt lat="41.66081" lon="26.44669">
        <ele>102.253639</ele>
        <time>2022-02-26T08:15:32.321Z</time>
      </trkpt>
      <trkpt lat="41.66092" lon="26.44661">
        <ele>102.647916</ele>
        <time>2022-02-26T08:15:36.280Z</time>
      </trkpt>
      <trkpt lat="41.66101" lon="26.44652">
        <ele>103.01721</ele>
        <time>2022-02-26T08:15:40.297Z</time>
      </trkpt>
      <trkpt lat="41.6611" lon="26.44644">
        <ele>103.358755</ele>
        <time>2022-02-26T08:15:44.274Z</time>
      </trkpt>
      <trkpt lat="41.66118" lon="26.44635">
        <ele>103.700517</ele>
        <time>2022-02-26T08:15:48.276Z</time>
      </trkpt>
      <trkpt lat="41.66127" lon="26.44626">
        <ele>104.056019</ele>
        <time>2022-02-26T08:15:52.290Z</time>
      </trkpt>
      <trkpt lat="41.66137" lon="26.44617">
        <ele>104.433471</ele>
        <time>2022-02-26T08:15:56.323Z</time>
      </trkpt>
      <trkpt lat="41.66144" lon="26.4461">
        <ele>104.726216</ele>
        <time>2022-02-26T08:15:59.261Z</time>
      </trkpt>
      <trkpt lat="41.66151" lon="26.44601">
        <ele>105.026761</ele>
        <time>2022-02-26T08:16:02.260Z</time>
      </trkpt>
      <trkpt lat="41.6616" lon="26.44591">
        <ele>105.402223</ele>
        <time>2022-02-26T08:16:06.269Z</time>
      </trkpt>
      <trkpt lat="41.6617" lon="26.44582">
        <ele>105.786465</ele>
        <time>2022-02-26T08:16:10.273Z</time>
      </trkpt>
      <trkpt lat="41.66178" lon="26.44575">
        <ele>106.084762</ele>
        <time>2022-02-26T08:16:13.264Z</time>
      </trkpt>
      <trkpt lat="41.66185" lon="26.44569">
        <ele>106.370398</ele>
        <time>2022-02-26T08:16:16.319Z</time>
      </trkpt>
      <trkpt lat="41.66193" lon="26.44562">
        <ele>106.661423</ele>
        <time>2022-02-26T08:16:19.267Z</time>
      </trkpt>
      <trkpt lat="41.66201" lon="26.44556">
        <ele>106.964383</ele>
        <time>2022-02-26T08:16:22.253Z</time>
      </trkpt>
      <trkpt lat="41.66209" lon="26.44549">
        <ele>107.262092</ele>
        <time>2022-02-26T08:16:25.276Z</time>
      </trkpt>
      <trkpt lat="41.66218" lon="26.44542">
        <ele>107.581138</ele>
        <time>2022-02-26T08:16:28.262Z</time>
      </trkpt>
      <trkpt lat="41.66226" lon="26.44535">
        <ele>107.89966</ele>
        <time>2022-02-26T08:16:31.268Z</time>
      </trkpt>
      <trkpt lat="41.66235" lon="26.44529">
        <ele>108.215011</ele>
        <time>2022-02-26T08:16:34.267Z</time>
      </trkpt>
      <trkpt lat="41.66243" lon="26.44521">
        <ele>108.334417</ele>
        <time>2022-02-26T08:16:37.259Z</time>
      </trkpt>
      <trkpt lat="41.66251" lon="26.44514">
        <ele>108.208574</ele>
        <time>2022-02-26T08:16:40.282Z</time>
      </trkpt>
      <trkpt lat="41.6626" lon="26.44507">
        <ele>108.079472</ele>
        <time>2022-02-26T08:16:43.265Z</time>
      </trkpt>
      <trkpt lat="41.66268" lon="26.445">
        <ele>107.955717</ele>
        <time>2022-02-26T08:16:46.279Z</time>
      </trkpt>
      <trkpt lat="41.66277" lon="26.44492">
        <ele>107.827228</ele>
        <time>2022-02-26T08:16:49.298Z</time>
      </trkpt>
      <trkpt lat="41.66285" lon="26.44485">
        <ele>107.69503</ele>
        <time>2022-02-26T08:16:52.277Z</time>
      </trkpt>
      <trkpt lat="41.66294" lon="26.44477">
        <ele>107.563883</ele>
        <time>2022-02-26T08:16:55.255Z</time>
      </trkpt>
      <trkpt lat="41.66302" lon="26.44469">
        <ele>107.434795</ele>
        <time>2022-02-26T08:16:58.263Z</time>
      </trkpt>
      <trkpt lat="41.66312" lon="26.4446">
        <ele>107.277072</ele>
        <time>2022-02-26T08:17:01.259Z</time>
      </trkpt>
      <trkpt lat="41.66322" lon="26.44451">
        <ele>107.120978</ele>
        <time>2022-02-26T08:17:04.260Z</time>
      </trkpt>
      <trkpt lat="41.66332" lon="26.44442">
        <ele>106.967518</ele>
        <time>2022-02-26T08:17:07.254Z</time>
      </trkpt>
      <trkpt lat="41.66343" lon="26.44432">
        <ele>106.805587</ele>
        <time>2022-02-26T08:17:10.277Z</time>
      </trkpt>
      <trkpt lat="41.66353" lon="26.44423">
        <ele>106.6479</ele>
        <time>2022-02-26T08:17:13.261Z</time>
      </trkpt>
      <trkpt lat="41.66363" lon="26.44414">
        <ele>106.496004</ele>
        <time>2022-02-26T08:17:16.284Z</time>
      </trkpt>
      <trkpt lat="41.66372" lon="26.44405">
        <ele>106.344591</ele>
        <time>2022-02-26T08:17:19.279Z</time>
      </trkpt>
      <trkpt lat="41.66383" lon="26.44395">
        <ele>106.182574</ele>
        <time>2022-02-26T08:17:22.263Z</time>
      </trkpt>
      <trkpt lat="41.66393" lon="26.44384">
        <ele>106.137041</ele>
        <time>2022-02-26T08:17:25.255Z</time>
      </trkpt>
      <trkpt lat="41.66403" lon="26.44374">
        <ele>106.229397</ele>
        <time>2022-02-26T08:17:28.259Z</time>
      </trkpt>
      <trkpt lat="41.66413" lon="26.44363">
        <ele>106.322075</ele>
        <time>2022-02-26T08:17:31.280Z</time>
      </trkpt>
      <trkpt lat="41.66424" lon="26.44353">
        <ele>106.415324</ele>
        <time>2022-02-26T08:17:34.274Z</time>
      </trkpt>
      <trkpt lat="41.66434" lon="26.44343">
        <ele>106.507679</ele>
        <time>2022-02-26T08:17:37.266Z</time>
      </trkpt>
      <trkpt lat="41.66445" lon="26.44332">
        <ele>106.602968</ele>
        <time>2022-02-26T08:17:40.267Z</time>
      </trkpt>
      <trkpt lat="41.66455" lon="26.44322">
        <ele>106.697001</ele>
        <time>2022-02-26T08:17:43.270Z</time>
      </trkpt>
      <trkpt lat="41.66466" lon="26.44312">
        <ele>106.785345</ele>
        <time>2022-02-26T08:17:46.269Z</time>
      </trkpt>
      <trkpt lat="41.66476" lon="26.44303">
        <ele>106.873395</ele>
        <time>2022-02-26T08:17:49.273Z</time>
      </trkpt>
      <trkpt lat="41.66486" lon="26.44295">
        <ele>106.956986</ele>
        <time>2022-02-26T08:17:52.281Z</time>
      </trkpt>
      <trkpt lat="41.66495" lon="26.44287">
        <ele>107.037012</ele>
        <time>2022-02-26T08:17:55.262Z</time>
      </trkpt>
      <trkpt lat="41.66504" lon="26.44279">
        <ele>107.113461</ele>
        <time>2022-02-26T08:17:58.263Z</time>
      </trkpt>
      <trkpt lat="41.66513" lon="26.44271">
        <ele>107.191689</ele>
        <time>2022-02-26T08:18:01.275Z</time>
      </trkpt>
      <trkpt lat="41.66522" lon="26.44263">
        <ele>107.266656</ele>
        <time>2022-02-26T08:18:04.262Z</time>
      </trkpt>
      <trkpt lat="41.6653" lon="26.44256">
        <ele>107.338095</ele>
        <time>2022-02-26T08:18:07.272Z</time>
      </trkpt>
      <trkpt lat="41.66539" lon="26.44248">
        <ele>107.459745</ele>
        <time>2022-02-26T08:18:10.325Z</time>
      </trkpt>
      <trkpt lat="41.66548" lon="26.44241">
        <ele>107.664585</ele>
        <time>2022-02-26T08:18:13.285Z</time>
      </trkpt>
      <trkpt lat="41.66557" lon="26.44233">
        <ele>107.865431</ele>
        <time>2022-02-26T08:18:16.282Z</time>
      </trkpt>
      <trkpt lat="41.66565" lon="26.44226">
        <ele>108.052715</ele>
        <time>2022-02-26T08:18:19.265Z</time>
      </trkpt>
      <trkpt lat="41.66573" lon="26.44219">
        <ele>108.235242</ele>
        <time>2022-02-26T08:18:22.269Z</time>
      </trkpt>
      <trkpt lat="41.66581" lon="26.44212">
        <ele>108.411413</ele>
        <time>2022-02-26T08:18:25.289Z</time>
      </trkpt>
      <trkpt lat="41.66588" lon="26.44206">
        <ele>108.588506</ele>
        <time>2022-02-26T08:18:28.278Z</time>
      </trkpt>
      <trkpt lat="41.66598" lon="26.44198">
        <ele>108.802974</ele>
        <time>2022-02-26T08:18:32.293Z</time>
      </trkpt>
      <trkpt lat="41.66607" lon="26.4419">
        <ele>108.998995</ele>
        <time>2022-02-26T08:18:36.248Z</time>
      </trkpt>
      <trkpt lat="41.66614" lon="26.44183">
        <ele>109.18324</ele>
        <time>2022-02-26T08:18:40.274Z</time>
      </trkpt>
      <trkpt lat="41.66623" lon="26.44175">
        <ele>109.373714</ele>
        <time>2022-02-26T08:18:44.268Z</time>
      </trkpt>
      <trkpt lat="41.66631" lon="26.44168">
        <ele>109.569734</ele>
        <time>2022-02-26T08:18:48.278Z</time>
      </trkpt>
      <trkpt lat="41.66639" lon="26.4416">
        <ele>109.756363</ele>
        <time>2022-02-26T08:18:52.268Z</time>
      </trkpt>
      <trkpt lat="41.66648" lon="26.44152">
        <ele>109.953242</ele>
        <time>2022-02-26T08:18:56.276Z</time>
      </trkpt>
      <trkpt lat="41.66656" lon="26.44144">
        <ele>110.142254</ele>
        <time>2022-02-26T08:19:00.280Z</time>
      </trkpt>
      <trkpt lat="41.66663" lon="26.44136">
        <ele>110.320633</ele>
        <time>2022-02-26T08:19:04.278Z</time>
      </trkpt>
      <trkpt lat="41.6667" lon="26.44129">
        <ele>110.500277</ele>
        <time>2022-02-26T08:19:08.271Z</time>
      </trkpt>
      <trkpt lat="41.66678" lon="26.44121">
        <ele>110.681657</ele>
        <time>2022-02-26T08:19:12.272Z</time>
      </trkpt>
      <trkpt lat="41.66685" lon="26.44113">
        <ele>110.881546</ele>
        <time>2022-02-26T08:19:16.276Z</time>
      </trkpt>
      <trkpt lat="41.66691" lon="26.44105">
        <ele>111.180253</ele>
        <time>2022-02-26T08:19:20.318Z</time>
      </trkpt>
      <trkpt lat="41.66699" lon="26.44097">
        <ele>111.492404</ele>
        <time>2022-02-26T08:19:24.307Z</time>
      </trkpt>
      <trkpt lat="41.66706" lon="26.44086">
        <ele>111.850237</ele>
        <time>2022-02-26T08:19:29.280Z</time>
      </trkpt>
      <trkpt lat="41.66714" lon="26.44076">
        <ele>112.203988</ele>
        <time>2022-02-26T08:19:34.261Z</time>
      </trkpt>
      <trkpt lat="41.6672" lon="26.44067">
        <ele>112.523333</ele>
        <time>2022-02-26T08:19:38.281Z</time>
      </trkpt>
      <trkpt lat="41.66727" lon="26.44057">
        <ele>112.860621</ele>
        <time>2022-02-26T08:19:42.267Z</time>
      </trkpt>
      <trkpt lat="41.66734" lon="26.44047">
        <ele>113.190801</ele>
        <time>2022-02-26T08:19:46.257Z</time>
      </trkpt>
      <trkpt lat="41.6674" lon="26.44037">
        <ele>113.500431</ele>
        <time>2022-02-26T08:19:50.279Z</time>
      </trkpt>
      <trkpt lat="41.66746" lon="26.44026">
        <ele>113.833114</ele>
        <time>2022-02-26T08:19:54.268Z</time>
      </trkpt>
      <trkpt lat="41.66753" lon="26.44015">
        <ele>114.193518</ele>
        <time>2022-02-26T08:19:58.267Z</time>
      </trkpt>
      <trkpt lat="41.66759" lon="26.44003">
        <ele>114.544009</ele>
        <time>2022-02-26T08:20:02.288Z</time>
      </trkpt>
      <trkpt lat="41.66765" lon="26.43993">
        <ele>114.878962</ele>
        <time>2022-02-26T08:20:06.282Z</time>
      </trkpt>
      <trkpt lat="41.6677" lon="26.43982">
        <ele>115.203163</ele>
        <time>2022-02-26T08:20:10.288Z</time>
      </trkpt>
      <trkpt lat="41.66776" lon="26.43971">
        <ele>115.522326</ele>
        <time>2022-02-26T08:20:14.274Z</time>
      </trkpt>
      <trkpt lat="41.66781" lon="26.43959">
        <ele>115.861419</ele>
        <time>2022-02-26T08:20:18.279Z</time>
      </trkpt>
      <trkpt lat="41.66786" lon="26.43947">
        <ele>116.204307</ele>
        <time>2022-02-26T08:20:22.277Z</time>
      </trkpt>
      <trkpt lat="41.66791" lon="26.43934">
        <ele>116.560513</ele>
        <time>2022-02-26T08:20:26.287Z</time>
      </trkpt>
      <trkpt lat="41.66796" lon="26.43921">
        <ele>116.779428</ele>
        <time>2022-02-26T08:20:30.269Z</time>
      </trkpt>
      <trkpt lat="41.668" lon="26.43908">
        <ele>116.804892</ele>
        <time>2022-02-26T08:20:34.270Z</time>
      </trkpt>
      <trkpt lat="41.66805" lon="26.43895">
        <ele>116.830257</ele>
        <time>2022-02-26T08:20:38.269Z</time>
      </trkpt>
      <trkpt lat="41.66809" lon="26.43881">
        <ele>116.856455</ele>
        <time>2022-02-26T08:20:42.288Z</time>
      </trkpt>
      <trkpt lat="41.66813" lon="26.43866">
        <ele>116.882886</ele>
        <time>2022-02-26T08:20:46.298Z</time>
      </trkpt>
      <trkpt lat="41.66817" lon="26.43851">
        <ele>116.910529</ele>
        <time>2022-02-26T08:20:50.278Z</time>
      </trkpt>
      <trkpt lat="41.66821" lon="26.43837">
        <ele>116.937038</ele>
        <time>2022-02-26T08:20:54.318Z</time>
      </trkpt>
      <trkpt lat="41.66825" lon="26.43822">
        <ele>116.96334</ele>
        <time>2022-02-26T08:20:58.274Z</time>
      </trkpt>
      <trkpt lat="41.66828" lon="26.43808">
        <ele>116.988446</ele>
        <time>2022-02-26T08:21:02.264Z</time>
      </trkpt>
      <trkpt lat="41.66831" lon="26.43794">
        <ele>117.014318</ele>
        <time>2022-02-26T08:21:06.322Z</time>
      </trkpt>
      <trkpt lat="41.66833" lon="26.43779">
        <ele>117.040142</ele>
        <time>2022-02-26T08:21:10.275Z</time>
      </trkpt>
      <trkpt lat="41.66836" lon="26.43765">
        <ele>117.066172</ele>
        <time>2022-02-26T08:21:14.271Z</time>
      </trkpt>
      <trkpt lat="41.66838" lon="26.43749">
        <ele>117.093691</ele>
        <time>2022-02-26T08:21:18.286Z</time>
      </trkpt>
      <trkpt lat="41.6684" lon="26.43734">
        <ele>117.120743</ele>
        <time>2022-02-26T08:21:22.269Z</time>
      </trkpt>
      <trkpt lat="41.66841" lon="26.43719">
        <ele>117.146905</ele>
        <time>2022-02-26T08:21:26.295Z</time>
      </trkpt>
      <trkpt lat="41.66842" lon="26.43703">
        <ele>117.173658</ele>
        <time>2022-02-26T08:21:30.274Z</time>
      </trkpt>
      <trkpt lat="41.66843" lon="26.43691">
        <ele>117.203658</ele>
        <time>2022-02-26T08:21:33.282Z</time>
      </trkpt>
      <trkpt lat="41.66844" lon="26.43678">
        <ele>117.250358</ele>
        <time>2022-02-26T08:21:36.268Z</time>
      </trkpt>
      <trkpt lat="41.66844" lon="26.43664">
        <ele>117.300056</ele>
        <time>2022-02-26T08:21:39.267Z</time>
      </trkpt>
      <trkpt lat="41.66844" lon="26.4365">
        <ele>117.349038</ele>
        <time>2022-02-26T08:21:42.277Z</time>
      </trkpt>
      <trkpt lat="41.66845" lon="26.43636">
        <ele>117.400145</ele>
        <time>2022-02-26T08:21:45.264Z</time>
      </trkpt>
      <trkpt lat="41.66844" lon="26.43621">
        <ele>117.452661</ele>
        <time>2022-02-26T08:21:48.267Z</time>
      </trkpt>
      <trkpt lat="41.66845" lon="26.43606">
        <ele>117.505191</ele>
        <time>2022-02-26T08:21:51.277Z</time>
      </trkpt>
      <trkpt lat="41.66845" lon="26.4359">
        <ele>117.560172</ele>
        <time>2022-02-26T08:21:54.271Z</time>
      </trkpt>
      <trkpt lat="41.66845" lon="26.43575">
        <ele>117.614086</ele>
        <time>2022-02-26T08:21:57.267Z</time>
      </trkpt>
      <trkpt lat="41.66844" lon="26.43559">
        <ele>117.670138</ele>
        <time>2022-02-26T08:22:00.259Z</time>
      </trkpt>
      <trkpt lat="41.66844" lon="26.43542">
        <ele>117.728993</ele>
        <time>2022-02-26T08:22:03.273Z</time>
      </trkpt>
      <trkpt lat="41.66844" lon="26.43526">
        <ele>117.785367</ele>
        <time>2022-02-26T08:22:06.278Z</time>
      </trkpt>
      <trkpt lat="41.66844" lon="26.43511">
        <ele>117.841043</ele>
        <time>2022-02-26T08:22:09.281Z</time>
      </trkpt>
      <trkpt lat="41.66844" lon="26.43495">
        <ele>117.896366</ele>
        <time>2022-02-26T08:22:12.287Z</time>
      </trkpt>
      <trkpt lat="41.66843" lon="26.43478">
        <ele>117.954593</ele>
        <time>2022-02-26T08:22:15.269Z</time>
      </trkpt>
      <trkpt lat="41.66843" lon="26.43462">
        <ele>118.012423</ele>
        <time>2022-02-26T08:22:18.280Z</time>
      </trkpt>
      <trkpt lat="41.66843" lon="26.43446">
        <ele>118.038005</ele>
        <time>2022-02-26T08:22:21.276Z</time>
      </trkpt>
      <trkpt lat="41.66843" lon="26.43429">
        <ele>118.044582</ele>
        <time>2022-02-26T08:22:24.278Z</time>
      </trkpt>
      <trkpt lat="41.66843" lon="26.43413">
        <ele>118.050962</ele>
        <time>2022-02-26T08:22:27.266Z</time>
      </trkpt>
      <trkpt lat="41.66843" lon="26.43396">
        <ele>118.057696</ele>
        <time>2022-02-26T08:22:30.280Z</time>
      </trkpt>
      <trkpt lat="41.66843" lon="26.43383">
        <ele>118.0625</ele>
        <time>2022-02-26T08:22:32.268Z</time>
      </trkpt>
      <trkpt lat="41.66843" lon="26.43366">
        <ele>118.069471</ele>
        <time>2022-02-26T08:22:35.282Z</time>
      </trkpt>
      <trkpt lat="41.66844" lon="26.43349">
        <ele>118.076173</ele>
        <time>2022-02-26T08:22:38.277Z</time>
      </trkpt>
      <trkpt lat="41.66844" lon="26.43333">
        <ele>118.082437</ele>
        <time>2022-02-26T08:22:41.268Z</time>
      </trkpt>
      <trkpt lat="41.66844" lon="26.43316">
        <ele>118.088856</ele>
        <time>2022-02-26T08:22:44.283Z</time>
      </trkpt>
      <trkpt lat="41.66844" lon="26.43299">
        <ele>118.09559</ele>
        <time>2022-02-26T08:22:47.290Z</time>
      </trkpt>
      <trkpt lat="41.66844" lon="26.43282">
        <ele>118.102522</ele>
        <time>2022-02-26T08:22:50.279Z</time>
      </trkpt>
      <trkpt lat="41.66843" lon="26.43264">
        <ele>118.109458</ele>
        <time>2022-02-26T08:22:53.267Z</time>
      </trkpt>
      <trkpt lat="41.66843" lon="26.43246">
        <ele>118.116432</ele>
        <time>2022-02-26T08:22:56.270Z</time>
      </trkpt>
      <trkpt lat="41.66843" lon="26.43229">
        <ele>118.123166</ele>
        <time>2022-02-26T08:22:59.286Z</time>
      </trkpt>
      <trkpt lat="41.66843" lon="26.43212">
        <ele>118.139681</ele>
        <time>2022-02-26T08:23:02.277Z</time>
      </trkpt>
      <trkpt lat="41.66843" lon="26.43195">
        <ele>118.206009</ele>
        <time>2022-02-26T08:23:05.303Z</time>
      </trkpt>
      <trkpt lat="41.66843" lon="26.43178">
        <ele>118.271986</ele>
        <time>2022-02-26T08:23:08.264Z</time>
      </trkpt>
      <trkpt lat="41.66843" lon="26.4316">
        <ele>118.338695</ele>
        <time>2022-02-26T08:23:11.288Z</time>
      </trkpt>
      <trkpt lat="41.66842" lon="26.43143">
        <ele>118.404267</ele>
        <time>2022-02-26T08:23:14.290Z</time>
      </trkpt>
      <trkpt lat="41.66843" lon="26.43126">
        <ele>118.467196</ele>
        <time>2022-02-26T08:23:17.277Z</time>
      </trkpt>
      <trkpt lat="41.66843" lon="26.4311">
        <ele>118.52971</ele>
        <time>2022-02-26T08:23:20.278Z</time>
      </trkpt>
      <trkpt lat="41.66843" lon="26.43093">
        <ele>118.59302</ele>
        <time>2022-02-26T08:23:23.306Z</time>
      </trkpt>
      <trkpt lat="41.66843" lon="26.43077">
        <ele>118.655934</ele>
        <time>2022-02-26T08:23:26.282Z</time>
      </trkpt>
      <trkpt lat="41.66844" lon="26.43061">
        <ele>118.716932</ele>
        <time>2022-02-26T08:23:29.269Z</time>
      </trkpt>
      <trkpt lat="41.66844" lon="26.43045">
        <ele>118.777168</ele>
        <time>2022-02-26T08:23:32.273Z</time>
      </trkpt>
      <trkpt lat="41.66844" lon="26.43029">
        <ele>118.837779</ele>
        <time>2022-02-26T08:23:35.268Z</time>
      </trkpt>
      <trkpt lat="41.66844" lon="26.43014">
        <ele>118.896109</ele>
        <time>2022-02-26T08:23:38.282Z</time>
      </trkpt>
      <trkpt lat="41.66844" lon="26.42998">
        <ele>118.955594</ele>
        <time>2022-02-26T08:23:41.271Z</time>
      </trkpt>
      <trkpt lat="41.66844" lon="26.42982">
        <ele>119.016585</ele>
        <time>2022-02-26T08:23:44.276Z</time>
      </trkpt>
      <trkpt lat="41.66844" lon="26.42967">
        <ele>118.899358</ele>
        <time>2022-02-26T08:23:47.266Z</time>
      </trkpt>
      <trkpt lat="41.66843" lon="26.42951">
        <ele>118.575653</ele>
        <time>2022-02-26T08:23:50.285Z</time>
      </trkpt>
      <trkpt lat="41.66843" lon="26.42935">
        <ele>118.252177</ele>
        <time>2022-02-26T08:23:53.265Z</time>
      </trkpt>
      <trkpt lat="41.66842" lon="26.4292">
        <ele>117.938094</ele>
        <time>2022-02-26T08:23:56.265Z</time>
      </trkpt>
      <trkpt lat="41.66841" lon="26.42904">
        <ele>117.618126</ele>
        <time>2022-02-26T08:23:59.278Z</time>
      </trkpt>
      <trkpt lat="41.6684" lon="26.42889">
        <ele>117.302544</ele>
        <time>2022-02-26T08:24:02.289Z</time>
      </trkpt>
      <trkpt lat="41.66839" lon="26.42873">
        <ele>116.988461</ele>
        <time>2022-02-26T08:24:05.277Z</time>
      </trkpt>
      <trkpt lat="41.66838" lon="26.42858">
        <ele>116.668076</ele>
        <time>2022-02-26T08:24:08.285Z</time>
      </trkpt>
      <trkpt lat="41.66837" lon="26.42843">
        <ele>116.358694</ele>
        <time>2022-02-26T08:24:11.299Z</time>
      </trkpt>
      <trkpt lat="41.66835" lon="26.42827">
        <ele>116.045774</ele>
        <time>2022-02-26T08:24:14.265Z</time>
      </trkpt>
      <trkpt lat="41.66833" lon="26.42813">
        <ele>115.739467</ele>
        <time>2022-02-26T08:24:17.276Z</time>
      </trkpt>
      <trkpt lat="41.66831" lon="26.42798">
        <ele>115.429163</ele>
        <time>2022-02-26T08:24:20.312Z</time>
      </trkpt>
      <trkpt lat="41.66828" lon="26.42783">
        <ele>115.119392</ele>
        <time>2022-02-26T08:24:23.263Z</time>
      </trkpt>
      <trkpt lat="41.66825" lon="26.42768">
        <ele>114.797058</ele>
        <time>2022-02-26T08:24:26.333Z</time>
      </trkpt>
      <trkpt lat="41.66822" lon="26.42752">
        <ele>114.46976</ele>
        <time>2022-02-26T08:24:29.282Z</time>
      </trkpt>
      <trkpt lat="41.66818" lon="26.42737">
        <ele>114.147846</ele>
        <time>2022-02-26T08:24:32.319Z</time>
      </trkpt>
      <trkpt lat="41.66815" lon="26.42722">
        <ele>113.938572</ele>
        <time>2022-02-26T08:24:35.268Z</time>
      </trkpt>
      <trkpt lat="41.66812" lon="26.42707">
        <ele>113.724957</ele>
        <time>2022-02-26T08:24:38.281Z</time>
      </trkpt>
      <trkpt lat="41.66808" lon="26.42691">
        <ele>113.506729</ele>
        <time>2022-02-26T08:24:41.302Z</time>
      </trkpt>
      <trkpt lat="41.66804" lon="26.42676">
        <ele>113.286874</ele>
        <time>2022-02-26T08:24:44.294Z</time>
      </trkpt>
      <trkpt lat="41.66801" lon="26.4266">
        <ele>113.062434</ele>
        <time>2022-02-26T08:24:47.276Z</time>
      </trkpt>
      <trkpt lat="41.66797" lon="26.42644">
        <ele>112.840732</ele>
        <time>2022-02-26T08:24:50.270Z</time>
      </trkpt>
      <trkpt lat="41.66793" lon="26.42629">
        <ele>112.620307</ele>
        <time>2022-02-26T08:24:53.258Z</time>
      </trkpt>
      <trkpt lat="41.66789" lon="26.42613">
        <ele>112.39292</ele>
        <time>2022-02-26T08:24:56.284Z</time>
      </trkpt>
      <trkpt lat="41.66785" lon="26.42596">
        <ele>112.15927</ele>
        <time>2022-02-26T08:24:59.279Z</time>
      </trkpt>
      <trkpt lat="41.66781" lon="26.42581">
        <ele>111.937401</ele>
        <time>2022-02-26T08:25:02.270Z</time>
      </trkpt>
      <trkpt lat="41.66777" lon="26.42565">
        <ele>111.719688</ele>
        <time>2022-02-26T08:25:05.281Z</time>
      </trkpt>
      <trkpt lat="41.66774" lon="26.4255">
        <ele>111.507655</ele>
        <time>2022-02-26T08:25:08.312Z</time>
      </trkpt>
      <trkpt lat="41.66771" lon="26.42535">
        <ele>111.299204</ele>
        <time>2022-02-26T08:25:11.277Z</time>
      </trkpt>
      <trkpt lat="41.66767" lon="26.4252">
        <ele>111.084304</ele>
        <time>2022-02-26T08:25:14.281Z</time>
      </trkpt>
      <trkpt lat="41.66764" lon="26.42504">
        <ele>110.93888</ele>
        <time>2022-02-26T08:25:17.297Z</time>
      </trkpt>
      <trkpt lat="41.6676" lon="26.42488">
        <ele>111.108543</ele>
        <time>2022-02-26T08:25:20.298Z</time>
      </trkpt>
      <trkpt lat="41.66756" lon="26.42474">
        <ele>111.25778</ele>
        <time>2022-02-26T08:25:23.310Z</time>
      </trkpt>
      <trkpt lat="41.66753" lon="26.4246">
        <ele>111.408834</ele>
        <time>2022-02-26T08:25:26.284Z</time>
      </trkpt>
      <trkpt lat="41.66749" lon="26.42443">
        <ele>111.579455</ele>
        <time>2022-02-26T08:25:29.303Z</time>
      </trkpt>
      <trkpt lat="41.66745" lon="26.42426">
        <ele>111.758371</ele>
        <time>2022-02-26T08:25:32.273Z</time>
      </trkpt>
      <trkpt lat="41.66742" lon="26.42409">
        <ele>111.936674</ele>
        <time>2022-02-26T08:25:35.289Z</time>
      </trkpt>
      <trkpt lat="41.66739" lon="26.42392">
        <ele>112.111025</ele>
        <time>2022-02-26T08:25:38.274Z</time>
      </trkpt>
      <trkpt lat="41.66736" lon="26.42376">
        <ele>112.281466</ele>
        <time>2022-02-26T08:25:41.320Z</time>
      </trkpt>
      <trkpt lat="41.66733" lon="26.42359">
        <ele>112.452318</ele>
        <time>2022-02-26T08:25:44.285Z</time>
      </trkpt>
      <trkpt lat="41.66731" lon="26.42342">
        <ele>112.621659</ele>
        <time>2022-02-26T08:25:47.314Z</time>
      </trkpt>
      <trkpt lat="41.66729" lon="26.42326">
        <ele>112.789295</ele>
        <time>2022-02-26T08:25:50.288Z</time>
      </trkpt>
      <trkpt lat="41.66727" lon="26.4231">
        <ele>112.953329</ele>
        <time>2022-02-26T08:25:53.281Z</time>
      </trkpt>
      <trkpt lat="41.66725" lon="26.42294">
        <ele>113.113403</ele>
        <time>2022-02-26T08:25:56.272Z</time>
      </trkpt>
      <trkpt lat="41.66724" lon="26.42278">
        <ele>113.275208</ele>
        <time>2022-02-26T08:25:59.296Z</time>
      </trkpt>
      <trkpt lat="41.66723" lon="26.42261">
        <ele>113.619806</ele>
        <time>2022-02-26T08:26:02.301Z</time>
      </trkpt>
      <trkpt lat="41.66722" lon="26.42245">
        <ele>114.016455</ele>
        <time>2022-02-26T08:26:05.278Z</time>
      </trkpt>
      <trkpt lat="41.66721" lon="26.42228">
        <ele>114.42066</ele>
        <time>2022-02-26T08:26:08.288Z</time>
      </trkpt>
      <trkpt lat="41.6672" lon="26.42212">
        <ele>114.815131</ele>
        <time>2022-02-26T08:26:11.293Z</time>
      </trkpt>
      <trkpt lat="41.66719" lon="26.42196">
        <ele>115.206049</ele>
        <time>2022-02-26T08:26:14.288Z</time>
      </trkpt>
      <trkpt lat="41.66718" lon="26.42181">
        <ele>115.575109</ele>
        <time>2022-02-26T08:26:17.272Z</time>
      </trkpt>
      <trkpt lat="41.66718" lon="26.42166">
        <ele>115.956141</ele>
        <time>2022-02-26T08:26:20.291Z</time>
      </trkpt>
      <trkpt lat="41.66717" lon="26.42149">
        <ele>116.359354</ele>
        <time>2022-02-26T08:26:23.280Z</time>
      </trkpt>
      <trkpt lat="41.66717" lon="26.42133">
        <ele>116.762249</ele>
        <time>2022-02-26T08:26:26.273Z</time>
      </trkpt>
      <trkpt lat="41.66717" lon="26.42116">
        <ele>117.162702</ele>
        <time>2022-02-26T08:26:29.295Z</time>
      </trkpt>
      <trkpt lat="41.66717" lon="26.421">
        <ele>117.563155</ele>
        <time>2022-02-26T08:26:32.305Z</time>
      </trkpt>
      <trkpt lat="41.66718" lon="26.42084">
        <ele>117.944118</ele>
        <time>2022-02-26T08:26:35.277Z</time>
      </trkpt>
      <trkpt lat="41.66718" lon="26.42068">
        <ele>118.349454</ele>
        <time>2022-02-26T08:26:38.273Z</time>
      </trkpt>
      <trkpt lat="41.66718" lon="26.42051">
        <ele>118.762115</ele>
        <time>2022-02-26T08:26:41.278Z</time>
      </trkpt>
      <trkpt lat="41.66718" lon="26.42035">
        <ele>119.15523</ele>
        <time>2022-02-26T08:26:44.310Z</time>
      </trkpt>
      <trkpt lat="41.66718" lon="26.42018">
        <ele>119.305902</ele>
        <time>2022-02-26T08:26:47.271Z</time>
      </trkpt>
      <trkpt lat="41.66718" lon="26.42001">
        <ele>119.434699</ele>
        <time>2022-02-26T08:26:50.325Z</time>
      </trkpt>
      <trkpt lat="41.66717" lon="26.41984">
        <ele>119.559774</ele>
        <time>2022-02-26T08:26:53.275Z</time>
      </trkpt>
      <trkpt lat="41.66717" lon="26.41968">
        <ele>119.681859</ele>
        <time>2022-02-26T08:26:56.310Z</time>
      </trkpt>
      <trkpt lat="41.66717" lon="26.41952">
        <ele>119.800967</ele>
        <time>2022-02-26T08:26:59.281Z</time>
      </trkpt>
      <trkpt lat="41.66717" lon="26.41936">
        <ele>119.922406</ele>
        <time>2022-02-26T08:27:02.310Z</time>
      </trkpt>
      <trkpt lat="41.66717" lon="26.41919">
        <ele>120.044492</ele>
        <time>2022-02-26T08:27:05.281Z</time>
      </trkpt>
      <trkpt lat="41.66717" lon="26.41903">
        <ele>120.165089</ele>
        <time>2022-02-26T08:27:08.320Z</time>
      </trkpt>
      <trkpt lat="41.66717" lon="26.41887">
        <ele>120.284193</ele>
        <time>2022-02-26T08:27:11.289Z</time>
      </trkpt>
      <trkpt lat="41.66717" lon="26.41871">
        <ele>120.405546</ele>
        <time>2022-02-26T08:27:14.283Z</time>
      </trkpt>
      <trkpt lat="41.66717" lon="26.41855">
        <ele>120.525398</ele>
        <time>2022-02-26T08:27:17.277Z</time>
      </trkpt>
      <trkpt lat="41.66717" lon="26.41839">
        <ele>120.64004</ele>
        <time>2022-02-26T08:27:20.276Z</time>
      </trkpt>
      <trkpt lat="41.66717" lon="26.41824">
        <ele>120.751811</ele>
        <time>2022-02-26T08:27:23.275Z</time>
      </trkpt>
      <trkpt lat="41.66717" lon="26.41809">
        <ele>120.863489</ele>
        <time>2022-02-26T08:27:26.284Z</time>
      </trkpt>
      <trkpt lat="41.66717" lon="26.41794">
        <ele>120.973678</ele>
        <time>2022-02-26T08:27:29.287Z</time>
      </trkpt>
      <trkpt lat="41.66718" lon="26.4178">
        <ele>121.191823</ele>
        <time>2022-02-26T08:27:32.276Z</time>
      </trkpt>
      <trkpt lat="41.66718" lon="26.41765">
        <ele>121.422125</ele>
        <time>2022-02-26T08:27:35.271Z</time>
      </trkpt>
      <trkpt lat="41.66718" lon="26.41751">
        <ele>121.642823</ele>
        <time>2022-02-26T08:27:38.292Z</time>
      </trkpt>
      <trkpt lat="41.66718" lon="26.41737">
        <ele>121.860377</ele>
        <time>2022-02-26T08:27:41.307Z</time>
      </trkpt>
      <trkpt lat="41.66718" lon="26.41724">
        <ele>122.068374</ele>
        <time>2022-02-26T08:27:44.282Z</time>
      </trkpt>
      <trkpt lat="41.66718" lon="26.41712">
        <ele>122.268524</ele>
        <time>2022-02-26T08:27:47.286Z</time>
      </trkpt>
      <trkpt lat="41.66718" lon="26.41696">
        <ele>122.522775</ele>
        <time>2022-02-26T08:27:51.262Z</time>
      </trkpt>
      <trkpt lat="41.66719" lon="26.41681">
        <ele>122.761164</ele>
        <time>2022-02-26T08:27:55.280Z</time>
      </trkpt>
      <trkpt lat="41.66719" lon="26.41668">
        <ele>122.970749</ele>
        <time>2022-02-26T08:27:59.286Z</time>
      </trkpt>
      <trkpt lat="41.66719" lon="26.41653">
        <ele>123.204292</ele>
        <time>2022-02-26T08:28:04.269Z</time>
      </trkpt>
      <trkpt lat="41.66719" lon="26.41639">
        <ele>123.425021</ele>
        <time>2022-02-26T08:28:09.260Z</time>
      </trkpt>
      <trkpt lat="41.66719" lon="26.41625">
        <ele>123.64621</ele>
        <time>2022-02-26T08:28:14.271Z</time>
      </trkpt>
      <trkpt lat="41.66718" lon="26.41611">
        <ele>123.86885</ele>
        <time>2022-02-26T08:28:19.289Z</time>
      </trkpt>
      <trkpt lat="41.66719" lon="26.41596">
        <ele>124.107467</ele>
        <time>2022-02-26T08:28:24.280Z</time>
      </trkpt>
      <trkpt lat="41.66719" lon="26.41581">
        <ele>124.340866</ele>
        <time>2022-02-26T08:28:29.265Z</time>
      </trkpt>
      <trkpt lat="41.66719" lon="26.41567">
        <ele>124.572677</ele>
        <time>2022-02-26T08:28:34.279Z</time>
      </trkpt>
      <trkpt lat="41.66718" lon="26.41553">
        <ele>124.798167</ele>
        <time>2022-02-26T08:28:39.280Z</time>
      </trkpt>
      <trkpt lat="41.66719" lon="26.41538">
        <ele>124.927765</ele>
        <time>2022-02-26T08:28:44.274Z</time>
      </trkpt>
      <trkpt lat="41.66718" lon="26.41525">
        <ele>125.033435</ele>
        <time>2022-02-26T08:28:48.297Z</time>
      </trkpt>
      <trkpt lat="41.66718" lon="26.41513">
        <ele>125.138383</ele>
        <time>2022-02-26T08:28:52.277Z</time>
      </trkpt>
      <trkpt lat="41.66718" lon="26.415">
        <ele>125.247334</ele>
        <time>2022-02-26T08:28:56.282Z</time>
      </trkpt>
      <trkpt lat="41.66718" lon="26.41487">
        <ele>125.361358</ele>
        <time>2022-02-26T08:29:00.285Z</time>
      </trkpt>
      <trkpt lat="41.66717" lon="26.41474">
        <ele>125.464453</ele>
        <time>2022-02-26T08:29:04.327Z</time>
      </trkpt>
      <trkpt lat="41.66717" lon="26.41462">
        <ele>125.571864</ele>
        <time>2022-02-26T08:29:08.278Z</time>
      </trkpt>
      <trkpt lat="41.66716" lon="26.41449">
        <ele>125.680259</ele>
        <time>2022-02-26T08:29:12.285Z</time>
      </trkpt>
      <trkpt lat="41.66716" lon="26.41435">
        <ele>125.796899</ele>
        <time>2022-02-26T08:29:17.281Z</time>
      </trkpt>
      <trkpt lat="41.66715" lon="26.41423">
        <ele>125.902961</ele>
        <time>2022-02-26T08:29:21.284Z</time>
      </trkpt>
      <trkpt lat="41.66715" lon="26.41409">
        <ele>126.014469</ele>
        <time>2022-02-26T08:29:25.294Z</time>
      </trkpt>
      <trkpt lat="41.66715" lon="26.41396">
        <ele>126.125115</ele>
        <time>2022-02-26T08:29:29.268Z</time>
      </trkpt>
      <trkpt lat="41.66715" lon="26.41383">
        <ele>126.236692</ele>
        <time>2022-02-26T08:29:33.285Z</time>
      </trkpt>
      <trkpt lat="41.66716" lon="26.4137">
        <ele>126.350069</ele>
        <time>2022-02-26T08:29:37.335Z</time>
      </trkpt>
      <trkpt lat="41.66715" lon="26.41357">
        <ele>126.458229</ele>
        <time>2022-02-26T08:29:41.287Z</time>
      </trkpt>
      <trkpt lat="41.66715" lon="26.41343">
        <ele>126.57227</ele>
        <time>2022-02-26T08:29:45.257Z</time>
      </trkpt>
      <trkpt lat="41.66715" lon="26.41331">
        <ele>126.681221</ele>
        <time>2022-02-26T08:29:49.290Z</time>
      </trkpt>
      <trkpt lat="41.66714" lon="26.41318">
        <ele>126.790459</ele>
        <time>2022-02-26T08:29:53.281Z</time>
      </trkpt>
      <trkpt lat="41.66713" lon="26.41305">
        <ele>126.734069</ele>
        <time>2022-02-26T08:29:57.280Z</time>
      </trkpt>
      <trkpt lat="41.66712" lon="26.41291">
        <ele>126.505792</ele>
        <time>2022-02-26T08:30:01.282Z</time>
      </trkpt>
      <trkpt lat="41.66711" lon="26.41276">
        <ele>126.263638</ele>
        <time>2022-02-26T08:30:05.309Z</time>
      </trkpt>
      <trkpt lat="41.66709" lon="26.41261">
        <ele>126.012201</ele>
        <time>2022-02-26T08:30:09.274Z</time>
      </trkpt>
      <trkpt lat="41.66707" lon="26.41246">
        <ele>125.760183</ele>
        <time>2022-02-26T08:30:13.287Z</time>
      </trkpt>
      <trkpt lat="41.66705" lon="26.41231">
        <ele>125.511343</ele>
        <time>2022-02-26T08:30:17.290Z</time>
      </trkpt>
      <trkpt lat="41.66703" lon="26.41217">
        <ele>125.275515</ele>
        <time>2022-02-26T08:30:21.283Z</time>
      </trkpt>
      <trkpt lat="41.66701" lon="26.41203">
        <ele>125.040798</ele>
        <time>2022-02-26T08:30:25.295Z</time>
      </trkpt>
      <trkpt lat="41.66699" lon="26.41189">
        <ele>124.795248</ele>
        <time>2022-02-26T08:30:29.297Z</time>
      </trkpt>
      <trkpt lat="41.66696" lon="26.41176">
        <ele>124.574476</ele>
        <time>2022-02-26T08:30:33.325Z</time>
      </trkpt>
      <trkpt lat="41.66694" lon="26.4116">
        <ele>124.313891</ele>
        <time>2022-02-26T08:30:37.279Z</time>
      </trkpt>
      <trkpt lat="41.66692" lon="26.41145">
        <ele>124.053358</ele>
        <time>2022-02-26T08:30:41.284Z</time>
      </trkpt>
      <trkpt lat="41.6669" lon="26.41129">
        <ele>123.792026</ele>
        <time>2022-02-26T08:30:45.280Z</time>
      </trkpt>
      <trkpt lat="41.66688" lon="26.41117">
        <ele>123.585388</ele>
        <time>2022-02-26T08:30:48.287Z</time>
      </trkpt>
      <trkpt lat="41.66686" lon="26.41105">
        <ele>123.380583</ele>
        <time>2022-02-26T08:30:51.270Z</time>
      </trkpt>
      <trkpt lat="41.66683" lon="26.41093">
        <ele>123.177369</ele>
        <time>2022-02-26T08:30:54.296Z</time>
      </trkpt>
      <trkpt lat="41.66681" lon="26.4108">
        <ele>122.957653</ele>
        <time>2022-02-26T08:30:57.269Z</time>
      </trkpt>
      <trkpt lat="41.66678" lon="26.41067">
        <ele>122.769172</ele>
        <time>2022-02-26T08:31:00.271Z</time>
      </trkpt>
      <trkpt lat="41.66675" lon="26.41055">
        <ele>122.609542</ele>
        <time>2022-02-26T08:31:03.285Z</time>
      </trkpt>
      <trkpt lat="41.66672" lon="26.41042">
        <ele>122.450277</ele>
        <time>2022-02-26T08:31:06.267Z</time>
      </trkpt>
      <trkpt lat="41.66668" lon="26.4103">
        <ele>122.280082</ele>
        <time>2022-02-26T08:31:09.266Z</time>
      </trkpt>
      <trkpt lat="41.66665" lon="26.41017">
        <ele>122.113356</ele>
        <time>2022-02-26T08:31:12.291Z</time>
      </trkpt>
      <trkpt lat="41.66661" lon="26.41004">
        <ele>121.941958</ele>
        <time>2022-02-26T08:31:15.284Z</time>
      </trkpt>
      <trkpt lat="41.66658" lon="26.40991">
        <ele>121.777537</ele>
        <time>2022-02-26T08:31:18.271Z</time>
      </trkpt>
      <trkpt lat="41.66654" lon="26.40979">
        <ele>121.610606</ele>
        <time>2022-02-26T08:31:21.281Z</time>
      </trkpt>
      <trkpt lat="41.6665" lon="26.40967">
        <ele>121.444431</ele>
        <time>2022-02-26T08:31:24.270Z</time>
      </trkpt>
      <trkpt lat="41.66646" lon="26.40954">
        <ele>121.274573</ele>
        <time>2022-02-26T08:31:27.291Z</time>
      </trkpt>
      <trkpt lat="41.66642" lon="26.40941">
        <ele>121.100809</ele>
        <time>2022-02-26T08:31:30.272Z</time>
      </trkpt>
      <trkpt lat="41.66638" lon="26.40928">
        <ele>120.932245</ele>
        <time>2022-02-26T08:31:33.281Z</time>
      </trkpt>
      <trkpt lat="41.66633" lon="26.40915">
        <ele>120.756979</ele>
        <time>2022-02-26T08:31:36.285Z</time>
      </trkpt>
      <trkpt lat="41.66629" lon="26.40902">
        <ele>120.579655</ele>
        <time>2022-02-26T08:31:39.298Z</time>
      </trkpt>
      <trkpt lat="41.66625" lon="26.40888">
        <ele>120.395559</ele>
        <time>2022-02-26T08:31:42.257Z</time>
      </trkpt>
      <trkpt lat="41.6662" lon="26.40874">
        <ele>120.20302</ele>
        <time>2022-02-26T08:31:45.284Z</time>
      </trkpt>
      <trkpt lat="41.66615" lon="26.4086">
        <ele>120.010514</ele>
        <time>2022-02-26T08:31:48.308Z</time>
      </trkpt>
      <trkpt lat="41.6661" lon="26.40846">
        <ele>119.977624</ele>
        <time>2022-02-26T08:31:51.275Z</time>
      </trkpt>
      <trkpt lat="41.66605" lon="26.40832">
        <ele>120.144572</ele>
        <time>2022-02-26T08:31:54.286Z</time>
      </trkpt>
      <trkpt lat="41.666" lon="26.40818">
        <ele>120.302759</ele>
        <time>2022-02-26T08:31:57.293Z</time>
      </trkpt>
      <trkpt lat="41.66596" lon="26.40804">
        <ele>120.458826</ele>
        <time>2022-02-26T08:32:00.287Z</time>
      </trkpt>
      <trkpt lat="41.66591" lon="26.4079">
        <ele>120.623395</ele>
        <time>2022-02-26T08:32:03.283Z</time>
      </trkpt>
      <trkpt lat="41.66586" lon="26.40776">
        <ele>120.786254</ele>
        <time>2022-02-26T08:32:06.282Z</time>
      </trkpt>
      <trkpt lat="41.66581" lon="26.40763">
        <ele>120.941195</ele>
        <time>2022-02-26T08:32:09.299Z</time>
      </trkpt>
      <trkpt lat="41.66576" lon="26.4075">
        <ele>121.100547</ele>
        <time>2022-02-26T08:32:12.296Z</time>
      </trkpt>
      <trkpt lat="41.66571" lon="26.40736">
        <ele>121.261488</ele>
        <time>2022-02-26T08:32:15.293Z</time>
      </trkpt>
      <trkpt lat="41.66566" lon="26.40723">
        <ele>121.416195</ele>
        <time>2022-02-26T08:32:18.269Z</time>
      </trkpt>
      <trkpt lat="41.66562" lon="26.40709">
        <ele>121.576715</ele>
        <time>2022-02-26T08:32:21.337Z</time>
      </trkpt>
      <trkpt lat="41.66558" lon="26.40696">
        <ele>121.73113</ele>
        <time>2022-02-26T08:32:24.279Z</time>
      </trkpt>
      <trkpt lat="41.66553" lon="26.40682">
        <ele>121.887988</ele>
        <time>2022-02-26T08:32:27.275Z</time>
      </trkpt>
      <trkpt lat="41.66549" lon="26.40668">
        <ele>122.049784</ele>
        <time>2022-02-26T08:32:30.268Z</time>
      </trkpt>
      <trkpt lat="41.66545" lon="26.40654">
        <ele>122.211158</ele>
        <time>2022-02-26T08:32:33.276Z</time>
      </trkpt>
      <trkpt lat="41.6654" lon="26.4064">
        <ele>122.370312</ele>
        <time>2022-02-26T08:32:36.262Z</time>
      </trkpt>
      <trkpt lat="41.66536" lon="26.40626">
        <ele>122.455479</ele>
        <time>2022-02-26T08:32:39.257Z</time>
      </trkpt>
      <trkpt lat="41.66531" lon="26.40613">
        <ele>122.464365</ele>
        <time>2022-02-26T08:32:42.276Z</time>
      </trkpt>
      <trkpt lat="41.66526" lon="26.40599">
        <ele>122.473185</ele>
        <time>2022-02-26T08:32:45.286Z</time>
      </trkpt>
      <trkpt lat="41.66522" lon="26.40586">
        <ele>122.482038</ele>
        <time>2022-02-26T08:32:48.283Z</time>
      </trkpt>
      <trkpt lat="41.66517" lon="26.40572">
        <ele>122.490903</ele>
        <time>2022-02-26T08:32:51.280Z</time>
      </trkpt>
      <trkpt lat="41.66513" lon="26.40559">
        <ele>122.49969</ele>
        <time>2022-02-26T08:32:54.299Z</time>
      </trkpt>
      <trkpt lat="41.66509" lon="26.40546">
        <ele>122.508242</ele>
        <time>2022-02-26T08:32:57.275Z</time>
      </trkpt>
      <trkpt lat="41.66504" lon="26.40532">
        <ele>122.517237</ele>
        <time>2022-02-26T08:33:00.315Z</time>
      </trkpt>
      <trkpt lat="41.665" lon="26.40518">
        <ele>122.526332</ele>
        <time>2022-02-26T08:33:03.272Z</time>
      </trkpt>
      <trkpt lat="41.66495" lon="26.40504">
        <ele>122.535426</ele>
        <time>2022-02-26T08:33:06.360Z</time>
      </trkpt>
      <trkpt lat="41.66491" lon="26.40491">
        <ele>122.544456</ele>
        <time>2022-02-26T08:33:09.272Z</time>
      </trkpt>
      <trkpt lat="41.66486" lon="26.40476">
        <ele>122.554009</ele>
        <time>2022-02-26T08:33:12.268Z</time>
      </trkpt>
      <trkpt lat="41.66481" lon="26.40462">
        <ele>122.563563</ele>
        <time>2022-02-26T08:33:15.291Z</time>
      </trkpt>
      <trkpt lat="41.66476" lon="26.40447">
        <ele>122.573194</ele>
        <time>2022-02-26T08:33:18.279Z</time>
      </trkpt>
      <trkpt lat="41.66471" lon="26.40433">
        <ele>122.582688</ele>
        <time>2022-02-26T08:33:21.335Z</time>
      </trkpt>
      <trkpt lat="41.66466" lon="26.40419">
        <ele>122.591717</ele>
        <time>2022-02-26T08:33:24.265Z</time>
      </trkpt>
      <trkpt lat="41.66461" lon="26.40405">
        <ele>122.617107</ele>
        <time>2022-02-26T08:33:27.282Z</time>
      </trkpt>
      <trkpt lat="41.66456" lon="26.4039">
        <ele>122.652597</ele>
        <time>2022-02-26T08:33:30.288Z</time>
      </trkpt>
      <trkpt lat="41.6645" lon="26.40375">
        <ele>122.689863</ele>
        <time>2022-02-26T08:33:33.281Z</time>
      </trkpt>
      <trkpt lat="41.66445" lon="26.4036">
        <ele>122.726481</ele>
        <time>2022-02-26T08:33:36.275Z</time>
      </trkpt>
      <trkpt lat="41.6644" lon="26.40345">
        <ele>122.763318</ele>
        <time>2022-02-26T08:33:39.309Z</time>
      </trkpt>
      <trkpt lat="41.66434" lon="26.4033">
        <ele>122.801317</ele>
        <time>2022-02-26T08:33:42.282Z</time>
      </trkpt>
      <trkpt lat="41.66429" lon="26.40314">
        <ele>122.838703</ele>
        <time>2022-02-26T08:33:45.326Z</time>
      </trkpt>
      <trkpt lat="41.66425" lon="26.40299">
        <ele>122.874909</ele>
        <time>2022-02-26T08:33:48.285Z</time>
      </trkpt>
      <trkpt lat="41.6642" lon="26.40284">
        <ele>122.910405</ele>
        <time>2022-02-26T08:33:51.284Z</time>
      </trkpt>
      <trkpt lat="41.66416" lon="26.40269">
        <ele>122.94654</ele>
        <time>2022-02-26T08:33:54.282Z</time>
      </trkpt>
      <trkpt lat="41.6641" lon="26.40253">
        <ele>122.985265</ele>
        <time>2022-02-26T08:33:57.279Z</time>
      </trkpt>
      <trkpt lat="41.66407" lon="26.40242">
        <ele>123.011979</ele>
        <time>2022-02-26T08:33:59.295Z</time>
      </trkpt>
      <trkpt lat="41.66401" lon="26.40226">
        <ele>123.051666</ele>
        <time>2022-02-26T08:34:02.274Z</time>
      </trkpt>
      <trkpt lat="41.66398" lon="26.40214">
        <ele>123.079309</ele>
        <time>2022-02-26T08:34:04.271Z</time>
      </trkpt>
      <trkpt lat="41.66394" lon="26.40203">
        <ele>123.106549</ele>
        <time>2022-02-26T08:34:06.270Z</time>
      </trkpt>
      <trkpt lat="41.6639" lon="26.40192">
        <ele>123.110688</ele>
        <time>2022-02-26T08:34:08.282Z</time>
      </trkpt>
      <trkpt lat="41.66386" lon="26.40181">
        <ele>123.013803</ele>
        <time>2022-02-26T08:34:10.288Z</time>
      </trkpt>
      <trkpt lat="41.66382" lon="26.4017">
        <ele>122.918519</ele>
        <time>2022-02-26T08:34:12.288Z</time>
      </trkpt>
      <trkpt lat="41.66378" lon="26.40159">
        <ele>122.820467</ele>
        <time>2022-02-26T08:34:14.282Z</time>
      </trkpt>
      <trkpt lat="41.66374" lon="26.40147">
        <ele>122.720533</ele>
        <time>2022-02-26T08:34:16.279Z</time>
      </trkpt>
      <trkpt lat="41.6637" lon="26.40136">
        <ele>122.624362</ele>
        <time>2022-02-26T08:34:18.289Z</time>
      </trkpt>
      <trkpt lat="41.66365" lon="26.4012">
        <ele>122.484352</ele>
        <time>2022-02-26T08:34:21.283Z</time>
      </trkpt>
      <trkpt lat="41.66359" lon="26.40104">
        <ele>122.343362</ele>
        <time>2022-02-26T08:34:24.310Z</time>
      </trkpt>
      <trkpt lat="41.66353" lon="26.40088">
        <ele>122.201655</ele>
        <time>2022-02-26T08:34:27.281Z</time>
      </trkpt>
      <trkpt lat="41.66348" lon="26.40071">
        <ele>122.058511</ele>
        <time>2022-02-26T08:34:30.322Z</time>
      </trkpt>
      <trkpt lat="41.66344" lon="26.4006">
        <ele>121.96207</ele>
        <time>2022-02-26T08:34:32.284Z</time>
      </trkpt>
      <trkpt lat="41.6634" lon="26.40049">
        <ele>121.864011</ele>
        <time>2022-02-26T08:34:34.278Z</time>
      </trkpt>
      <trkpt lat="41.66336" lon="26.40038">
        <ele>121.764788</ele>
        <time>2022-02-26T08:34:36.271Z</time>
      </trkpt>
      <trkpt lat="41.66332" lon="26.40026">
        <ele>121.662713</ele>
        <time>2022-02-26T08:34:38.291Z</time>
      </trkpt>
      <trkpt lat="41.66328" lon="26.40014">
        <ele>121.561083</ele>
        <time>2022-02-26T08:34:40.311Z</time>
      </trkpt>
      <trkpt lat="41.66324" lon="26.40003">
        <ele>121.464453</ele>
        <time>2022-02-26T08:34:42.269Z</time>
      </trkpt>
      <trkpt lat="41.66318" lon="26.39987">
        <ele>121.323184</ele>
        <time>2022-02-26T08:34:45.296Z</time>
      </trkpt>
      <trkpt lat="41.66313" lon="26.39971">
        <ele>121.100984</ele>
        <time>2022-02-26T08:34:48.266Z</time>
      </trkpt>
      <trkpt lat="41.66307" lon="26.39954">
        <ele>120.696316</ele>
        <time>2022-02-26T08:34:51.281Z</time>
      </trkpt>
      <trkpt lat="41.66304" lon="26.39943">
        <ele>120.417361</ele>
        <time>2022-02-26T08:34:53.278Z</time>
      </trkpt>
      <trkpt lat="41.663" lon="26.39931">
        <ele>120.128703</ele>
        <time>2022-02-26T08:34:55.267Z</time>
      </trkpt>
      <trkpt lat="41.66296" lon="26.39919">
        <ele>119.828978</ele>
        <time>2022-02-26T08:34:57.275Z</time>
      </trkpt>
      <trkpt lat="41.66291" lon="26.39907">
        <ele>119.523328</ele>
        <time>2022-02-26T08:34:59.294Z</time>
      </trkpt>
      <trkpt lat="41.66288" lon="26.39894">
        <ele>119.216082</ele>
        <time>2022-02-26T08:35:01.286Z</time>
      </trkpt>
      <trkpt lat="41.66284" lon="26.39881">
        <ele>118.900245</ele>
        <time>2022-02-26T08:35:03.305Z</time>
      </trkpt>
      <trkpt lat="41.6628" lon="26.39868">
        <ele>118.584408</ele>
        <time>2022-02-26T08:35:05.268Z</time>
      </trkpt>
      <trkpt lat="41.66276" lon="26.39855">
        <ele>118.270812</ele>
        <time>2022-02-26T08:35:07.280Z</time>
      </trkpt>
      <trkpt lat="41.66272" lon="26.39842">
        <ele>117.948733</ele>
        <time>2022-02-26T08:35:09.299Z</time>
      </trkpt>
      <trkpt lat="41.66267" lon="26.39829">
        <ele>117.626075</ele>
        <time>2022-02-26T08:35:11.306Z</time>
      </trkpt>
      <trkpt lat="41.66264" lon="26.39816">
        <ele>117.320929</ele>
        <time>2022-02-26T08:35:13.283Z</time>
      </trkpt>
      <trkpt lat="41.6626" lon="26.39803">
        <ele>117.014545</ele>
        <time>2022-02-26T08:35:15.311Z</time>
      </trkpt>
      <trkpt lat="41.66257" lon="26.39791">
        <ele>116.719834</ele>
        <time>2022-02-26T08:35:17.255Z</time>
      </trkpt>
      <trkpt lat="41.66254" lon="26.39778">
        <ele>116.424524</ele>
        <time>2022-02-26T08:35:19.283Z</time>
      </trkpt>
      <trkpt lat="41.66251" lon="26.39766">
        <ele>116.128343</ele>
        <time>2022-02-26T08:35:21.319Z</time>
      </trkpt>
      <trkpt lat="41.66248" lon="26.39753">
        <ele>115.827866</ele>
        <time>2022-02-26T08:35:23.284Z</time>
      </trkpt>
      <trkpt lat="41.66245" lon="26.3974">
        <ele>115.543065</ele>
        <time>2022-02-26T08:35:25.305Z</time>
      </trkpt>
      <trkpt lat="41.66242" lon="26.39727">
        <ele>115.26338</ele>
        <time>2022-02-26T08:35:27.321Z</time>
      </trkpt>
      <trkpt lat="41.6624" lon="26.39713">
        <ele>114.979364</ele>
        <time>2022-02-26T08:35:29.273Z</time>
      </trkpt>
      <trkpt lat="41.66238" lon="26.397">
        <ele>114.694741</ele>
        <time>2022-02-26T08:35:31.330Z</time>
      </trkpt>
      <trkpt lat="41.66235" lon="26.39686">
        <ele>114.407471</ele>
        <time>2022-02-26T08:35:33.310Z</time>
      </trkpt>
      <trkpt lat="41.66233" lon="26.39673">
        <ele>114.114947</ele>
        <time>2022-02-26T08:35:35.280Z</time>
      </trkpt>
      <trkpt lat="41.66232" lon="26.39658">
        <ele>113.820493</ele>
        <time>2022-02-26T08:35:37.276Z</time>
      </trkpt>
      <trkpt lat="41.6623" lon="26.39644">
        <ele>113.5188</ele>
        <time>2022-02-26T08:35:39.307Z</time>
      </trkpt>
      <trkpt lat="41.66228" lon="26.39629">
        <ele>113.205891</ele>
        <time>2022-02-26T08:35:41.286Z</time>
      </trkpt>
      <trkpt lat="41.66226" lon="26.39614">
        <ele>112.885381</ele>
        <time>2022-02-26T08:35:43.291Z</time>
      </trkpt>
      <trkpt lat="41.66224" lon="26.39598">
        <ele>112.550634</ele>
        <time>2022-02-26T08:35:45.271Z</time>
      </trkpt>
      <trkpt lat="41.66222" lon="26.39582">
        <ele>112.216851</ele>
        <time>2022-02-26T08:35:47.249Z</time>
      </trkpt>
      <trkpt lat="41.6622" lon="26.39566">
        <ele>111.885735</ele>
        <time>2022-02-26T08:35:49.261Z</time>
      </trkpt>
      <trkpt lat="41.66219" lon="26.3955">
        <ele>111.54461</ele>
        <time>2022-02-26T08:35:51.277Z</time>
      </trkpt>
      <trkpt lat="41.66218" lon="26.39533">
        <ele>111.199854</ele>
        <time>2022-02-26T08:35:53.282Z</time>
      </trkpt>
      <trkpt lat="41.66217" lon="26.39517">
        <ele>110.853432</ele>
        <time>2022-02-26T08:35:55.315Z</time>
      </trkpt>
      <trkpt lat="41.66216" lon="26.395">
        <ele>110.545105</ele>
        <time>2022-02-26T08:35:57.271Z</time>
      </trkpt>
      <trkpt lat="41.66216" lon="26.39483">
        <ele>110.230357</ele>
        <time>2022-02-26T08:35:59.267Z</time>
      </trkpt>
      <trkpt lat="41.66215" lon="26.39466">
        <ele>109.922512</ele>
        <time>2022-02-26T08:36:01.265Z</time>
      </trkpt>
      <trkpt lat="41.66214" lon="26.39449">
        <ele>109.611165</ele>
        <time>2022-02-26T08:36:03.309Z</time>
      </trkpt>
      <trkpt lat="41.66214" lon="26.39433">
        <ele>109.302034</ele>
        <time>2022-02-26T08:36:05.257Z</time>
      </trkpt>
      <trkpt lat="41.66213" lon="26.39415">
        <ele>108.985784</ele>
        <time>2022-02-26T08:36:07.267Z</time>
      </trkpt>
      <trkpt lat="41.66213" lon="26.39398">
        <ele>108.66762</ele>
        <time>2022-02-26T08:36:09.301Z</time>
      </trkpt>
      <trkpt lat="41.66213" lon="26.39381">
        <ele>108.358724</ele>
        <time>2022-02-26T08:36:11.272Z</time>
      </trkpt>
      <trkpt lat="41.66213" lon="26.39364">
        <ele>108.038655</ele>
        <time>2022-02-26T08:36:13.273Z</time>
      </trkpt>
      <trkpt lat="41.66213" lon="26.39346">
        <ele>107.718501</ele>
        <time>2022-02-26T08:36:15.280Z</time>
      </trkpt>
      <trkpt lat="41.66213" lon="26.39329">
        <ele>107.39123</ele>
        <time>2022-02-26T08:36:17.285Z</time>
      </trkpt>
      <trkpt lat="41.66213" lon="26.3931">
        <ele>107.056594</ele>
        <time>2022-02-26T08:36:19.287Z</time>
      </trkpt>
      <trkpt lat="41.66213" lon="26.39292">
        <ele>106.72377</ele>
        <time>2022-02-26T08:36:21.304Z</time>
      </trkpt>
      <trkpt lat="41.66213" lon="26.39275">
        <ele>106.405743</ele>
        <time>2022-02-26T08:36:23.284Z</time>
      </trkpt>
      <trkpt lat="41.66213" lon="26.39257">
        <ele>106.317858</ele>
        <time>2022-02-26T08:36:25.268Z</time>
      </trkpt>
      <trkpt lat="41.66213" lon="26.39241">
        <ele>106.235552</ele>
        <time>2022-02-26T08:36:27.276Z</time>
      </trkpt>
      <trkpt lat="41.66213" lon="26.39224">
        <ele>106.154743</ele>
        <time>2022-02-26T08:36:29.280Z</time>
      </trkpt>
      <trkpt lat="41.66212" lon="26.39209">
        <ele>106.075858</ele>
        <time>2022-02-26T08:36:31.265Z</time>
      </trkpt>
      <trkpt lat="41.66212" lon="26.39193">
        <ele>105.995545</ele>
        <time>2022-02-26T08:36:33.277Z</time>
      </trkpt>
      <trkpt lat="41.66214" lon="26.39177">
        <ele>105.916254</ele>
        <time>2022-02-26T08:36:35.296Z</time>
      </trkpt>
      <trkpt lat="41.66214" lon="26.39162">
        <ele>105.84043</ele>
        <time>2022-02-26T08:36:37.285Z</time>
      </trkpt>
      <trkpt lat="41.66214" lon="26.39147">
        <ele>105.767076</ele>
        <time>2022-02-26T08:36:39.275Z</time>
      </trkpt>
      <trkpt lat="41.66213" lon="26.39133">
        <ele>105.696729</ele>
        <time>2022-02-26T08:36:41.291Z</time>
      </trkpt>
      <trkpt lat="41.66213" lon="26.39119">
        <ele>105.629884</ele>
        <time>2022-02-26T08:36:43.309Z</time>
      </trkpt>
      <trkpt lat="41.66213" lon="26.39106">
        <ele>105.564483</ele>
        <time>2022-02-26T08:36:45.282Z</time>
      </trkpt>
      <trkpt lat="41.66213" lon="26.39094">
        <ele>105.501632</ele>
        <time>2022-02-26T08:36:47.295Z</time>
      </trkpt>
      <trkpt lat="41.66213" lon="26.39081">
        <ele>105.440742</ele>
        <time>2022-02-26T08:36:49.276Z</time>
      </trkpt>
      <trkpt lat="41.66213" lon="26.39064">
        <ele>105.35245</ele>
        <time>2022-02-26T08:36:52.293Z</time>
      </trkpt>
      <trkpt lat="41.66212" lon="26.39046">
        <ele>105.263159</ele>
        <time>2022-02-26T08:36:55.278Z</time>
      </trkpt>
      <trkpt lat="41.66212" lon="26.39028">
        <ele>105.289906</ele>
        <time>2022-02-26T08:36:58.275Z</time>
      </trkpt>
      <trkpt lat="41.66212" lon="26.39011">
        <ele>105.511068</ele>
        <time>2022-02-26T08:37:01.276Z</time>
      </trkpt>
      <trkpt lat="41.66212" lon="26.38994">
        <ele>105.730882</ele>
        <time>2022-02-26T08:37:04.279Z</time>
      </trkpt>
      <trkpt lat="41.66212" lon="26.38977">
        <ele>105.951989</ele>
        <time>2022-02-26T08:37:07.284Z</time>
      </trkpt>
      <trkpt lat="41.66212" lon="26.3896">
        <ele>106.169217</ele>
        <time>2022-02-26T08:37:10.262Z</time>
      </trkpt>
      <trkpt lat="41.66212" lon="26.38944">
        <ele>106.377416</ele>
        <time>2022-02-26T08:37:13.299Z</time>
      </trkpt>
      <trkpt lat="41.66212" lon="26.38929">
        <ele>106.576656</ele>
        <time>2022-02-26T08:37:16.338Z</time>
      </trkpt>
      <trkpt lat="41.66213" lon="26.38913">
        <ele>106.773311</ele>
        <time>2022-02-26T08:37:19.285Z</time>
      </trkpt>
      <trkpt lat="41.66212" lon="26.38898">
        <ele>106.971146</ele>
        <time>2022-02-26T08:37:22.363Z</time>
      </trkpt>
      <trkpt lat="41.66212" lon="26.38883">
        <ele>107.166509</ele>
        <time>2022-02-26T08:37:25.275Z</time>
      </trkpt>
      <trkpt lat="41.66212" lon="26.38868">
        <ele>107.356609</ele>
        <time>2022-02-26T08:37:28.295Z</time>
      </trkpt>
      <trkpt lat="41.66212" lon="26.38855">
        <ele>107.533824</ele>
        <time>2022-02-26T08:37:31.291Z</time>
      </trkpt>
      <trkpt lat="41.66212" lon="26.38841">
        <ele>107.704498</ele>
        <time>2022-02-26T08:37:34.281Z</time>
      </trkpt>
      <trkpt lat="41.66212" lon="26.38828">
        <ele>107.873958</ele>
        <time>2022-02-26T08:37:37.275Z</time>
      </trkpt>
      <trkpt lat="41.66211" lon="26.38815">
        <ele>108.048648</ele>
        <time>2022-02-26T08:37:40.285Z</time>
      </trkpt>
      <trkpt lat="41.66211" lon="26.38803">
        <ele>108.207921</ele>
        <time>2022-02-26T08:37:43.291Z</time>
      </trkpt>
      <trkpt lat="41.66211" lon="26.3879">
        <ele>108.366637</ele>
        <time>2022-02-26T08:37:46.270Z</time>
      </trkpt>
      <trkpt lat="41.6621" lon="26.38777">
        <ele>108.502268</ele>
        <time>2022-02-26T08:37:49.303Z</time>
      </trkpt>
      <trkpt lat="41.6621" lon="26.38765">
        <ele>108.638927</ele>
        <time>2022-02-26T08:37:52.300Z</time>
      </trkpt>
      <trkpt lat="41.66209" lon="26.38753">
        <ele>108.772229</ele>
        <time>2022-02-26T08:37:55.309Z</time>
      </trkpt>
      <trkpt lat="41.66209" lon="26.38737">
        <ele>108.950899</ele>
        <time>2022-02-26T08:37:59.272Z</time>
      </trkpt>
      <trkpt lat="41.66208" lon="26.38724">
        <ele>109.094409</ele>
        <time>2022-02-26T08:38:02.271Z</time>
      </trkpt>
      <trkpt lat="41.66207" lon="26.3871">
        <ele>109.244414</ele>
        <time>2022-02-26T08:38:05.276Z</time>
      </trkpt>
      <trkpt lat="41.66207" lon="26.38696">
        <ele>109.39572</ele>
        <time>2022-02-26T08:38:08.281Z</time>
      </trkpt>
      <trkpt lat="41.66206" lon="26.38682">
        <ele>109.550045</ele>
        <time>2022-02-26T08:38:11.279Z</time>
      </trkpt>
      <trkpt lat="41.66205" lon="26.38668">
        <ele>109.712229</ele>
        <time>2022-02-26T08:38:14.284Z</time>
      </trkpt>
      <trkpt lat="41.66205" lon="26.38653">
        <ele>109.877921</ele>
        <time>2022-02-26T08:38:17.320Z</time>
      </trkpt>
      <trkpt lat="41.66203" lon="26.38638">
        <ele>110.037457</ele>
        <time>2022-02-26T08:38:20.287Z</time>
      </trkpt>
      <trkpt lat="41.66203" lon="26.38624">
        <ele>110.197546</ele>
        <time>2022-02-26T08:38:23.314Z</time>
      </trkpt>
      <trkpt lat="41.66201" lon="26.38609">
        <ele>110.362719</ele>
        <time>2022-02-26T08:38:26.298Z</time>
      </trkpt>
      <trkpt lat="41.662" lon="26.38594">
        <ele>110.523701</ele>
        <time>2022-02-26T08:38:29.267Z</time>
      </trkpt>
      <trkpt lat="41.66199" lon="26.38579">
        <ele>110.688875</ele>
        <time>2022-02-26T08:38:32.285Z</time>
      </trkpt>
      <trkpt lat="41.66197" lon="26.38565">
        <ele>110.854221</ele>
        <time>2022-02-26T08:38:35.284Z</time>
      </trkpt>
      <trkpt lat="41.66194" lon="26.38549">
        <ele>110.889612</ele>
        <time>2022-02-26T08:38:38.298Z</time>
      </trkpt>
      <trkpt lat="41.66192" lon="26.38534">
        <ele>110.649182</ele>
        <time>2022-02-26T08:38:41.288Z</time>
      </trkpt>
      <trkpt lat="41.6619" lon="26.3852">
        <ele>110.411535</ele>
        <time>2022-02-26T08:38:44.287Z</time>
      </trkpt>
      <trkpt lat="41.66188" lon="26.38506">
        <ele>110.180439</ele>
        <time>2022-02-26T08:38:47.285Z</time>
      </trkpt>
      <trkpt lat="41.66185" lon="26.38491">
        <ele>109.936002</ele>
        <time>2022-02-26T08:38:50.280Z</time>
      </trkpt>
      <trkpt lat="41.66183" lon="26.38475">
        <ele>109.678681</ele>
        <time>2022-02-26T08:38:53.281Z</time>
      </trkpt>
      <trkpt lat="41.6618" lon="26.38458">
        <ele>109.406921</ele>
        <time>2022-02-26T08:38:56.291Z</time>
      </trkpt>
      <trkpt lat="41.66177" lon="26.38441">
        <ele>109.13169</ele>
        <time>2022-02-26T08:38:59.286Z</time>
      </trkpt>
      <trkpt lat="41.66174" lon="26.38424">
        <ele>108.84457</ele>
        <time>2022-02-26T08:39:02.312Z</time>
      </trkpt>
      <trkpt lat="41.66172" lon="26.38412">
        <ele>108.652123</ele>
        <time>2022-02-26T08:39:04.277Z</time>
      </trkpt>
      <trkpt lat="41.6617" lon="26.384">
        <ele>108.456573</ele>
        <time>2022-02-26T08:39:06.290Z</time>
      </trkpt>
      <trkpt lat="41.66168" lon="26.38388">
        <ele>108.262574</ele>
        <time>2022-02-26T08:39:08.272Z</time>
      </trkpt>
      <trkpt lat="41.66166" lon="26.38376">
        <ele>108.070127</ele>
        <time>2022-02-26T08:39:10.266Z</time>
      </trkpt>
      <trkpt lat="41.66163" lon="26.38359">
        <ele>107.791019</ele>
        <time>2022-02-26T08:39:13.312Z</time>
      </trkpt>
      <trkpt lat="41.66161" lon="26.38342">
        <ele>107.508367</ele>
        <time>2022-02-26T08:39:16.287Z</time>
      </trkpt>
      <trkpt lat="41.66158" lon="26.38325">
        <ele>107.233497</ele>
        <time>2022-02-26T08:39:19.313Z</time>
      </trkpt>
      <trkpt lat="41.66155" lon="26.38308">
        <ele>107.227933</ele>
        <time>2022-02-26T08:39:22.276Z</time>
      </trkpt>
      <trkpt lat="41.66154" lon="26.38296">
        <ele>107.317864</ele>
        <time>2022-02-26T08:39:24.282Z</time>
      </trkpt>
      <trkpt lat="41.66152" lon="26.38284">
        <ele>107.407259</ele>
        <time>2022-02-26T08:39:26.278Z</time>
      </trkpt>
      <trkpt lat="41.6615" lon="26.38272">
        <ele>107.497918</ele>
        <time>2022-02-26T08:39:28.290Z</time>
      </trkpt>
      <trkpt lat="41.66148" lon="26.3826">
        <ele>107.588041</ele>
        <time>2022-02-26T08:39:30.285Z</time>
      </trkpt>
      <trkpt lat="41.66147" lon="26.38248">
        <ele>107.679619</ele>
        <time>2022-02-26T08:39:32.269Z</time>
      </trkpt>
      <trkpt lat="41.66145" lon="26.38235">
        <ele>107.773576</ele>
        <time>2022-02-26T08:39:34.279Z</time>
      </trkpt>
      <trkpt lat="41.66143" lon="26.38223">
        <ele>107.866611</ele>
        <time>2022-02-26T08:39:36.309Z</time>
      </trkpt>
      <trkpt lat="41.66141" lon="26.38211">
        <ele>107.960047</ele>
        <time>2022-02-26T08:39:38.315Z</time>
      </trkpt>
      <trkpt lat="41.66139" lon="26.38199">
        <ele>108.051309</ele>
        <time>2022-02-26T08:39:40.270Z</time>
      </trkpt>
      <trkpt lat="41.66137" lon="26.38186">
        <ele>108.145445</ele>
        <time>2022-02-26T08:39:42.301Z</time>
      </trkpt>
      <trkpt lat="41.66135" lon="26.38174">
        <ele>108.239099</ele>
        <time>2022-02-26T08:39:44.301Z</time>
      </trkpt>
      <trkpt lat="41.66133" lon="26.38162">
        <ele>108.332752</ele>
        <time>2022-02-26T08:39:46.281Z</time>
      </trkpt>
      <trkpt lat="41.66131" lon="26.3815">
        <ele>108.424014</ele>
        <time>2022-02-26T08:39:48.324Z</time>
      </trkpt>
      <trkpt lat="41.66129" lon="26.38138">
        <ele>108.514864</ele>
        <time>2022-02-26T08:39:50.271Z</time>
      </trkpt>
      <trkpt lat="41.66127" lon="26.38126">
        <ele>108.605915</ele>
        <time>2022-02-26T08:39:52.271Z</time>
      </trkpt>
      <trkpt lat="41.66126" lon="26.38114">
        <ele>108.696959</ele>
        <time>2022-02-26T08:39:54.270Z</time>
      </trkpt>
      <trkpt lat="41.66124" lon="26.38101">
        <ele>108.790916</ele>
        <time>2022-02-26T08:39:56.308Z</time>
      </trkpt>
      <trkpt lat="41.66122" lon="26.38089">
        <ele>108.883951</ele>
        <time>2022-02-26T08:39:58.263Z</time>
      </trkpt>
      <trkpt lat="41.6612" lon="26.38077">
        <ele>108.862468</ele>
        <time>2022-02-26T08:40:00.272Z</time>
      </trkpt>
      <trkpt lat="41.66118" lon="26.38064">
        <ele>108.734694</ele>
        <time>2022-02-26T08:40:02.280Z</time>
      </trkpt>
      <trkpt lat="41.66117" lon="26.38052">
        <ele>108.60942</ele>
        <time>2022-02-26T08:40:04.305Z</time>
      </trkpt>
      <trkpt lat="41.66115" lon="26.3804">
        <ele>108.482901</ele>
        <time>2022-02-26T08:40:06.281Z</time>
      </trkpt>
      <trkpt lat="41.66113" lon="26.38028">
        <ele>108.357507</ele>
        <time>2022-02-26T08:40:08.274Z</time>
      </trkpt>
      <trkpt lat="41.66111" lon="26.38015">
        <ele>108.229454</ele>
        <time>2022-02-26T08:40:10.266Z</time>
      </trkpt>
      <trkpt lat="41.66109" lon="26.38003">
        <ele>108.106027</ele>
        <time>2022-02-26T08:40:12.275Z</time>
      </trkpt>
      <trkpt lat="41.66107" lon="26.37992">
        <ele>107.983887</ele>
        <time>2022-02-26T08:40:14.289Z</time>
      </trkpt>
      <trkpt lat="41.66105" lon="26.3798">
        <ele>107.86046</ele>
        <time>2022-02-26T08:40:16.281Z</time>
      </trkpt>
      <trkpt lat="41.66102" lon="26.37962">
        <ele>107.67853</ele>
        <time>2022-02-26T08:40:19.273Z</time>
      </trkpt>
      <trkpt lat="41.661" lon="26.3795">
        <ele>107.557949</ele>
        <time>2022-02-26T08:40:21.322Z</time>
      </trkpt>
      <trkpt lat="41.66097" lon="26.37933">
        <ele>107.376306</ele>
        <time>2022-02-26T08:40:24.272Z</time>
      </trkpt>
      <trkpt lat="41.66095" lon="26.37921">
        <ele>107.252229</ele>
        <time>2022-02-26T08:40:26.271Z</time>
      </trkpt>
      <trkpt lat="41.66093" lon="26.37909">
        <ele>107.127503</ele>
        <time>2022-02-26T08:40:28.307Z</time>
      </trkpt>
      <trkpt lat="41.66091" lon="26.37897">
        <ele>107.001126</ele>
        <time>2022-02-26T08:40:30.281Z</time>
      </trkpt>
      <trkpt lat="41.66088" lon="26.37885">
        <ele>106.876715</ele>
        <time>2022-02-26T08:40:32.316Z</time>
      </trkpt>
      <trkpt lat="41.66086" lon="26.37872">
        <ele>106.750634</ele>
        <time>2022-02-26T08:40:34.277Z</time>
      </trkpt>
      <trkpt lat="41.66085" lon="26.3786">
        <ele>106.624836</ele>
        <time>2022-02-26T08:40:36.276Z</time>
      </trkpt>
      <trkpt lat="41.66083" lon="26.37848">
        <ele>106.497853</ele>
        <time>2022-02-26T08:40:38.367Z</time>
      </trkpt>
      <trkpt lat="41.66081" lon="26.37836">
        <ele>106.449723</ele>
        <time>2022-02-26T08:40:40.290Z</time>
      </trkpt>
      <trkpt lat="41.66078" lon="26.37824">
        <ele>106.402223</ele>
        <time>2022-02-26T08:40:42.278Z</time>
      </trkpt>
      <trkpt lat="41.66076" lon="26.37812">
        <ele>106.355067</ele>
        <time>2022-02-26T08:40:44.292Z</time>
      </trkpt>
      <trkpt lat="41.66074" lon="26.378">
        <ele>106.307426</ele>
        <time>2022-02-26T08:40:46.284Z</time>
      </trkpt>
      <trkpt lat="41.66073" lon="26.37787">
        <ele>106.258765</ele>
        <time>2022-02-26T08:40:48.280Z</time>
      </trkpt>
      <trkpt lat="41.66071" lon="26.37775">
        <ele>106.20935</ele>
        <time>2022-02-26T08:40:50.273Z</time>
      </trkpt>
      <trkpt lat="41.66069" lon="26.37762">
        <ele>106.160034</ele>
        <time>2022-02-26T08:40:52.305Z</time>
      </trkpt>
      <trkpt lat="41.66067" lon="26.3775">
        <ele>106.111642</ele>
        <time>2022-02-26T08:40:54.272Z</time>
      </trkpt>
      <trkpt lat="41.66065" lon="26.37737">
        <ele>106.061473</ele>
        <time>2022-02-26T08:40:56.290Z</time>
      </trkpt>
      <trkpt lat="41.66063" lon="26.37724">
        <ele>106.011094</ele>
        <time>2022-02-26T08:40:58.286Z</time>
      </trkpt>
      <trkpt lat="41.6606" lon="26.37712">
        <ele>105.961441</ele>
        <time>2022-02-26T08:41:00.286Z</time>
      </trkpt>
      <trkpt lat="41.66058" lon="26.37699">
        <ele>105.912673</ele>
        <time>2022-02-26T08:41:02.283Z</time>
      </trkpt>
      <trkpt lat="41.66056" lon="26.37686">
        <ele>105.862402</ele>
        <time>2022-02-26T08:41:04.285Z</time>
      </trkpt>
      <trkpt lat="41.66054" lon="26.37673">
        <ele>105.811478</ele>
        <time>2022-02-26T08:41:06.325Z</time>
      </trkpt>
      <trkpt lat="41.66052" lon="26.3766">
        <ele>105.760273</ele>
        <time>2022-02-26T08:41:08.301Z</time>
      </trkpt>
      <trkpt lat="41.6605" lon="26.37647">
        <ele>105.709625</ele>
        <time>2022-02-26T08:41:10.272Z</time>
      </trkpt>
      <trkpt lat="41.66049" lon="26.37634">
        <ele>105.658702</ele>
        <time>2022-02-26T08:41:12.289Z</time>
      </trkpt>
      <trkpt lat="41.66047" lon="26.37621">
        <ele>105.607677</ele>
        <time>2022-02-26T08:41:14.275Z</time>
      </trkpt>
      <trkpt lat="41.66045" lon="26.37609">
        <ele>105.549655</ele>
        <time>2022-02-26T08:41:16.271Z</time>
      </trkpt>
      <trkpt lat="41.66043" lon="26.37596">
        <ele>105.474105</ele>
        <time>2022-02-26T08:41:18.285Z</time>
      </trkpt>
      <trkpt lat="41.66041" lon="26.37584">
        <ele>105.399395</ele>
        <time>2022-02-26T08:41:20.289Z</time>
      </trkpt>
      <trkpt lat="41.66039" lon="26.37571">
        <ele>105.324722</ele>
        <time>2022-02-26T08:41:22.284Z</time>
      </trkpt>
      <trkpt lat="41.66036" lon="26.37559">
        <ele>105.24965</ele>
        <time>2022-02-26T08:41:24.266Z</time>
      </trkpt>
      <trkpt lat="41.66034" lon="26.37546">
        <ele>105.173789</ele>
        <time>2022-02-26T08:41:26.265Z</time>
      </trkpt>
      <trkpt lat="41.66032" lon="26.37534">
        <ele>105.097927</ele>
        <time>2022-02-26T08:41:28.290Z</time>
      </trkpt>
      <trkpt lat="41.6603" lon="26.37521">
        <ele>105.018605</ele>
        <time>2022-02-26T08:41:30.287Z</time>
      </trkpt>
      <trkpt lat="41.66028" lon="26.37507">
        <ele>104.937229</ele>
        <time>2022-02-26T08:41:32.283Z</time>
      </trkpt>
      <trkpt lat="41.66026" lon="26.37494">
        <ele>104.855682</ele>
        <time>2022-02-26T08:41:34.289Z</time>
      </trkpt>
      <trkpt lat="41.66024" lon="26.3748">
        <ele>104.775624</ele>
        <time>2022-02-26T08:41:36.250Z</time>
      </trkpt>
      <trkpt lat="41.66021" lon="26.37467">
        <ele>104.693097</ele>
        <time>2022-02-26T08:41:38.286Z</time>
      </trkpt>
      <trkpt lat="41.66019" lon="26.37453">
        <ele>104.61262</ele>
        <time>2022-02-26T08:41:40.310Z</time>
      </trkpt>
      <trkpt lat="41.66017" lon="26.3744">
        <ele>104.532721</ele>
        <time>2022-02-26T08:41:42.272Z</time>
      </trkpt>
      <trkpt lat="41.66015" lon="26.37427">
        <ele>104.452086</ele>
        <time>2022-02-26T08:41:44.276Z</time>
      </trkpt>
      <trkpt lat="41.66013" lon="26.37413">
        <ele>104.370875</ele>
        <time>2022-02-26T08:41:46.298Z</time>
      </trkpt>
      <trkpt lat="41.66011" lon="26.37399">
        <ele>104.288923</ele>
        <time>2022-02-26T08:41:48.277Z</time>
      </trkpt>
      <trkpt lat="41.66009" lon="26.37386">
        <ele>104.210017</ele>
        <time>2022-02-26T08:41:50.263Z</time>
      </trkpt>
      <trkpt lat="41.66007" lon="26.37373">
        <ele>104.185566</ele>
        <time>2022-02-26T08:41:52.281Z</time>
      </trkpt>
      <trkpt lat="41.66005" lon="26.3736">
        <ele>104.281792</ele>
        <time>2022-02-26T08:41:54.267Z</time>
      </trkpt>
      <trkpt lat="41.66003" lon="26.37347">
        <ele>104.374676</ele>
        <time>2022-02-26T08:41:56.271Z</time>
      </trkpt>
      <trkpt lat="41.66001" lon="26.37335">
        <ele>104.467063</ele>
        <time>2022-02-26T08:41:58.296Z</time>
      </trkpt>
      <trkpt lat="41.65999" lon="26.37323">
        <ele>104.557832</ele>
        <time>2022-02-26T08:42:00.297Z</time>
      </trkpt>
      <trkpt lat="41.65997" lon="26.37311">
        <ele>104.645786</ele>
        <time>2022-02-26T08:42:02.289Z</time>
      </trkpt>
      <trkpt lat="41.65995" lon="26.37299">
        <ele>104.733956</ele>
        <time>2022-02-26T08:42:04.274Z</time>
      </trkpt>
      <trkpt lat="41.65993" lon="26.37287">
        <ele>104.821206</ele>
        <time>2022-02-26T08:42:06.271Z</time>
      </trkpt>
      <trkpt lat="41.65991" lon="26.37275">
        <ele>104.90857</ele>
        <time>2022-02-26T08:42:08.313Z</time>
      </trkpt>
      <trkpt lat="41.65989" lon="26.37263">
        <ele>104.997022</ele>
        <time>2022-02-26T08:42:10.301Z</time>
      </trkpt>
      <trkpt lat="41.65987" lon="26.37251">
        <ele>105.084491</ele>
        <time>2022-02-26T08:42:12.285Z</time>
      </trkpt>
      <trkpt lat="41.65984" lon="26.37234">
        <ele>105.213748</ele>
        <time>2022-02-26T08:42:15.267Z</time>
      </trkpt>
      <trkpt lat="41.65981" lon="26.37216">
        <ele>105.341597</ele>
        <time>2022-02-26T08:42:18.283Z</time>
      </trkpt>
      <trkpt lat="41.65979" lon="26.372">
        <ele>105.463706</ele>
        <time>2022-02-26T08:42:21.292Z</time>
      </trkpt>
      <trkpt lat="41.65977" lon="26.37183">
        <ele>105.583688</ele>
        <time>2022-02-26T08:42:24.270Z</time>
      </trkpt>
      <trkpt lat="41.65974" lon="26.37167">
        <ele>105.706503</ele>
        <time>2022-02-26T08:42:27.278Z</time>
      </trkpt>
      <trkpt lat="41.65972" lon="26.3715">
        <ele>105.830733</ele>
        <time>2022-02-26T08:42:30.275Z</time>
      </trkpt>
      <trkpt lat="41.65969" lon="26.37132">
        <ele>105.954479</ele>
        <time>2022-02-26T08:42:33.295Z</time>
      </trkpt>
      <trkpt lat="41.65967" lon="26.3712">
        <ele>106.035341</ele>
        <time>2022-02-26T08:42:35.281Z</time>
      </trkpt>
      <trkpt lat="41.65965" lon="26.37103">
        <ele>106.153773</ele>
        <time>2022-02-26T08:42:38.302Z</time>
      </trkpt>
      <trkpt lat="41.65962" lon="26.37086">
        <ele>106.271211</ele>
        <time>2022-02-26T08:42:41.284Z</time>
      </trkpt>
      <trkpt lat="41.6596" lon="26.37069">
        <ele>106.383947</ele>
        <time>2022-02-26T08:42:44.268Z</time>
      </trkpt>
      <trkpt lat="41.65957" lon="26.37052">
        <ele>106.498598</ele>
        <time>2022-02-26T08:42:47.258Z</time>
      </trkpt>
      <trkpt lat="41.65955" lon="26.37035">
        <ele>106.614562</ele>
        <time>2022-02-26T08:42:50.273Z</time>
      </trkpt>
      <trkpt lat="41.65952" lon="26.37018">
        <ele>106.731866</ele>
        <time>2022-02-26T08:42:53.282Z</time>
      </trkpt>
      <trkpt lat="41.65949" lon="26.37001">
        <ele>106.848899</ele>
        <time>2022-02-26T08:42:56.291Z</time>
      </trkpt>
      <trkpt lat="41.65947" lon="26.36984">
        <ele>106.963407</ele>
        <time>2022-02-26T08:42:59.274Z</time>
      </trkpt>
      <trkpt lat="41.65944" lon="26.36967">
        <ele>107.081364</ele>
        <time>2022-02-26T08:43:02.275Z</time>
      </trkpt>
      <trkpt lat="41.65941" lon="26.3695">
        <ele>107.194056</ele>
        <time>2022-02-26T08:43:05.290Z</time>
      </trkpt>
      <trkpt lat="41.65938" lon="26.36934">
        <ele>107.303941</ele>
        <time>2022-02-26T08:43:08.315Z</time>
      </trkpt>
      <trkpt lat="41.65935" lon="26.36918">
        <ele>107.41793</ele>
        <time>2022-02-26T08:43:11.309Z</time>
      </trkpt>
      <trkpt lat="41.65932" lon="26.36901">
        <ele>107.5032</ele>
        <time>2022-02-26T08:43:14.282Z</time>
      </trkpt>
      <trkpt lat="41.65928" lon="26.36884">
        <ele>107.521573</ele>
        <time>2022-02-26T08:43:17.291Z</time>
      </trkpt>
      <trkpt lat="41.65926" lon="26.36867">
        <ele>107.539783</ele>
        <time>2022-02-26T08:43:20.290Z</time>
      </trkpt>
      <trkpt lat="41.65922" lon="26.3685">
        <ele>107.558426</ele>
        <time>2022-02-26T08:43:23.273Z</time>
      </trkpt>
      <trkpt lat="41.6592" lon="26.36834">
        <ele>107.576024</ele>
        <time>2022-02-26T08:43:26.287Z</time>
      </trkpt>
      <trkpt lat="41.65917" lon="26.36818">
        <ele>107.593348</ele>
        <time>2022-02-26T08:43:29.282Z</time>
      </trkpt>
      <trkpt lat="41.65914" lon="26.36802">
        <ele>107.610111</ele>
        <time>2022-02-26T08:43:32.269Z</time>
      </trkpt>
      <trkpt lat="41.65912" lon="26.36786">
        <ele>107.62695</ele>
        <time>2022-02-26T08:43:35.297Z</time>
      </trkpt>
      <trkpt lat="41.6591" lon="26.36771">
        <ele>107.64348</ele>
        <time>2022-02-26T08:43:38.271Z</time>
      </trkpt>
      <trkpt lat="41.65908" lon="26.36755">
        <ele>107.659911</ele>
        <time>2022-02-26T08:43:41.259Z</time>
      </trkpt>
      <trkpt lat="41.65905" lon="26.36738">
        <ele>107.677803</ele>
        <time>2022-02-26T08:43:44.283Z</time>
      </trkpt>
      <trkpt lat="41.65903" lon="26.36721">
        <ele>107.696184</ele>
        <time>2022-02-26T08:43:47.280Z</time>
      </trkpt>
      <trkpt lat="41.65901" lon="26.36704">
        <ele>107.713876</ele>
        <time>2022-02-26T08:43:50.291Z</time>
      </trkpt>
      <trkpt lat="41.65899" lon="26.36688">
        <ele>107.73087</ele>
        <time>2022-02-26T08:43:53.303Z</time>
      </trkpt>
      <trkpt lat="41.65897" lon="26.36672">
        <ele>107.747982</ele>
        <time>2022-02-26T08:43:56.313Z</time>
      </trkpt>
      <trkpt lat="41.65896" lon="26.36655">
        <ele>107.704633</ele>
        <time>2022-02-26T08:43:59.283Z</time>
      </trkpt>
      <trkpt lat="41.65894" lon="26.36638">
        <ele>107.653972</ele>
        <time>2022-02-26T08:44:02.287Z</time>
      </trkpt>
      <trkpt lat="41.65892" lon="26.36621">
        <ele>107.60418</ele>
        <time>2022-02-26T08:44:05.277Z</time>
      </trkpt>
      <trkpt lat="41.65891" lon="26.36604">
        <ele>107.554241</ele>
        <time>2022-02-26T08:44:08.285Z</time>
      </trkpt>
      <trkpt lat="41.65889" lon="26.36588">
        <ele>107.506042</ele>
        <time>2022-02-26T08:44:11.296Z</time>
      </trkpt>
      <trkpt lat="41.65888" lon="26.36572">
        <ele>107.459451</ele>
        <time>2022-02-26T08:44:14.276Z</time>
      </trkpt>
      <trkpt lat="41.65888" lon="26.36556">
        <ele>107.413793</ele>
        <time>2022-02-26T08:44:17.298Z</time>
      </trkpt>
      <trkpt lat="41.65887" lon="26.3654">
        <ele>107.365024</ele>
        <time>2022-02-26T08:44:20.287Z</time>
      </trkpt>
      <trkpt lat="41.65887" lon="26.36523">
        <ele>107.317403</ele>
        <time>2022-02-26T08:44:23.282Z</time>
      </trkpt>
      <trkpt lat="41.65887" lon="26.36507">
        <ele>107.269514</ele>
        <time>2022-02-26T08:44:26.283Z</time>
      </trkpt>
      <trkpt lat="41.65887" lon="26.36491">
        <ele>107.221919</ele>
        <time>2022-02-26T08:44:29.311Z</time>
      </trkpt>
      <trkpt lat="41.65887" lon="26.36473">
        <ele>107.171982</ele>
        <time>2022-02-26T08:44:32.285Z</time>
      </trkpt>
      <trkpt lat="41.65888" lon="26.36456">
        <ele>107.119889</ele>
        <time>2022-02-26T08:44:35.318Z</time>
      </trkpt>
      <trkpt lat="41.65889" lon="26.36438">
        <ele>107.068609</ele>
        <time>2022-02-26T08:44:38.282Z</time>
      </trkpt>
      <trkpt lat="41.6589" lon="26.36426">
        <ele>107.056898</ele>
        <time>2022-02-26T08:44:40.285Z</time>
      </trkpt>
      <trkpt lat="41.65892" lon="26.36409">
        <ele>107.095035</ele>
        <time>2022-02-26T08:44:43.277Z</time>
      </trkpt>
      <trkpt lat="41.65894" lon="26.36392">
        <ele>107.133621</ele>
        <time>2022-02-26T08:44:46.298Z</time>
      </trkpt>
      <trkpt lat="41.65895" lon="26.3638">
        <ele>107.160222</ele>
        <time>2022-02-26T08:44:48.263Z</time>
      </trkpt>
      <trkpt lat="41.65897" lon="26.36368">
        <ele>107.187144</ele>
        <time>2022-02-26T08:44:50.255Z</time>
      </trkpt>
      <trkpt lat="41.65899" lon="26.36355">
        <ele>107.215948</ele>
        <time>2022-02-26T08:44:52.268Z</time>
      </trkpt>
      <trkpt lat="41.65901" lon="26.36343">
        <ele>107.243329</ele>
        <time>2022-02-26T08:44:54.291Z</time>
      </trkpt>
      <trkpt lat="41.65904" lon="26.36331">
        <ele>107.271505</ele>
        <time>2022-02-26T08:44:56.265Z</time>
      </trkpt>
      <trkpt lat="41.65906" lon="26.36319">
        <ele>107.298812</ele>
        <time>2022-02-26T08:44:58.293Z</time>
      </trkpt>
      <trkpt lat="41.65909" lon="26.36306">
        <ele>107.326564</ele>
        <time>2022-02-26T08:45:00.275Z</time>
      </trkpt>
      <trkpt lat="41.65911" lon="26.36294">
        <ele>107.354236</ele>
        <time>2022-02-26T08:45:02.259Z</time>
      </trkpt>
      <trkpt lat="41.65913" lon="26.36283">
        <ele>107.38083</ele>
        <time>2022-02-26T08:45:04.308Z</time>
      </trkpt>
      <trkpt lat="41.65917" lon="26.36266">
        <ele>107.419905</ele>
        <time>2022-02-26T08:45:07.302Z</time>
      </trkpt>
      <trkpt lat="41.65921" lon="26.36249">
        <ele>107.458174</ele>
        <time>2022-02-26T08:45:10.274Z</time>
      </trkpt>
      <trkpt lat="41.65924" lon="26.36237">
        <ele>107.485345</ele>
        <time>2022-02-26T08:45:12.300Z</time>
      </trkpt>
      <trkpt lat="41.65927" lon="26.36226">
        <ele>107.512381</ele>
        <time>2022-02-26T08:45:14.319Z</time>
      </trkpt>
      <trkpt lat="41.65929" lon="26.36214">
        <ele>107.539286</ele>
        <time>2022-02-26T08:45:16.290Z</time>
      </trkpt>
      <trkpt lat="41.65931" lon="26.36202">
        <ele>107.566307</ele>
        <time>2022-02-26T08:45:18.288Z</time>
      </trkpt>
      <trkpt lat="41.65934" lon="26.3619">
        <ele>107.611126</ele>
        <time>2022-02-26T08:45:20.319Z</time>
      </trkpt>
      <trkpt lat="41.65937" lon="26.36178">
        <ele>107.666724</ele>
        <time>2022-02-26T08:45:22.283Z</time>
      </trkpt>
      <trkpt lat="41.65939" lon="26.36167">
        <ele>107.722581</ele>
        <time>2022-02-26T08:45:24.299Z</time>
      </trkpt>
      <trkpt lat="41.65942" lon="26.36155">
        <ele>107.778439</ele>
        <time>2022-02-26T08:45:26.303Z</time>
      </trkpt>
      <trkpt lat="41.65946" lon="26.36138">
        <ele>107.85857</ele>
        <time>2022-02-26T08:45:29.279Z</time>
      </trkpt>
      <trkpt lat="41.6595" lon="26.36121">
        <ele>107.939747</ele>
        <time>2022-02-26T08:45:32.277Z</time>
      </trkpt>
      <trkpt lat="41.65952" lon="26.36109">
        <ele>107.994734</ele>
        <time>2022-02-26T08:45:34.281Z</time>
      </trkpt>
      <trkpt lat="41.65956" lon="26.36092">
        <ele>108.075397</ele>
        <time>2022-02-26T08:45:37.301Z</time>
      </trkpt>
      <trkpt lat="41.6596" lon="26.36076">
        <ele>108.15257</ele>
        <time>2022-02-26T08:45:40.282Z</time>
      </trkpt>
      <trkpt lat="41.65963" lon="26.3606">
        <ele>108.226787</ele>
        <time>2022-02-26T08:45:43.300Z</time>
      </trkpt>
      <trkpt lat="41.65967" lon="26.36044">
        <ele>108.305116</ele>
        <time>2022-02-26T08:45:46.280Z</time>
      </trkpt>
      <trkpt lat="41.65971" lon="26.36027">
        <ele>108.383258</ele>
        <time>2022-02-26T08:45:49.271Z</time>
      </trkpt>
      <trkpt lat="41.65975" lon="26.36012">
        <ele>108.458572</ele>
        <time>2022-02-26T08:45:52.267Z</time>
      </trkpt>
      <trkpt lat="41.65978" lon="26.35996">
        <ele>108.533396</ele>
        <time>2022-02-26T08:45:55.278Z</time>
      </trkpt>
      <trkpt lat="41.65983" lon="26.3598">
        <ele>108.609767</ele>
        <time>2022-02-26T08:45:58.322Z</time>
      </trkpt>
      <trkpt lat="41.65988" lon="26.35966">
        <ele>108.694201</ele>
        <time>2022-02-26T08:46:01.285Z</time>
      </trkpt>
      <trkpt lat="41.65992" lon="26.35952">
        <ele>108.837011</ele>
        <time>2022-02-26T08:46:04.284Z</time>
      </trkpt>
      <trkpt lat="41.65997" lon="26.35937">
        <ele>108.981661</ele>
        <time>2022-02-26T08:46:07.268Z</time>
      </trkpt>
      <trkpt lat="41.66002" lon="26.35923">
        <ele>109.129029</ele>
        <time>2022-02-26T08:46:10.290Z</time>
      </trkpt>
      <trkpt lat="41.66007" lon="26.35909">
        <ele>109.27628</ele>
        <time>2022-02-26T08:46:13.259Z</time>
      </trkpt>
      <trkpt lat="41.66012" lon="26.35895">
        <ele>109.419989</ele>
        <time>2022-02-26T08:46:16.280Z</time>
      </trkpt>
      <trkpt lat="41.66018" lon="26.35882">
        <ele>109.563698</ele>
        <time>2022-02-26T08:46:19.274Z</time>
      </trkpt>
      <trkpt lat="41.66024" lon="26.35869">
        <ele>109.706998</ele>
        <time>2022-02-26T08:46:22.286Z</time>
      </trkpt>
      <trkpt lat="41.6603" lon="26.35855">
        <ele>109.854966</ele>
        <time>2022-02-26T08:46:25.267Z</time>
      </trkpt>
      <trkpt lat="41.66036" lon="26.35842">
        <ele>110.000969</ele>
        <time>2022-02-26T08:46:28.271Z</time>
      </trkpt>
      <trkpt lat="41.66042" lon="26.35829">
        <ele>110.142593</ele>
        <time>2022-02-26T08:46:31.265Z</time>
      </trkpt>
      <trkpt lat="41.66048" lon="26.35817">
        <ele>110.277469</ele>
        <time>2022-02-26T08:46:34.280Z</time>
      </trkpt>
      <trkpt lat="41.66055" lon="26.35806">
        <ele>110.413057</ele>
        <time>2022-02-26T08:46:37.271Z</time>
      </trkpt>
      <trkpt lat="41.66061" lon="26.35795">
        <ele>110.541158</ele>
        <time>2022-02-26T08:46:40.282Z</time>
      </trkpt>
      <trkpt lat="41.66067" lon="26.35784">
        <ele>110.668472</ele>
        <time>2022-02-26T08:46:43.293Z</time>
      </trkpt>
      <trkpt lat="41.66073" lon="26.35773">
        <ele>110.79278</ele>
        <time>2022-02-26T08:46:46.291Z</time>
      </trkpt>
      <trkpt lat="41.66079" lon="26.35763">
        <ele>110.917068</ele>
        <time>2022-02-26T08:46:49.279Z</time>
      </trkpt>
      <trkpt lat="41.66086" lon="26.35752">
        <ele>111.205627</ele>
        <time>2022-02-26T08:46:52.315Z</time>
      </trkpt>
      <trkpt lat="41.66092" lon="26.35742">
        <ele>111.498602</ele>
        <time>2022-02-26T08:46:55.277Z</time>
      </trkpt>
      <trkpt lat="41.66099" lon="26.35731">
        <ele>111.793</ele>
        <time>2022-02-26T08:46:58.260Z</time>
      </trkpt>
      <trkpt lat="41.66106" lon="26.3572">
        <ele>112.094291</ele>
        <time>2022-02-26T08:47:01.274Z</time>
      </trkpt>
      <trkpt lat="41.66112" lon="26.35709">
        <ele>112.38326</ele>
        <time>2022-02-26T08:47:04.303Z</time>
      </trkpt>
      <trkpt lat="41.66118" lon="26.35698">
        <ele>112.684162</ele>
        <time>2022-02-26T08:47:07.316Z</time>
      </trkpt>
      <trkpt lat="41.66125" lon="26.35687">
        <ele>112.981649</ele>
        <time>2022-02-26T08:47:10.268Z</time>
      </trkpt>
      <trkpt lat="41.66131" lon="26.35676">
        <ele>113.257023</ele>
        <time>2022-02-26T08:47:13.282Z</time>
      </trkpt>
      <trkpt lat="41.66137" lon="26.35666">
        <ele>113.549496</ele>
        <time>2022-02-26T08:47:16.297Z</time>
      </trkpt>
      <trkpt lat="41.66144" lon="26.35654">
        <ele>113.853916</ele>
        <time>2022-02-26T08:47:19.265Z</time>
      </trkpt>
      <trkpt lat="41.6615" lon="26.35643">
        <ele>114.158237</ele>
        <time>2022-02-26T08:47:22.247Z</time>
      </trkpt>
      <trkpt lat="41.66157" lon="26.35632">
        <ele>114.460786</ele>
        <time>2022-02-26T08:47:25.254Z</time>
      </trkpt>
      <trkpt lat="41.66163" lon="26.3562">
        <ele>114.765106</ele>
        <time>2022-02-26T08:47:28.302Z</time>
      </trkpt>
      <trkpt lat="41.6617" lon="26.35609">
        <ele>115.074519</ele>
        <time>2022-02-26T08:47:31.267Z</time>
      </trkpt>
      <trkpt lat="41.66176" lon="26.35598">
        <ele>115.366991</ele>
        <time>2022-02-26T08:47:34.300Z</time>
      </trkpt>
      <trkpt lat="41.66183" lon="26.35587">
        <ele>115.659586</ele>
        <time>2022-02-26T08:47:37.274Z</time>
      </trkpt>
      <trkpt lat="41.66189" lon="26.35577">
        <ele>115.940037</ele>
        <time>2022-02-26T08:47:40.307Z</time>
      </trkpt>
      <trkpt lat="41.66195" lon="26.35566">
        <ele>116.142451</ele>
        <time>2022-02-26T08:47:43.266Z</time>
      </trkpt>
      <trkpt lat="41.66201" lon="26.35555">
        <ele>116.301003</ele>
        <time>2022-02-26T08:47:46.276Z</time>
      </trkpt>
      <trkpt lat="41.66208" lon="26.35544">
        <ele>116.460815</ele>
        <time>2022-02-26T08:47:49.297Z</time>
      </trkpt>
      <trkpt lat="41.66215" lon="26.35534">
        <ele>116.620513</ele>
        <time>2022-02-26T08:47:52.271Z</time>
      </trkpt>
      <trkpt lat="41.66221" lon="26.35523">
        <ele>116.782092</ele>
        <time>2022-02-26T08:47:55.269Z</time>
      </trkpt>
      <trkpt lat="41.66228" lon="26.35512">
        <ele>116.944671</ele>
        <time>2022-02-26T08:47:58.333Z</time>
      </trkpt>
      <trkpt lat="41.66235" lon="26.35501">
        <ele>117.10705</ele>
        <time>2022-02-26T08:48:01.277Z</time>
      </trkpt>
      <trkpt lat="41.66241" lon="26.35491">
        <ele>117.26322</ele>
        <time>2022-02-26T08:48:04.285Z</time>
      </trkpt>
      <trkpt lat="41.66248" lon="26.3548">
        <ele>117.422758</ele>
        <time>2022-02-26T08:48:07.277Z</time>
      </trkpt>
      <trkpt lat="41.66254" lon="26.35469">
        <ele>117.583264</ele>
        <time>2022-02-26T08:48:10.282Z</time>
      </trkpt>
      <trkpt lat="41.6626" lon="26.35458">
        <ele>117.745522</ele>
        <time>2022-02-26T08:48:13.282Z</time>
      </trkpt>
      <trkpt lat="41.66268" lon="26.35447">
        <ele>117.919172</ele>
        <time>2022-02-26T08:48:16.282Z</time>
      </trkpt>
      <trkpt lat="41.66275" lon="26.35437">
        <ele>118.088407</ele>
        <time>2022-02-26T08:48:19.271Z</time>
      </trkpt>
      <trkpt lat="41.66283" lon="26.35426">
        <ele>118.257606</ele>
        <time>2022-02-26T08:48:22.260Z</time>
      </trkpt>
      <trkpt lat="41.6629" lon="26.35416">
        <ele>118.421918</ele>
        <time>2022-02-26T08:48:25.303Z</time>
      </trkpt>
      <trkpt lat="41.66298" lon="26.35406">
        <ele>118.590036</ele>
        <time>2022-02-26T08:48:28.304Z</time>
      </trkpt>
      <trkpt lat="41.66306" lon="26.35396">
        <ele>118.757044</ele>
        <time>2022-02-26T08:48:31.296Z</time>
      </trkpt>
      <trkpt lat="41.66314" lon="26.35386">
        <ele>118.565224</ele>
        <time>2022-02-26T08:48:34.274Z</time>
      </trkpt>
      <trkpt lat="41.66322" lon="26.35376">
        <ele>118.167574</ele>
        <time>2022-02-26T08:48:37.285Z</time>
      </trkpt>
      <trkpt lat="41.66334" lon="26.3537">
        <ele>117.703958</ele>
        <time>2022-02-26T08:48:40.277Z</time>
      </trkpt>
      <trkpt lat="41.66345" lon="26.35377">
        <ele>117.276309</ele>
        <time>2022-02-26T08:48:43.288Z</time>
      </trkpt>
      <trkpt lat="41.66352" lon="26.35386">
        <ele>116.92316</ele>
        <time>2022-02-26T08:48:46.283Z</time>
      </trkpt>
      <trkpt lat="41.66358" lon="26.35396">
        <ele>116.587669</ele>
        <time>2022-02-26T08:48:48.275Z</time>
      </trkpt>
      <trkpt lat="41.66367" lon="26.3541">
        <ele>116.085782</ele>
        <time>2022-02-26T08:48:51.263Z</time>
      </trkpt>
      <trkpt lat="41.66373" lon="26.35421">
        <ele>115.70947</ele>
        <time>2022-02-26T08:48:53.309Z</time>
      </trkpt>
      <trkpt lat="41.6638" lon="26.35432">
        <ele>115.340859</ele>
        <time>2022-02-26T08:48:55.299Z</time>
      </trkpt>
      <trkpt lat="41.66387" lon="26.35443">
        <ele>114.935494</ele>
        <time>2022-02-26T08:48:57.280Z</time>
      </trkpt>
      <trkpt lat="41.66397" lon="26.35454">
        <ele>114.47251</ele>
        <time>2022-02-26T08:48:59.280Z</time>
      </trkpt>
      <trkpt lat="41.66409" lon="26.35457">
        <ele>114.015611</ele>
        <time>2022-02-26T08:49:02.259Z</time>
      </trkpt>
      <trkpt lat="41.66419" lon="26.35456">
        <ele>113.679919</ele>
        <time>2022-02-26T08:49:04.267Z</time>
      </trkpt>
      <trkpt lat="41.6643" lon="26.35455">
        <ele>113.26313</ele>
        <time>2022-02-26T08:49:07.300Z</time>
      </trkpt>
      <trkpt lat="41.6644" lon="26.35455">
        <ele>112.900085</ele>
        <time>2022-02-26T08:49:10.273Z</time>
      </trkpt>
      <trkpt lat="41.6645" lon="26.35455">
        <ele>112.536951</ele>
        <time>2022-02-26T08:49:13.301Z</time>
      </trkpt>
      <trkpt lat="41.66461" lon="26.35454">
        <ele>112.430753</ele>
        <time>2022-02-26T08:49:16.285Z</time>
      </trkpt>
      <trkpt lat="41.66471" lon="26.35452">
        <ele>112.569285</ele>
        <time>2022-02-26T08:49:19.327Z</time>
      </trkpt>
      <trkpt lat="41.66481" lon="26.35454">
        <ele>112.712123</ele>
        <time>2022-02-26T08:49:22.271Z</time>
      </trkpt>
      <trkpt lat="41.66492" lon="26.35453">
        <ele>112.866487</ele>
        <time>2022-02-26T08:49:25.318Z</time>
      </trkpt>
      <trkpt lat="41.66503" lon="26.35454">
        <ele>113.025269</ele>
        <time>2022-02-26T08:49:28.285Z</time>
      </trkpt>
      <trkpt lat="41.66515" lon="26.35454">
        <ele>113.183916</ele>
        <time>2022-02-26T08:49:31.326Z</time>
      </trkpt>
      <trkpt lat="41.66525" lon="26.35453">
        <ele>113.331344</ele>
        <time>2022-02-26T08:49:34.279Z</time>
      </trkpt>
      <trkpt lat="41.66535" lon="26.35453">
        <ele>113.46886</ele>
        <time>2022-02-26T08:49:37.290Z</time>
      </trkpt>
      <trkpt lat="41.66545" lon="26.35453">
        <ele>113.610644</ele>
        <time>2022-02-26T08:49:40.279Z</time>
      </trkpt>
      <trkpt lat="41.66556" lon="26.35451">
        <ele>113.761719</ele>
        <time>2022-02-26T08:49:43.284Z</time>
      </trkpt>
      <trkpt lat="41.66566" lon="26.35449">
        <ele>113.912398</ele>
        <time>2022-02-26T08:49:46.288Z</time>
      </trkpt>
      <trkpt lat="41.66577" lon="26.35447">
        <ele>114.056762</ele>
        <time>2022-02-26T08:49:49.278Z</time>
      </trkpt>
      <trkpt lat="41.66587" lon="26.35445">
        <ele>114.203654</ele>
        <time>2022-02-26T08:49:52.296Z</time>
      </trkpt>
      <trkpt lat="41.66597" lon="26.35444">
        <ele>114.34399</ele>
        <time>2022-02-26T08:49:55.266Z</time>
      </trkpt>
      <trkpt lat="41.66607" lon="26.35442">
        <ele>114.481129</ele>
        <time>2022-02-26T08:49:58.276Z</time>
      </trkpt>
      <trkpt lat="41.66617" lon="26.35441">
        <ele>114.624392</ele>
        <time>2022-02-26T08:50:01.287Z</time>
      </trkpt>
      <trkpt lat="41.66626" lon="26.3544">
        <ele>114.761803</ele>
        <time>2022-02-26T08:50:04.273Z</time>
      </trkpt>
      <trkpt lat="41.66637" lon="26.35438">
        <ele>114.95729</ele>
        <time>2022-02-26T08:50:07.271Z</time>
      </trkpt>
      <trkpt lat="41.66647" lon="26.35437">
        <ele>115.35934</ele>
        <time>2022-02-26T08:50:10.267Z</time>
      </trkpt>
      <trkpt lat="41.66658" lon="26.35435">
        <ele>115.764389</ele>
        <time>2022-02-26T08:50:13.294Z</time>
      </trkpt>
      <trkpt lat="41.66668" lon="26.35436">
        <ele>116.149437</ele>
        <time>2022-02-26T08:50:16.283Z</time>
      </trkpt>
      <trkpt lat="41.66677" lon="26.35437">
        <ele>116.530487</ele>
        <time>2022-02-26T08:50:19.289Z</time>
      </trkpt>
      <trkpt lat="41.66687" lon="26.35437">
        <ele>116.892072</ele>
        <time>2022-02-26T08:50:22.288Z</time>
      </trkpt>
      <trkpt lat="41.66697" lon="26.35437">
        <ele>117.299497</ele>
        <time>2022-02-26T08:50:25.281Z</time>
      </trkpt>
      <trkpt lat="41.66708" lon="26.35439">
        <ele>117.708375</ele>
        <time>2022-02-26T08:50:28.316Z</time>
      </trkpt>
      <trkpt lat="41.66718" lon="26.35437">
        <ele>118.101695</ele>
        <time>2022-02-26T08:50:31.262Z</time>
      </trkpt>
      <trkpt lat="41.66729" lon="26.35438">
        <ele>118.512973</ele>
        <time>2022-02-26T08:50:34.278Z</time>
      </trkpt>
      <trkpt lat="41.66738" lon="26.35439">
        <ele>118.877952</ele>
        <time>2022-02-26T08:50:37.290Z</time>
      </trkpt>
      <trkpt lat="41.6675" lon="26.3544">
        <ele>119.308677</ele>
        <time>2022-02-26T08:50:41.278Z</time>
      </trkpt>
      <trkpt lat="41.66759" lon="26.3544">
        <ele>119.669989</ele>
        <time>2022-02-26T08:50:44.274Z</time>
      </trkpt>
      <trkpt lat="41.66769" lon="26.35441">
        <ele>120.059055</ele>
        <time>2022-02-26T08:50:48.297Z</time>
      </trkpt>
      <trkpt lat="41.6678" lon="26.35442">
        <ele>120.465241</ele>
        <time>2022-02-26T08:50:52.316Z</time>
      </trkpt>
      <trkpt lat="41.66791" lon="26.35444">
        <ele>120.902635</ele>
        <time>2022-02-26T08:50:56.307Z</time>
      </trkpt>
      <trkpt lat="41.668" lon="26.35445">
        <ele>121.253358</ele>
        <time>2022-02-26T08:50:59.300Z</time>
      </trkpt>
      <trkpt lat="41.66809" lon="26.35446">
        <ele>121.61138</ele>
        <time>2022-02-26T08:51:02.305Z</time>
      </trkpt>
      <trkpt lat="41.66819" lon="26.35447">
        <ele>121.817195</ele>
        <time>2022-02-26T08:51:05.267Z</time>
      </trkpt>
      <trkpt lat="41.66828" lon="26.35447">
        <ele>121.865498</ele>
        <time>2022-02-26T08:51:08.276Z</time>
      </trkpt>
      <trkpt lat="41.66838" lon="26.35449">
        <ele>121.916833</ele>
        <time>2022-02-26T08:51:11.273Z</time>
      </trkpt>
      <trkpt lat="41.66848" lon="26.3545">
        <ele>121.967599</ele>
        <time>2022-02-26T08:51:14.282Z</time>
      </trkpt>
      <trkpt lat="41.66857" lon="26.3545">
        <ele>122.019031</ele>
        <time>2022-02-26T08:51:17.265Z</time>
      </trkpt>
      <trkpt lat="41.66868" lon="26.3545">
        <ele>122.074131</ele>
        <time>2022-02-26T08:51:20.268Z</time>
      </trkpt>
      <trkpt lat="41.66879" lon="26.3545">
        <ele>122.129768</ele>
        <time>2022-02-26T08:51:23.268Z</time>
      </trkpt>
      <trkpt lat="41.66888" lon="26.35451">
        <ele>122.181813</ele>
        <time>2022-02-26T08:51:26.319Z</time>
      </trkpt>
      <trkpt lat="41.66898" lon="26.3545">
        <ele>122.232196</ele>
        <time>2022-02-26T08:51:29.280Z</time>
      </trkpt>
      <trkpt lat="41.66908" lon="26.35448">
        <ele>122.283889</ele>
        <time>2022-02-26T08:51:32.274Z</time>
      </trkpt>
      <trkpt lat="41.66919" lon="26.35446">
        <ele>122.342955</ele>
        <time>2022-02-26T08:51:36.255Z</time>
      </trkpt>
      <trkpt lat="41.66929" lon="26.35442">
        <ele>122.398841</ele>
        <time>2022-02-26T08:51:40.291Z</time>
      </trkpt>
      <trkpt lat="41.6694" lon="26.35439">
        <ele>122.456686</ele>
        <time>2022-02-26T08:51:44.263Z</time>
      </trkpt>
      <trkpt lat="41.66951" lon="26.35437">
        <ele>122.515443</ele>
        <time>2022-02-26T08:51:48.280Z</time>
      </trkpt>
      <trkpt lat="41.6696" lon="26.35434">
        <ele>122.564039</ele>
        <time>2022-02-26T08:51:51.284Z</time>
      </trkpt>
      <trkpt lat="41.66969" lon="26.35432">
        <ele>122.611532</ele>
        <time>2022-02-26T08:51:54.288Z</time>
      </trkpt>
      <trkpt lat="41.6698" lon="26.35429">
        <ele>122.668386</ele>
        <time>2022-02-26T08:51:58.273Z</time>
      </trkpt>
      <trkpt lat="41.66991" lon="26.35427">
        <ele>122.727846</ele>
        <time>2022-02-26T08:52:02.261Z</time>
      </trkpt>
      <trkpt lat="41.67002" lon="26.35424">
        <ele>122.703652</ele>
        <time>2022-02-26T08:52:06.305Z</time>
      </trkpt>
      <trkpt lat="41.67013" lon="26.35421">
        <ele>122.671155</ele>
        <time>2022-02-26T08:52:10.275Z</time>
      </trkpt>
      <trkpt lat="41.67025" lon="26.35419">
        <ele>122.637717</ele>
        <time>2022-02-26T08:52:14.315Z</time>
      </trkpt>
      <trkpt lat="41.67037" lon="26.35417">
        <ele>122.60393</ele>
        <time>2022-02-26T08:52:18.282Z</time>
      </trkpt>
      <trkpt lat="41.67048" lon="26.35414">
        <ele>122.570874</ele>
        <time>2022-02-26T08:52:22.273Z</time>
      </trkpt>
      <trkpt lat="41.67059" lon="26.3541">
        <ele>122.538402</ele>
        <time>2022-02-26T08:52:26.306Z</time>
      </trkpt>
      <trkpt lat="41.6707" lon="26.35408">
        <ele>122.505649</ele>
        <time>2022-02-26T08:52:30.302Z</time>
      </trkpt>
      <trkpt lat="41.67082" lon="26.35407">
        <ele>122.472665</ele>
        <time>2022-02-26T08:52:34.278Z</time>
      </trkpt>
      <trkpt lat="41.67093" lon="26.35403">
        <ele>122.441349</ele>
        <time>2022-02-26T08:52:38.284Z</time>
      </trkpt>
      <trkpt lat="41.67102" lon="26.354">
        <ele>122.412609</ele>
        <time>2022-02-26T08:52:42.275Z</time>
      </trkpt>
      <trkpt lat="41.67113" lon="26.35397">
        <ele>122.381311</ele>
        <time>2022-02-26T08:52:46.284Z</time>
      </trkpt>
      <trkpt lat="41.67122" lon="26.35395">
        <ele>122.355361</ele>
        <time>2022-02-26T08:52:49.297Z</time>
      </trkpt>
      <trkpt lat="41.67132" lon="26.35392">
        <ele>122.327928</ele>
        <time>2022-02-26T08:52:52.284Z</time>
      </trkpt>
      <trkpt lat="41.67141" lon="26.3539">
        <ele>122.300387</ele>
        <time>2022-02-26T08:52:55.271Z</time>
      </trkpt>
      <trkpt lat="41.67151" lon="26.35387">
        <ele>122.272567</ele>
        <time>2022-02-26T08:52:58.312Z</time>
      </trkpt>
      <trkpt lat="41.6716" lon="26.35382">
        <ele>122.243907</ele>
        <time>2022-02-26T08:53:01.284Z</time>
      </trkpt>
      <trkpt lat="41.6717" lon="26.35379">
        <ele>122.216898</ele>
        <time>2022-02-26T08:53:04.312Z</time>
      </trkpt>
      <trkpt lat="41.6718" lon="26.3538">
        <ele>122.199066</ele>
        <time>2022-02-26T08:53:07.281Z</time>
      </trkpt>
      <trkpt lat="41.67189" lon="26.35379">
        <ele>122.181928</ele>
        <time>2022-02-26T08:53:11.275Z</time>
      </trkpt>
      <trkpt lat="41.67199" lon="26.35377">
        <ele>122.163261</ele>
        <time>2022-02-26T08:53:17.271Z</time>
      </trkpt>
      <trkpt lat="41.67213" lon="26.35371">
        <ele>122.135691</ele>
        <time>2022-02-26T08:55:47.304Z</time>
      </trkpt>
      <trkpt lat="41.67224" lon="26.35368">
        <ele>122.116119</ele>
        <time>2022-02-26T08:55:51.261Z</time>
      </trkpt>
      <trkpt lat="41.67234" lon="26.35365">
        <ele>122.097862</ele>
        <time>2022-02-26T08:55:55.272Z</time>
      </trkpt>
      <trkpt lat="41.67243" lon="26.35361">
        <ele>122.079042</ele>
        <time>2022-02-26T08:55:59.268Z</time>
      </trkpt>
      <trkpt lat="41.67253" lon="26.35356">
        <ele>122.059355</ele>
        <time>2022-02-26T08:56:03.268Z</time>
      </trkpt>
      <trkpt lat="41.67263" lon="26.35351">
        <ele>122.040841</ele>
        <time>2022-02-26T08:56:07.270Z</time>
      </trkpt>
      <trkpt lat="41.6727" lon="26.35344">
        <ele>122.024192</ele>
        <time>2022-02-26T08:56:10.275Z</time>
      </trkpt>
      <trkpt lat="41.67278" lon="26.35334">
        <ele>122.003952</ele>
        <time>2022-02-26T08:56:13.263Z</time>
      </trkpt>
      <trkpt lat="41.67288" lon="26.3532">
        <ele>121.978551</ele>
        <time>2022-02-26T08:56:16.270Z</time>
      </trkpt>
      <trkpt lat="41.67294" lon="26.3531">
        <ele>121.959945</ele>
        <time>2022-02-26T08:56:18.271Z</time>
      </trkpt>
      <trkpt lat="41.67301" lon="26.35299">
        <ele>121.94101</ele>
        <time>2022-02-26T08:56:20.265Z</time>
      </trkpt>
      <trkpt lat="41.67307" lon="26.35289">
        <ele>121.921641</ele>
        <time>2022-02-26T08:56:22.317Z</time>
      </trkpt>
      <trkpt lat="41.67314" lon="26.35277">
        <ele>121.900974</ele>
        <time>2022-02-26T08:56:24.273Z</time>
      </trkpt>
      <trkpt lat="41.67322" lon="26.35265">
        <ele>122.002881</ele>
        <time>2022-02-26T08:56:26.280Z</time>
      </trkpt>
      <trkpt lat="41.67329" lon="26.35252">
        <ele>122.236132</ele>
        <time>2022-02-26T08:56:28.282Z</time>
      </trkpt>
      <trkpt lat="41.67336" lon="26.3524">
        <ele>122.462233</ele>
        <time>2022-02-26T08:56:30.258Z</time>
      </trkpt>
      <trkpt lat="41.67344" lon="26.35229">
        <ele>122.682804</ele>
        <time>2022-02-26T08:56:32.271Z</time>
      </trkpt>
      <trkpt lat="41.67351" lon="26.35219">
        <ele>122.883432</ele>
        <time>2022-02-26T08:56:34.277Z</time>
      </trkpt>
      <trkpt lat="41.67358" lon="26.3521">
        <ele>123.063052</ele>
        <time>2022-02-26T08:56:36.283Z</time>
      </trkpt>
      <trkpt lat="41.67368" lon="26.35199">
        <ele>123.32172</ele>
        <time>2022-02-26T08:56:39.277Z</time>
      </trkpt>
      <trkpt lat="41.6738" lon="26.35191">
        <ele>123.576466</ele>
        <time>2022-02-26T08:56:42.273Z</time>
      </trkpt>
      <trkpt lat="41.6739" lon="26.35185">
        <ele>123.79042</ele>
        <time>2022-02-26T08:56:45.297Z</time>
      </trkpt>
      <trkpt lat="41.67399" lon="26.35181">
        <ele>123.977454</ele>
        <time>2022-02-26T08:56:48.284Z</time>
      </trkpt>
      <trkpt lat="41.6741" lon="26.35175">
        <ele>124.206051</ele>
        <time>2022-02-26T08:56:52.280Z</time>
      </trkpt>
      <trkpt lat="41.67421" lon="26.35171">
        <ele>124.435567</ele>
        <time>2022-02-26T08:56:56.304Z</time>
      </trkpt>
      <trkpt lat="41.67431" lon="26.35166">
        <ele>124.652528</ele>
        <time>2022-02-26T08:57:00.269Z</time>
      </trkpt>
      <trkpt lat="41.67442" lon="26.35161">
        <ele>124.865825</ele>
        <time>2022-02-26T08:57:04.282Z</time>
      </trkpt>
      <trkpt lat="41.67451" lon="26.35155">
        <ele>125.069242</ele>
        <time>2022-02-26T08:57:08.274Z</time>
      </trkpt>
      <trkpt lat="41.67461" lon="26.35149">
        <ele>125.267368</ele>
        <time>2022-02-26T08:57:12.274Z</time>
      </trkpt>
      <trkpt lat="41.6747" lon="26.35142">
        <ele>125.523482</ele>
        <time>2022-02-26T08:57:16.264Z</time>
      </trkpt>
      <trkpt lat="41.67478" lon="26.35134">
        <ele>125.777725</ele>
        <time>2022-02-26T08:57:19.270Z</time>
      </trkpt>
      <trkpt lat="41.67484" lon="26.35121">
        <ele>126.093022</ele>
        <time>2022-02-26T08:57:23.290Z</time>
      </trkpt>
      <trkpt lat="41.67489" lon="26.35108">
        <ele>126.37967</ele>
        <time>2022-02-26T08:57:27.285Z</time>
      </trkpt>
      <trkpt lat="41.67492" lon="26.35095">
        <ele>126.665344</ele>
        <time>2022-02-26T08:57:32.300Z</time>
      </trkpt>
      <trkpt lat="41.67496" lon="26.35084">
        <ele>126.911184</ele>
        <time>2022-02-26T08:57:35.278Z</time>
      </trkpt>
      <trkpt lat="41.67499" lon="26.35072">
        <ele>127.174214</ele>
        <time>2022-02-26T08:57:38.282Z</time>
      </trkpt>
      <trkpt lat="41.67502" lon="26.35058">
        <ele>127.473607</ele>
        <time>2022-02-26T08:57:42.313Z</time>
      </trkpt>
      <trkpt lat="41.67506" lon="26.35044">
        <ele>127.768904</ele>
        <time>2022-02-26T08:57:47.277Z</time>
      </trkpt>
      <trkpt lat="41.6751" lon="26.35031">
        <ele>128.045525</ele>
        <time>2022-02-26T08:57:51.281Z</time>
      </trkpt>
      <trkpt lat="41.67514" lon="26.35018">
        <ele>128.346182</ele>
        <time>2022-02-26T08:57:55.266Z</time>
      </trkpt>
      <trkpt lat="41.67519" lon="26.35005">
        <ele>128.623905</ele>
        <time>2022-02-26T08:57:59.317Z</time>
      </trkpt>
      <trkpt lat="41.67524" lon="26.34992">
        <ele>128.929735</ele>
        <time>2022-02-26T08:58:03.273Z</time>
      </trkpt>
      <trkpt lat="41.67529" lon="26.3498">
        <ele>129.211561</ele>
        <time>2022-02-26T08:58:07.276Z</time>
      </trkpt>
      <trkpt lat="41.67534" lon="26.34968">
        <ele>129.483947</ele>
        <time>2022-02-26T08:58:11.283Z</time>
      </trkpt>
      <trkpt lat="41.67539" lon="26.34956">
        <ele>129.773032</ele>
        <time>2022-02-26T08:58:15.272Z</time>
      </trkpt>
      <trkpt lat="41.67545" lon="26.34944">
        <ele>130.06289</ele>
        <time>2022-02-26T08:58:19.271Z</time>
      </trkpt>
      <trkpt lat="41.6755" lon="26.34931">
        <ele>130.28091</ele>
        <time>2022-02-26T08:58:23.276Z</time>
      </trkpt>
      <trkpt lat="41.67557" lon="26.34919">
        <ele>130.315571</ele>
        <time>2022-02-26T08:58:27.263Z</time>
      </trkpt>
      <trkpt lat="41.67563" lon="26.34907">
        <ele>130.349102</ele>
        <time>2022-02-26T08:58:31.311Z</time>
      </trkpt>
      <trkpt lat="41.67569" lon="26.34894">
        <ele>130.384665</ele>
        <time>2022-02-26T08:58:35.281Z</time>
      </trkpt>
      <trkpt lat="41.67576" lon="26.34882">
        <ele>130.418359</ele>
        <time>2022-02-26T08:58:39.295Z</time>
      </trkpt>
      <trkpt lat="41.67583" lon="26.34871">
        <ele>130.453597</ele>
        <time>2022-02-26T08:58:43.271Z</time>
      </trkpt>
      <trkpt lat="41.67589" lon="26.34861">
        <ele>130.482513</ele>
        <time>2022-02-26T08:58:46.275Z</time>
      </trkpt>
      <trkpt lat="41.67596" lon="26.34849">
        <ele>130.518459</ele>
        <time>2022-02-26T08:58:50.285Z</time>
      </trkpt>
      <trkpt lat="41.67604" lon="26.34836">
        <ele>130.555485</ele>
        <time>2022-02-26T08:58:54.278Z</time>
      </trkpt>
      <trkpt lat="41.6761" lon="26.34826">
        <ele>130.58697</ele>
        <time>2022-02-26T08:58:57.297Z</time>
      </trkpt>
      <trkpt lat="41.67617" lon="26.34816">
        <ele>130.617919</ele>
        <time>2022-02-26T08:59:00.290Z</time>
      </trkpt>
      <trkpt lat="41.67623" lon="26.34806">
        <ele>130.647549</ele>
        <time>2022-02-26T08:59:03.270Z</time>
      </trkpt>
      <trkpt lat="41.67629" lon="26.34796">
        <ele>130.676865</ele>
        <time>2022-02-26T08:59:06.280Z</time>
      </trkpt>
      <trkpt lat="41.67635" lon="26.34785">
        <ele>130.709994</ele>
        <time>2022-02-26T08:59:09.277Z</time>
      </trkpt>
      <trkpt lat="41.67642" lon="26.34773">
        <ele>130.744233</ele>
        <time>2022-02-26T08:59:12.276Z</time>
      </trkpt>
      <trkpt lat="41.67648" lon="26.34762">
        <ele>130.776625</ele>
        <time>2022-02-26T08:59:15.269Z</time>
      </trkpt>
      <trkpt lat="41.67654" lon="26.34751">
        <ele>130.806989</ele>
        <time>2022-02-26T08:59:18.273Z</time>
      </trkpt>
      <trkpt lat="41.6766" lon="26.34741">
        <ele>130.777983</ele>
        <time>2022-02-26T08:59:21.273Z</time>
      </trkpt>
      <trkpt lat="41.67666" lon="26.3473">
        <ele>130.627651</ele>
        <time>2022-02-26T08:59:24.310Z</time>
      </trkpt>
      <trkpt lat="41.67671" lon="26.34719">
        <ele>130.47548</ele>
        <time>2022-02-26T08:59:27.271Z</time>
      </trkpt>
      <trkpt lat="41.67676" lon="26.34708">
        <ele>130.320574</ele>
        <time>2022-02-26T08:59:30.308Z</time>
      </trkpt>
      <trkpt lat="41.67681" lon="26.34696">
        <ele>130.159019</ele>
        <time>2022-02-26T08:59:33.275Z</time>
      </trkpt>
      <trkpt lat="41.67686" lon="26.34683">
        <ele>129.99169</ele>
        <time>2022-02-26T08:59:36.284Z</time>
      </trkpt>
      <trkpt lat="41.67691" lon="26.3467">
        <ele>129.823555</ele>
        <time>2022-02-26T08:59:39.262Z</time>
      </trkpt>
      <trkpt lat="41.67696" lon="26.34656">
        <ele>129.644623</ele>
        <time>2022-02-26T08:59:42.320Z</time>
      </trkpt>
      <trkpt lat="41.67701" lon="26.34643">
        <ele>129.469515</ele>
        <time>2022-02-26T08:59:45.259Z</time>
      </trkpt>
      <trkpt lat="41.67706" lon="26.34628">
        <ele>129.281882</ele>
        <time>2022-02-26T08:59:48.280Z</time>
      </trkpt>
      <trkpt lat="41.67711" lon="26.34613">
        <ele>129.0879</ele>
        <time>2022-02-26T08:59:51.261Z</time>
      </trkpt>
      <trkpt lat="41.67716" lon="26.34598">
        <ele>128.903433</ele>
        <time>2022-02-26T08:59:54.279Z</time>
      </trkpt>
      <trkpt lat="41.6772" lon="26.34584">
        <ele>128.725162</ele>
        <time>2022-02-26T08:59:57.273Z</time>
      </trkpt>
      <trkpt lat="41.67725" lon="26.34571">
        <ele>128.558075</ele>
        <time>2022-02-26T09:00:00.262Z</time>
      </trkpt>
      <trkpt lat="41.67729" lon="26.3456">
        <ele>128.410166</ele>
        <time>2022-02-26T09:00:03.270Z</time>
      </trkpt>
      <trkpt lat="41.67733" lon="26.34548">
        <ele>128.261817</ele>
        <time>2022-02-26T09:00:06.295Z</time>
      </trkpt>
      <trkpt lat="41.67737" lon="26.34537">
        <ele>128.118001</ele>
        <time>2022-02-26T09:00:09.272Z</time>
      </trkpt>
      <trkpt lat="41.67742" lon="26.34526">
        <ele>127.99863</ele>
        <time>2022-02-26T09:00:12.267Z</time>
      </trkpt>
      <trkpt lat="41.67747" lon="26.34513">
        <ele>127.930596</ele>
        <time>2022-02-26T09:00:15.283Z</time>
      </trkpt>
      <trkpt lat="41.67751" lon="26.34501">
        <ele>127.864487</ele>
        <time>2022-02-26T09:00:18.282Z</time>
      </trkpt>
      <trkpt lat="41.67756" lon="26.3449">
        <ele>127.801439</ele>
        <time>2022-02-26T09:00:21.265Z</time>
      </trkpt>
      <trkpt lat="41.67761" lon="26.34479">
        <ele>127.739645</ele>
        <time>2022-02-26T09:00:24.271Z</time>
      </trkpt>
      <trkpt lat="41.67765" lon="26.34469">
        <ele>127.68029</ele>
        <time>2022-02-26T09:00:27.295Z</time>
      </trkpt>
      <trkpt lat="41.67771" lon="26.34456">
        <ele>127.605648</ele>
        <time>2022-02-26T09:00:31.272Z</time>
      </trkpt>
      <trkpt lat="41.67775" lon="26.34445">
        <ele>127.545942</ele>
        <time>2022-02-26T09:00:34.268Z</time>
      </trkpt>
      <trkpt lat="41.67781" lon="26.34432">
        <ele>127.469914</ele>
        <time>2022-02-26T09:00:38.283Z</time>
      </trkpt>
      <trkpt lat="41.67786" lon="26.3442">
        <ele>127.400328</ele>
        <time>2022-02-26T09:00:42.284Z</time>
      </trkpt>
      <trkpt lat="41.67791" lon="26.34407">
        <ele>127.328774</ele>
        <time>2022-02-26T09:00:46.285Z</time>
      </trkpt>
      <trkpt lat="41.67796" lon="26.34394">
        <ele>127.25884</ele>
        <time>2022-02-26T09:00:50.272Z</time>
      </trkpt>
      <trkpt lat="41.678" lon="26.34379">
        <ele>127.18273</ele>
        <time>2022-02-26T09:00:54.287Z</time>
      </trkpt>
      <trkpt lat="41.67803" lon="26.34367">
        <ele>127.121214</ele>
        <time>2022-02-26T09:00:57.275Z</time>
      </trkpt>
      <trkpt lat="41.67805" lon="26.34355">
        <ele>127.058148</ele>
        <time>2022-02-26T09:01:00.266Z</time>
      </trkpt>
      <trkpt lat="41.67808" lon="26.34343">
        <ele>126.995212</ele>
        <time>2022-02-26T09:01:03.283Z</time>
      </trkpt>
      <trkpt lat="41.67809" lon="26.3433">
        <ele>126.932659</ele>
        <time>2022-02-26T09:01:06.269Z</time>
      </trkpt>
      <trkpt lat="41.6781" lon="26.34318">
        <ele>126.871926</ele>
        <time>2022-02-26T09:01:09.267Z</time>
      </trkpt>
      <trkpt lat="41.67811" lon="26.34305">
        <ele>126.947384</ele>
        <time>2022-02-26T09:01:12.286Z</time>
      </trkpt>
      <trkpt lat="41.67812" lon="26.34291">
        <ele>127.194241</ele>
        <time>2022-02-26T09:01:15.281Z</time>
      </trkpt>
      <trkpt lat="41.67813" lon="26.34277">
        <ele>127.435627</ele>
        <time>2022-02-26T09:01:18.277Z</time>
      </trkpt>
      <trkpt lat="41.67813" lon="26.34263">
        <ele>127.681129</ele>
        <time>2022-02-26T09:01:21.277Z</time>
      </trkpt>
      <trkpt lat="41.67813" lon="26.34249">
        <ele>127.925058</ele>
        <time>2022-02-26T09:01:24.290Z</time>
      </trkpt>
      <trkpt lat="41.67814" lon="26.34235">
        <ele>128.173216</ele>
        <time>2022-02-26T09:01:27.282Z</time>
      </trkpt>
      <trkpt lat="41.67814" lon="26.34222">
        <ele>128.409996</ele>
        <time>2022-02-26T09:01:30.276Z</time>
      </trkpt>
      <trkpt lat="41.67814" lon="26.34209">
        <ele>128.643224</ele>
        <time>2022-02-26T09:01:33.295Z</time>
      </trkpt>
      <trkpt lat="41.67814" lon="26.34195">
        <ele>128.883511</ele>
        <time>2022-02-26T09:01:36.270Z</time>
      </trkpt>
      <trkpt lat="41.67815" lon="26.34181">
        <ele>129.122414</ele>
        <time>2022-02-26T09:01:39.300Z</time>
      </trkpt>
      <trkpt lat="41.67815" lon="26.34168">
        <ele>129.350574</ele>
        <time>2022-02-26T09:01:42.275Z</time>
      </trkpt>
      <trkpt lat="41.67815" lon="26.34154">
        <ele>129.604942</ele>
        <time>2022-02-26T09:01:45.259Z</time>
      </trkpt>
      <trkpt lat="41.67815" lon="26.34138">
        <ele>129.883802</ele>
        <time>2022-02-26T09:01:48.286Z</time>
      </trkpt>
      <trkpt lat="41.67816" lon="26.34122">
        <ele>130.166168</ele>
        <time>2022-02-26T09:01:51.286Z</time>
      </trkpt>
      <trkpt lat="41.67816" lon="26.34106">
        <ele>130.44562</ele>
        <time>2022-02-26T09:01:54.253Z</time>
      </trkpt>
      <trkpt lat="41.67818" lon="26.3409">
        <ele>130.721438</ele>
        <time>2022-02-26T09:01:57.271Z</time>
      </trkpt>
      <trkpt lat="41.6782" lon="26.34075">
        <ele>130.989056</ele>
        <time>2022-02-26T09:02:00.278Z</time>
      </trkpt>
      <trkpt lat="41.67823" lon="26.3406">
        <ele>131.235157</ele>
        <time>2022-02-26T09:02:03.305Z</time>
      </trkpt>
      <trkpt lat="41.67828" lon="26.34046">
        <ele>131.475927</ele>
        <time>2022-02-26T09:02:06.273Z</time>
      </trkpt>
      <trkpt lat="41.67835" lon="26.34032">
        <ele>131.731295</ele>
        <time>2022-02-26T09:02:09.280Z</time>
      </trkpt>
      <trkpt lat="41.67842" lon="26.3402">
        <ele>131.969978</ele>
        <time>2022-02-26T09:02:12.272Z</time>
      </trkpt>
      <trkpt lat="41.67849" lon="26.34008">
        <ele>132.19852</ele>
        <time>2022-02-26T09:02:15.286Z</time>
      </trkpt>
      <trkpt lat="41.67857" lon="26.33998">
        <ele>132.420058</ele>
        <time>2022-02-26T09:02:18.289Z</time>
      </trkpt>
      <trkpt lat="41.67865" lon="26.33987">
        <ele>132.645093</ele>
        <time>2022-02-26T09:02:21.291Z</time>
      </trkpt>
      <trkpt lat="41.67872" lon="26.33977">
        <ele>132.868344</ele>
        <time>2022-02-26T09:02:24.283Z</time>
      </trkpt>
      <trkpt lat="41.6788" lon="26.33967">
        <ele>133.080757</ele>
        <time>2022-02-26T09:02:27.289Z</time>
      </trkpt>
      <trkpt lat="41.67887" lon="26.33957">
        <ele>133.298971</ele>
        <time>2022-02-26T09:02:30.274Z</time>
      </trkpt>
      <trkpt lat="41.67894" lon="26.33947">
        <ele>133.502395</ele>
        <time>2022-02-26T09:02:33.289Z</time>
      </trkpt>
      <trkpt lat="41.67901" lon="26.33937">
        <ele>133.708031</ele>
        <time>2022-02-26T09:02:36.281Z</time>
      </trkpt>
      <trkpt lat="41.67908" lon="26.33927">
        <ele>133.926364</ele>
        <time>2022-02-26T09:02:39.281Z</time>
      </trkpt>
      <trkpt lat="41.67915" lon="26.33916">
        <ele>134.150142</ele>
        <time>2022-02-26T09:02:42.353Z</time>
      </trkpt>
      <trkpt lat="41.67922" lon="26.33906">
        <ele>134.355502</ele>
        <time>2022-02-26T09:02:45.283Z</time>
      </trkpt>
      <trkpt lat="41.67929" lon="26.33896">
        <ele>134.555849</ele>
        <time>2022-02-26T09:02:48.291Z</time>
      </trkpt>
      <trkpt lat="41.67935" lon="26.33886">
        <ele>134.788192</ele>
        <time>2022-02-26T09:02:51.284Z</time>
      </trkpt>
      <trkpt lat="41.67941" lon="26.33876">
        <ele>135.319849</ele>
        <time>2022-02-26T09:02:54.276Z</time>
      </trkpt>
      <trkpt lat="41.67948" lon="26.33866">
        <ele>135.871544</ele>
        <time>2022-02-26T09:02:57.271Z</time>
      </trkpt>
      <trkpt lat="41.67955" lon="26.33855">
        <ele>136.461341</ele>
        <time>2022-02-26T09:03:00.281Z</time>
      </trkpt>
      <trkpt lat="41.67962" lon="26.33845">
        <ele>137.042835</ele>
        <time>2022-02-26T09:03:03.288Z</time>
      </trkpt>
      <trkpt lat="41.67969" lon="26.33834">
        <ele>137.621294</ele>
        <time>2022-02-26T09:03:06.273Z</time>
      </trkpt>
      <trkpt lat="41.67976" lon="26.33825">
        <ele>138.169223</ele>
        <time>2022-02-26T09:03:09.308Z</time>
      </trkpt>
      <trkpt lat="41.67985" lon="26.33813">
        <ele>138.834967</ele>
        <time>2022-02-26T09:03:13.279Z</time>
      </trkpt>
      <trkpt lat="41.67991" lon="26.33803">
        <ele>139.349723</ele>
        <time>2022-02-26T09:03:16.271Z</time>
      </trkpt>
      <trkpt lat="41.67997" lon="26.33794">
        <ele>139.846765</ele>
        <time>2022-02-26T09:03:19.292Z</time>
      </trkpt>
      <trkpt lat="41.68005" lon="26.33783">
        <ele>140.478171</ele>
        <time>2022-02-26T09:03:23.290Z</time>
      </trkpt>
      <trkpt lat="41.68011" lon="26.33773">
        <ele>140.983162</ele>
        <time>2022-02-26T09:03:26.279Z</time>
      </trkpt>
      <trkpt lat="41.68017" lon="26.33764">
        <ele>141.505025</ele>
        <time>2022-02-26T09:03:29.271Z</time>
      </trkpt>
      <trkpt lat="41.68024" lon="26.33755">
        <ele>142.013397</ele>
        <time>2022-02-26T09:03:32.277Z</time>
      </trkpt>
      <trkpt lat="41.68032" lon="26.33745">
        <ele>142.626956</ele>
        <time>2022-02-26T09:03:36.281Z</time>
      </trkpt>
      <trkpt lat="41.68038" lon="26.33736">
        <ele>143.117282</ele>
        <time>2022-02-26T09:03:39.257Z</time>
      </trkpt>
      <trkpt lat="41.68045" lon="26.33727">
        <ele>143.645131</ele>
        <time>2022-02-26T09:03:42.285Z</time>
      </trkpt>
      <trkpt lat="41.68052" lon="26.33718">
        <ele>144.174132</ele>
        <time>2022-02-26T09:03:45.276Z</time>
      </trkpt>
      <trkpt lat="41.68062" lon="26.3371">
        <ele>144.45633</ele>
        <time>2022-02-26T09:03:49.322Z</time>
      </trkpt>
      <trkpt lat="41.68072" lon="26.33701">
        <ele>144.136296</ele>
        <time>2022-02-26T09:03:53.307Z</time>
      </trkpt>
      <trkpt lat="41.68082" lon="26.33694">
        <ele>143.815359</ele>
        <time>2022-02-26T09:03:57.289Z</time>
      </trkpt>
      <trkpt lat="41.68092" lon="26.33688">
        <ele>143.519152</ele>
        <time>2022-02-26T09:04:01.313Z</time>
      </trkpt>
      <trkpt lat="41.68102" lon="26.3368">
        <ele>143.194414</ele>
        <time>2022-02-26T09:04:05.279Z</time>
      </trkpt>
      <trkpt lat="41.68113" lon="26.33674">
        <ele>142.872344</ele>
        <time>2022-02-26T09:04:09.282Z</time>
      </trkpt>
      <trkpt lat="41.68123" lon="26.33668">
        <ele>142.561029</ele>
        <time>2022-02-26T09:04:13.317Z</time>
      </trkpt>
      <trkpt lat="41.68134" lon="26.33662">
        <ele>142.242097</ele>
        <time>2022-02-26T09:04:17.279Z</time>
      </trkpt>
      <trkpt lat="41.68144" lon="26.33656">
        <ele>141.93756</ele>
        <time>2022-02-26T09:04:21.293Z</time>
      </trkpt>
      <trkpt lat="41.68155" lon="26.33651">
        <ele>141.627019</ele>
        <time>2022-02-26T09:04:25.280Z</time>
      </trkpt>
      <trkpt lat="41.68165" lon="26.33645">
        <ele>141.324997</ele>
        <time>2022-02-26T09:04:29.313Z</time>
      </trkpt>
      <trkpt lat="41.68176" lon="26.33639">
        <ele>141.008608</ele>
        <time>2022-02-26T09:04:33.289Z</time>
      </trkpt>
      <trkpt lat="41.68185" lon="26.33633">
        <ele>140.717366</ele>
        <time>2022-02-26T09:04:37.261Z</time>
      </trkpt>
      <trkpt lat="41.68199" lon="26.33625">
        <ele>140.319392</ele>
        <time>2022-02-26T09:04:42.317Z</time>
      </trkpt>
      <trkpt lat="41.68207" lon="26.3362">
        <ele>140.070772</ele>
        <time>2022-02-26T09:04:45.297Z</time>
      </trkpt>
      <trkpt lat="41.68217" lon="26.33612">
        <ele>139.739155</ele>
        <time>2022-02-26T09:04:49.270Z</time>
      </trkpt>
      <trkpt lat="41.68226" lon="26.33601">
        <ele>139.429399</ele>
        <time>2022-02-26T09:04:53.302Z</time>
      </trkpt>
      <trkpt lat="41.68233" lon="26.33593">
        <ele>139.19795</ele>
        <time>2022-02-26T09:04:56.256Z</time>
      </trkpt>
      <trkpt lat="41.68239" lon="26.3358">
        <ele>138.902547</ele>
        <time>2022-02-26T09:05:00.298Z</time>
      </trkpt>
      <trkpt lat="41.68244" lon="26.33567">
        <ele>138.628827</ele>
        <time>2022-02-26T09:05:04.287Z</time>
      </trkpt>
      <trkpt lat="41.68246" lon="26.33555">
        <ele>138.399795</ele>
        <time>2022-02-26T09:05:07.279Z</time>
      </trkpt>
      <trkpt lat="41.68247" lon="26.33543">
        <ele>138.160919</ele>
        <time>2022-02-26T09:05:10.299Z</time>
      </trkpt>
      <trkpt lat="41.68248" lon="26.33529">
        <ele>137.904195</ele>
        <time>2022-02-26T09:05:13.285Z</time>
      </trkpt>
      <trkpt lat="41.68249" lon="26.33516">
        <ele>137.648797</ele>
        <time>2022-02-26T09:05:16.282Z</time>
      </trkpt>
      <trkpt lat="41.68249" lon="26.33503">
        <ele>137.4019</ele>
        <time>2022-02-26T09:05:19.321Z</time>
      </trkpt>
      <trkpt lat="41.68249" lon="26.3349">
        <ele>137.153172</ele>
        <time>2022-02-26T09:05:22.298Z</time>
      </trkpt>
      <trkpt lat="41.6825" lon="26.33476">
        <ele>136.892658</ele>
        <time>2022-02-26T09:05:25.323Z</time>
      </trkpt>
      <trkpt lat="41.68251" lon="26.33461">
        <ele>136.616831</ele>
        <time>2022-02-26T09:05:28.267Z</time>
      </trkpt>
      <trkpt lat="41.68252" lon="26.33446">
        <ele>136.332845</ele>
        <time>2022-02-26T09:05:31.317Z</time>
      </trkpt>
      <trkpt lat="41.68253" lon="26.33431">
        <ele>136.035622</ele>
        <time>2022-02-26T09:05:34.277Z</time>
      </trkpt>
      <trkpt lat="41.68254" lon="26.33415">
        <ele>135.737044</ele>
        <time>2022-02-26T09:05:37.270Z</time>
      </trkpt>
      <trkpt lat="41.68255" lon="26.33401">
        <ele>135.4644</ele>
        <time>2022-02-26T09:05:40.290Z</time>
      </trkpt>
      <trkpt lat="41.68257" lon="26.33386">
        <ele>135.184639</ele>
        <time>2022-02-26T09:05:43.288Z</time>
      </trkpt>
      <trkpt lat="41.68258" lon="26.33372">
        <ele>135.193689</ele>
        <time>2022-02-26T09:05:46.260Z</time>
      </trkpt>
      <trkpt lat="41.6826" lon="26.33356">
        <ele>135.402689</ele>
        <time>2022-02-26T09:05:49.323Z</time>
      </trkpt>
      <trkpt lat="41.68263" lon="26.33342">
        <ele>135.601259</ele>
        <time>2022-02-26T09:05:52.272Z</time>
      </trkpt>
      <trkpt lat="41.68265" lon="26.33329">
        <ele>135.781914</ele>
        <time>2022-02-26T09:05:55.270Z</time>
      </trkpt>
      <trkpt lat="41.68269" lon="26.33316">
        <ele>135.975386</ele>
        <time>2022-02-26T09:05:58.289Z</time>
      </trkpt>
      <trkpt lat="41.68274" lon="26.33304">
        <ele>136.163023</ele>
        <time>2022-02-26T09:06:01.288Z</time>
      </trkpt>
      <trkpt lat="41.6828" lon="26.33292">
        <ele>136.360526</ele>
        <time>2022-02-26T09:06:04.280Z</time>
      </trkpt>
      <trkpt lat="41.68286" lon="26.33279">
        <ele>136.558029</ele>
        <time>2022-02-26T09:06:07.289Z</time>
      </trkpt>
      <trkpt lat="41.68292" lon="26.33267">
        <ele>136.755532</ele>
        <time>2022-02-26T09:06:10.311Z</time>
      </trkpt>
      <trkpt lat="41.68299" lon="26.33255">
        <ele>136.963615</ele>
        <time>2022-02-26T09:06:13.259Z</time>
      </trkpt>
      <trkpt lat="41.68306" lon="26.33242">
        <ele>137.172688</ele>
        <time>2022-02-26T09:06:16.287Z</time>
      </trkpt>
      <trkpt lat="41.68312" lon="26.3323">
        <ele>137.373102</ele>
        <time>2022-02-26T09:06:19.267Z</time>
      </trkpt>
      <trkpt lat="41.68319" lon="26.33219">
        <ele>137.573606</ele>
        <time>2022-02-26T09:06:22.282Z</time>
      </trkpt>
      <trkpt lat="41.68326" lon="26.33207">
        <ele>137.772987</ele>
        <time>2022-02-26T09:06:25.311Z</time>
      </trkpt>
      <trkpt lat="41.68333" lon="26.33196">
        <ele>137.968063</ele>
        <time>2022-02-26T09:06:28.286Z</time>
      </trkpt>
      <trkpt lat="41.6834" lon="26.33185">
        <ele>138.169444</ele>
        <time>2022-02-26T09:06:31.289Z</time>
      </trkpt>
      <trkpt lat="41.68348" lon="26.33174">
        <ele>138.505471</ele>
        <time>2022-02-26T09:06:34.291Z</time>
      </trkpt>
      <trkpt lat="41.68355" lon="26.33163">
        <ele>139.306849</ele>
        <time>2022-02-26T09:06:37.263Z</time>
      </trkpt>
      <trkpt lat="41.68362" lon="26.33154">
        <ele>140.107625</ele>
        <time>2022-02-26T09:06:40.271Z</time>
      </trkpt>
      <trkpt lat="41.6837" lon="26.33143">
        <ele>140.94478</ele>
        <time>2022-02-26T09:06:43.316Z</time>
      </trkpt>
      <trkpt lat="41.68378" lon="26.33133">
        <ele>141.755987</ele>
        <time>2022-02-26T09:06:46.270Z</time>
      </trkpt>
      <trkpt lat="41.68385" lon="26.33124">
        <ele>142.570197</ele>
        <time>2022-02-26T09:06:49.312Z</time>
      </trkpt>
      <trkpt lat="41.68394" lon="26.33114">
        <ele>143.411494</ele>
        <time>2022-02-26T09:06:52.273Z</time>
      </trkpt>
      <trkpt lat="41.68403" lon="26.33105">
        <ele>144.269005</ele>
        <time>2022-02-26T09:06:55.271Z</time>
      </trkpt>
      <trkpt lat="41.68412" lon="26.33097">
        <ele>145.100269</ele>
        <time>2022-02-26T09:06:58.308Z</time>
      </trkpt>
      <trkpt lat="41.6842" lon="26.3309">
        <ele>145.842269</ele>
        <time>2022-02-26T09:07:01.280Z</time>
      </trkpt>
      <trkpt lat="41.68428" lon="26.33083">
        <ele>146.561938</ele>
        <time>2022-02-26T09:07:04.297Z</time>
      </trkpt>
      <trkpt lat="41.68436" lon="26.33077">
        <ele>147.256484</ele>
        <time>2022-02-26T09:07:07.301Z</time>
      </trkpt>
      <trkpt lat="41.68444" lon="26.33071">
        <ele>147.969946</ele>
        <time>2022-02-26T09:07:10.270Z</time>
      </trkpt>
      <trkpt lat="41.68452" lon="26.33065">
        <ele>148.68503</ele>
        <time>2022-02-26T09:07:13.309Z</time>
      </trkpt>
      <trkpt lat="41.68461" lon="26.33058">
        <ele>149.531172</ele>
        <time>2022-02-26T09:07:17.269Z</time>
      </trkpt>
      <trkpt lat="41.68472" lon="26.3305">
        <ele>150.439241</ele>
        <time>2022-02-26T09:07:21.282Z</time>
      </trkpt>
      <trkpt lat="41.68482" lon="26.33042">
        <ele>151.338632</ele>
        <time>2022-02-26T09:07:25.261Z</time>
      </trkpt>
      <trkpt lat="41.68491" lon="26.33036">
        <ele>152.095518</ele>
        <time>2022-02-26T09:07:29.304Z</time>
      </trkpt>
      <trkpt lat="41.68499" lon="26.33029">
        <ele>152.114977</ele>
        <time>2022-02-26T09:07:33.273Z</time>
      </trkpt>
      <trkpt lat="41.68508" lon="26.33022">
        <ele>152.116134</ele>
        <time>2022-02-26T09:07:37.279Z</time>
      </trkpt>
      <trkpt lat="41.68517" lon="26.33015">
        <ele>152.117381</ele>
        <time>2022-02-26T09:07:42.276Z</time>
      </trkpt>
      <trkpt lat="41.68527" lon="26.33007">
        <ele>152.118615</ele>
        <time>2022-02-26T09:07:47.288Z</time>
      </trkpt>
      <trkpt lat="41.68536" lon="26.33001">
        <ele>152.11978</ele>
        <time>2022-02-26T09:07:52.283Z</time>
      </trkpt>
      <trkpt lat="41.68544" lon="26.32993">
        <ele>152.120971</ele>
        <time>2022-02-26T09:07:57.280Z</time>
      </trkpt>
      <trkpt lat="41.68552" lon="26.32985">
        <ele>152.122063</ele>
        <time>2022-02-26T09:08:02.308Z</time>
      </trkpt>
      <trkpt lat="41.68559" lon="26.32977">
        <ele>152.123103</ele>
        <time>2022-02-26T09:08:07.265Z</time>
      </trkpt>
      <trkpt lat="41.68565" lon="26.32968">
        <ele>152.124129</ele>
        <time>2022-02-26T09:08:12.269Z</time>
      </trkpt>
      <trkpt lat="41.68573" lon="26.32959">
        <ele>152.125352</ele>
        <time>2022-02-26T09:08:17.302Z</time>
      </trkpt>
      <trkpt lat="41.68579" lon="26.32948">
        <ele>152.126486</ele>
        <time>2022-02-26T09:08:22.292Z</time>
      </trkpt>
      <trkpt lat="41.68585" lon="26.32937">
        <ele>152.127646</ele>
        <time>2022-02-26T09:08:27.273Z</time>
      </trkpt>
      <trkpt lat="41.6859" lon="26.32927">
        <ele>152.128691</ele>
        <time>2022-02-26T09:08:31.270Z</time>
      </trkpt>
      <trkpt lat="41.68594" lon="26.32915">
        <ele>152.129803</ele>
        <time>2022-02-26T09:08:35.276Z</time>
      </trkpt>
      <trkpt lat="41.68598" lon="26.32903">
        <ele>152.130912</ele>
        <time>2022-02-26T09:08:39.296Z</time>
      </trkpt>
      <trkpt lat="41.68601" lon="26.32891">
        <ele>152.131994</ele>
        <time>2022-02-26T09:08:43.282Z</time>
      </trkpt>
      <trkpt lat="41.68605" lon="26.32879">
        <ele>152.133072</ele>
        <time>2022-02-26T09:08:47.305Z</time>
      </trkpt>
      <trkpt lat="41.68609" lon="26.32867">
        <ele>152.134242</ele>
        <time>2022-02-26T09:08:51.265Z</time>
      </trkpt>
      <trkpt lat="41.68612" lon="26.32854">
        <ele>151.839078</ele>
        <time>2022-02-26T09:08:55.259Z</time>
      </trkpt>
      <trkpt lat="41.68617" lon="26.3284">
        <ele>151.490769</ele>
        <time>2022-02-26T09:08:59.281Z</time>
      </trkpt>
      <trkpt lat="41.6862" lon="26.32826">
        <ele>151.13875</ele>
        <time>2022-02-26T09:09:03.276Z</time>
      </trkpt>
      <trkpt lat="41.68622" lon="26.32814">
        <ele>150.850269</ele>
        <time>2022-02-26T09:09:06.281Z</time>
      </trkpt>
      <trkpt lat="41.68625" lon="26.32802">
        <ele>150.560913</ele>
        <time>2022-02-26T09:09:09.276Z</time>
      </trkpt>
      <trkpt lat="41.68627" lon="26.3279">
        <ele>150.271336</ele>
        <time>2022-02-26T09:09:12.285Z</time>
      </trkpt>
      <trkpt lat="41.68627" lon="26.32774">
        <ele>149.892034</ele>
        <time>2022-02-26T09:09:16.289Z</time>
      </trkpt>
      <trkpt lat="41.68627" lon="26.32761">
        <ele>149.585699</ele>
        <time>2022-02-26T09:09:19.299Z</time>
      </trkpt>
      <trkpt lat="41.68627" lon="26.32748">
        <ele>149.284634</ele>
        <time>2022-02-26T09:09:22.266Z</time>
      </trkpt>
      <trkpt lat="41.68626" lon="26.32736">
        <ele>148.997422</ele>
        <time>2022-02-26T09:09:25.270Z</time>
      </trkpt>
      <trkpt lat="41.68626" lon="26.3272">
        <ele>148.632532</ele>
        <time>2022-02-26T09:09:29.271Z</time>
      </trkpt>
      <trkpt lat="41.68625" lon="26.32708">
        <ele>148.336858</ele>
        <time>2022-02-26T09:09:32.287Z</time>
      </trkpt>
      <trkpt lat="41.68624" lon="26.32696">
        <ele>148.048817</ele>
        <time>2022-02-26T09:09:35.283Z</time>
      </trkpt>
      <trkpt lat="41.68623" lon="26.32683">
        <ele>147.753462</ele>
        <time>2022-02-26T09:09:38.281Z</time>
      </trkpt>
      <trkpt lat="41.68622" lon="26.32671">
        <ele>147.47037</ele>
        <time>2022-02-26T09:09:41.265Z</time>
      </trkpt>
      <trkpt lat="41.68622" lon="26.32655">
        <ele>147.09811</ele>
        <time>2022-02-26T09:09:45.325Z</time>
      </trkpt>
      <trkpt lat="41.68621" lon="26.32643">
        <ele>146.812673</ele>
        <time>2022-02-26T09:09:48.301Z</time>
      </trkpt>
      <trkpt lat="41.68621" lon="26.32631">
        <ele>146.52781</ele>
        <time>2022-02-26T09:09:51.315Z</time>
      </trkpt>
      <trkpt lat="41.68622" lon="26.32618">
        <ele>146.774373</ele>
        <time>2022-02-26T09:09:54.284Z</time>
      </trkpt>
      <trkpt lat="41.68622" lon="26.32606">
        <ele>147.129685</ele>
        <time>2022-02-26T09:09:57.272Z</time>
      </trkpt>
      <trkpt lat="41.68623" lon="26.3259">
        <ele>147.581349</ele>
        <time>2022-02-26T09:10:01.290Z</time>
      </trkpt>
      <trkpt lat="41.68626" lon="26.32575">
        <ele>148.0346</ele>
        <time>2022-02-26T09:10:05.299Z</time>
      </trkpt>
      <trkpt lat="41.68629" lon="26.32561">
        <ele>148.473835</ele>
        <time>2022-02-26T09:10:09.264Z</time>
      </trkpt>
      <trkpt lat="41.68632" lon="26.32548">
        <ele>148.879015</ele>
        <time>2022-02-26T09:10:13.303Z</time>
      </trkpt>
      <trkpt lat="41.68636" lon="26.32534">
        <ele>149.300539</ele>
        <time>2022-02-26T09:10:17.299Z</time>
      </trkpt>
      <trkpt lat="41.6864" lon="26.32522">
        <ele>149.687493</ele>
        <time>2022-02-26T09:10:21.260Z</time>
      </trkpt>
      <trkpt lat="41.68644" lon="26.3251">
        <ele>150.078184</ele>
        <time>2022-02-26T09:10:25.318Z</time>
      </trkpt>
      <trkpt lat="41.68649" lon="26.32497">
        <ele>150.496184</ele>
        <time>2022-02-26T09:10:29.288Z</time>
      </trkpt>
      <trkpt lat="41.68654" lon="26.32484">
        <ele>150.925467</ele>
        <time>2022-02-26T09:10:33.308Z</time>
      </trkpt>
      <trkpt lat="41.68658" lon="26.32472">
        <ele>151.301766</ele>
        <time>2022-02-26T09:10:37.281Z</time>
      </trkpt>
      <trkpt lat="41.68663" lon="26.32459">
        <ele>151.729412</ele>
        <time>2022-02-26T09:10:42.282Z</time>
      </trkpt>
      <trkpt lat="41.68667" lon="26.32448">
        <ele>152.105787</ele>
        <time>2022-02-26T09:10:46.301Z</time>
      </trkpt>
      <trkpt lat="41.68671" lon="26.32435">
        <ele>152.497009</ele>
        <time>2022-02-26T09:10:50.268Z</time>
      </trkpt>
      <trkpt lat="41.68675" lon="26.32423">
        <ele>152.879705</ele>
        <time>2022-02-26T09:10:54.311Z</time>
      </trkpt>
      <trkpt lat="41.6868" lon="26.32412">
        <ele>153.244962</ele>
        <time>2022-02-26T09:10:58.312Z</time>
      </trkpt>
      <trkpt lat="41.68684" lon="26.324">
        <ele>153.437108</ele>
        <time>2022-02-26T09:11:02.279Z</time>
      </trkpt>
      <trkpt lat="41.68688" lon="26.32388">
        <ele>153.314494</ele>
        <time>2022-02-26T09:11:06.283Z</time>
      </trkpt>
      <trkpt lat="41.68692" lon="26.32375">
        <ele>153.187423</ele>
        <time>2022-02-26T09:11:10.263Z</time>
      </trkpt>
      <trkpt lat="41.68695" lon="26.32363">
        <ele>153.067302</ele>
        <time>2022-02-26T09:11:14.281Z</time>
      </trkpt>
      <trkpt lat="41.687" lon="26.3235">
        <ele>152.933987</ele>
        <time>2022-02-26T09:11:18.282Z</time>
      </trkpt>
      <trkpt lat="41.68703" lon="26.32337">
        <ele>152.805559</ele>
        <time>2022-02-26T09:11:22.282Z</time>
      </trkpt>
      <trkpt lat="41.68706" lon="26.32323">
        <ele>152.667654</ele>
        <time>2022-02-26T09:11:26.306Z</time>
      </trkpt>
      <trkpt lat="41.68711" lon="26.32308">
        <ele>152.522443</ele>
        <time>2022-02-26T09:11:30.279Z</time>
      </trkpt>
      <trkpt lat="41.68714" lon="26.32294">
        <ele>152.381566</ele>
        <time>2022-02-26T09:11:34.284Z</time>
      </trkpt>
      <trkpt lat="41.68719" lon="26.32281">
        <ele>152.243054</ele>
        <time>2022-02-26T09:11:38.282Z</time>
      </trkpt>
      <trkpt lat="41.68723" lon="26.32267">
        <ele>152.107018</ele>
        <time>2022-02-26T09:11:42.261Z</time>
      </trkpt>
      <trkpt lat="41.68729" lon="26.32253">
        <ele>151.956635</ele>
        <time>2022-02-26T09:11:46.276Z</time>
      </trkpt>
      <trkpt lat="41.68734" lon="26.32241">
        <ele>151.834963</ele>
        <time>2022-02-26T09:11:49.283Z</time>
      </trkpt>
      <trkpt lat="41.68739" lon="26.3223">
        <ele>151.713856</ele>
        <time>2022-02-26T09:11:52.296Z</time>
      </trkpt>
      <trkpt lat="41.68744" lon="26.32219">
        <ele>151.590794</ele>
        <time>2022-02-26T09:11:55.284Z</time>
      </trkpt>
      <trkpt lat="41.6875" lon="26.32209">
        <ele>151.468057</ele>
        <time>2022-02-26T09:11:58.283Z</time>
      </trkpt>
      <trkpt lat="41.68757" lon="26.32198">
        <ele>151.336313</ele>
        <time>2022-02-26T09:12:01.285Z</time>
      </trkpt>
      <trkpt lat="41.68764" lon="26.32187">
        <ele>151.243486</ele>
        <time>2022-02-26T09:12:04.279Z</time>
      </trkpt>
      <trkpt lat="41.68771" lon="26.32178">
        <ele>151.229004</ele>
        <time>2022-02-26T09:12:07.265Z</time>
      </trkpt>
      <trkpt lat="41.68778" lon="26.32168">
        <ele>151.214242</ele>
        <time>2022-02-26T09:12:10.288Z</time>
      </trkpt>
      <trkpt lat="41.68785" lon="26.32159">
        <ele>151.20037</ele>
        <time>2022-02-26T09:12:13.285Z</time>
      </trkpt>
      <trkpt lat="41.68792" lon="26.3215">
        <ele>151.186364</ele>
        <time>2022-02-26T09:12:16.286Z</time>
      </trkpt>
      <trkpt lat="41.688" lon="26.32141">
        <ele>151.172111</ele>
        <time>2022-02-26T09:12:19.261Z</time>
      </trkpt>
      <trkpt lat="41.68807" lon="26.32133">
        <ele>151.158038</ele>
        <time>2022-02-26T09:12:22.282Z</time>
      </trkpt>
      <trkpt lat="41.68814" lon="26.32124">
        <ele>151.143809</ele>
        <time>2022-02-26T09:12:25.282Z</time>
      </trkpt>
      <trkpt lat="41.68822" lon="26.32115">
        <ele>151.129306</ele>
        <time>2022-02-26T09:12:28.316Z</time>
      </trkpt>
      <trkpt lat="41.68829" lon="26.32105">
        <ele>151.115047</ele>
        <time>2022-02-26T09:12:31.287Z</time>
      </trkpt>
      <trkpt lat="41.68836" lon="26.32097">
        <ele>151.100974</ele>
        <time>2022-02-26T09:12:34.323Z</time>
      </trkpt>
      <trkpt lat="41.68843" lon="26.32088">
        <ele>151.086789</ele>
        <time>2022-02-26T09:12:37.295Z</time>
      </trkpt>
      <trkpt lat="41.6885" lon="26.32078">
        <ele>151.072334</ele>
        <time>2022-02-26T09:12:40.337Z</time>
      </trkpt>
      <trkpt lat="41.68858" lon="26.32069">
        <ele>151.057626</ele>
        <time>2022-02-26T09:12:43.275Z</time>
      </trkpt>
      <trkpt lat="41.68865" lon="26.32059">
        <ele>151.04301</ele>
        <time>2022-02-26T09:12:46.268Z</time>
      </trkpt>
      <trkpt lat="41.68872" lon="26.3205">
        <ele>151.028857</ele>
        <time>2022-02-26T09:12:49.305Z</time>
      </trkpt>
      <trkpt lat="41.68879" lon="26.3204">
        <ele>151.014148</ele>
        <time>2022-02-26T09:12:52.306Z</time>
      </trkpt>
      <trkpt lat="41.68885" lon="26.32031">
        <ele>151.000685</ele>
        <time>2022-02-26T09:12:55.275Z</time>
      </trkpt>
      <trkpt lat="41.68891" lon="26.32021">
        <ele>151.002458</ele>
        <time>2022-02-26T09:12:58.284Z</time>
      </trkpt>
      <trkpt lat="41.68896" lon="26.32008">
        <ele>151.120377</ele>
        <time>2022-02-26T09:13:02.311Z</time>
      </trkpt>
      <trkpt lat="41.68901" lon="26.31996">
        <ele>151.222714</ele>
        <time>2022-02-26T09:13:05.272Z</time>
      </trkpt>
      <trkpt lat="41.68904" lon="26.31984">
        <ele>151.325259</ele>
        <time>2022-02-26T09:13:08.270Z</time>
      </trkpt>
      <trkpt lat="41.68907" lon="26.31972">
        <ele>151.424534</ele>
        <time>2022-02-26T09:13:11.299Z</time>
      </trkpt>
      <trkpt lat="41.68909" lon="26.3196">
        <ele>151.521486</ele>
        <time>2022-02-26T09:13:14.289Z</time>
      </trkpt>
      <trkpt lat="41.68911" lon="26.31948">
        <ele>151.619206</ele>
        <time>2022-02-26T09:13:17.275Z</time>
      </trkpt>
      <trkpt lat="41.68912" lon="26.31932">
        <ele>151.742219</ele>
        <time>2022-02-26T09:13:21.280Z</time>
      </trkpt>
      <trkpt lat="41.68914" lon="26.31917">
        <ele>151.860741</ele>
        <time>2022-02-26T09:13:25.276Z</time>
      </trkpt>
      <trkpt lat="41.68915" lon="26.31902">
        <ele>151.974709</ele>
        <time>2022-02-26T09:13:29.265Z</time>
      </trkpt>
      <trkpt lat="41.68917" lon="26.31888">
        <ele>152.088022</ele>
        <time>2022-02-26T09:13:33.285Z</time>
      </trkpt>
      <trkpt lat="41.68918" lon="26.31874">
        <ele>152.195271</ele>
        <time>2022-02-26T09:13:37.300Z</time>
      </trkpt>
      <trkpt lat="41.68919" lon="26.3186">
        <ele>152.309633</ele>
        <time>2022-02-26T09:13:41.312Z</time>
      </trkpt>
      <trkpt lat="41.6892" lon="26.31845">
        <ele>152.423524</ele>
        <time>2022-02-26T09:13:45.271Z</time>
      </trkpt>
      <trkpt lat="41.68922" lon="26.31831">
        <ele>152.535271</ele>
        <time>2022-02-26T09:13:49.270Z</time>
      </trkpt>
      <trkpt lat="41.68924" lon="26.31816">
        <ele>152.657813</ele>
        <time>2022-02-26T09:13:53.272Z</time>
      </trkpt>
      <trkpt lat="41.68926" lon="26.318">
        <ele>152.78052</ele>
        <time>2022-02-26T09:13:57.303Z</time>
      </trkpt>
      <trkpt lat="41.68928" lon="26.31787">
        <ele>152.94011</ele>
        <time>2022-02-26T09:14:01.290Z</time>
      </trkpt>
      <trkpt lat="41.68929" lon="26.31773">
        <ele>153.459057</ele>
        <time>2022-02-26T09:14:05.253Z</time>
      </trkpt>
      <trkpt lat="41.68931" lon="26.3176">
        <ele>153.919576</ele>
        <time>2022-02-26T09:14:09.283Z</time>
      </trkpt>
      <trkpt lat="41.68933" lon="26.31747">
        <ele>154.396882</ele>
        <time>2022-02-26T09:14:13.322Z</time>
      </trkpt>
      <trkpt lat="41.68934" lon="26.31734">
        <ele>154.858619</ele>
        <time>2022-02-26T09:14:17.287Z</time>
      </trkpt>
      <trkpt lat="41.68935" lon="26.31721">
        <ele>155.319688</ele>
        <time>2022-02-26T09:14:21.290Z</time>
      </trkpt>
      <trkpt lat="41.68936" lon="26.31707">
        <ele>155.822662</ele>
        <time>2022-02-26T09:14:25.280Z</time>
      </trkpt>
      <trkpt lat="41.68938" lon="26.31694">
        <ele>156.304275</ele>
        <time>2022-02-26T09:14:29.277Z</time>
      </trkpt>
      <trkpt lat="41.6894" lon="26.31681">
        <ele>156.783676</ele>
        <time>2022-02-26T09:14:33.277Z</time>
      </trkpt>
      <trkpt lat="41.68941" lon="26.31667">
        <ele>157.265973</ele>
        <time>2022-02-26T09:14:37.276Z</time>
      </trkpt>
      <trkpt lat="41.68943" lon="26.31655">
        <ele>157.728938</ele>
        <time>2022-02-26T09:14:41.296Z</time>
      </trkpt>
      <trkpt lat="41.68946" lon="26.31642">
        <ele>158.194265</ele>
        <time>2022-02-26T09:14:45.279Z</time>
      </trkpt>
      <trkpt lat="41.68946" lon="26.3163">
        <ele>158.62324</ele>
        <time>2022-02-26T09:14:49.295Z</time>
      </trkpt>
      <trkpt lat="41.68948" lon="26.31616">
        <ele>159.130931</ele>
        <time>2022-02-26T09:14:55.265Z</time>
      </trkpt>
      <trkpt lat="41.68948" lon="26.31603">
        <ele>159.600061</ele>
        <time>2022-02-26T09:15:01.278Z</time>
      </trkpt>
      <trkpt lat="41.6895" lon="26.3159">
        <ele>160.075279</ele>
        <time>2022-02-26T09:15:06.293Z</time>
      </trkpt>
      <trkpt lat="41.68951" lon="26.31577">
        <ele>160.513067</ele>
        <time>2022-02-26T09:15:11.275Z</time>
      </trkpt>
      <trkpt lat="41.68955" lon="26.31564">
        <ele>161.019741</ele>
        <time>2022-02-26T09:15:17.308Z</time>
      </trkpt>
      <trkpt lat="41.68963" lon="26.31557">
        <ele>161.501319</ele>
        <time>2022-02-26T09:15:22.265Z</time>
      </trkpt>
      <trkpt lat="41.68973" lon="26.31555">
        <ele>162.114835</ele>
        <time>2022-02-26T09:15:26.301Z</time>
      </trkpt>
      <trkpt lat="41.68983" lon="26.31556">
        <ele>162.678028</ele>
        <time>2022-02-26T09:15:29.281Z</time>
      </trkpt>
      <trkpt lat="41.68993" lon="26.31557">
        <ele>163.311681</ele>
        <time>2022-02-26T09:15:32.284Z</time>
      </trkpt>
      <trkpt lat="41.69004" lon="26.31557">
        <ele>163.987319</ele>
        <time>2022-02-26T09:15:35.295Z</time>
      </trkpt>
      <trkpt lat="41.69016" lon="26.31557">
        <ele>164.693234</ele>
        <time>2022-02-26T09:15:38.293Z</time>
      </trkpt>
      <trkpt lat="41.69028" lon="26.31558">
        <ele>165.417466</ele>
        <time>2022-02-26T09:15:41.300Z</time>
      </trkpt>
      <trkpt lat="41.6904" lon="26.31558">
        <ele>166.159459</ele>
        <time>2022-02-26T09:15:44.270Z</time>
      </trkpt>
      <trkpt lat="41.69053" lon="26.31558">
        <ele>166.913557</ele>
        <time>2022-02-26T09:15:47.287Z</time>
      </trkpt>
      <trkpt lat="41.69065" lon="26.31557">
        <ele>167.637789</ele>
        <time>2022-02-26T09:15:50.261Z</time>
      </trkpt>
      <trkpt lat="41.69077" lon="26.31555">
        <ele>168.384689</ele>
        <time>2022-02-26T09:15:53.268Z</time>
      </trkpt>
      <trkpt lat="41.69088" lon="26.31552">
        <ele>169.060128</ele>
        <time>2022-02-26T09:15:56.311Z</time>
      </trkpt>
      <trkpt lat="41.69099" lon="26.31548">
        <ele>169.732294</ele>
        <time>2022-02-26T09:15:59.279Z</time>
      </trkpt>
      <trkpt lat="41.69109" lon="26.31541">
        <ele>170.41916</ele>
        <time>2022-02-26T09:16:02.271Z</time>
      </trkpt>
      <trkpt lat="41.69119" lon="26.31534">
        <ele>171.118024</ele>
        <time>2022-02-26T09:16:05.303Z</time>
      </trkpt>
      <trkpt lat="41.69129" lon="26.31527">
        <ele>171.764664</ele>
        <time>2022-02-26T09:16:08.290Z</time>
      </trkpt>
      <trkpt lat="41.69138" lon="26.31519">
        <ele>172.312175</ele>
        <time>2022-02-26T09:16:11.267Z</time>
      </trkpt>
      <trkpt lat="41.69149" lon="26.31512">
        <ele>172.280627</ele>
        <time>2022-02-26T09:16:14.288Z</time>
      </trkpt>
      <trkpt lat="41.69159" lon="26.31504">
        <ele>172.25105</ele>
        <time>2022-02-26T09:16:17.277Z</time>
      </trkpt>
      <trkpt lat="41.69168" lon="26.31497">
        <ele>172.222229</ele>
        <time>2022-02-26T09:16:20.263Z</time>
      </trkpt>
      <trkpt lat="41.69178" lon="26.31489">
        <ele>172.193011</ele>
        <time>2022-02-26T09:16:23.306Z</time>
      </trkpt>
      <trkpt lat="41.69187" lon="26.31482">
        <ele>172.164716</ele>
        <time>2022-02-26T09:16:26.296Z</time>
      </trkpt>
      <trkpt lat="41.69196" lon="26.31475">
        <ele>172.13799</ele>
        <time>2022-02-26T09:16:29.316Z</time>
      </trkpt>
      <trkpt lat="41.69204" lon="26.31468">
        <ele>172.110835</ele>
        <time>2022-02-26T09:16:32.290Z</time>
      </trkpt>
      <trkpt lat="41.69214" lon="26.31461">
        <ele>172.081484</ele>
        <time>2022-02-26T09:16:35.269Z</time>
      </trkpt>
      <trkpt lat="41.69225" lon="26.31453">
        <ele>172.049889</ele>
        <time>2022-02-26T09:16:38.276Z</time>
      </trkpt>
      <trkpt lat="41.69235" lon="26.31446">
        <ele>172.019459</ele>
        <time>2022-02-26T09:16:41.320Z</time>
      </trkpt>
      <trkpt lat="41.69245" lon="26.31439">
        <ele>171.988657</ele>
        <time>2022-02-26T09:16:44.279Z</time>
      </trkpt>
      <trkpt lat="41.69254" lon="26.31431">
        <ele>171.959804</ele>
        <time>2022-02-26T09:16:47.268Z</time>
      </trkpt>
      <trkpt lat="41.69265" lon="26.31424">
        <ele>171.928298</ele>
        <time>2022-02-26T09:16:50.290Z</time>
      </trkpt>
      <trkpt lat="41.69275" lon="26.31416">
        <ele>171.896561</ele>
        <time>2022-02-26T09:16:53.281Z</time>
      </trkpt>
      <trkpt lat="41.69286" lon="26.31407">
        <ele>171.86249</ele>
        <time>2022-02-26T09:16:56.271Z</time>
      </trkpt>
      <trkpt lat="41.69296" lon="26.31398">
        <ele>171.563111</ele>
        <time>2022-02-26T09:16:59.300Z</time>
      </trkpt>
      <trkpt lat="41.69305" lon="26.3139">
        <ele>170.87422</ele>
        <time>2022-02-26T09:17:02.302Z</time>
      </trkpt>
      <trkpt lat="41.69313" lon="26.31382">
        <ele>170.154476</ele>
        <time>2022-02-26T09:17:07.279Z</time>
      </trkpt>
      <trkpt lat="41.69322" lon="26.31373">
        <ele>169.45083</ele>
        <time>2022-02-26T09:17:09.280Z</time>
      </trkpt>
      <trkpt lat="41.69329" lon="26.31364">
        <ele>168.774443</ele>
        <time>2022-02-26T09:17:12.292Z</time>
      </trkpt>
      <trkpt lat="41.69336" lon="26.31354">
        <ele>168.101236</ele>
        <time>2022-02-26T09:17:15.277Z</time>
      </trkpt>
      <trkpt lat="41.69343" lon="26.31343">
        <ele>167.383758</ele>
        <time>2022-02-26T09:17:18.273Z</time>
      </trkpt>
      <trkpt lat="41.69349" lon="26.31332">
        <ele>166.679533</ele>
        <time>2022-02-26T09:17:21.284Z</time>
      </trkpt>
      <trkpt lat="41.69355" lon="26.3132">
        <ele>165.991415</ele>
        <time>2022-02-26T09:17:24.287Z</time>
      </trkpt>
      <trkpt lat="41.69361" lon="26.31309">
        <ele>165.302986</ele>
        <time>2022-02-26T09:17:26.330Z</time>
      </trkpt>
      <trkpt lat="41.69368" lon="26.31295">
        <ele>164.444907</ele>
        <time>2022-02-26T09:17:29.266Z</time>
      </trkpt>
      <trkpt lat="41.69373" lon="26.31283">
        <ele>163.767567</ele>
        <time>2022-02-26T09:17:32.279Z</time>
      </trkpt>
      <trkpt lat="41.69379" lon="26.31271">
        <ele>163.054195</ele>
        <time>2022-02-26T09:17:35.285Z</time>
      </trkpt>
      <trkpt lat="41.69385" lon="26.3126">
        <ele>162.376855</ele>
        <time>2022-02-26T09:17:38.284Z</time>
      </trkpt>
      <trkpt lat="41.6939" lon="26.31249">
        <ele>161.730686</ele>
        <time>2022-02-26T09:17:41.270Z</time>
      </trkpt>
      <trkpt lat="41.69395" lon="26.31237">
        <ele>161.064738</ele>
        <time>2022-02-26T09:17:44.279Z</time>
      </trkpt>
      <trkpt lat="41.694" lon="26.31225">
        <ele>160.360352</ele>
        <time>2022-02-26T09:17:47.277Z</time>
      </trkpt>
      <trkpt lat="41.69406" lon="26.31212">
        <ele>159.777006</ele>
        <time>2022-02-26T09:17:50.305Z</time>
      </trkpt>
      <trkpt lat="41.69412" lon="26.31201">
        <ele>159.660008</ele>
        <time>2022-02-26T09:17:52.284Z</time>
      </trkpt>
      <trkpt lat="41.69418" lon="26.3119">
        <ele>159.535116</ele>
        <time>2022-02-26T09:17:54.287Z</time>
      </trkpt>
      <trkpt lat="41.69423" lon="26.3118">
        <ele>159.418249</ele>
        <time>2022-02-26T09:17:56.304Z</time>
      </trkpt>
      <trkpt lat="41.69428" lon="26.3117">
        <ele>159.306511</ele>
        <time>2022-02-26T09:17:58.277Z</time>
      </trkpt>
      <trkpt lat="41.69434" lon="26.31159">
        <ele>159.193283</ele>
        <time>2022-02-26T09:18:00.272Z</time>
      </trkpt>
      <trkpt lat="41.69439" lon="26.31149">
        <ele>159.079237</ele>
        <time>2022-02-26T09:18:02.277Z</time>
      </trkpt>
      <trkpt lat="41.69444" lon="26.31139">
        <ele>158.965259</ele>
        <time>2022-02-26T09:18:04.280Z</time>
      </trkpt>
      <trkpt lat="41.6945" lon="26.31128">
        <ele>158.85133</ele>
        <time>2022-02-26T09:18:06.308Z</time>
      </trkpt>
      <trkpt lat="41.69455" lon="26.31119">
        <ele>158.741085</ele>
        <time>2022-02-26T09:18:08.275Z</time>
      </trkpt>
      <trkpt lat="41.69463" lon="26.31105">
        <ele>158.582634</ele>
        <time>2022-02-26T09:18:11.277Z</time>
      </trkpt>
      <trkpt lat="41.69467" lon="26.31094">
        <ele>158.471709</ele>
        <time>2022-02-26T09:18:13.281Z</time>
      </trkpt>
      <trkpt lat="41.69473" lon="26.31083">
        <ele>158.350119</ele>
        <time>2022-02-26T09:18:15.276Z</time>
      </trkpt>
      <trkpt lat="41.69478" lon="26.31071">
        <ele>158.223237</ele>
        <time>2022-02-26T09:18:17.297Z</time>
      </trkpt>
      <trkpt lat="41.69483" lon="26.3106">
        <ele>158.104483</ele>
        <time>2022-02-26T09:18:19.295Z</time>
      </trkpt>
      <trkpt lat="41.69488" lon="26.31049">
        <ele>157.991369</ele>
        <time>2022-02-26T09:18:21.287Z</time>
      </trkpt>
      <trkpt lat="41.69492" lon="26.31039">
        <ele>157.880266</ele>
        <time>2022-02-26T09:18:23.266Z</time>
      </trkpt>
      <trkpt lat="41.69498" lon="26.31026">
        <ele>157.745523</ele>
        <time>2022-02-26T09:18:26.297Z</time>
      </trkpt>
      <trkpt lat="41.69502" lon="26.31015">
        <ele>157.634895</ele>
        <time>2022-02-26T09:18:29.323Z</time>
      </trkpt>
      <trkpt lat="41.69505" lon="26.31003">
        <ele>157.691477</ele>
        <time>2022-02-26T09:18:32.283Z</time>
      </trkpt>
      <trkpt lat="41.6951" lon="26.3099">
        <ele>157.766891</ele>
        <time>2022-02-26T09:18:35.326Z</time>
      </trkpt>
      <trkpt lat="41.69515" lon="26.30976">
        <ele>157.849001</ele>
        <time>2022-02-26T09:18:38.269Z</time>
      </trkpt>
      <trkpt lat="41.6952" lon="26.30961">
        <ele>157.936797</ele>
        <time>2022-02-26T09:18:41.286Z</time>
      </trkpt>
      <trkpt lat="41.69525" lon="26.30945">
        <ele>158.029559</ele>
        <time>2022-02-26T09:18:44.269Z</time>
      </trkpt>
      <trkpt lat="41.6953" lon="26.30928">
        <ele>158.123073</ele>
        <time>2022-02-26T09:18:47.283Z</time>
      </trkpt>
      <trkpt lat="41.69536" lon="26.30912">
        <ele>158.219772</ele>
        <time>2022-02-26T09:18:50.280Z</time>
      </trkpt>
      <trkpt lat="41.6954" lon="26.30901">
        <ele>158.288278</ele>
        <time>2022-02-26T09:18:52.261Z</time>
      </trkpt>
      <trkpt lat="41.69544" lon="26.30889">
        <ele>158.357201</ele>
        <time>2022-02-26T09:18:54.274Z</time>
      </trkpt>
      <trkpt lat="41.69549" lon="26.30878">
        <ele>158.424023</ele>
        <time>2022-02-26T09:18:56.279Z</time>
      </trkpt>
      <trkpt lat="41.69553" lon="26.30866">
        <ele>158.492011</ele>
        <time>2022-02-26T09:18:58.272Z</time>
      </trkpt>
      <trkpt lat="41.69557" lon="26.30855">
        <ele>158.559664</ele>
        <time>2022-02-26T09:19:00.267Z</time>
      </trkpt>
      <trkpt lat="41.69561" lon="26.30844">
        <ele>158.626361</ele>
        <time>2022-02-26T09:19:02.260Z</time>
      </trkpt>
      <trkpt lat="41.69567" lon="26.30829">
        <ele>158.716365</ele>
        <time>2022-02-26T09:19:05.291Z</time>
      </trkpt>
      <trkpt lat="41.69573" lon="26.30815">
        <ele>158.799222</ele>
        <time>2022-02-26T09:19:08.316Z</time>
      </trkpt>
      <trkpt lat="41.69578" lon="26.30801">
        <ele>158.881606</ele>
        <time>2022-02-26T09:19:11.303Z</time>
      </trkpt>
      <trkpt lat="41.69583" lon="26.30787">
        <ele>158.780941</ele>
        <time>2022-02-26T09:19:14.272Z</time>
      </trkpt>
      <trkpt lat="41.69589" lon="26.30772">
        <ele>158.599906</ele>
        <time>2022-02-26T09:19:17.277Z</time>
      </trkpt>
      <trkpt lat="41.69595" lon="26.30757">
        <ele>158.40772</ele>
        <time>2022-02-26T09:19:20.278Z</time>
      </trkpt>
      <trkpt lat="41.69599" lon="26.30746">
        <ele>158.275838</ele>
        <time>2022-02-26T09:19:22.270Z</time>
      </trkpt>
      <trkpt lat="41.69605" lon="26.3073">
        <ele>158.080647</ele>
        <time>2022-02-26T09:19:25.295Z</time>
      </trkpt>
      <trkpt lat="41.69611" lon="26.30714">
        <ele>157.886807</ele>
        <time>2022-02-26T09:19:28.293Z</time>
      </trkpt>
      <trkpt lat="41.69616" lon="26.30699">
        <ele>157.700854</ele>
        <time>2022-02-26T09:19:31.285Z</time>
      </trkpt>
      <trkpt lat="41.69622" lon="26.30685">
        <ele>157.519371</ele>
        <time>2022-02-26T09:19:34.272Z</time>
      </trkpt>
      <trkpt lat="41.69628" lon="26.3067">
        <ele>157.336355</ele>
        <time>2022-02-26T09:19:37.291Z</time>
      </trkpt>
      <trkpt lat="41.69634" lon="26.30654">
        <ele>157.147114</ele>
        <time>2022-02-26T09:19:40.277Z</time>
      </trkpt>
      <trkpt lat="41.6964" lon="26.3064">
        <ele>156.965162</ele>
        <time>2022-02-26T09:19:43.284Z</time>
      </trkpt>
      <trkpt lat="41.69646" lon="26.30626">
        <ele>156.786314</ele>
        <time>2022-02-26T09:19:46.299Z</time>
      </trkpt>
      <trkpt lat="41.69651" lon="26.30611">
        <ele>156.605796</ele>
        <time>2022-02-26T09:19:49.272Z</time>
      </trkpt>
      <trkpt lat="41.69658" lon="26.30596">
        <ele>156.415179</ele>
        <time>2022-02-26T09:19:52.295Z</time>
      </trkpt>
      <trkpt lat="41.69663" lon="26.30581">
        <ele>156.238335</ele>
        <time>2022-02-26T09:19:55.275Z</time>
      </trkpt>
      <trkpt lat="41.69669" lon="26.30565">
        <ele>156.114174</ele>
        <time>2022-02-26T09:19:58.279Z</time>
      </trkpt>
      <trkpt lat="41.69675" lon="26.30549">
        <ele>155.983152</ele>
        <time>2022-02-26T09:20:01.287Z</time>
      </trkpt>
      <trkpt lat="41.6968" lon="26.30537">
        <ele>155.887936</ele>
        <time>2022-02-26T09:20:03.308Z</time>
      </trkpt>
      <trkpt lat="41.69684" lon="26.30525">
        <ele>155.791438</ele>
        <time>2022-02-26T09:20:05.274Z</time>
      </trkpt>
      <trkpt lat="41.69689" lon="26.30512">
        <ele>155.687221</ele>
        <time>2022-02-26T09:20:07.281Z</time>
      </trkpt>
      <trkpt lat="41.69695" lon="26.30498">
        <ele>155.572266</ele>
        <time>2022-02-26T09:20:09.268Z</time>
      </trkpt>
      <trkpt lat="41.697" lon="26.30483">
        <ele>155.452789</ele>
        <time>2022-02-26T09:20:11.276Z</time>
      </trkpt>
      <trkpt lat="41.69706" lon="26.30467">
        <ele>155.32369</ele>
        <time>2022-02-26T09:20:13.263Z</time>
      </trkpt>
      <trkpt lat="41.69713" lon="26.30451">
        <ele>155.189438</ele>
        <time>2022-02-26T09:20:15.279Z</time>
      </trkpt>
      <trkpt lat="41.69719" lon="26.30435">
        <ele>155.059634</ele>
        <time>2022-02-26T09:20:17.285Z</time>
      </trkpt>
      <trkpt lat="41.69726" lon="26.30419">
        <ele>154.929062</ele>
        <time>2022-02-26T09:20:19.277Z</time>
      </trkpt>
      <trkpt lat="41.69732" lon="26.30404">
        <ele>154.805689</ele>
        <time>2022-02-26T09:20:21.282Z</time>
      </trkpt>
      <trkpt lat="41.69738" lon="26.30389">
        <ele>154.685301</ele>
        <time>2022-02-26T09:20:23.302Z</time>
      </trkpt>
      <trkpt lat="41.69744" lon="26.30375">
        <ele>154.56882</ele>
        <time>2022-02-26T09:20:25.283Z</time>
      </trkpt>
      <trkpt lat="41.6975" lon="26.30364">
        <ele>154.170855</ele>
        <time>2022-02-26T09:20:27.294Z</time>
      </trkpt>
      <trkpt lat="41.69756" lon="26.30352">
        <ele>153.520422</ele>
        <time>2022-02-26T09:20:29.285Z</time>
      </trkpt>
      <trkpt lat="41.69763" lon="26.30338">
        <ele>152.799562</ele>
        <time>2022-02-26T09:20:31.300Z</time>
      </trkpt>
      <trkpt lat="41.69771" lon="26.30325">
        <ele>152.046063</ele>
        <time>2022-02-26T09:20:33.258Z</time>
      </trkpt>
      <trkpt lat="41.69779" lon="26.30313">
        <ele>151.306265</ele>
        <time>2022-02-26T09:20:35.293Z</time>
      </trkpt>
      <trkpt lat="41.69787" lon="26.30301">
        <ele>150.567917</ele>
        <time>2022-02-26T09:20:37.279Z</time>
      </trkpt>
      <trkpt lat="41.69796" lon="26.30289">
        <ele>149.844283</ele>
        <time>2022-02-26T09:20:39.262Z</time>
      </trkpt>
      <trkpt lat="41.69805" lon="26.30277">
        <ele>149.084691</ele>
        <time>2022-02-26T09:20:41.288Z</time>
      </trkpt>
      <trkpt lat="41.69815" lon="26.30265">
        <ele>148.309046</ele>
        <time>2022-02-26T09:20:43.277Z</time>
      </trkpt>
      <trkpt lat="41.69825" lon="26.30253">
        <ele>147.489009</ele>
        <time>2022-02-26T09:20:45.269Z</time>
      </trkpt>
      <trkpt lat="41.69835" lon="26.30239">
        <ele>146.629645</ele>
        <time>2022-02-26T09:20:47.318Z</time>
      </trkpt>
      <trkpt lat="41.69845" lon="26.30227">
        <ele>145.831809</ele>
        <time>2022-02-26T09:20:49.287Z</time>
      </trkpt>
      <trkpt lat="41.69855" lon="26.30215">
        <ele>145.014828</ele>
        <time>2022-02-26T09:20:51.271Z</time>
      </trkpt>
      <trkpt lat="41.69866" lon="26.30203">
        <ele>144.185932</ele>
        <time>2022-02-26T09:20:53.299Z</time>
      </trkpt>
      <trkpt lat="41.69877" lon="26.30191">
        <ele>143.271572</ele>
        <time>2022-02-26T09:20:55.299Z</time>
      </trkpt>
      <trkpt lat="41.6989" lon="26.30179">
        <ele>142.287146</ele>
        <time>2022-02-26T09:20:57.270Z</time>
      </trkpt>
      <trkpt lat="41.69903" lon="26.30168">
        <ele>141.310244</ele>
        <time>2022-02-26T09:20:59.267Z</time>
      </trkpt>
      <trkpt lat="41.69916" lon="26.30158">
        <ele>140.360398</ele>
        <time>2022-02-26T09:21:01.296Z</time>
      </trkpt>
      <trkpt lat="41.69929" lon="26.30149">
        <ele>139.429788</ele>
        <time>2022-02-26T09:21:03.274Z</time>
      </trkpt>
      <trkpt lat="41.69941" lon="26.30141">
        <ele>138.519291</ele>
        <time>2022-02-26T09:21:05.275Z</time>
      </trkpt>
      <trkpt lat="41.69954" lon="26.30132">
        <ele>137.623047</ele>
        <time>2022-02-26T09:21:07.281Z</time>
      </trkpt>
      <trkpt lat="41.69967" lon="26.30124">
        <ele>136.726803</ele>
        <time>2022-02-26T09:21:09.266Z</time>
      </trkpt>
      <trkpt lat="41.69979" lon="26.30116">
        <ele>135.83056</ele>
        <time>2022-02-26T09:21:11.274Z</time>
      </trkpt>
      <trkpt lat="41.69992" lon="26.30107">
        <ele>134.908681</ele>
        <time>2022-02-26T09:21:13.309Z</time>
      </trkpt>
      <trkpt lat="41.70005" lon="26.30098">
        <ele>133.963928</ele>
        <time>2022-02-26T09:21:15.271Z</time>
      </trkpt>
      <trkpt lat="41.70019" lon="26.30089">
        <ele>133.007114</ele>
        <time>2022-02-26T09:21:17.301Z</time>
      </trkpt>
      <trkpt lat="41.70032" lon="26.30081">
        <ele>132.039641</ele>
        <time>2022-02-26T09:21:19.283Z</time>
      </trkpt>
      <trkpt lat="41.70043" lon="26.30071">
        <ele>130.995467</ele>
        <time>2022-02-26T09:21:21.277Z</time>
      </trkpt>
      <trkpt lat="41.70054" lon="26.3006">
        <ele>129.979148</ele>
        <time>2022-02-26T09:21:23.277Z</time>
      </trkpt>
      <trkpt lat="41.70065" lon="26.30048">
        <ele>128.893712</ele>
        <time>2022-02-26T09:21:25.280Z</time>
      </trkpt>
      <trkpt lat="41.70076" lon="26.30034">
        <ele>127.77256</ele>
        <time>2022-02-26T09:21:27.268Z</time>
      </trkpt>
      <trkpt lat="41.70085" lon="26.3002">
        <ele>126.684973</ele>
        <time>2022-02-26T09:21:29.269Z</time>
      </trkpt>
      <trkpt lat="41.70094" lon="26.30006">
        <ele>125.606679</ele>
        <time>2022-02-26T09:21:31.283Z</time>
      </trkpt>
      <trkpt lat="41.70103" lon="26.29992">
        <ele>124.584609</ele>
        <time>2022-02-26T09:21:33.269Z</time>
      </trkpt>
      <trkpt lat="41.70111" lon="26.29978">
        <ele>123.576634</ele>
        <time>2022-02-26T09:21:35.321Z</time>
      </trkpt>
      <trkpt lat="41.7012" lon="26.29965">
        <ele>122.590464</ele>
        <time>2022-02-26T09:21:37.289Z</time>
      </trkpt>
      <trkpt lat="41.70128" lon="26.29952">
        <ele>121.645681</ele>
        <time>2022-02-26T09:21:39.274Z</time>
      </trkpt>
      <trkpt lat="41.70135" lon="26.29941">
        <ele>120.803795</ele>
        <time>2022-02-26T09:21:41.236Z</time>
      </trkpt>
      <trkpt lat="41.70143" lon="26.2993">
        <ele>119.944878</ele>
        <time>2022-02-26T09:21:43.287Z</time>
      </trkpt>
      <trkpt lat="41.7015" lon="26.29918">
        <ele>119.060348</ele>
        <time>2022-02-26T09:21:45.267Z</time>
      </trkpt>
      <trkpt lat="41.70157" lon="26.29906">
        <ele>118.215651</ele>
        <time>2022-02-26T09:21:47.296Z</time>
      </trkpt>
      <trkpt lat="41.70165" lon="26.29893">
        <ele>117.358827</ele>
        <time>2022-02-26T09:21:49.295Z</time>
      </trkpt>
      <trkpt lat="41.70173" lon="26.29881">
        <ele>116.492884</ele>
        <time>2022-02-26T09:21:51.270Z</time>
      </trkpt>
      <trkpt lat="41.70181" lon="26.29869">
        <ele>115.643372</ele>
        <time>2022-02-26T09:21:53.283Z</time>
      </trkpt>
      <trkpt lat="41.70188" lon="26.29857">
        <ele>114.875179</ele>
        <time>2022-02-26T09:21:55.283Z</time>
      </trkpt>
      <trkpt lat="41.70196" lon="26.29846">
        <ele>114.063112</ele>
        <time>2022-02-26T09:21:57.312Z</time>
      </trkpt>
      <trkpt lat="41.70203" lon="26.29834">
        <ele>113.278353</ele>
        <time>2022-02-26T09:21:59.266Z</time>
      </trkpt>
      <trkpt lat="41.7021" lon="26.29823">
        <ele>112.551733</ele>
        <time>2022-02-26T09:22:01.268Z</time>
      </trkpt>
      <trkpt lat="41.70216" lon="26.29813">
        <ele>111.837021</ele>
        <time>2022-02-26T09:22:03.264Z</time>
      </trkpt>
      <trkpt lat="41.70223" lon="26.29802">
        <ele>111.097887</ele>
        <time>2022-02-26T09:22:05.298Z</time>
      </trkpt>
      <trkpt lat="41.7023" lon="26.29791">
        <ele>110.351112</ele>
        <time>2022-02-26T09:22:07.301Z</time>
      </trkpt>
      <trkpt lat="41.70237" lon="26.29779">
        <ele>109.529371</ele>
        <time>2022-02-26T09:22:09.263Z</time>
      </trkpt>
      <trkpt lat="41.70243" lon="26.29765">
        <ele>108.674985</ele>
        <time>2022-02-26T09:22:11.303Z</time>
      </trkpt>
      <trkpt lat="41.70248" lon="26.2975">
        <ele>107.826934</ele>
        <time>2022-02-26T09:22:13.298Z</time>
      </trkpt>
      <trkpt lat="41.70253" lon="26.29737">
        <ele>107.085856</ele>
        <time>2022-02-26T09:22:15.278Z</time>
      </trkpt>
      <trkpt lat="41.70257" lon="26.29724">
        <ele>106.337931</ele>
        <time>2022-02-26T09:22:17.273Z</time>
      </trkpt>
      <trkpt lat="41.70263" lon="26.29707">
        <ele>105.26976</ele>
        <time>2022-02-26T09:22:20.291Z</time>
      </trkpt>
      <trkpt lat="41.70267" lon="26.29695">
        <ele>104.48511</ele>
        <time>2022-02-26T09:22:22.267Z</time>
      </trkpt>
      <trkpt lat="41.70273" lon="26.29681">
        <ele>103.572114</ele>
        <time>2022-02-26T09:22:24.277Z</time>
      </trkpt>
      <trkpt lat="41.70278" lon="26.29666">
        <ele>102.606347</ele>
        <time>2022-02-26T09:22:26.294Z</time>
      </trkpt>
      <trkpt lat="41.70285" lon="26.29652">
        <ele>101.579216</ele>
        <time>2022-02-26T09:22:28.271Z</time>
      </trkpt>
      <trkpt lat="41.70292" lon="26.29641">
        <ele>100.712421</ele>
        <time>2022-02-26T09:22:30.280Z</time>
      </trkpt>
      <trkpt lat="41.703" lon="26.29631">
        <ele>99.852515</ele>
        <time>2022-02-26T09:22:32.278Z</time>
      </trkpt>
      <trkpt lat="41.70309" lon="26.29622">
        <ele>98.962505</ele>
        <time>2022-02-26T09:22:34.270Z</time>
      </trkpt>
      <trkpt lat="41.70319" lon="26.29612">
        <ele>98.017191</ele>
        <time>2022-02-26T09:22:36.261Z</time>
      </trkpt>
      <trkpt lat="41.7033" lon="26.29601">
        <ele>96.955774</ele>
        <time>2022-02-26T09:22:38.284Z</time>
      </trkpt>
      <trkpt lat="41.7034" lon="26.2959">
        <ele>95.894357</ele>
        <time>2022-02-26T09:22:40.270Z</time>
      </trkpt>
      <trkpt lat="41.70351" lon="26.2958">
        <ele>94.818318</ele>
        <time>2022-02-26T09:22:42.279Z</time>
      </trkpt>
      <trkpt lat="41.70363" lon="26.29569">
        <ele>93.704878</ele>
        <time>2022-02-26T09:22:44.268Z</time>
      </trkpt>
      <trkpt lat="41.70373" lon="26.29559">
        <ele>92.74365</ele>
        <time>2022-02-26T09:22:46.294Z</time>
      </trkpt>
      <trkpt lat="41.70381" lon="26.29551">
        <ele>91.949033</ele>
        <time>2022-02-26T09:22:48.333Z</time>
      </trkpt>
      <trkpt lat="41.70389" lon="26.29543">
        <ele>91.286946</ele>
        <time>2022-02-26T09:22:50.271Z</time>
      </trkpt>
      <trkpt lat="41.70397" lon="26.29534">
        <ele>90.703898</ele>
        <time>2022-02-26T09:22:52.269Z</time>
      </trkpt>
      <trkpt lat="41.70405" lon="26.29526">
        <ele>90.096892</ele>
        <time>2022-02-26T09:22:54.293Z</time>
      </trkpt>
      <trkpt lat="41.70415" lon="26.29515">
        <ele>89.323294</ele>
        <time>2022-02-26T09:22:57.287Z</time>
      </trkpt>
      <trkpt lat="41.70425" lon="26.29505">
        <ele>88.614227</ele>
        <time>2022-02-26T09:23:00.275Z</time>
      </trkpt>
      <trkpt lat="41.70434" lon="26.29495">
        <ele>87.901469</ele>
        <time>2022-02-26T09:23:03.289Z</time>
      </trkpt>
      <trkpt lat="41.70444" lon="26.29485">
        <ele>87.190007</ele>
        <time>2022-02-26T09:23:06.289Z</time>
      </trkpt>
      <trkpt lat="41.70451" lon="26.29475">
        <ele>86.600776</ele>
        <time>2022-02-26T09:23:08.275Z</time>
      </trkpt>
      <trkpt lat="41.70455" lon="26.29459">
        <ele>85.838545</ele>
        <time>2022-02-26T09:23:11.271Z</time>
      </trkpt>
      <trkpt lat="41.70457" lon="26.29445">
        <ele>85.223752</ele>
        <time>2022-02-26T09:23:13.279Z</time>
      </trkpt>
      <trkpt lat="41.70459" lon="26.2943">
        <ele>84.534295</ele>
        <time>2022-02-26T09:23:15.288Z</time>
      </trkpt>
      <trkpt lat="41.70461" lon="26.29414">
        <ele>83.818827</ele>
        <time>2022-02-26T09:23:17.295Z</time>
      </trkpt>
      <trkpt lat="41.70463" lon="26.29398">
        <ele>83.114006</ele>
        <time>2022-02-26T09:23:19.289Z</time>
      </trkpt>
      <trkpt lat="41.70466" lon="26.29384">
        <ele>82.466657</ele>
        <time>2022-02-26T09:23:21.298Z</time>
      </trkpt>
      <trkpt lat="41.70468" lon="26.2937">
        <ele>81.850706</ele>
        <time>2022-02-26T09:23:23.283Z</time>
      </trkpt>
      <trkpt lat="41.7047" lon="26.29357">
        <ele>81.251077</ele>
        <time>2022-02-26T09:23:25.272Z</time>
      </trkpt>
      <trkpt lat="41.70472" lon="26.29345">
        <ele>81.444969</ele>
        <time>2022-02-26T09:23:27.282Z</time>
      </trkpt>
      <trkpt lat="41.70474" lon="26.29333">
        <ele>81.699213</ele>
        <time>2022-02-26T09:23:29.294Z</time>
      </trkpt>
      <trkpt lat="41.70476" lon="26.2932">
        <ele>81.968523</ele>
        <time>2022-02-26T09:23:31.261Z</time>
      </trkpt>
      <trkpt lat="41.70478" lon="26.29308">
        <ele>82.223578</ele>
        <time>2022-02-26T09:23:33.266Z</time>
      </trkpt>
      <trkpt lat="41.7048" lon="26.29293">
        <ele>82.546609</ele>
        <time>2022-02-26T09:23:36.292Z</time>
      </trkpt>
      <trkpt lat="41.70483" lon="26.29282">
        <ele>82.800827</ele>
        <time>2022-02-26T09:23:39.284Z</time>
      </trkpt>
      <trkpt lat="41.70486" lon="26.29267">
        <ele>83.111076</ele>
        <time>2022-02-26T09:23:42.291Z</time>
      </trkpt>
      <trkpt lat="41.70488" lon="26.2925">
        <ele>83.463738</ele>
        <time>2022-02-26T09:23:45.287Z</time>
      </trkpt>
      <trkpt lat="41.7049" lon="26.29234">
        <ele>83.805144</ele>
        <time>2022-02-26T09:23:48.291Z</time>
      </trkpt>
      <trkpt lat="41.70492" lon="26.2922">
        <ele>84.097569</ele>
        <time>2022-02-26T09:23:51.269Z</time>
      </trkpt>
      <trkpt lat="41.70493" lon="26.29207">
        <ele>84.377862</ele>
        <time>2022-02-26T09:23:54.269Z</time>
      </trkpt>
      <trkpt lat="41.70495" lon="26.29193">
        <ele>84.667196</ele>
        <time>2022-02-26T09:23:57.296Z</time>
      </trkpt>
      <trkpt lat="41.70499" lon="26.2918">
        <ele>84.966232</ele>
        <time>2022-02-26T09:24:00.273Z</time>
      </trkpt>
      <trkpt lat="41.70503" lon="26.29166">
        <ele>85.28782</ele>
        <time>2022-02-26T09:24:03.305Z</time>
      </trkpt>
      <trkpt lat="41.70506" lon="26.29152">
        <ele>85.581056</ele>
        <time>2022-02-26T09:24:06.276Z</time>
      </trkpt>
      <trkpt lat="41.70503" lon="26.29137">
        <ele>85.901232</ele>
        <time>2022-02-26T09:24:09.283Z</time>
      </trkpt>
      <trkpt lat="41.70497" lon="26.29123">
        <ele>86.220747</ele>
        <time>2022-02-26T09:24:12.339Z</time>
      </trkpt>
      <trkpt lat="41.70492" lon="26.29111">
        <ele>86.299795</ele>
        <time>2022-02-26T09:24:15.332Z</time>
      </trkpt>
      <trkpt lat="41.70485" lon="26.29099">
        <ele>86.383155</ele>
        <time>2022-02-26T09:24:19.259Z</time>
      </trkpt>
      <trkpt lat="41.7048" lon="26.29088">
        <ele>86.455314</ele>
        <time>2022-02-26T09:24:23.272Z</time>
      </trkpt>
      <trkpt lat="41.70475" lon="26.29078">
        <ele>86.523948</ele>
        <time>2022-02-26T09:24:28.279Z</time>
      </trkpt>
      <trkpt lat="41.70472" lon="26.29063">
        <ele>86.609586</ele>
        <time>2022-02-26T09:24:34.273Z</time>
      </trkpt>
      <trkpt lat="41.70473" lon="26.2905">
        <ele>86.6859</ele>
        <time>2022-02-26T09:24:41.319Z</time>
      </trkpt>
      <trkpt lat="41.70474" lon="26.29035">
        <ele>86.768849</ele>
        <time>2022-02-26T09:24:46.317Z</time>
      </trkpt>
      <trkpt lat="41.70476" lon="26.2902">
        <ele>86.852683</ele>
        <time>2022-02-26T09:24:50.304Z</time>
      </trkpt>
      <trkpt lat="41.70477" lon="26.29005">
        <ele>86.940334</ele>
        <time>2022-02-26T09:24:54.286Z</time>
      </trkpt>
      <trkpt lat="41.70478" lon="26.28993">
        <ele>87.009226</ele>
        <time>2022-02-26T09:24:57.295Z</time>
      </trkpt>
      <trkpt lat="41.7048" lon="26.2898">
        <ele>87.081603</ele>
        <time>2022-02-26T09:25:00.275Z</time>
      </trkpt>
      <trkpt lat="41.70481" lon="26.28967">
        <ele>87.158003</ele>
        <time>2022-02-26T09:25:03.299Z</time>
      </trkpt>
      <trkpt lat="41.70481" lon="26.28952">
        <ele>87.24246</ele>
        <time>2022-02-26T09:25:06.288Z</time>
      </trkpt>
      <trkpt lat="41.70482" lon="26.28938">
        <ele>87.321166</ele>
        <time>2022-02-26T09:25:09.263Z</time>
      </trkpt>
      <trkpt lat="41.7048" lon="26.28924">
        <ele>87.395532</ele>
        <time>2022-02-26T09:25:12.273Z</time>
      </trkpt>
      <trkpt lat="41.70477" lon="26.28911">
        <ele>87.476874</ele>
        <time>2022-02-26T09:25:15.284Z</time>
      </trkpt>
      <trkpt lat="41.70471" lon="26.28896">
        <ele>87.567777</ele>
        <time>2022-02-26T09:25:18.273Z</time>
      </trkpt>
      <trkpt lat="41.70464" lon="26.28883">
        <ele>87.416295</ele>
        <time>2022-02-26T09:25:21.334Z</time>
      </trkpt>
      <trkpt lat="41.70457" lon="26.28871">
        <ele>87.264214</ele>
        <time>2022-02-26T09:25:24.280Z</time>
      </trkpt>
      <trkpt lat="41.70449" lon="26.28861">
        <ele>87.120653</ele>
        <time>2022-02-26T09:25:27.343Z</time>
      </trkpt>
      <trkpt lat="41.70443" lon="26.28849">
        <ele>86.979996</ele>
        <time>2022-02-26T09:25:30.275Z</time>
      </trkpt>
      <trkpt lat="41.70435" lon="26.28839">
        <ele>86.840048</ele>
        <time>2022-02-26T09:25:33.319Z</time>
      </trkpt>
      <trkpt lat="41.70428" lon="26.2883">
        <ele>86.706114</ele>
        <time>2022-02-26T09:25:36.282Z</time>
      </trkpt>
      <trkpt lat="41.70421" lon="26.28821">
        <ele>86.585946</ele>
        <time>2022-02-26T09:25:39.320Z</time>
      </trkpt>
      <trkpt lat="41.70415" lon="26.28812">
        <ele>86.462201</ele>
        <time>2022-02-26T09:25:42.276Z</time>
      </trkpt>
      <trkpt lat="41.70408" lon="26.28803">
        <ele>86.335328</ele>
        <time>2022-02-26T09:25:45.308Z</time>
      </trkpt>
      <trkpt lat="41.70401" lon="26.28793">
        <ele>86.199136</ele>
        <time>2022-02-26T09:25:48.287Z</time>
      </trkpt>
      <trkpt lat="41.70394" lon="26.28784">
        <ele>86.071148</ele>
        <time>2022-02-26T09:25:51.319Z</time>
      </trkpt>
      <trkpt lat="41.70386" lon="26.28776">
        <ele>85.93855</ele>
        <time>2022-02-26T09:25:54.280Z</time>
      </trkpt>
      <trkpt lat="41.70378" lon="26.28768">
        <ele>85.803642</ele>
        <time>2022-02-26T09:25:57.281Z</time>
      </trkpt>
      <trkpt lat="41.7037" lon="26.28762">
        <ele>85.681152</ele>
        <time>2022-02-26T09:26:00.275Z</time>
      </trkpt>
      <trkpt lat="41.70361" lon="26.28755">
        <ele>85.542461</ele>
        <time>2022-02-26T09:26:03.290Z</time>
      </trkpt>
      <trkpt lat="41.70351" lon="26.28749">
        <ele>85.405066</ele>
        <time>2022-02-26T09:26:06.303Z</time>
      </trkpt>
      <trkpt lat="41.7034" lon="26.28744">
        <ele>85.252059</ele>
        <time>2022-02-26T09:26:09.329Z</time>
      </trkpt>
      <trkpt lat="41.70329" lon="26.2874">
        <ele>85.613683</ele>
        <time>2022-02-26T09:26:12.283Z</time>
      </trkpt>
      <trkpt lat="41.70317" lon="26.28737">
        <ele>86.217283</ele>
        <time>2022-02-26T09:26:15.289Z</time>
      </trkpt>
      <trkpt lat="41.70305" lon="26.28734">
        <ele>86.842267</ele>
        <time>2022-02-26T09:26:18.285Z</time>
      </trkpt>
      <trkpt lat="41.70293" lon="26.28733">
        <ele>87.46641</ele>
        <time>2022-02-26T09:26:21.297Z</time>
      </trkpt>
      <trkpt lat="41.70281" lon="26.28731">
        <ele>88.094642</ele>
        <time>2022-02-26T09:26:24.294Z</time>
      </trkpt>
      <trkpt lat="41.70268" lon="26.28728">
        <ele>88.817238</ele>
        <time>2022-02-26T09:26:27.285Z</time>
      </trkpt>
      <trkpt lat="41.70259" lon="26.28725">
        <ele>89.294383</ele>
        <time>2022-02-26T09:26:29.265Z</time>
      </trkpt>
      <trkpt lat="41.7025" lon="26.28723">
        <ele>89.767972</ele>
        <time>2022-02-26T09:26:31.276Z</time>
      </trkpt>
      <trkpt lat="41.70237" lon="26.2872">
        <ele>90.435199</ele>
        <time>2022-02-26T09:26:34.275Z</time>
      </trkpt>
      <trkpt lat="41.70225" lon="26.28716">
        <ele>91.077809</ele>
        <time>2022-02-26T09:26:37.273Z</time>
      </trkpt>
      <trkpt lat="41.70212" lon="26.28712">
        <ele>91.785854</ele>
        <time>2022-02-26T09:26:40.275Z</time>
      </trkpt>
      <trkpt lat="41.70203" lon="26.28707">
        <ele>92.266575</ele>
        <time>2022-02-26T09:26:42.278Z</time>
      </trkpt>
      <trkpt lat="41.70192" lon="26.28701">
        <ele>92.870607</ele>
        <time>2022-02-26T09:26:45.283Z</time>
      </trkpt>
      <trkpt lat="41.70182" lon="26.28694">
        <ele>93.456531</ele>
        <time>2022-02-26T09:26:48.299Z</time>
      </trkpt>
      <trkpt lat="41.7017" lon="26.28686">
        <ele>94.153623</ele>
        <time>2022-02-26T09:26:51.285Z</time>
      </trkpt>
      <trkpt lat="41.70159" lon="26.28678">
        <ele>94.580093</ele>
        <time>2022-02-26T09:26:54.286Z</time>
      </trkpt>
      <trkpt lat="41.70148" lon="26.28669">
        <ele>94.690133</ele>
        <time>2022-02-26T09:26:57.275Z</time>
      </trkpt>
      <trkpt lat="41.7014" lon="26.28663">
        <ele>94.768198</ele>
        <time>2022-02-26T09:26:59.290Z</time>
      </trkpt>
      <trkpt lat="41.70128" lon="26.28655">
        <ele>94.880494</ele>
        <time>2022-02-26T09:27:02.282Z</time>
      </trkpt>
      <trkpt lat="41.70119" lon="26.2865">
        <ele>94.957249</ele>
        <time>2022-02-26T09:27:04.283Z</time>
      </trkpt>
      <trkpt lat="41.70111" lon="26.28645">
        <ele>95.03453</ele>
        <time>2022-02-26T09:27:06.286Z</time>
      </trkpt>
      <trkpt lat="41.70103" lon="26.2864">
        <ele>95.111029</ele>
        <time>2022-02-26T09:27:08.303Z</time>
      </trkpt>
      <trkpt lat="41.70091" lon="26.28633">
        <ele>95.222719</ele>
        <time>2022-02-26T09:27:11.314Z</time>
      </trkpt>
      <trkpt lat="41.70079" lon="26.28626">
        <ele>95.328528</ele>
        <time>2022-02-26T09:27:14.288Z</time>
      </trkpt>
      <trkpt lat="41.70068" lon="26.28619">
        <ele>95.430971</ele>
        <time>2022-02-26T09:27:17.304Z</time>
      </trkpt>
      <trkpt lat="41.70057" lon="26.28611">
        <ele>95.53954</ele>
        <time>2022-02-26T09:27:20.283Z</time>
      </trkpt>
      <trkpt lat="41.70047" lon="26.28604">
        <ele>95.636067</ele>
        <time>2022-02-26T09:27:23.272Z</time>
      </trkpt>
      <trkpt lat="41.70037" lon="26.28598">
        <ele>95.724437</ele>
        <time>2022-02-26T09:27:26.270Z</time>
      </trkpt>
      <trkpt lat="41.70028" lon="26.28591">
        <ele>95.818108</ele>
        <time>2022-02-26T09:27:29.283Z</time>
      </trkpt>
      <trkpt lat="41.7002" lon="26.2858">
        <ele>95.910223</ele>
        <time>2022-02-26T09:27:32.276Z</time>
      </trkpt>
      <trkpt lat="41.70015" lon="26.28565">
        <ele>96.014518</ele>
        <time>2022-02-26T09:27:35.309Z</time>
      </trkpt>
      <trkpt lat="41.70014" lon="26.28551">
        <ele>95.859167</ele>
        <time>2022-02-26T09:27:38.297Z</time>
      </trkpt>
      <trkpt lat="41.70014" lon="26.28539">
        <ele>95.57605</ele>
        <time>2022-02-26T09:27:41.282Z</time>
      </trkpt>
      <trkpt lat="41.70013" lon="26.28525">
        <ele>95.26943</ele>
        <time>2022-02-26T09:27:44.285Z</time>
      </trkpt>
      <trkpt lat="41.70011" lon="26.28512">
        <ele>94.938124</ele>
        <time>2022-02-26T09:27:47.277Z</time>
      </trkpt>
      <trkpt lat="41.70006" lon="26.28498">
        <ele>94.608818</ele>
        <time>2022-02-26T09:27:50.316Z</time>
      </trkpt>
      <trkpt lat="41.70001" lon="26.28488">
        <ele>94.325824</ele>
        <time>2022-02-26T09:27:53.280Z</time>
      </trkpt>
      <trkpt lat="41.69994" lon="26.28477">
        <ele>93.991877</ele>
        <time>2022-02-26T09:27:57.294Z</time>
      </trkpt>
      <trkpt lat="41.69986" lon="26.28469">
        <ele>93.681386</ele>
        <time>2022-02-26T09:28:01.289Z</time>
      </trkpt>
      <trkpt lat="41.69977" lon="26.28461">
        <ele>93.344558</ele>
        <time>2022-02-26T09:28:06.270Z</time>
      </trkpt>
      <trkpt lat="41.69968" lon="26.28456">
        <ele>93.055048</ele>
        <time>2022-02-26T09:28:11.277Z</time>
      </trkpt>
      <trkpt lat="41.69959" lon="26.28454">
        <ele>92.769743</ele>
        <time>2022-02-26T09:28:16.288Z</time>
      </trkpt>
      <trkpt lat="41.6995" lon="26.28449">
        <ele>92.459169</ele>
        <time>2022-02-26T09:28:21.270Z</time>
      </trkpt>
      <trkpt lat="41.6994" lon="26.28442">
        <ele>92.125524</ele>
        <time>2022-02-26T09:28:26.306Z</time>
      </trkpt>
      <trkpt lat="41.69932" lon="26.28434">
        <ele>91.818479</ele>
        <time>2022-02-26T09:28:30.277Z</time>
      </trkpt>
      <trkpt lat="41.69926" lon="26.28423">
        <ele>91.492056</ele>
        <time>2022-02-26T09:28:34.298Z</time>
      </trkpt>
      <trkpt lat="41.69922" lon="26.28408">
        <ele>91.124061</ele>
        <time>2022-02-26T09:28:38.284Z</time>
      </trkpt>
      <trkpt lat="41.6992" lon="26.28392">
        <ele>90.755975</ele>
        <time>2022-02-26T09:28:42.275Z</time>
      </trkpt>
      <trkpt lat="41.69921" lon="26.28379">
        <ele>90.455875</ele>
        <time>2022-02-26T09:28:45.287Z</time>
      </trkpt>
      <trkpt lat="41.69923" lon="26.28364">
        <ele>90.174466</ele>
        <time>2022-02-26T09:28:48.331Z</time>
      </trkpt>
      <trkpt lat="41.69925" lon="26.28349">
        <ele>89.865773</ele>
        <time>2022-02-26T09:28:51.285Z</time>
      </trkpt>
      <trkpt lat="41.69927" lon="26.28333">
        <ele>89.544335</ele>
        <time>2022-02-26T09:28:54.288Z</time>
      </trkpt>
      <trkpt lat="41.6993" lon="26.28316">
        <ele>89.201286</ele>
        <time>2022-02-26T09:28:57.303Z</time>
      </trkpt>
      <trkpt lat="41.69933" lon="26.28298">
        <ele>88.843438</ele>
        <time>2022-02-26T09:29:00.277Z</time>
      </trkpt>
      <trkpt lat="41.69934" lon="26.28285">
        <ele>88.59492</ele>
        <time>2022-02-26T09:29:02.285Z</time>
      </trkpt>
      <trkpt lat="41.69936" lon="26.28273">
        <ele>88.353152</ele>
        <time>2022-02-26T09:29:04.278Z</time>
      </trkpt>
      <trkpt lat="41.69938" lon="26.28261">
        <ele>88.10754</ele>
        <time>2022-02-26T09:29:06.291Z</time>
      </trkpt>
      <trkpt lat="41.6994" lon="26.28249">
        <ele>87.866744</ele>
        <time>2022-02-26T09:29:08.277Z</time>
      </trkpt>
      <trkpt lat="41.69941" lon="26.28237">
        <ele>87.627876</ele>
        <time>2022-02-26T09:29:10.271Z</time>
      </trkpt>
      <trkpt lat="41.69943" lon="26.28224">
        <ele>87.373982</ele>
        <time>2022-02-26T09:29:12.276Z</time>
      </trkpt>
      <trkpt lat="41.69944" lon="26.28211">
        <ele>87.124731</ele>
        <time>2022-02-26T09:29:14.295Z</time>
      </trkpt>
      <trkpt lat="41.69945" lon="26.28199">
        <ele>86.883243</ele>
        <time>2022-02-26T09:29:16.310Z</time>
      </trkpt>
      <trkpt lat="41.69946" lon="26.28187">
        <ele>86.634948</ele>
        <time>2022-02-26T09:29:18.273Z</time>
      </trkpt>
      <trkpt lat="41.69948" lon="26.28175">
        <ele>86.399643</ele>
        <time>2022-02-26T09:29:20.303Z</time>
      </trkpt>
      <trkpt lat="41.69949" lon="26.28157">
        <ele>86.048</ele>
        <time>2022-02-26T09:29:23.269Z</time>
      </trkpt>
      <trkpt lat="41.6995" lon="26.28139">
        <ele>85.697554</ele>
        <time>2022-02-26T09:29:26.277Z</time>
      </trkpt>
      <trkpt lat="41.69951" lon="26.28127">
        <ele>85.463999</ele>
        <time>2022-02-26T09:29:28.283Z</time>
      </trkpt>
      <trkpt lat="41.69951" lon="26.28109">
        <ele>85.114928</ele>
        <time>2022-02-26T09:29:31.282Z</time>
      </trkpt>
      <trkpt lat="41.69952" lon="26.28097">
        <ele>84.877188</ele>
        <time>2022-02-26T09:29:33.304Z</time>
      </trkpt>
      <trkpt lat="41.69953" lon="26.28079">
        <ele>84.538726</ele>
        <time>2022-02-26T09:29:36.296Z</time>
      </trkpt>
      <trkpt lat="41.69954" lon="26.28067">
        <ele>84.304616</ele>
        <time>2022-02-26T09:29:38.280Z</time>
      </trkpt>
      <trkpt lat="41.69955" lon="26.28055">
        <ele>84.068586</ele>
        <time>2022-02-26T09:29:40.281Z</time>
      </trkpt>
      <trkpt lat="41.69955" lon="26.28043">
        <ele>83.834875</ele>
        <time>2022-02-26T09:29:42.309Z</time>
      </trkpt>
      <trkpt lat="41.69956" lon="26.2803">
        <ele>83.596925</ele>
        <time>2022-02-26T09:29:44.315Z</time>
      </trkpt>
      <trkpt lat="41.69957" lon="26.28013">
        <ele>83.257483</ele>
        <time>2022-02-26T09:29:47.299Z</time>
      </trkpt>
      <trkpt lat="41.69957" lon="26.27995">
        <ele>82.908498</ele>
        <time>2022-02-26T09:29:50.311Z</time>
      </trkpt>
      <trkpt lat="41.69957" lon="26.27982">
        <ele>82.673359</ele>
        <time>2022-02-26T09:29:52.261Z</time>
      </trkpt>
      <trkpt lat="41.69957" lon="26.27965">
        <ele>82.335932</ele>
        <time>2022-02-26T09:29:55.269Z</time>
      </trkpt>
      <trkpt lat="41.69956" lon="26.27947">
        <ele>81.992639</ele>
        <time>2022-02-26T09:29:58.286Z</time>
      </trkpt>
      <trkpt lat="41.69956" lon="26.27935">
        <ele>81.761311</ele>
        <time>2022-02-26T09:30:00.307Z</time>
      </trkpt>
      <trkpt lat="41.69955" lon="26.27918">
        <ele>81.421134</ele>
        <time>2022-02-26T09:30:03.276Z</time>
      </trkpt>
      <trkpt lat="41.69954" lon="26.27901">
        <ele>81.173832</ele>
        <time>2022-02-26T09:30:06.275Z</time>
      </trkpt>
      <trkpt lat="41.69952" lon="26.27884">
        <ele>81.358635</ele>
        <time>2022-02-26T09:30:09.271Z</time>
      </trkpt>
      <trkpt lat="41.69951" lon="26.27868">
        <ele>81.542508</ele>
        <time>2022-02-26T09:30:12.270Z</time>
      </trkpt>
      <trkpt lat="41.69949" lon="26.27852">
        <ele>81.724563</ele>
        <time>2022-02-26T09:30:15.250Z</time>
      </trkpt>
      <trkpt lat="41.69948" lon="26.27836">
        <ele>81.899247</ele>
        <time>2022-02-26T09:30:18.259Z</time>
      </trkpt>
      <trkpt lat="41.69946" lon="26.27821">
        <ele>82.072368</ele>
        <time>2022-02-26T09:30:21.277Z</time>
      </trkpt>
      <trkpt lat="41.69943" lon="26.27805">
        <ele>82.24795</ele>
        <time>2022-02-26T09:30:24.336Z</time>
      </trkpt>
      <trkpt lat="41.69941" lon="26.2779">
        <ele>82.419161</ele>
        <time>2022-02-26T09:30:27.290Z</time>
      </trkpt>
      <trkpt lat="41.69939" lon="26.27774">
        <ele>82.601076</ele>
        <time>2022-02-26T09:30:30.310Z</time>
      </trkpt>
      <trkpt lat="41.69936" lon="26.27759">
        <ele>82.776035</ele>
        <time>2022-02-26T09:30:33.283Z</time>
      </trkpt>
      <trkpt lat="41.69933" lon="26.27743">
        <ele>82.952783</ele>
        <time>2022-02-26T09:30:36.269Z</time>
      </trkpt>
      <trkpt lat="41.6993" lon="26.27727">
        <ele>83.136043</ele>
        <time>2022-02-26T09:30:39.283Z</time>
      </trkpt>
      <trkpt lat="41.69926" lon="26.27712">
        <ele>83.31988</ele>
        <time>2022-02-26T09:30:42.276Z</time>
      </trkpt>
      <trkpt lat="41.69923" lon="26.27696">
        <ele>83.49925</ele>
        <time>2022-02-26T09:30:45.296Z</time>
      </trkpt>
      <trkpt lat="41.6992" lon="26.27681">
        <ele>83.669241</ele>
        <time>2022-02-26T09:30:48.293Z</time>
      </trkpt>
      <trkpt lat="41.69917" lon="26.27668">
        <ele>83.834685</ele>
        <time>2022-02-26T09:30:51.289Z</time>
      </trkpt>
      <trkpt lat="41.69914" lon="26.27654">
        <ele>84.154378</ele>
        <time>2022-02-26T09:30:54.281Z</time>
      </trkpt>
      <trkpt lat="41.69911" lon="26.27641">
        <ele>84.462917</ele>
        <time>2022-02-26T09:30:57.271Z</time>
      </trkpt>
      <trkpt lat="41.69908" lon="26.27628">
        <ele>84.758912</ele>
        <time>2022-02-26T09:31:00.305Z</time>
      </trkpt>
      <trkpt lat="41.69905" lon="26.27615">
        <ele>85.066095</ele>
        <time>2022-02-26T09:31:03.280Z</time>
      </trkpt>
      <trkpt lat="41.69902" lon="26.27603">
        <ele>85.362458</ele>
        <time>2022-02-26T09:31:06.265Z</time>
      </trkpt>
      <trkpt lat="41.699" lon="26.27591">
        <ele>85.644142</ele>
        <time>2022-02-26T09:31:09.298Z</time>
      </trkpt>
      <trkpt lat="41.69897" lon="26.27579">
        <ele>85.91689</ele>
        <time>2022-02-26T09:31:12.291Z</time>
      </trkpt>
      <trkpt lat="41.69895" lon="26.27567">
        <ele>86.20074</ele>
        <time>2022-02-26T09:31:15.264Z</time>
      </trkpt>
      <trkpt lat="41.69892" lon="26.27552">
        <ele>86.552994</ele>
        <time>2022-02-26T09:31:19.297Z</time>
      </trkpt>
      <trkpt lat="41.69889" lon="26.2754">
        <ele>86.82951</ele>
        <time>2022-02-26T09:31:22.311Z</time>
      </trkpt>
      <trkpt lat="41.69886" lon="26.27525">
        <ele>87.181642</ele>
        <time>2022-02-26T09:31:26.281Z</time>
      </trkpt>
      <trkpt lat="41.69882" lon="26.2751">
        <ele>87.537193</ele>
        <time>2022-02-26T09:31:30.288Z</time>
      </trkpt>
      <trkpt lat="41.69879" lon="26.27499">
        <ele>87.808698</ele>
        <time>2022-02-26T09:31:33.330Z</time>
      </trkpt>
      <trkpt lat="41.69877" lon="26.27487">
        <ele>88.087824</ele>
        <time>2022-02-26T09:31:36.288Z</time>
      </trkpt>
      <trkpt lat="41.69873" lon="26.27472">
        <ele>88.445166</ele>
        <time>2022-02-26T09:31:40.283Z</time>
      </trkpt>
      <trkpt lat="41.6987" lon="26.27457">
        <ele>88.784742</ele>
        <time>2022-02-26T09:31:44.309Z</time>
      </trkpt>
      <trkpt lat="41.69867" lon="26.27444">
        <ele>89.10962</ele>
        <time>2022-02-26T09:31:48.286Z</time>
      </trkpt>
      <trkpt lat="41.69864" lon="26.27431">
        <ele>89.29315</ele>
        <time>2022-02-26T09:31:52.285Z</time>
      </trkpt>
      <trkpt lat="41.69862" lon="26.27418">
        <ele>89.368268</ele>
        <time>2022-02-26T09:31:56.284Z</time>
      </trkpt>
      <trkpt lat="41.6986" lon="26.27406">
        <ele>89.443778</ele>
        <time>2022-02-26T09:32:00.276Z</time>
      </trkpt>
      <trkpt lat="41.69857" lon="26.27392">
        <ele>89.526935</ele>
        <time>2022-02-26T09:32:04.276Z</time>
      </trkpt>
      <trkpt lat="41.69854" lon="26.27376">
        <ele>89.618638</ele>
        <time>2022-02-26T09:32:08.259Z</time>
      </trkpt>
      <trkpt lat="41.69851" lon="26.27362">
        <ele>89.706607</ele>
        <time>2022-02-26T09:32:12.278Z</time>
      </trkpt>
      <trkpt lat="41.69848" lon="26.27348">
        <ele>89.78563</ele>
        <time>2022-02-26T09:32:16.304Z</time>
      </trkpt>
      <trkpt lat="41.69846" lon="26.27335">
        <ele>89.863909</ele>
        <time>2022-02-26T09:32:20.296Z</time>
      </trkpt>
      <trkpt lat="41.69843" lon="26.27322">
        <ele>89.941656</ele>
        <time>2022-02-26T09:32:24.322Z</time>
      </trkpt>
      <trkpt lat="41.6984" lon="26.27309">
        <ele>90.022596</ele>
        <time>2022-02-26T09:32:28.298Z</time>
      </trkpt>
      <trkpt lat="41.69838" lon="26.27295">
        <ele>90.099962</ele>
        <time>2022-02-26T09:32:32.287Z</time>
      </trkpt>
      <trkpt lat="41.69836" lon="26.27283">
        <ele>90.175444</ele>
        <time>2022-02-26T09:32:36.287Z</time>
      </trkpt>
      <trkpt lat="41.69833" lon="26.2727">
        <ele>90.253068</ele>
        <time>2022-02-26T09:32:40.335Z</time>
      </trkpt>
      <trkpt lat="41.6983" lon="26.27256">
        <ele>90.338207</ele>
        <time>2022-02-26T09:32:44.263Z</time>
      </trkpt>
      <trkpt lat="41.69826" lon="26.27243">
        <ele>90.418172</ele>
        <time>2022-02-26T09:32:48.311Z</time>
      </trkpt>
      <trkpt lat="41.69823" lon="26.27229">
        <ele>90.499233</ele>
        <time>2022-02-26T09:32:52.294Z</time>
      </trkpt>
      <trkpt lat="41.6982" lon="26.27217">
        <ele>90.575203</ele>
        <time>2022-02-26T09:32:56.273Z</time>
      </trkpt>
      <trkpt lat="41.69817" lon="26.27204">
        <ele>90.662338</ele>
        <time>2022-02-26T09:33:00.297Z</time>
      </trkpt>
      <trkpt lat="41.69815" lon="26.27192">
        <ele>90.823099</ele>
        <time>2022-02-26T09:33:04.288Z</time>
      </trkpt>
      <trkpt lat="41.69812" lon="26.27179">
        <ele>90.992641</ele>
        <time>2022-02-26T09:33:08.278Z</time>
      </trkpt>
      <trkpt lat="41.69809" lon="26.27165">
        <ele>91.180557</ele>
        <time>2022-02-26T09:33:12.297Z</time>
      </trkpt>
      <trkpt lat="41.69806" lon="26.27152">
        <ele>91.357504</ele>
        <time>2022-02-26T09:33:16.277Z</time>
      </trkpt>
      <trkpt lat="41.69803" lon="26.27138">
        <ele>91.554317</ele>
        <time>2022-02-26T09:33:20.273Z</time>
      </trkpt>
      <trkpt lat="41.69799" lon="26.27124">
        <ele>91.749481</ele>
        <time>2022-02-26T09:33:24.273Z</time>
      </trkpt>
      <trkpt lat="41.69796" lon="26.27111">
        <ele>91.932232</ele>
        <time>2022-02-26T09:33:28.310Z</time>
      </trkpt>
      <trkpt lat="41.69793" lon="26.27097">
        <ele>92.110683</ele>
        <time>2022-02-26T09:33:32.299Z</time>
      </trkpt>
      <trkpt lat="41.69789" lon="26.27084">
        <ele>92.298329</ele>
        <time>2022-02-26T09:33:36.304Z</time>
      </trkpt>
      <trkpt lat="41.69786" lon="26.2707">
        <ele>92.487741</ele>
        <time>2022-02-26T09:33:40.318Z</time>
      </trkpt>
      <trkpt lat="41.69783" lon="26.27056">
        <ele>92.675485</ele>
        <time>2022-02-26T09:33:44.282Z</time>
      </trkpt>
      <trkpt lat="41.6978" lon="26.27043">
        <ele>92.853469</ele>
        <time>2022-02-26T09:33:48.281Z</time>
      </trkpt>
      <trkpt lat="41.69777" lon="26.2703">
        <ele>93.027776</ele>
        <time>2022-02-26T09:33:52.360Z</time>
      </trkpt>
      <trkpt lat="41.69774" lon="26.27018">
        <ele>93.192297</ele>
        <time>2022-02-26T09:33:56.284Z</time>
      </trkpt>
      <trkpt lat="41.69772" lon="26.27006">
        <ele>93.351551</ele>
        <time>2022-02-26T09:34:00.272Z</time>
      </trkpt>
      <trkpt lat="41.69769" lon="26.26993">
        <ele>93.530789</ele>
        <time>2022-02-26T09:34:04.268Z</time>
      </trkpt>
      <trkpt lat="41.69766" lon="26.26979">
        <ele>93.715052</ele>
        <time>2022-02-26T09:34:08.287Z</time>
      </trkpt>
      <trkpt lat="41.69763" lon="26.26966">
        <ele>93.964264</ele>
        <time>2022-02-26T09:34:12.291Z</time>
      </trkpt>
      <trkpt lat="41.69761" lon="26.26951">
        <ele>94.272951</ele>
        <time>2022-02-26T09:34:16.297Z</time>
      </trkpt>
      <trkpt lat="41.69759" lon="26.26936">
        <ele>94.584798</ele>
        <time>2022-02-26T09:34:20.285Z</time>
      </trkpt>
      <trkpt lat="41.69757" lon="26.26922">
        <ele>94.878589</ele>
        <time>2022-02-26T09:34:24.279Z</time>
      </trkpt>
      <trkpt lat="41.69755" lon="26.26908">
        <ele>95.181901</ele>
        <time>2022-02-26T09:34:28.279Z</time>
      </trkpt>
      <trkpt lat="41.69752" lon="26.26893">
        <ele>95.494264</ele>
        <time>2022-02-26T09:34:32.292Z</time>
      </trkpt>
      <trkpt lat="41.69751" lon="26.26878">
        <ele>95.788129</ele>
        <time>2022-02-26T09:34:36.323Z</time>
      </trkpt>
      <trkpt lat="41.69749" lon="26.26864">
        <ele>96.094986</ele>
        <time>2022-02-26T09:34:40.275Z</time>
      </trkpt>
      <trkpt lat="41.69747" lon="26.2685">
        <ele>96.383988</ele>
        <time>2022-02-26T09:34:44.274Z</time>
      </trkpt>
      <trkpt lat="41.69745" lon="26.26835">
        <ele>96.685475</ele>
        <time>2022-02-26T09:34:48.288Z</time>
      </trkpt>
      <trkpt lat="41.69743" lon="26.26822">
        <ele>96.955158</ele>
        <time>2022-02-26T09:34:52.326Z</time>
      </trkpt>
      <trkpt lat="41.69741" lon="26.26809">
        <ele>97.242021</ele>
        <time>2022-02-26T09:34:56.300Z</time>
      </trkpt>
      <trkpt lat="41.6974" lon="26.26794">
        <ele>97.530254</ele>
        <time>2022-02-26T09:35:00.283Z</time>
      </trkpt>
      <trkpt lat="41.69739" lon="26.2678">
        <ele>97.823303</ele>
        <time>2022-02-26T09:35:04.316Z</time>
      </trkpt>
      <trkpt lat="41.69738" lon="26.26765">
        <ele>98.127501</ele>
        <time>2022-02-26T09:35:08.289Z</time>
      </trkpt>
      <trkpt lat="41.69737" lon="26.2675">
        <ele>98.442478</ele>
        <time>2022-02-26T09:35:12.275Z</time>
      </trkpt>
      <trkpt lat="41.69737" lon="26.26738">
        <ele>98.698428</ele>
        <time>2022-02-26T09:35:15.353Z</time>
      </trkpt>
      <trkpt lat="41.69736" lon="26.26725">
        <ele>98.546467</ele>
        <time>2022-02-26T09:35:18.268Z</time>
      </trkpt>
      <trkpt lat="41.69736" lon="26.2671">
        <ele>98.359843</ele>
        <time>2022-02-26T09:35:22.275Z</time>
      </trkpt>
      <trkpt lat="41.69735" lon="26.26696">
        <ele>98.187763</ele>
        <time>2022-02-26T09:35:26.323Z</time>
      </trkpt>
      <trkpt lat="41.69735" lon="26.26682">
        <ele>98.015848</ele>
        <time>2022-02-26T09:35:30.284Z</time>
      </trkpt>
      <trkpt lat="41.69735" lon="26.26668">
        <ele>97.840273</ele>
        <time>2022-02-26T09:35:34.296Z</time>
      </trkpt>
      <trkpt lat="41.69735" lon="26.26653">
        <ele>97.661015</ele>
        <time>2022-02-26T09:35:38.280Z</time>
      </trkpt>
      <trkpt lat="41.69736" lon="26.26638">
        <ele>97.471764</ele>
        <time>2022-02-26T09:35:42.268Z</time>
      </trkpt>
      <trkpt lat="41.69736" lon="26.26623">
        <ele>97.293673</ele>
        <time>2022-02-26T09:35:46.271Z</time>
      </trkpt>
      <trkpt lat="41.69736" lon="26.26611">
        <ele>97.146262</ele>
        <time>2022-02-26T09:35:49.289Z</time>
      </trkpt>
      <trkpt lat="41.69737" lon="26.26595">
        <ele>96.95036</ele>
        <time>2022-02-26T09:35:53.262Z</time>
      </trkpt>
      <trkpt lat="41.69738" lon="26.2658">
        <ele>96.762868</ele>
        <time>2022-02-26T09:35:57.290Z</time>
      </trkpt>
      <trkpt lat="41.69739" lon="26.26564">
        <ele>96.569938</ele>
        <time>2022-02-26T09:36:01.286Z</time>
      </trkpt>
      <trkpt lat="41.6974" lon="26.2655">
        <ele>96.389982</ele>
        <time>2022-02-26T09:36:05.266Z</time>
      </trkpt>
      <trkpt lat="41.69742" lon="26.26534">
        <ele>96.198485</ele>
        <time>2022-02-26T09:36:09.306Z</time>
      </trkpt>
      <trkpt lat="41.69743" lon="26.26522">
        <ele>96.041517</ele>
        <time>2022-02-26T09:36:12.295Z</time>
      </trkpt>
      <trkpt lat="41.69744" lon="26.26509">
        <ele>95.881226</ele>
        <time>2022-02-26T09:36:15.278Z</time>
      </trkpt>
      <trkpt lat="41.69745" lon="26.26494">
        <ele>95.780338</ele>
        <time>2022-02-26T09:36:18.286Z</time>
      </trkpt>
      <trkpt lat="41.69746" lon="26.26481">
        <ele>95.961587</ele>
        <time>2022-02-26T09:36:21.307Z</time>
      </trkpt>
      <trkpt lat="41.69748" lon="26.26469">
        <ele>96.136461</ele>
        <time>2022-02-26T09:36:24.279Z</time>
      </trkpt>
      <trkpt lat="41.6975" lon="26.26456">
        <ele>96.314671</ele>
        <time>2022-02-26T09:36:27.273Z</time>
      </trkpt>
      <trkpt lat="41.69751" lon="26.26443">
        <ele>96.494032</ele>
        <time>2022-02-26T09:36:30.271Z</time>
      </trkpt>
      <trkpt lat="41.69753" lon="26.26429">
        <ele>96.674565</ele>
        <time>2022-02-26T09:36:33.272Z</time>
      </trkpt>
      <trkpt lat="41.69755" lon="26.26416">
        <ele>96.853765</ele>
        <time>2022-02-26T09:36:36.280Z</time>
      </trkpt>
      <trkpt lat="41.69757" lon="26.26403">
        <ele>97.038397</ele>
        <time>2022-02-26T09:36:39.312Z</time>
      </trkpt>
      <trkpt lat="41.6976" lon="26.26389">
        <ele>97.236658</ele>
        <time>2022-02-26T09:36:42.267Z</time>
      </trkpt>
      <trkpt lat="41.69762" lon="26.26375">
        <ele>97.434396</ele>
        <time>2022-02-26T09:36:45.283Z</time>
      </trkpt>
      <trkpt lat="41.69765" lon="26.2636">
        <ele>97.640469</ele>
        <time>2022-02-26T09:36:48.278Z</time>
      </trkpt>
      <trkpt lat="41.69768" lon="26.26345">
        <ele>97.848001</ele>
        <time>2022-02-26T09:36:51.274Z</time>
      </trkpt>
      <trkpt lat="41.69772" lon="26.2633">
        <ele>98.062293</ele>
        <time>2022-02-26T09:36:54.274Z</time>
      </trkpt>
      <trkpt lat="41.69775" lon="26.26315">
        <ele>98.271414</ele>
        <time>2022-02-26T09:36:57.293Z</time>
      </trkpt>
      <trkpt lat="41.69779" lon="26.263">
        <ele>98.490533</ele>
        <time>2022-02-26T09:37:00.277Z</time>
      </trkpt>
      <trkpt lat="41.69783" lon="26.26285">
        <ele>98.704079</ele>
        <time>2022-02-26T09:37:03.290Z</time>
      </trkpt>
      <trkpt lat="41.69787" lon="26.26271">
        <ele>98.909779</ele>
        <time>2022-02-26T09:37:06.302Z</time>
      </trkpt>
      <trkpt lat="41.6979" lon="26.26256">
        <ele>99.100642</ele>
        <time>2022-02-26T09:37:09.284Z</time>
      </trkpt>
      <trkpt lat="41.69795" lon="26.26242">
        <ele>99.278176</ele>
        <time>2022-02-26T09:37:12.309Z</time>
      </trkpt>
      <trkpt lat="41.69799" lon="26.26226">
        <ele>99.467372</ele>
        <time>2022-02-26T09:37:15.267Z</time>
      </trkpt>
      <trkpt lat="41.69803" lon="26.26211">
        <ele>99.655026</ele>
        <time>2022-02-26T09:37:18.297Z</time>
      </trkpt>
      <trkpt lat="41.69808" lon="26.26196">
        <ele>99.833266</ele>
        <time>2022-02-26T09:37:21.283Z</time>
      </trkpt>
      <trkpt lat="41.69813" lon="26.26181">
        <ele>100.021416</ele>
        <time>2022-02-26T09:37:24.301Z</time>
      </trkpt>
      <trkpt lat="41.69818" lon="26.26165">
        <ele>100.214083</ele>
        <time>2022-02-26T09:37:27.302Z</time>
      </trkpt>
      <trkpt lat="41.69824" lon="26.26149">
        <ele>100.41602</ele>
        <time>2022-02-26T09:37:30.339Z</time>
      </trkpt>
      <trkpt lat="41.69828" lon="26.26138">
        <ele>100.557202</ele>
        <time>2022-02-26T09:37:32.271Z</time>
      </trkpt>
      <trkpt lat="41.69833" lon="26.26127">
        <ele>100.701384</ele>
        <time>2022-02-26T09:37:34.290Z</time>
      </trkpt>
      <trkpt lat="41.69837" lon="26.26115">
        <ele>100.852988</ele>
        <time>2022-02-26T09:37:36.291Z</time>
      </trkpt>
      <trkpt lat="41.69842" lon="26.26103">
        <ele>101.004757</ele>
        <time>2022-02-26T09:37:38.306Z</time>
      </trkpt>
      <trkpt lat="41.69847" lon="26.26092">
        <ele>101.152086</ele>
        <time>2022-02-26T09:37:40.273Z</time>
      </trkpt>
      <trkpt lat="41.69852" lon="26.26081">
        <ele>101.297438</ele>
        <time>2022-02-26T09:37:42.279Z</time>
      </trkpt>
      <trkpt lat="41.69856" lon="26.2607">
        <ele>101.442559</ele>
        <time>2022-02-26T09:37:44.283Z</time>
      </trkpt>
      <trkpt lat="41.69861" lon="26.26059">
        <ele>101.586701</ele>
        <time>2022-02-26T09:37:46.275Z</time>
      </trkpt>
      <trkpt lat="41.69866" lon="26.26048">
        <ele>101.724431</ele>
        <time>2022-02-26T09:37:48.303Z</time>
      </trkpt>
      <trkpt lat="41.69871" lon="26.26038">
        <ele>101.62079</ele>
        <time>2022-02-26T09:37:50.275Z</time>
      </trkpt>
      <trkpt lat="41.69876" lon="26.26027">
        <ele>101.497318</ele>
        <time>2022-02-26T09:37:52.277Z</time>
      </trkpt>
      <trkpt lat="41.69881" lon="26.26017">
        <ele>101.373846</ele>
        <time>2022-02-26T09:37:54.317Z</time>
      </trkpt>
      <trkpt lat="41.69887" lon="26.26006">
        <ele>101.251096</ele>
        <time>2022-02-26T09:37:56.302Z</time>
      </trkpt>
      <trkpt lat="41.69892" lon="26.25995">
        <ele>101.129862</ele>
        <time>2022-02-26T09:37:58.263Z</time>
      </trkpt>
      <trkpt lat="41.69897" lon="26.25985">
        <ele>101.01014</ele>
        <time>2022-02-26T09:38:00.270Z</time>
      </trkpt>
      <trkpt lat="41.69902" lon="26.25975">
        <ele>100.890633</ele>
        <time>2022-02-26T09:38:02.296Z</time>
      </trkpt>
      <trkpt lat="41.69908" lon="26.25965">
        <ele>100.771851</ele>
        <time>2022-02-26T09:38:04.323Z</time>
      </trkpt>
      <trkpt lat="41.69913" lon="26.25955">
        <ele>100.655384</ele>
        <time>2022-02-26T09:38:06.281Z</time>
      </trkpt>
      <trkpt lat="41.69919" lon="26.25945">
        <ele>100.531993</ele>
        <time>2022-02-26T09:38:08.276Z</time>
      </trkpt>
      <trkpt lat="41.69925" lon="26.25935">
        <ele>100.41317</ele>
        <time>2022-02-26T09:38:10.314Z</time>
      </trkpt>
      <trkpt lat="41.69933" lon="26.25921">
        <ele>100.23968</ele>
        <time>2022-02-26T09:38:13.285Z</time>
      </trkpt>
      <trkpt lat="41.69939" lon="26.25911">
        <ele>100.116916</ele>
        <time>2022-02-26T09:38:15.299Z</time>
      </trkpt>
      <trkpt lat="41.69945" lon="26.25901">
        <ele>99.992668</ele>
        <time>2022-02-26T09:38:17.290Z</time>
      </trkpt>
      <trkpt lat="41.69951" lon="26.25891">
        <ele>99.866858</ele>
        <time>2022-02-26T09:38:19.281Z</time>
      </trkpt>
      <trkpt lat="41.69957" lon="26.25881">
        <ele>99.743354</ele>
        <time>2022-02-26T09:38:21.283Z</time>
      </trkpt>
      <trkpt lat="41.69963" lon="26.25871">
        <ele>99.619205</ele>
        <time>2022-02-26T09:38:23.286Z</time>
      </trkpt>
      <trkpt lat="41.6997" lon="26.25861">
        <ele>99.49393</ele>
        <time>2022-02-26T09:38:25.300Z</time>
      </trkpt>
      <trkpt lat="41.69976" lon="26.25852">
        <ele>99.46675</ele>
        <time>2022-02-26T09:38:27.281Z</time>
      </trkpt>
      <trkpt lat="41.69983" lon="26.25842">
        <ele>99.618224</ele>
        <time>2022-02-26T09:38:29.311Z</time>
      </trkpt>
      <trkpt lat="41.6999" lon="26.25833">
        <ele>99.772533</ele>
        <time>2022-02-26T09:38:31.276Z</time>
      </trkpt>
      <trkpt lat="41.69996" lon="26.25824">
        <ele>99.924636</ele>
        <time>2022-02-26T09:38:33.290Z</time>
      </trkpt>
      <trkpt lat="41.70003" lon="26.25815">
        <ele>100.07256</ele>
        <time>2022-02-26T09:38:35.279Z</time>
      </trkpt>
      <trkpt lat="41.7001" lon="26.25806">
        <ele>100.225518</ele>
        <time>2022-02-26T09:38:37.287Z</time>
      </trkpt>
      <trkpt lat="41.70017" lon="26.25797">
        <ele>100.373739</ele>
        <time>2022-02-26T09:38:39.302Z</time>
      </trkpt>
      <trkpt lat="41.70023" lon="26.25788">
        <ele>100.520842</ele>
        <time>2022-02-26T09:38:41.300Z</time>
      </trkpt>
      <trkpt lat="41.7003" lon="26.2578">
        <ele>100.662409</ele>
        <time>2022-02-26T09:38:43.280Z</time>
      </trkpt>
      <trkpt lat="41.70039" lon="26.25768">
        <ele>100.87183</ele>
        <time>2022-02-26T09:38:46.277Z</time>
      </trkpt>
      <trkpt lat="41.70049" lon="26.25755">
        <ele>101.080935</ele>
        <time>2022-02-26T09:38:49.291Z</time>
      </trkpt>
      <trkpt lat="41.70058" lon="26.25743">
        <ele>101.286781</ele>
        <time>2022-02-26T09:38:52.280Z</time>
      </trkpt>
      <trkpt lat="41.70068" lon="26.25732">
        <ele>101.489426</ele>
        <time>2022-02-26T09:38:55.283Z</time>
      </trkpt>
      <trkpt lat="41.70077" lon="26.2572">
        <ele>101.690909</ele>
        <time>2022-02-26T09:38:58.285Z</time>
      </trkpt>
      <trkpt lat="41.70086" lon="26.25709">
        <ele>101.884929</ele>
        <time>2022-02-26T09:39:01.337Z</time>
      </trkpt>
      <trkpt lat="41.70095" lon="26.25698">
        <ele>102.06605</ele>
        <time>2022-02-26T09:39:04.274Z</time>
      </trkpt>
      <trkpt lat="41.70104" lon="26.25688">
        <ele>102.249911</ele>
        <time>2022-02-26T09:39:07.277Z</time>
      </trkpt>
      <trkpt lat="41.70111" lon="26.25677">
        <ele>102.295617</ele>
        <time>2022-02-26T09:39:10.280Z</time>
      </trkpt>
      <trkpt lat="41.7012" lon="26.25667">
        <ele>102.343333</ele>
        <time>2022-02-26T09:39:13.273Z</time>
      </trkpt>
      <trkpt lat="41.70128" lon="26.25656">
        <ele>102.391474</ele>
        <time>2022-02-26T09:39:16.279Z</time>
      </trkpt>
      <trkpt lat="41.70136" lon="26.25646">
        <ele>102.437259</ele>
        <time>2022-02-26T09:39:19.287Z</time>
      </trkpt>
      <trkpt lat="41.70144" lon="26.25635">
        <ele>102.483917</ele>
        <time>2022-02-26T09:39:22.279Z</time>
      </trkpt>
      <trkpt lat="41.70152" lon="26.25625">
        <ele>102.530588</ele>
        <time>2022-02-26T09:39:25.268Z</time>
      </trkpt>
      <trkpt lat="41.7016" lon="26.25614">
        <ele>102.57632</ele>
        <time>2022-02-26T09:39:28.277Z</time>
      </trkpt>
      <trkpt lat="41.70167" lon="26.25604">
        <ele>102.620865</ele>
        <time>2022-02-26T09:39:31.280Z</time>
      </trkpt>
      <trkpt lat="41.70175" lon="26.25593">
        <ele>102.667454</ele>
        <time>2022-02-26T09:39:34.273Z</time>
      </trkpt>
      <trkpt lat="41.70183" lon="26.25582">
        <ele>102.714555</ele>
        <time>2022-02-26T09:39:37.290Z</time>
      </trkpt>
      <trkpt lat="41.70191" lon="26.2557">
        <ele>102.764862</ele>
        <time>2022-02-26T09:39:40.279Z</time>
      </trkpt>
      <trkpt lat="41.70199" lon="26.25559">
        <ele>102.814744</ele>
        <time>2022-02-26T09:39:43.284Z</time>
      </trkpt>
      <trkpt lat="41.70207" lon="26.25548">
        <ele>102.861342</ele>
        <time>2022-02-26T09:39:46.282Z</time>
      </trkpt>
      <trkpt lat="41.70214" lon="26.25538">
        <ele>102.904439</ele>
        <time>2022-02-26T09:39:49.281Z</time>
      </trkpt>
      <trkpt lat="41.70221" lon="26.25527">
        <ele>102.949252</ele>
        <time>2022-02-26T09:39:52.283Z</time>
      </trkpt>
      <trkpt lat="41.70228" lon="26.25517">
        <ele>102.992039</ele>
        <time>2022-02-26T09:39:55.288Z</time>
      </trkpt>
      <trkpt lat="41.70235" lon="26.25507">
        <ele>102.970917</ele>
        <time>2022-02-26T09:39:58.288Z</time>
      </trkpt>
      <trkpt lat="41.70241" lon="26.25496">
        <ele>102.941412</ele>
        <time>2022-02-26T09:40:01.284Z</time>
      </trkpt>
      <trkpt lat="41.70248" lon="26.25486">
        <ele>102.91178</ele>
        <time>2022-02-26T09:40:04.298Z</time>
      </trkpt>
      <trkpt lat="41.70254" lon="26.25474">
        <ele>102.880796</ele>
        <time>2022-02-26T09:40:07.295Z</time>
      </trkpt>
      <trkpt lat="41.70261" lon="26.25463">
        <ele>102.849921</ele>
        <time>2022-02-26T09:40:10.302Z</time>
      </trkpt>
      <trkpt lat="41.70268" lon="26.25452">
        <ele>102.820123</ele>
        <time>2022-02-26T09:40:13.275Z</time>
      </trkpt>
      <trkpt lat="41.70275" lon="26.2544">
        <ele>102.788112</ele>
        <time>2022-02-26T09:40:16.286Z</time>
      </trkpt>
      <trkpt lat="41.70281" lon="26.25428">
        <ele>102.756275</ele>
        <time>2022-02-26T09:40:19.291Z</time>
      </trkpt>
      <trkpt lat="41.70288" lon="26.25416">
        <ele>102.723569</ele>
        <time>2022-02-26T09:40:22.289Z</time>
      </trkpt>
      <trkpt lat="41.70295" lon="26.25404">
        <ele>102.691903</ele>
        <time>2022-02-26T09:40:25.266Z</time>
      </trkpt>
      <trkpt lat="41.70302" lon="26.25393">
        <ele>102.660222</ele>
        <time>2022-02-26T09:40:28.281Z</time>
      </trkpt>
      <trkpt lat="41.70308" lon="26.25381">
        <ele>102.628886</ele>
        <time>2022-02-26T09:40:31.279Z</time>
      </trkpt>
      <trkpt lat="41.70315" lon="26.25369">
        <ele>102.596192</ele>
        <time>2022-02-26T09:40:34.271Z</time>
      </trkpt>
      <trkpt lat="41.70322" lon="26.25356">
        <ele>102.563478</ele>
        <time>2022-02-26T09:40:37.301Z</time>
      </trkpt>
      <trkpt lat="41.70328" lon="26.25345">
        <ele>102.534023</ele>
        <time>2022-02-26T09:40:40.281Z</time>
      </trkpt>
      <trkpt lat="41.70333" lon="26.25333">
        <ele>102.504555</ele>
        <time>2022-02-26T09:40:43.283Z</time>
      </trkpt>
      <trkpt lat="41.70339" lon="26.25321">
        <ele>102.479494</ele>
        <time>2022-02-26T09:40:46.290Z</time>
      </trkpt>
      <trkpt lat="41.70345" lon="26.2531">
        <ele>102.472277</ele>
        <time>2022-02-26T09:40:49.298Z</time>
      </trkpt>
      <trkpt lat="41.70351" lon="26.25298">
        <ele>102.464848</ele>
        <time>2022-02-26T09:40:52.288Z</time>
      </trkpt>
      <trkpt lat="41.70357" lon="26.25285">
        <ele>102.457396</ele>
        <time>2022-02-26T09:40:55.296Z</time>
      </trkpt>
      <trkpt lat="41.70363" lon="26.25273">
        <ele>102.449766</ele>
        <time>2022-02-26T09:40:58.285Z</time>
      </trkpt>
      <trkpt lat="41.70369" lon="26.2526">
        <ele>102.442017</ele>
        <time>2022-02-26T09:41:01.291Z</time>
      </trkpt>
      <trkpt lat="41.70376" lon="26.25247">
        <ele>102.434006</ele>
        <time>2022-02-26T09:41:04.280Z</time>
      </trkpt>
      <trkpt lat="41.70381" lon="26.25235">
        <ele>102.426561</ele>
        <time>2022-02-26T09:41:07.283Z</time>
      </trkpt>
      <trkpt lat="41.70387" lon="26.25223">
        <ele>102.419486</ele>
        <time>2022-02-26T09:41:10.331Z</time>
      </trkpt>
      <trkpt lat="41.70392" lon="26.25211">
        <ele>102.412281</ele>
        <time>2022-02-26T09:41:13.318Z</time>
      </trkpt>
      <trkpt lat="41.70398" lon="26.25199">
        <ele>102.405024</ele>
        <time>2022-02-26T09:41:16.283Z</time>
      </trkpt>
      <trkpt lat="41.70403" lon="26.25186">
        <ele>102.397589</ele>
        <time>2022-02-26T09:41:19.289Z</time>
      </trkpt>
      <trkpt lat="41.70409" lon="26.25174">
        <ele>102.390108</ele>
        <time>2022-02-26T09:41:22.281Z</time>
      </trkpt>
      <trkpt lat="41.70414" lon="26.25162">
        <ele>102.382896</ele>
        <time>2022-02-26T09:41:25.275Z</time>
      </trkpt>
      <trkpt lat="41.70419" lon="26.25149">
        <ele>102.375673</ele>
        <time>2022-02-26T09:41:28.288Z</time>
      </trkpt>
      <trkpt lat="41.70424" lon="26.25136">
        <ele>102.368317</ele>
        <time>2022-02-26T09:41:31.287Z</time>
      </trkpt>
      <trkpt lat="41.70429" lon="26.25124">
        <ele>102.361033</ele>
        <time>2022-02-26T09:41:34.284Z</time>
      </trkpt>
      <trkpt lat="41.70434" lon="26.2511">
        <ele>102.403512</ele>
        <time>2022-02-26T09:41:37.281Z</time>
      </trkpt>
      <trkpt lat="41.70439" lon="26.25096">
        <ele>102.479812</ele>
        <time>2022-02-26T09:41:40.330Z</time>
      </trkpt>
      <trkpt lat="41.70444" lon="26.25083">
        <ele>102.552597</ele>
        <time>2022-02-26T09:41:43.283Z</time>
      </trkpt>
      <trkpt lat="41.70449" lon="26.25069">
        <ele>102.628021</ele>
        <time>2022-02-26T09:41:46.273Z</time>
      </trkpt>
      <trkpt lat="41.70455" lon="26.25055">
        <ele>102.70432</ele>
        <time>2022-02-26T09:41:49.300Z</time>
      </trkpt>
      <trkpt lat="41.70459" lon="26.25042">
        <ele>102.779034</ele>
        <time>2022-02-26T09:41:52.299Z</time>
      </trkpt>
      <trkpt lat="41.70465" lon="26.25028">
        <ele>102.853583</ele>
        <time>2022-02-26T09:41:55.277Z</time>
      </trkpt>
      <trkpt lat="41.70469" lon="26.25015">
        <ele>102.926965</ele>
        <time>2022-02-26T09:41:58.275Z</time>
      </trkpt>
      <trkpt lat="41.70474" lon="26.25001">
        <ele>103.001678</ele>
        <time>2022-02-26T09:42:01.283Z</time>
      </trkpt>
      <trkpt lat="41.70479" lon="26.24989">
        <ele>103.068801</ele>
        <time>2022-02-26T09:42:04.317Z</time>
      </trkpt>
      <trkpt lat="41.70485" lon="26.24979">
        <ele>103.131761</ele>
        <time>2022-02-26T09:42:07.276Z</time>
      </trkpt>
      <trkpt lat="41.7049" lon="26.24967">
        <ele>103.197829</ele>
        <time>2022-02-26T09:42:10.299Z</time>
      </trkpt>
      <trkpt lat="41.70494" lon="26.24954">
        <ele>103.268272</ele>
        <time>2022-02-26T09:42:13.281Z</time>
      </trkpt>
      <trkpt lat="41.70499" lon="26.24941">
        <ele>103.336092</ele>
        <time>2022-02-26T09:42:16.278Z</time>
      </trkpt>
      <trkpt lat="41.70503" lon="26.24929">
        <ele>103.400771</ele>
        <time>2022-02-26T09:42:19.298Z</time>
      </trkpt>
      <trkpt lat="41.70506" lon="26.24916">
        <ele>103.468586</ele>
        <time>2022-02-26T09:42:22.270Z</time>
      </trkpt>
      <trkpt lat="41.70509" lon="26.24902">
        <ele>103.54378</ele>
        <time>2022-02-26T09:42:25.268Z</time>
      </trkpt>
      <trkpt lat="41.70515" lon="26.24889">
        <ele>103.682385</ele>
        <time>2022-02-26T09:42:28.271Z</time>
      </trkpt>
      <trkpt lat="41.70519" lon="26.24877">
        <ele>103.80878</ele>
        <time>2022-02-26T09:42:31.276Z</time>
      </trkpt>
      <trkpt lat="41.70524" lon="26.24864">
        <ele>103.940779</ele>
        <time>2022-02-26T09:42:34.267Z</time>
      </trkpt>
      <trkpt lat="41.70528" lon="26.24851">
        <ele>104.069948</ele>
        <time>2022-02-26T09:42:37.270Z</time>
      </trkpt>
      <trkpt lat="41.70533" lon="26.24838">
        <ele>104.200787</ele>
        <time>2022-02-26T09:42:40.284Z</time>
      </trkpt>
      <trkpt lat="41.70537" lon="26.24825">
        <ele>104.335824</ele>
        <time>2022-02-26T09:42:43.265Z</time>
      </trkpt>
      <trkpt lat="41.70541" lon="26.24812">
        <ele>104.466332</ele>
        <time>2022-02-26T09:42:46.282Z</time>
      </trkpt>
      <trkpt lat="41.70545" lon="26.24799">
        <ele>104.594655</ele>
        <time>2022-02-26T09:42:49.260Z</time>
      </trkpt>
      <trkpt lat="41.7055" lon="26.24786">
        <ele>104.728849</ele>
        <time>2022-02-26T09:42:52.267Z</time>
      </trkpt>
      <trkpt lat="41.70554" lon="26.24772">
        <ele>104.865072</ele>
        <time>2022-02-26T09:42:55.268Z</time>
      </trkpt>
      <trkpt lat="41.70559" lon="26.24758">
        <ele>105.00688</ele>
        <time>2022-02-26T09:42:58.290Z</time>
      </trkpt>
      <trkpt lat="41.70563" lon="26.24745">
        <ele>105.142123</ele>
        <time>2022-02-26T09:43:01.287Z</time>
      </trkpt>
      <trkpt lat="41.70567" lon="26.24732">
        <ele>105.271299</ele>
        <time>2022-02-26T09:43:04.291Z</time>
      </trkpt>
      <trkpt lat="41.70572" lon="26.24719">
        <ele>105.405707</ele>
        <time>2022-02-26T09:43:07.273Z</time>
      </trkpt>
      <trkpt lat="41.70577" lon="26.24706">
        <ele>105.534875</ele>
        <time>2022-02-26T09:43:10.301Z</time>
      </trkpt>
      <trkpt lat="41.70581" lon="26.24692">
        <ele>105.675832</ele>
        <time>2022-02-26T09:43:13.323Z</time>
      </trkpt>
      <trkpt lat="41.70586" lon="26.24677">
        <ele>105.690225</ele>
        <time>2022-02-26T09:43:16.275Z</time>
      </trkpt>
      <trkpt lat="41.7059" lon="26.24663">
        <ele>105.501535</ele>
        <time>2022-02-26T09:43:19.266Z</time>
      </trkpt>
      <trkpt lat="41.70594" lon="26.24649">
        <ele>105.318571</ele>
        <time>2022-02-26T09:43:22.292Z</time>
      </trkpt>
      <trkpt lat="41.70599" lon="26.24635">
        <ele>105.1347</ele>
        <time>2022-02-26T09:43:25.295Z</time>
      </trkpt>
      <trkpt lat="41.70603" lon="26.24621">
        <ele>104.948773</ele>
        <time>2022-02-26T09:43:28.286Z</time>
      </trkpt>
      <trkpt lat="41.70608" lon="26.24607">
        <ele>104.757095</ele>
        <time>2022-02-26T09:43:31.281Z</time>
      </trkpt>
      <trkpt lat="41.70613" lon="26.24592">
        <ele>104.56523</ele>
        <time>2022-02-26T09:43:34.287Z</time>
      </trkpt>
      <trkpt lat="41.70617" lon="26.24578">
        <ele>104.37306</ele>
        <time>2022-02-26T09:43:37.280Z</time>
      </trkpt>
      <trkpt lat="41.70622" lon="26.24562">
        <ele>104.166653</ele>
        <time>2022-02-26T09:43:40.284Z</time>
      </trkpt>
      <trkpt lat="41.70627" lon="26.24546">
        <ele>103.953381</ele>
        <time>2022-02-26T09:43:43.279Z</time>
      </trkpt>
      <trkpt lat="41.70631" lon="26.24534">
        <ele>103.803261</ele>
        <time>2022-02-26T09:43:45.276Z</time>
      </trkpt>
      <trkpt lat="41.70634" lon="26.24523">
        <ele>103.656476</ele>
        <time>2022-02-26T09:43:47.284Z</time>
      </trkpt>
      <trkpt lat="41.70638" lon="26.24512">
        <ele>103.502805</ele>
        <time>2022-02-26T09:43:49.287Z</time>
      </trkpt>
      <trkpt lat="41.70642" lon="26.245">
        <ele>103.340032</ele>
        <time>2022-02-26T09:43:51.307Z</time>
      </trkpt>
      <trkpt lat="41.70647" lon="26.24488">
        <ele>103.177687</ele>
        <time>2022-02-26T09:43:53.279Z</time>
      </trkpt>
      <trkpt lat="41.70651" lon="26.24476">
        <ele>103.016842</ele>
        <time>2022-02-26T09:43:55.282Z</time>
      </trkpt>
      <trkpt lat="41.70655" lon="26.24463">
        <ele>102.854731</ele>
        <time>2022-02-26T09:43:57.284Z</time>
      </trkpt>
      <trkpt lat="41.70659" lon="26.24452">
        <ele>102.808052</ele>
        <time>2022-02-26T09:43:59.297Z</time>
      </trkpt>
      <trkpt lat="41.70663" lon="26.2444">
        <ele>102.775234</ele>
        <time>2022-02-26T09:44:01.285Z</time>
      </trkpt>
      <trkpt lat="41.70667" lon="26.24428">
        <ele>102.741955</ele>
        <time>2022-02-26T09:44:03.302Z</time>
      </trkpt>
      <trkpt lat="41.70671" lon="26.24417">
        <ele>102.709971</ele>
        <time>2022-02-26T09:44:05.277Z</time>
      </trkpt>
      <trkpt lat="41.70675" lon="26.24405">
        <ele>102.677235</ele>
        <time>2022-02-26T09:44:07.285Z</time>
      </trkpt>
      <trkpt lat="41.70679" lon="26.24393">
        <ele>102.644559</ele>
        <time>2022-02-26T09:44:09.312Z</time>
      </trkpt>
      <trkpt lat="41.70683" lon="26.24382">
        <ele>102.613263</ele>
        <time>2022-02-26T09:44:11.267Z</time>
      </trkpt>
      <trkpt lat="41.70687" lon="26.24371">
        <ele>102.582044</ele>
        <time>2022-02-26T09:44:13.285Z</time>
      </trkpt>
      <trkpt lat="41.70692" lon="26.24359">
        <ele>102.548097</ele>
        <time>2022-02-26T09:44:15.328Z</time>
      </trkpt>
      <trkpt lat="41.70696" lon="26.24347">
        <ele>102.513985</ele>
        <time>2022-02-26T09:44:17.285Z</time>
      </trkpt>
      <trkpt lat="41.707" lon="26.24335">
        <ele>102.479268</ele>
        <time>2022-02-26T09:44:19.283Z</time>
      </trkpt>
      <trkpt lat="41.70704" lon="26.24323">
        <ele>102.44547</ele>
        <time>2022-02-26T09:44:21.277Z</time>
      </trkpt>
      <trkpt lat="41.70709" lon="26.2431">
        <ele>102.410149</ele>
        <time>2022-02-26T09:44:23.292Z</time>
      </trkpt>
      <trkpt lat="41.70713" lon="26.24298">
        <ele>102.375202</ele>
        <time>2022-02-26T09:44:25.288Z</time>
      </trkpt>
      <trkpt lat="41.70717" lon="26.24285">
        <ele>102.340534</ele>
        <time>2022-02-26T09:44:27.288Z</time>
      </trkpt>
      <trkpt lat="41.70721" lon="26.24273">
        <ele>102.307069</ele>
        <time>2022-02-26T09:44:29.266Z</time>
      </trkpt>
      <trkpt lat="41.70725" lon="26.24261">
        <ele>102.273329</ele>
        <time>2022-02-26T09:44:31.282Z</time>
      </trkpt>
      <trkpt lat="41.70729" lon="26.24249">
        <ele>102.24005</ele>
        <time>2022-02-26T09:44:33.268Z</time>
      </trkpt>
      <trkpt lat="41.70733" lon="26.24237">
        <ele>102.148586</ele>
        <time>2022-02-26T09:44:35.275Z</time>
      </trkpt>
      <trkpt lat="41.70737" lon="26.24225">
        <ele>102.005248</ele>
        <time>2022-02-26T09:44:37.304Z</time>
      </trkpt>
      <trkpt lat="41.70742" lon="26.24213">
        <ele>101.861714</ele>
        <time>2022-02-26T09:44:39.296Z</time>
      </trkpt>
      <trkpt lat="41.70745" lon="26.24201">
        <ele>101.723434</ele>
        <time>2022-02-26T09:44:41.290Z</time>
      </trkpt>
      <trkpt lat="41.70749" lon="26.24189">
        <ele>101.588663</ele>
        <time>2022-02-26T09:44:43.276Z</time>
      </trkpt>
      <trkpt lat="41.70753" lon="26.24178">
        <ele>101.453324</ele>
        <time>2022-02-26T09:44:45.279Z</time>
      </trkpt>
      <trkpt lat="41.70757" lon="26.24166">
        <ele>101.314614</ele>
        <time>2022-02-26T09:44:47.295Z</time>
      </trkpt>
      <trkpt lat="41.70761" lon="26.24154">
        <ele>101.175184</ele>
        <time>2022-02-26T09:44:49.288Z</time>
      </trkpt>
      <trkpt lat="41.70765" lon="26.24142">
        <ele>101.038063</ele>
        <time>2022-02-26T09:44:51.285Z</time>
      </trkpt>
      <trkpt lat="41.70769" lon="26.2413">
        <ele>100.898399</ele>
        <time>2022-02-26T09:44:53.259Z</time>
      </trkpt>
      <trkpt lat="41.70773" lon="26.24118">
        <ele>100.75955</ele>
        <time>2022-02-26T09:44:55.299Z</time>
      </trkpt>
      <trkpt lat="41.70777" lon="26.24106">
        <ele>100.616986</ele>
        <time>2022-02-26T09:44:57.300Z</time>
      </trkpt>
      <trkpt lat="41.70781" lon="26.24094">
        <ele>100.477159</ele>
        <time>2022-02-26T09:44:59.293Z</time>
      </trkpt>
      <trkpt lat="41.70784" lon="26.24083">
        <ele>100.343535</ele>
        <time>2022-02-26T09:45:01.289Z</time>
      </trkpt>
      <trkpt lat="41.70788" lon="26.2407">
        <ele>100.203288</ele>
        <time>2022-02-26T09:45:03.283Z</time>
      </trkpt>
      <trkpt lat="41.70792" lon="26.24059">
        <ele>100.063265</ele>
        <time>2022-02-26T09:45:05.284Z</time>
      </trkpt>
      <trkpt lat="41.70796" lon="26.24046">
        <ele>99.922458</ele>
        <time>2022-02-26T09:45:07.290Z</time>
      </trkpt>
      <trkpt lat="41.708" lon="26.24035">
        <ele>99.78361</ele>
        <time>2022-02-26T09:45:09.289Z</time>
      </trkpt>
      <trkpt lat="41.70804" lon="26.24022">
        <ele>99.660676</ele>
        <time>2022-02-26T09:45:11.275Z</time>
      </trkpt>
      <trkpt lat="41.70808" lon="26.2401">
        <ele>99.786041</ele>
        <time>2022-02-26T09:45:13.304Z</time>
      </trkpt>
      <trkpt lat="41.70812" lon="26.23998">
        <ele>99.910026</ele>
        <time>2022-02-26T09:45:15.308Z</time>
      </trkpt>
      <trkpt lat="41.70816" lon="26.23986">
        <ele>100.030402</ele>
        <time>2022-02-26T09:45:17.293Z</time>
      </trkpt>
      <trkpt lat="41.7082" lon="26.23975">
        <ele>100.150095</ele>
        <time>2022-02-26T09:45:19.280Z</time>
      </trkpt>
      <trkpt lat="41.70824" lon="26.23963">
        <ele>100.270878</ele>
        <time>2022-02-26T09:45:21.287Z</time>
      </trkpt>
      <trkpt lat="41.70828" lon="26.23951">
        <ele>100.394723</ele>
        <time>2022-02-26T09:45:23.289Z</time>
      </trkpt>
      <trkpt lat="41.70832" lon="26.23939">
        <ele>100.517334</ele>
        <time>2022-02-26T09:45:25.298Z</time>
      </trkpt>
      <trkpt lat="41.70836" lon="26.23928">
        <ele>100.640197</ele>
        <time>2022-02-26T09:45:27.279Z</time>
      </trkpt>
      <trkpt lat="41.7084" lon="26.23916">
        <ele>100.762989</ele>
        <time>2022-02-26T09:45:29.278Z</time>
      </trkpt>
      <trkpt lat="41.70844" lon="26.23905">
        <ele>100.883013</ele>
        <time>2022-02-26T09:45:31.281Z</time>
      </trkpt>
      <trkpt lat="41.70849" lon="26.23893">
        <ele>101.008297</ele>
        <time>2022-02-26T09:45:33.284Z</time>
      </trkpt>
      <trkpt lat="41.70853" lon="26.23881">
        <ele>101.133026</ele>
        <time>2022-02-26T09:45:35.294Z</time>
      </trkpt>
      <trkpt lat="41.70857" lon="26.23869">
        <ele>101.25411</ele>
        <time>2022-02-26T09:45:37.282Z</time>
      </trkpt>
      <trkpt lat="41.70861" lon="26.23858">
        <ele>101.374342</ele>
        <time>2022-02-26T09:45:39.280Z</time>
      </trkpt>
      <trkpt lat="41.70865" lon="26.23846">
        <ele>101.493431</ele>
        <time>2022-02-26T09:45:41.279Z</time>
      </trkpt>
      <trkpt lat="41.70869" lon="26.23835">
        <ele>101.615695</ele>
        <time>2022-02-26T09:45:43.285Z</time>
      </trkpt>
      <trkpt lat="41.70873" lon="26.23823">
        <ele>101.740035</ele>
        <time>2022-02-26T09:45:45.285Z</time>
      </trkpt>
      <trkpt lat="41.70877" lon="26.2381">
        <ele>101.867981</ele>
        <time>2022-02-26T09:45:47.279Z</time>
      </trkpt>
      <trkpt lat="41.70881" lon="26.23797">
        <ele>101.813014</ele>
        <time>2022-02-26T09:45:49.298Z</time>
      </trkpt>
      <trkpt lat="41.70885" lon="26.23784">
        <ele>101.623764</ele>
        <time>2022-02-26T09:45:51.341Z</time>
      </trkpt>
      <trkpt lat="41.70889" lon="26.23772">
        <ele>101.444111</ele>
        <time>2022-02-26T09:45:53.308Z</time>
      </trkpt>
      <trkpt lat="41.70892" lon="26.2376">
        <ele>101.263777</ele>
        <time>2022-02-26T09:45:55.280Z</time>
      </trkpt>
      <trkpt lat="41.70896" lon="26.23748">
        <ele>101.083805</ele>
        <time>2022-02-26T09:45:57.283Z</time>
      </trkpt>
      <trkpt lat="41.709" lon="26.23735">
        <ele>100.896299</ele>
        <time>2022-02-26T09:45:59.287Z</time>
      </trkpt>
      <trkpt lat="41.70904" lon="26.23723">
        <ele>100.715811</ele>
        <time>2022-02-26T09:46:01.299Z</time>
      </trkpt>
      <trkpt lat="41.70908" lon="26.23711">
        <ele>100.530088</ele>
        <time>2022-02-26T09:46:03.283Z</time>
      </trkpt>
      <trkpt lat="41.70912" lon="26.23698">
        <ele>100.343988</ele>
        <time>2022-02-26T09:46:05.278Z</time>
      </trkpt>
      <trkpt lat="41.70916" lon="26.23686">
        <ele>100.159721</ele>
        <time>2022-02-26T09:46:07.279Z</time>
      </trkpt>
      <trkpt lat="41.7092" lon="26.23673">
        <ele>99.974733</ele>
        <time>2022-02-26T09:46:09.278Z</time>
      </trkpt>
      <trkpt lat="41.70924" lon="26.23661">
        <ele>99.794006</ele>
        <time>2022-02-26T09:46:11.281Z</time>
      </trkpt>
      <trkpt lat="41.70928" lon="26.23649">
        <ele>99.615498</ele>
        <time>2022-02-26T09:46:13.284Z</time>
      </trkpt>
      <trkpt lat="41.70932" lon="26.23637">
        <ele>99.437791</ele>
        <time>2022-02-26T09:46:15.290Z</time>
      </trkpt>
      <trkpt lat="41.70935" lon="26.23625">
        <ele>99.250997</ele>
        <time>2022-02-26T09:46:17.293Z</time>
      </trkpt>
      <trkpt lat="41.7094" lon="26.23612">
        <ele>99.059523</ele>
        <time>2022-02-26T09:46:19.331Z</time>
      </trkpt>
      <trkpt lat="41.70944" lon="26.23599">
        <ele>98.869301</ele>
        <time>2022-02-26T09:46:21.293Z</time>
      </trkpt>
      <trkpt lat="41.70948" lon="26.23586">
        <ele>98.674581</ele>
        <time>2022-02-26T09:46:23.282Z</time>
      </trkpt>
      <trkpt lat="41.70953" lon="26.23574">
        <ele>98.460845</ele>
        <time>2022-02-26T09:46:25.282Z</time>
      </trkpt>
      <trkpt lat="41.70957" lon="26.23561">
        <ele>98.238806</ele>
        <time>2022-02-26T09:46:27.319Z</time>
      </trkpt>
      <trkpt lat="41.70961" lon="26.23549">
        <ele>98.029459</ele>
        <time>2022-02-26T09:46:29.269Z</time>
      </trkpt>
      <trkpt lat="41.70965" lon="26.23537">
        <ele>97.811829</ele>
        <time>2022-02-26T09:46:31.273Z</time>
      </trkpt>
      <trkpt lat="41.70969" lon="26.23525">
        <ele>97.584049</ele>
        <time>2022-02-26T09:46:33.271Z</time>
      </trkpt>
      <trkpt lat="41.70974" lon="26.23512">
        <ele>97.348947</ele>
        <time>2022-02-26T09:46:35.272Z</time>
      </trkpt>
      <trkpt lat="41.70979" lon="26.23499">
        <ele>97.118246</ele>
        <time>2022-02-26T09:46:37.307Z</time>
      </trkpt>
      <trkpt lat="41.70983" lon="26.23486">
        <ele>96.892344</ele>
        <time>2022-02-26T09:46:39.273Z</time>
      </trkpt>
      <trkpt lat="41.70988" lon="26.23474">
        <ele>96.65499</ele>
        <time>2022-02-26T09:46:41.332Z</time>
      </trkpt>
      <trkpt lat="41.70993" lon="26.2346">
        <ele>96.414555</ele>
        <time>2022-02-26T09:46:43.278Z</time>
      </trkpt>
      <trkpt lat="41.70998" lon="26.23446">
        <ele>96.170602</ele>
        <time>2022-02-26T09:46:45.283Z</time>
      </trkpt>
      <trkpt lat="41.71002" lon="26.23432">
        <ele>95.916863</ele>
        <time>2022-02-26T09:46:47.303Z</time>
      </trkpt>
      <trkpt lat="41.71008" lon="26.23418">
        <ele>95.658549</ele>
        <time>2022-02-26T09:46:49.291Z</time>
      </trkpt>
      <trkpt lat="41.71012" lon="26.23403">
        <ele>95.397987</ele>
        <time>2022-02-26T09:46:51.267Z</time>
      </trkpt>
      <trkpt lat="41.71018" lon="26.23388">
        <ele>95.127933</ele>
        <time>2022-02-26T09:46:53.309Z</time>
      </trkpt>
      <trkpt lat="41.71023" lon="26.23373">
        <ele>94.852545</ele>
        <time>2022-02-26T09:46:55.268Z</time>
      </trkpt>
      <trkpt lat="41.71028" lon="26.23357">
        <ele>94.715961</ele>
        <time>2022-02-26T09:46:57.298Z</time>
      </trkpt>
      <trkpt lat="41.71034" lon="26.2334">
        <ele>94.723788</ele>
        <time>2022-02-26T09:46:59.273Z</time>
      </trkpt>
      <trkpt lat="41.71039" lon="26.23323">
        <ele>94.731967</ele>
        <time>2022-02-26T09:47:01.276Z</time>
      </trkpt>
      <trkpt lat="41.71045" lon="26.23305">
        <ele>94.740418</ele>
        <time>2022-02-26T09:47:03.273Z</time>
      </trkpt>
      <trkpt lat="41.71051" lon="26.23286">
        <ele>94.74914</ele>
        <time>2022-02-26T09:47:05.320Z</time>
      </trkpt>
      <trkpt lat="41.71057" lon="26.23267">
        <ele>94.757989</ele>
        <time>2022-02-26T09:47:07.284Z</time>
      </trkpt>
      <trkpt lat="41.71064" lon="26.23249">
        <ele>94.766922</ele>
        <time>2022-02-26T09:47:09.276Z</time>
      </trkpt>
      <trkpt lat="41.71071" lon="26.2323">
        <ele>94.776034</ele>
        <time>2022-02-26T09:47:11.273Z</time>
      </trkpt>
      <trkpt lat="41.71078" lon="26.23211">
        <ele>94.785289</ele>
        <time>2022-02-26T09:47:13.273Z</time>
      </trkpt>
      <trkpt lat="41.71085" lon="26.23192">
        <ele>94.794261</ele>
        <time>2022-02-26T09:47:15.268Z</time>
      </trkpt>
      <trkpt lat="41.71093" lon="26.23173">
        <ele>94.803351</ele>
        <time>2022-02-26T09:47:17.321Z</time>
      </trkpt>
      <trkpt lat="41.71099" lon="26.23155">
        <ele>94.812117</ele>
        <time>2022-02-26T09:47:19.279Z</time>
      </trkpt>
      <trkpt lat="41.71106" lon="26.23137">
        <ele>94.810268</ele>
        <time>2022-02-26T09:47:21.320Z</time>
      </trkpt>
      <trkpt lat="41.71114" lon="26.2312">
        <ele>94.799959</ele>
        <time>2022-02-26T09:47:23.286Z</time>
      </trkpt>
      <trkpt lat="41.71121" lon="26.23103">
        <ele>94.790248</ele>
        <time>2022-02-26T09:47:25.281Z</time>
      </trkpt>
      <trkpt lat="41.71128" lon="26.23088">
        <ele>94.781051</ele>
        <time>2022-02-26T09:47:27.270Z</time>
      </trkpt>
      <trkpt lat="41.71135" lon="26.23073">
        <ele>94.772125</ele>
        <time>2022-02-26T09:47:29.279Z</time>
      </trkpt>
      <trkpt lat="41.71141" lon="26.23059">
        <ele>94.763483</ele>
        <time>2022-02-26T09:47:31.275Z</time>
      </trkpt>
      <trkpt lat="41.71147" lon="26.23045">
        <ele>94.755195</ele>
        <time>2022-02-26T09:47:33.286Z</time>
      </trkpt>
      <trkpt lat="41.71153" lon="26.23032">
        <ele>94.747524</ele>
        <time>2022-02-26T09:47:35.266Z</time>
      </trkpt>
      <trkpt lat="41.71159" lon="26.2302">
        <ele>94.740126</ele>
        <time>2022-02-26T09:47:37.280Z</time>
      </trkpt>
      <trkpt lat="41.71164" lon="26.23009">
        <ele>94.733339</ele>
        <time>2022-02-26T09:47:39.312Z</time>
      </trkpt>
      <trkpt lat="41.71168" lon="26.22998">
        <ele>94.727001</ele>
        <time>2022-02-26T09:47:41.307Z</time>
      </trkpt>
      <trkpt lat="41.71173" lon="26.22988">
        <ele>94.720796</ele>
        <time>2022-02-26T09:47:43.311Z</time>
      </trkpt>
      <trkpt lat="41.7118" lon="26.22973">
        <ele>94.711739</ele>
        <time>2022-02-26T09:47:46.275Z</time>
      </trkpt>
      <trkpt lat="41.71185" lon="26.22962">
        <ele>94.705504</ele>
        <time>2022-02-26T09:47:48.300Z</time>
      </trkpt>
      <trkpt lat="41.71192" lon="26.22948">
        <ele>94.696455</ele>
        <time>2022-02-26T09:47:51.287Z</time>
      </trkpt>
      <trkpt lat="41.71197" lon="26.22937">
        <ele>94.745158</ele>
        <time>2022-02-26T09:47:53.275Z</time>
      </trkpt>
      <trkpt lat="41.71204" lon="26.22922">
        <ele>94.971186</ele>
        <time>2022-02-26T09:47:56.293Z</time>
      </trkpt>
      <trkpt lat="41.7121" lon="26.22907">
        <ele>95.194698</ele>
        <time>2022-02-26T09:47:59.297Z</time>
      </trkpt>
      <trkpt lat="41.71217" lon="26.22892">
        <ele>95.416912</ele>
        <time>2022-02-26T09:48:02.284Z</time>
      </trkpt>
      <trkpt lat="41.71223" lon="26.22878">
        <ele>95.629229</ele>
        <time>2022-02-26T09:48:05.322Z</time>
      </trkpt>
      <trkpt lat="41.71229" lon="26.22864">
        <ele>95.834537</ele>
        <time>2022-02-26T09:48:08.279Z</time>
      </trkpt>
      <trkpt lat="41.71235" lon="26.22851">
        <ele>96.030388</ele>
        <time>2022-02-26T09:48:11.284Z</time>
      </trkpt>
      <trkpt lat="41.71241" lon="26.22838">
        <ele>96.216162</ele>
        <time>2022-02-26T09:48:14.283Z</time>
      </trkpt>
      <trkpt lat="41.71246" lon="26.22826">
        <ele>96.40003</ele>
        <time>2022-02-26T09:48:17.267Z</time>
      </trkpt>
      <trkpt lat="41.71252" lon="26.22814">
        <ele>96.581888</ele>
        <time>2022-02-26T09:48:20.280Z</time>
      </trkpt>
      <trkpt lat="41.71257" lon="26.22802">
        <ele>96.759956</ele>
        <time>2022-02-26T09:48:23.276Z</time>
      </trkpt>
      <trkpt lat="41.71262" lon="26.2279">
        <ele>96.929268</ele>
        <time>2022-02-26T09:48:26.288Z</time>
      </trkpt>
      <trkpt lat="41.71266" lon="26.22779">
        <ele>97.091903</ele>
        <time>2022-02-26T09:48:29.282Z</time>
      </trkpt>
      <trkpt lat="41.71272" lon="26.22768">
        <ele>97.25623</ele>
        <time>2022-02-26T09:48:32.279Z</time>
      </trkpt>
      <trkpt lat="41.71277" lon="26.22758">
        <ele>97.413482</ele>
        <time>2022-02-26T09:48:35.272Z</time>
      </trkpt>
      <trkpt lat="41.71281" lon="26.22747">
        <ele>97.573329</ele>
        <time>2022-02-26T09:48:38.279Z</time>
      </trkpt>
      <trkpt lat="41.71287" lon="26.22734">
        <ele>97.763033</ele>
        <time>2022-02-26T09:48:42.271Z</time>
      </trkpt>
      <trkpt lat="41.71292" lon="26.22722">
        <ele>98.639823</ele>
        <time>2022-02-26T09:48:46.264Z</time>
      </trkpt>
      <trkpt lat="41.71297" lon="26.22711">
        <ele>99.462163</ele>
        <time>2022-02-26T09:48:50.291Z</time>
      </trkpt>
      <trkpt lat="41.71303" lon="26.22697">
        <ele>100.460168</ele>
        <time>2022-02-26T09:48:55.276Z</time>
      </trkpt>
      <trkpt lat="41.71309" lon="26.22684">
        <ele>101.424878</ele>
        <time>2022-02-26T09:48:59.289Z</time>
      </trkpt>
      <trkpt lat="41.71315" lon="26.22672">
        <ele>102.359711</ele>
        <time>2022-02-26T09:49:03.334Z</time>
      </trkpt>
      <trkpt lat="41.71319" lon="26.22659">
        <ele>103.259246</ele>
        <time>2022-02-26T09:49:07.320Z</time>
      </trkpt>
      <trkpt lat="41.71324" lon="26.22646">
        <ele>104.219935</ele>
        <time>2022-02-26T09:49:11.296Z</time>
      </trkpt>
      <trkpt lat="41.71329" lon="26.22633">
        <ele>105.126952</ele>
        <time>2022-02-26T09:49:15.268Z</time>
      </trkpt>
      <trkpt lat="41.71334" lon="26.22621">
        <ele>106.013413</ele>
        <time>2022-02-26T09:49:19.276Z</time>
      </trkpt>
      <trkpt lat="41.71338" lon="26.2261">
        <ele>106.82165</ele>
        <time>2022-02-26T09:49:23.310Z</time>
      </trkpt>
      <trkpt lat="41.71343" lon="26.22599">
        <ele>107.613071</ele>
        <time>2022-02-26T09:49:27.284Z</time>
      </trkpt>
      <trkpt lat="41.71348" lon="26.22586">
        <ele>108.577371</ele>
        <time>2022-02-26T09:49:32.305Z</time>
      </trkpt>
      <trkpt lat="41.71352" lon="26.22575">
        <ele>109.360578</ele>
        <time>2022-02-26T09:49:36.295Z</time>
      </trkpt>
      <trkpt lat="41.71356" lon="26.22564">
        <ele>110.183576</ele>
        <time>2022-02-26T09:49:40.284Z</time>
      </trkpt>
      <trkpt lat="41.71361" lon="26.22552">
        <ele>110.997027</ele>
        <time>2022-02-26T09:49:44.286Z</time>
      </trkpt>
      <trkpt lat="41.71365" lon="26.22541">
        <ele>111.781917</ele>
        <time>2022-02-26T09:49:48.269Z</time>
      </trkpt>
      <trkpt lat="41.71369" lon="26.2253">
        <ele>112.562911</ele>
        <time>2022-02-26T09:49:52.291Z</time>
      </trkpt>
      <trkpt lat="41.71373" lon="26.22519">
        <ele>113.202063</ele>
        <time>2022-02-26T09:49:56.287Z</time>
      </trkpt>
      <trkpt lat="41.71377" lon="26.22507">
        <ele>113.255064</ele>
        <time>2022-02-26T09:50:00.281Z</time>
      </trkpt>
      <trkpt lat="41.71382" lon="26.22495">
        <ele>113.309904</ele>
        <time>2022-02-26T09:50:04.277Z</time>
      </trkpt>
      <trkpt lat="41.71386" lon="26.22483">
        <ele>113.364591</ele>
        <time>2022-02-26T09:50:08.289Z</time>
      </trkpt>
      <trkpt lat="41.7139" lon="26.22472">
        <ele>113.416744</ele>
        <time>2022-02-26T09:50:12.300Z</time>
      </trkpt>
      <trkpt lat="41.71394" lon="26.2246">
        <ele>113.469034</ele>
        <time>2022-02-26T09:50:16.268Z</time>
      </trkpt>
      <trkpt lat="41.71398" lon="26.22449">
        <ele>113.519752</ele>
        <time>2022-02-26T09:50:20.295Z</time>
      </trkpt>
      <trkpt lat="41.71402" lon="26.22437">
        <ele>113.574228</ele>
        <time>2022-02-26T09:50:24.268Z</time>
      </trkpt>
      <trkpt lat="41.71406" lon="26.22426">
        <ele>113.624883</ele>
        <time>2022-02-26T09:50:28.278Z</time>
      </trkpt>
      <trkpt lat="41.71409" lon="26.22414">
        <ele>113.675303</ele>
        <time>2022-02-26T09:50:32.266Z</time>
      </trkpt>
      <trkpt lat="41.71413" lon="26.22401">
        <ele>113.732521</ele>
        <time>2022-02-26T09:50:37.287Z</time>
      </trkpt>
      <trkpt lat="41.71418" lon="26.22389">
        <ele>113.787476</ele>
        <time>2022-02-26T09:50:41.290Z</time>
      </trkpt>
      <trkpt lat="41.71421" lon="26.22377">
        <ele>113.840261</ele>
        <time>2022-02-26T09:50:45.317Z</time>
      </trkpt>
      <trkpt lat="41.71425" lon="26.22365">
        <ele>113.89479</ele>
        <time>2022-02-26T09:50:49.279Z</time>
      </trkpt>
      <trkpt lat="41.71428" lon="26.22353">
        <ele>113.946955</ele>
        <time>2022-02-26T09:50:53.298Z</time>
      </trkpt>
      <trkpt lat="41.71432" lon="26.22341">
        <ele>114.000086</ele>
        <time>2022-02-26T09:50:57.306Z</time>
      </trkpt>
      <trkpt lat="41.71435" lon="26.22329">
        <ele>114.05339</ele>
        <time>2022-02-26T09:51:01.284Z</time>
      </trkpt>
      <trkpt lat="41.7144" lon="26.22316">
        <ele>114.111524</ele>
        <time>2022-02-26T09:51:05.286Z</time>
      </trkpt>
      <trkpt lat="41.71443" lon="26.22302">
        <ele>114.171333</ele>
        <time>2022-02-26T09:51:09.284Z</time>
      </trkpt>
      <trkpt lat="41.71447" lon="26.2229">
        <ele>113.651891</ele>
        <time>2022-02-26T09:51:13.280Z</time>
      </trkpt>
      <trkpt lat="41.7145" lon="26.22277">
        <ele>113.063351</ele>
        <time>2022-02-26T09:51:17.289Z</time>
      </trkpt>
      <trkpt lat="41.71454" lon="26.22264">
        <ele>112.450071</ele>
        <time>2022-02-26T09:51:21.274Z</time>
      </trkpt>
      <trkpt lat="41.71458" lon="26.2225">
        <ele>111.807921</ele>
        <time>2022-02-26T09:51:25.266Z</time>
      </trkpt>
      <trkpt lat="41.71461" lon="26.22235">
        <ele>111.12176</ele>
        <time>2022-02-26T09:51:29.260Z</time>
      </trkpt>
      <trkpt lat="41.71464" lon="26.22222">
        <ele>110.486987</ele>
        <time>2022-02-26T09:51:33.273Z</time>
      </trkpt>
      <trkpt lat="41.71468" lon="26.22208">
        <ele>109.861124</ele>
        <time>2022-02-26T09:51:37.265Z</time>
      </trkpt>
      <trkpt lat="41.71471" lon="26.22194">
        <ele>109.202362</ele>
        <time>2022-02-26T09:51:41.289Z</time>
      </trkpt>
      <trkpt lat="41.71474" lon="26.2218">
        <ele>108.558318</ele>
        <time>2022-02-26T09:51:45.301Z</time>
      </trkpt>
      <trkpt lat="41.71478" lon="26.22165">
        <ele>107.871387</ele>
        <time>2022-02-26T09:51:49.303Z</time>
      </trkpt>
      <trkpt lat="41.71481" lon="26.22153">
        <ele>107.342335</ele>
        <time>2022-02-26T09:51:52.269Z</time>
      </trkpt>
      <trkpt lat="41.71484" lon="26.22142">
        <ele>106.796623</ele>
        <time>2022-02-26T09:51:55.297Z</time>
      </trkpt>
      <trkpt lat="41.71486" lon="26.22129">
        <ele>106.213228</ele>
        <time>2022-02-26T09:51:58.312Z</time>
      </trkpt>
      <trkpt lat="41.71489" lon="26.22116">
        <ele>105.623896</ele>
        <time>2022-02-26T09:52:01.279Z</time>
      </trkpt>
      <trkpt lat="41.71493" lon="26.22103">
        <ele>105.014244</ele>
        <time>2022-02-26T09:52:04.272Z</time>
      </trkpt>
      <trkpt lat="41.71496" lon="26.2209">
        <ele>104.406385</ele>
        <time>2022-02-26T09:52:07.248Z</time>
      </trkpt>
      <trkpt lat="41.71499" lon="26.22076">
        <ele>103.796735</ele>
        <time>2022-02-26T09:52:10.260Z</time>
      </trkpt>
      <trkpt lat="41.71502" lon="26.22063">
        <ele>103.51412</ele>
        <time>2022-02-26T09:52:13.270Z</time>
      </trkpt>
      <trkpt lat="41.71506" lon="26.22049">
        <ele>103.398011</ele>
        <time>2022-02-26T09:52:16.247Z</time>
      </trkpt>
      <trkpt lat="41.71509" lon="26.22035">
        <ele>103.279624</ele>
        <time>2022-02-26T09:52:19.251Z</time>
      </trkpt>
      <trkpt lat="41.71514" lon="26.22021">
        <ele>103.153901</ele>
        <time>2022-02-26T09:52:22.275Z</time>
      </trkpt>
      <trkpt lat="41.71518" lon="26.22006">
        <ele>103.029948</ele>
        <time>2022-02-26T09:52:25.283Z</time>
      </trkpt>
      <trkpt lat="41.71522" lon="26.21991">
        <ele>102.904451</ele>
        <time>2022-02-26T09:52:28.257Z</time>
      </trkpt>
      <trkpt lat="41.71526" lon="26.21976">
        <ele>102.776329</ele>
        <time>2022-02-26T09:52:31.255Z</time>
      </trkpt>
      <trkpt lat="41.7153" lon="26.21961">
        <ele>102.64745</ele>
        <time>2022-02-26T09:52:34.262Z</time>
      </trkpt>
      <trkpt lat="41.71534" lon="26.21945">
        <ele>102.511094</ele>
        <time>2022-02-26T09:52:37.256Z</time>
      </trkpt>
      <trkpt lat="41.71539" lon="26.21929">
        <ele>102.370614</ele>
        <time>2022-02-26T09:52:40.266Z</time>
      </trkpt>
      <trkpt lat="41.71542" lon="26.21917">
        <ele>102.271418</ele>
        <time>2022-02-26T09:52:42.255Z</time>
      </trkpt>
      <trkpt lat="41.71545" lon="26.21905">
        <ele>102.169944</ele>
        <time>2022-02-26T09:52:44.253Z</time>
      </trkpt>
      <trkpt lat="41.71548" lon="26.21893">
        <ele>102.065524</ele>
        <time>2022-02-26T09:52:46.251Z</time>
      </trkpt>
      <trkpt lat="41.71551" lon="26.2188">
        <ele>101.958093</ele>
        <time>2022-02-26T09:52:48.254Z</time>
      </trkpt>
      <trkpt lat="41.71554" lon="26.21868">
        <ele>101.851282</ele>
        <time>2022-02-26T09:52:50.256Z</time>
      </trkpt>
      <trkpt lat="41.71558" lon="26.21855">
        <ele>101.741977</ele>
        <time>2022-02-26T09:52:52.271Z</time>
      </trkpt>
      <trkpt lat="41.71562" lon="26.21842">
        <ele>101.640272</ele>
        <time>2022-02-26T09:52:54.256Z</time>
      </trkpt>
      <trkpt lat="41.71565" lon="26.21828">
        <ele>101.567287</ele>
        <time>2022-02-26T09:52:56.260Z</time>
      </trkpt>
      <trkpt lat="41.71569" lon="26.21815">
        <ele>101.493185</ele>
        <time>2022-02-26T09:52:58.250Z</time>
      </trkpt>
      <trkpt lat="41.71572" lon="26.21801">
        <ele>101.416399</ele>
        <time>2022-02-26T09:53:00.273Z</time>
      </trkpt>
      <trkpt lat="41.71576" lon="26.21787">
        <ele>101.338909</ele>
        <time>2022-02-26T09:53:02.253Z</time>
      </trkpt>
      <trkpt lat="41.7158" lon="26.21772">
        <ele>101.259007</ele>
        <time>2022-02-26T09:53:04.262Z</time>
      </trkpt>
      <trkpt lat="41.71584" lon="26.21758">
        <ele>101.181044</ele>
        <time>2022-02-26T09:53:06.262Z</time>
      </trkpt>
      <trkpt lat="41.71589" lon="26.21745">
        <ele>101.105231</ele>
        <time>2022-02-26T09:53:08.260Z</time>
      </trkpt>
      <trkpt lat="41.71594" lon="26.21731">
        <ele>101.0298</ele>
        <time>2022-02-26T09:53:10.260Z</time>
      </trkpt>
      <trkpt lat="41.71597" lon="26.21717">
        <ele>100.953502</ele>
        <time>2022-02-26T09:53:12.281Z</time>
      </trkpt>
      <trkpt lat="41.71601" lon="26.21704">
        <ele>100.881064</ele>
        <time>2022-02-26T09:53:14.257Z</time>
      </trkpt>
      <trkpt lat="41.71604" lon="26.21691">
        <ele>100.812215</ele>
        <time>2022-02-26T09:53:16.255Z</time>
      </trkpt>
      <trkpt lat="41.71607" lon="26.2168">
        <ele>100.748415</ele>
        <time>2022-02-26T09:53:18.278Z</time>
      </trkpt>
      <trkpt lat="41.71609" lon="26.21668">
        <ele>100.685107</ele>
        <time>2022-02-26T09:53:20.267Z</time>
      </trkpt>
      <trkpt lat="41.71613" lon="26.21652">
        <ele>100.597454</ele>
        <time>2022-02-26T09:53:23.249Z</time>
      </trkpt>
      <trkpt lat="41.71617" lon="26.21636">
        <ele>100.511736</ele>
        <time>2022-02-26T09:53:26.265Z</time>
      </trkpt>
      <trkpt lat="41.71619" lon="26.21624">
        <ele>100.44923</ele>
        <time>2022-02-26T09:53:28.256Z</time>
      </trkpt>
      <trkpt lat="41.71622" lon="26.21607">
        <ele>100.648463</ele>
        <time>2022-02-26T09:53:31.249Z</time>
      </trkpt>
      <trkpt lat="41.71626" lon="26.2159">
        <ele>100.988039</ele>
        <time>2022-02-26T09:53:34.259Z</time>
      </trkpt>
      <trkpt lat="41.7163" lon="26.21574">
        <ele>101.329851</ele>
        <time>2022-02-26T09:53:37.254Z</time>
      </trkpt>
      <trkpt lat="41.71633" lon="26.21558">
        <ele>101.658075</ele>
        <time>2022-02-26T09:53:40.273Z</time>
      </trkpt>
      <trkpt lat="41.71636" lon="26.21541">
        <ele>101.991776</ele>
        <time>2022-02-26T09:53:43.259Z</time>
      </trkpt>
      <trkpt lat="41.71639" lon="26.21526">
        <ele>102.310863</ele>
        <time>2022-02-26T09:53:46.259Z</time>
      </trkpt>
      <trkpt lat="41.71642" lon="26.2151">
        <ele>102.631869</ele>
        <time>2022-02-26T09:53:49.248Z</time>
      </trkpt>
      <trkpt lat="41.71644" lon="26.21493">
        <ele>102.957004</ele>
        <time>2022-02-26T09:53:52.264Z</time>
      </trkpt>
      <trkpt lat="41.71647" lon="26.21478">
        <ele>103.268634</ele>
        <time>2022-02-26T09:53:55.256Z</time>
      </trkpt>
      <trkpt lat="41.71649" lon="26.21464">
        <ele>103.555252</ele>
        <time>2022-02-26T09:53:58.259Z</time>
      </trkpt>
      <trkpt lat="41.71651" lon="26.2145">
        <ele>103.8413</ele>
        <time>2022-02-26T09:54:01.250Z</time>
      </trkpt>
      <trkpt lat="41.71653" lon="26.21436">
        <ele>104.119973</ele>
        <time>2022-02-26T09:54:04.255Z</time>
      </trkpt>
      <trkpt lat="41.71655" lon="26.21422">
        <ele>104.393372</ele>
        <time>2022-02-26T09:54:07.255Z</time>
      </trkpt>
      <trkpt lat="41.71658" lon="26.21407">
        <ele>104.688253</ele>
        <time>2022-02-26T09:54:10.255Z</time>
      </trkpt>
      <trkpt lat="41.71661" lon="26.21394">
        <ele>104.964625</ele>
        <time>2022-02-26T09:54:13.255Z</time>
      </trkpt>
      <trkpt lat="41.71663" lon="26.2138">
        <ele>105.328792</ele>
        <time>2022-02-26T09:54:16.261Z</time>
      </trkpt>
      <trkpt lat="41.71666" lon="26.21367">
        <ele>105.868463</ele>
        <time>2022-02-26T09:54:19.260Z</time>
      </trkpt>
      <trkpt lat="41.71668" lon="26.21354">
        <ele>106.377864</ele>
        <time>2022-02-26T09:54:22.276Z</time>
      </trkpt>
      <trkpt lat="41.7167" lon="26.21342">
        <ele>106.868632</ele>
        <time>2022-02-26T09:54:25.257Z</time>
      </trkpt>
      <trkpt lat="41.71672" lon="26.21328">
        <ele>107.390047</ele>
        <time>2022-02-26T09:54:28.257Z</time>
      </trkpt>
      <trkpt lat="41.71673" lon="26.21315">
        <ele>107.938335</ele>
        <time>2022-02-26T09:54:31.266Z</time>
      </trkpt>
      <trkpt lat="41.71675" lon="26.21301">
        <ele>108.459264</ele>
        <time>2022-02-26T09:54:34.253Z</time>
      </trkpt>
      <trkpt lat="41.71676" lon="26.21288">
        <ele>108.991106</ele>
        <time>2022-02-26T09:54:37.247Z</time>
      </trkpt>
      <trkpt lat="41.71678" lon="26.21276">
        <ele>109.479859</ele>
        <time>2022-02-26T09:54:40.254Z</time>
      </trkpt>
      <trkpt lat="41.71679" lon="26.21263">
        <ele>109.968406</ele>
        <time>2022-02-26T09:54:43.251Z</time>
      </trkpt>
      <trkpt lat="41.7168" lon="26.21249">
        <ele>110.524172</ele>
        <time>2022-02-26T09:54:47.256Z</time>
      </trkpt>
      <trkpt lat="41.71682" lon="26.21235">
        <ele>111.09752</ele>
        <time>2022-02-26T09:54:51.252Z</time>
      </trkpt>
      <trkpt lat="41.71683" lon="26.21222">
        <ele>111.588715</ele>
        <time>2022-02-26T09:54:54.255Z</time>
      </trkpt>
      <trkpt lat="41.71683" lon="26.2121">
        <ele>112.078122</ele>
        <time>2022-02-26T09:54:57.253Z</time>
      </trkpt>
      <trkpt lat="41.71684" lon="26.21198">
        <ele>112.550506</ele>
        <time>2022-02-26T09:55:00.256Z</time>
      </trkpt>
      <trkpt lat="41.71685" lon="26.21182">
        <ele>113.177057</ele>
        <time>2022-02-26T09:55:04.259Z</time>
      </trkpt>
      <trkpt lat="41.71686" lon="26.21169">
        <ele>113.652715</ele>
        <time>2022-02-26T09:55:07.258Z</time>
      </trkpt>
      <trkpt lat="41.71686" lon="26.21154">
        <ele>114.270405</ele>
        <time>2022-02-26T09:55:11.261Z</time>
      </trkpt>
      <trkpt lat="41.71688" lon="26.21138">
        <ele>114.732881</ele>
        <time>2022-02-26T09:55:15.261Z</time>
      </trkpt>
      <trkpt lat="41.71689" lon="26.21123">
        <ele>115.055132</ele>
        <time>2022-02-26T09:55:19.260Z</time>
      </trkpt>
      <trkpt lat="41.71689" lon="26.21107">
        <ele>115.371045</ele>
        <time>2022-02-26T09:55:23.276Z</time>
      </trkpt>
      <trkpt lat="41.7169" lon="26.21095">
        <ele>115.618747</ele>
        <time>2022-02-26T09:55:26.248Z</time>
      </trkpt>
      <trkpt lat="41.71691" lon="26.2108">
        <ele>115.932237</ele>
        <time>2022-02-26T09:55:30.256Z</time>
      </trkpt>
      <trkpt lat="41.71692" lon="26.21065">
        <ele>116.240482</ele>
        <time>2022-02-26T09:55:34.256Z</time>
      </trkpt>
      <trkpt lat="41.71693" lon="26.21049">
        <ele>116.556395</ele>
        <time>2022-02-26T09:55:38.254Z</time>
      </trkpt>
      <trkpt lat="41.71693" lon="26.21034">
        <ele>116.879941</ele>
        <time>2022-02-26T09:55:42.260Z</time>
      </trkpt>
      <trkpt lat="41.71693" lon="26.21021">
        <ele>117.133595</ele>
        <time>2022-02-26T09:55:45.257Z</time>
      </trkpt>
      <trkpt lat="41.71694" lon="26.21006">
        <ele>117.451346</ele>
        <time>2022-02-26T09:55:49.259Z</time>
      </trkpt>
      <trkpt lat="41.71695" lon="26.20993">
        <ele>117.709264</ele>
        <time>2022-02-26T09:55:52.263Z</time>
      </trkpt>
      <trkpt lat="41.71695" lon="26.20979">
        <ele>118.003965</ele>
        <time>2022-02-26T09:55:56.254Z</time>
      </trkpt>
      <trkpt lat="41.71696" lon="26.20964">
        <ele>118.294836</ele>
        <time>2022-02-26T09:56:00.257Z</time>
      </trkpt>
      <trkpt lat="41.71696" lon="26.20951">
        <ele>118.569224</ele>
        <time>2022-02-26T09:56:04.257Z</time>
      </trkpt>
      <trkpt lat="41.71697" lon="26.20937">
        <ele>118.849888</ele>
        <time>2022-02-26T09:56:08.260Z</time>
      </trkpt>
      <trkpt lat="41.71697" lon="26.20924">
        <ele>119.12277</ele>
        <time>2022-02-26T09:56:12.271Z</time>
      </trkpt>
      <trkpt lat="41.71698" lon="26.20911">
        <ele>119.393406</ele>
        <time>2022-02-26T09:56:16.256Z</time>
      </trkpt>
      <trkpt lat="41.71699" lon="26.20898">
        <ele>119.584402</ele>
        <time>2022-02-26T09:56:20.283Z</time>
      </trkpt>
      <trkpt lat="41.71699" lon="26.20884">
        <ele>119.72028</ele>
        <time>2022-02-26T09:56:24.259Z</time>
      </trkpt>
      <trkpt lat="41.717" lon="26.20871">
        <ele>119.85445</ele>
        <time>2022-02-26T09:56:28.256Z</time>
      </trkpt>
      <trkpt lat="41.717" lon="26.20857">
        <ele>119.997499</ele>
        <time>2022-02-26T09:56:32.270Z</time>
      </trkpt>
      <trkpt lat="41.71701" lon="26.20844">
        <ele>120.136865</ele>
        <time>2022-02-26T09:56:36.279Z</time>
      </trkpt>
      <trkpt lat="41.71701" lon="26.2083">
        <ele>120.278892</ele>
        <time>2022-02-26T09:56:40.256Z</time>
      </trkpt>
      <trkpt lat="41.71701" lon="26.20817">
        <ele>120.410677</ele>
        <time>2022-02-26T09:56:44.251Z</time>
      </trkpt>
      <trkpt lat="41.71701" lon="26.20804">
        <ele>120.540534</ele>
        <time>2022-02-26T09:56:48.284Z</time>
      </trkpt>
      <trkpt lat="41.71701" lon="26.20792">
        <ele>120.667218</ele>
        <time>2022-02-26T09:56:52.252Z</time>
      </trkpt>
      <trkpt lat="41.71702" lon="26.20779">
        <ele>120.799067</ele>
        <time>2022-02-26T09:56:56.264Z</time>
      </trkpt>
      <trkpt lat="41.71702" lon="26.20765">
        <ele>120.935967</ele>
        <time>2022-02-26T09:57:00.246Z</time>
      </trkpt>
      <trkpt lat="41.71702" lon="26.20752">
        <ele>121.070927</ele>
        <time>2022-02-26T09:57:04.260Z</time>
      </trkpt>
      <trkpt lat="41.71703" lon="26.20739">
        <ele>121.202968</ele>
        <time>2022-02-26T09:57:08.260Z</time>
      </trkpt>
      <trkpt lat="41.71703" lon="26.20726">
        <ele>121.343973</ele>
        <time>2022-02-26T09:57:12.259Z</time>
      </trkpt>
      <trkpt lat="41.71702" lon="26.20712">
        <ele>121.483937</ele>
        <time>2022-02-26T09:57:16.279Z</time>
      </trkpt>
      <trkpt lat="41.71702" lon="26.20698">
        <ele>121.621852</ele>
        <time>2022-02-26T09:57:20.265Z</time>
      </trkpt>
      <trkpt lat="41.71702" lon="26.20686">
        <ele>121.748536</ele>
        <time>2022-02-26T09:57:24.250Z</time>
      </trkpt>
      <trkpt lat="41.71703" lon="26.20673">
        <ele>121.877285</ele>
        <time>2022-02-26T09:57:28.254Z</time>
      </trkpt>
      <trkpt lat="41.71703" lon="26.20661">
        <ele>121.997522</ele>
        <time>2022-02-26T09:57:32.246Z</time>
      </trkpt>
      <trkpt lat="41.71703" lon="26.20649">
        <ele>122.102443</ele>
        <time>2022-02-26T09:57:36.264Z</time>
      </trkpt>
      <trkpt lat="41.71703" lon="26.20636">
        <ele>122.205773</ele>
        <time>2022-02-26T09:57:40.262Z</time>
      </trkpt>
      <trkpt lat="41.71704" lon="26.20624">
        <ele>122.309253</ele>
        <time>2022-02-26T09:57:44.259Z</time>
      </trkpt>
      <trkpt lat="41.71705" lon="26.20612">
        <ele>122.414613</ele>
        <time>2022-02-26T09:57:48.259Z</time>
      </trkpt>
      <trkpt lat="41.71706" lon="26.20599">
        <ele>122.522232</ele>
        <time>2022-02-26T09:57:52.251Z</time>
      </trkpt>
      <trkpt lat="41.71706" lon="26.20586">
        <ele>122.63676</ele>
        <time>2022-02-26T09:57:56.252Z</time>
      </trkpt>
      <trkpt lat="41.71707" lon="26.20572">
        <ele>122.752331</ele>
        <time>2022-02-26T09:58:00.259Z</time>
      </trkpt>
      <trkpt lat="41.71708" lon="26.20559">
        <ele>122.862645</ele>
        <time>2022-02-26T09:58:04.255Z</time>
      </trkpt>
      <trkpt lat="41.71709" lon="26.20547">
        <ele>122.964759</ele>
        <time>2022-02-26T09:58:08.254Z</time>
      </trkpt>
      <trkpt lat="41.7171" lon="26.20532">
        <ele>123.08865</ele>
        <time>2022-02-26T09:58:13.249Z</time>
      </trkpt>
      <trkpt lat="41.71711" lon="26.2052">
        <ele>123.195383</ele>
        <time>2022-02-26T09:58:17.258Z</time>
      </trkpt>
      <trkpt lat="41.71713" lon="26.20505">
        <ele>123.320708</ele>
        <time>2022-02-26T09:58:21.257Z</time>
      </trkpt>
      <trkpt lat="41.71714" lon="26.20491">
        <ele>123.437121</ele>
        <time>2022-02-26T09:58:25.248Z</time>
      </trkpt>
      <trkpt lat="41.71715" lon="26.20478">
        <ele>123.550806</ele>
        <time>2022-02-26T09:58:29.278Z</time>
      </trkpt>
      <trkpt lat="41.71715" lon="26.20465">
        <ele>123.659954</ele>
        <time>2022-02-26T09:58:33.252Z</time>
      </trkpt>
      <trkpt lat="41.71715" lon="26.20452">
        <ele>123.774123</ele>
        <time>2022-02-26T09:58:37.258Z</time>
      </trkpt>
      <trkpt lat="41.71714" lon="26.20438">
        <ele>123.888432</ele>
        <time>2022-02-26T09:58:41.256Z</time>
      </trkpt>
      <trkpt lat="41.71714" lon="26.20424">
        <ele>123.992764</ele>
        <time>2022-02-26T09:58:45.250Z</time>
      </trkpt>
      <trkpt lat="41.71713" lon="26.2041">
        <ele>123.485047</ele>
        <time>2022-02-26T09:58:49.251Z</time>
      </trkpt>
      <trkpt lat="41.71713" lon="26.20394">
        <ele>122.928409</ele>
        <time>2022-02-26T09:58:53.256Z</time>
      </trkpt>
      <trkpt lat="41.71712" lon="26.20381">
        <ele>122.473097</ele>
        <time>2022-02-26T09:58:56.247Z</time>
      </trkpt>
      <trkpt lat="41.71712" lon="26.20368">
        <ele>122.03565</ele>
        <time>2022-02-26T09:58:59.248Z</time>
      </trkpt>
      <trkpt lat="41.71712" lon="26.20355">
        <ele>121.579759</ele>
        <time>2022-02-26T09:59:02.256Z</time>
      </trkpt>
      <trkpt lat="41.71712" lon="26.20341">
        <ele>121.09005</ele>
        <time>2022-02-26T09:59:05.259Z</time>
      </trkpt>
      <trkpt lat="41.71712" lon="26.20327">
        <ele>120.575793</ele>
        <time>2022-02-26T09:59:08.259Z</time>
      </trkpt>
      <trkpt lat="41.71713" lon="26.2031">
        <ele>119.998187</ele>
        <time>2022-02-26T09:59:11.258Z</time>
      </trkpt>
      <trkpt lat="41.71713" lon="26.20293">
        <ele>119.413591</ele>
        <time>2022-02-26T09:59:14.280Z</time>
      </trkpt>
      <trkpt lat="41.71714" lon="26.20277">
        <ele>118.832659</ele>
        <time>2022-02-26T09:59:17.252Z</time>
      </trkpt>
      <trkpt lat="41.71714" lon="26.20259">
        <ele>118.195911</ele>
        <time>2022-02-26T09:59:20.255Z</time>
      </trkpt>
      <trkpt lat="41.71714" lon="26.20245">
        <ele>117.737321</ele>
        <time>2022-02-26T09:59:22.259Z</time>
      </trkpt>
      <trkpt lat="41.71714" lon="26.20232">
        <ele>117.258105</ele>
        <time>2022-02-26T09:59:24.252Z</time>
      </trkpt>
      <trkpt lat="41.71714" lon="26.20218">
        <ele>116.768395</ele>
        <time>2022-02-26T09:59:26.252Z</time>
      </trkpt>
      <trkpt lat="41.71715" lon="26.20203">
        <ele>116.257378</ele>
        <time>2022-02-26T09:59:28.259Z</time>
      </trkpt>
      <trkpt lat="41.71715" lon="26.20188">
        <ele>115.729133</ele>
        <time>2022-02-26T09:59:30.273Z</time>
      </trkpt>
      <trkpt lat="41.71715" lon="26.20172">
        <ele>115.107089</ele>
        <time>2022-02-26T09:59:32.251Z</time>
      </trkpt>
      <trkpt lat="41.71715" lon="26.20154">
        <ele>114.441754</ele>
        <time>2022-02-26T09:59:34.262Z</time>
      </trkpt>
      <trkpt lat="41.71715" lon="26.20137">
        <ele>113.753209</ele>
        <time>2022-02-26T09:59:36.285Z</time>
      </trkpt>
      <trkpt lat="41.71715" lon="26.20119">
        <ele>113.080137</ele>
        <time>2022-02-26T09:59:38.272Z</time>
      </trkpt>
      <trkpt lat="41.71715" lon="26.20101">
        <ele>112.383547</ele>
        <time>2022-02-26T09:59:40.250Z</time>
      </trkpt>
      <trkpt lat="41.71716" lon="26.20083">
        <ele>111.667625</ele>
        <time>2022-02-26T09:59:42.263Z</time>
      </trkpt>
      <trkpt lat="41.71716" lon="26.20063">
        <ele>110.92404</ele>
        <time>2022-02-26T09:59:44.249Z</time>
      </trkpt>
      <trkpt lat="41.71717" lon="26.20045">
        <ele>110.206544</ele>
        <time>2022-02-26T09:59:46.248Z</time>
      </trkpt>
      <trkpt lat="41.71718" lon="26.20027">
        <ele>109.501307</ele>
        <time>2022-02-26T09:59:48.249Z</time>
      </trkpt>
      <trkpt lat="41.71719" lon="26.20008">
        <ele>108.776095</ele>
        <time>2022-02-26T09:59:50.260Z</time>
      </trkpt>
      <trkpt lat="41.7172" lon="26.19988">
        <ele>107.992996</ele>
        <time>2022-02-26T09:59:52.250Z</time>
      </trkpt>
      <trkpt lat="41.71721" lon="26.19967">
        <ele>107.186389</ele>
        <time>2022-02-26T09:59:54.256Z</time>
      </trkpt>
      <trkpt lat="41.71722" lon="26.19946">
        <ele>106.360829</ele>
        <time>2022-02-26T09:59:56.246Z</time>
      </trkpt>
      <trkpt lat="41.71723" lon="26.19923">
        <ele>106.112219</ele>
        <time>2022-02-26T09:59:58.289Z</time>
      </trkpt>
      <trkpt lat="41.71724" lon="26.19901">
        <ele>105.946932</ele>
        <time>2022-02-26T10:00:00.258Z</time>
      </trkpt>
      <trkpt lat="41.71725" lon="26.19878">
        <ele>105.785134</ele>
        <time>2022-02-26T10:00:02.271Z</time>
      </trkpt>
      <trkpt lat="41.71726" lon="26.19855">
        <ele>105.618942</ele>
        <time>2022-02-26T10:00:04.246Z</time>
      </trkpt>
      <trkpt lat="41.71727" lon="26.19832">
        <ele>105.446774</ele>
        <time>2022-02-26T10:00:06.263Z</time>
      </trkpt>
      <trkpt lat="41.71728" lon="26.19819">
        <ele>105.356602</ele>
        <time>2022-02-26T10:00:07.264Z</time>
      </trkpt>
      <trkpt lat="41.71729" lon="26.19807">
        <ele>105.267062</ele>
        <time>2022-02-26T10:00:08.326Z</time>
      </trkpt>
      <trkpt lat="41.71729" lon="26.19795">
        <ele>105.177037</ele>
        <time>2022-02-26T10:00:09.278Z</time>
      </trkpt>
      <trkpt lat="41.7173" lon="26.19782">
        <ele>105.086865</ele>
        <time>2022-02-26T10:00:10.258Z</time>
      </trkpt>
      <trkpt lat="41.71731" lon="26.19769">
        <ele>104.994604</ele>
        <time>2022-02-26T10:00:11.262Z</time>
      </trkpt>
      <trkpt lat="41.71732" lon="26.19757">
        <ele>104.905233</ele>
        <time>2022-02-26T10:00:12.307Z</time>
      </trkpt>
      <trkpt lat="41.71732" lon="26.19745">
        <ele>104.816504</ele>
        <time>2022-02-26T10:00:13.311Z</time>
      </trkpt>
      <trkpt lat="41.71733" lon="26.19732">
        <ele>104.725689</ele>
        <time>2022-02-26T10:00:14.319Z</time>
      </trkpt>
      <trkpt lat="41.71734" lon="26.1972">
        <ele>104.634217</ele>
        <time>2022-02-26T10:00:15.288Z</time>
      </trkpt>
      <trkpt lat="41.71734" lon="26.19707">
        <ele>104.5413</ele>
        <time>2022-02-26T10:00:16.325Z</time>
      </trkpt>
      <trkpt lat="41.71735" lon="26.19695">
        <ele>104.193494</ele>
        <time>2022-02-26T10:00:17.270Z</time>
      </trkpt>
      <trkpt lat="41.71735" lon="26.19682">
        <ele>103.697787</ele>
        <time>2022-02-26T10:00:18.261Z</time>
      </trkpt>
      <trkpt lat="41.71736" lon="26.1967">
        <ele>103.209474</ele>
        <time>2022-02-26T10:00:19.270Z</time>
      </trkpt>
      <trkpt lat="41.71737" lon="26.19658">
        <ele>102.709204</ele>
        <time>2022-02-26T10:00:20.269Z</time>
      </trkpt>
      <trkpt lat="41.71737" lon="26.19645">
        <ele>102.221477</ele>
        <time>2022-02-26T10:00:21.267Z</time>
      </trkpt>
      <trkpt lat="41.71737" lon="26.19633">
        <ele>101.733487</ele>
        <time>2022-02-26T10:00:22.292Z</time>
      </trkpt>
      <trkpt lat="41.71738" lon="26.19609">
        <ele>100.758606</ele>
        <time>2022-02-26T10:00:24.277Z</time>
      </trkpt>
      <trkpt lat="41.71738" lon="26.19596">
        <ele>100.263333</ele>
        <time>2022-02-26T10:00:25.258Z</time>
      </trkpt>
      <trkpt lat="41.71739" lon="26.19584">
        <ele>99.763378</ele>
        <time>2022-02-26T10:00:26.260Z</time>
      </trkpt>
      <trkpt lat="41.71739" lon="26.19572">
        <ele>99.267874</ele>
        <time>2022-02-26T10:00:27.267Z</time>
      </trkpt>
      <trkpt lat="41.71739" lon="26.19559">
        <ele>98.768521</ele>
        <time>2022-02-26T10:00:28.253Z</time>
      </trkpt>
      <trkpt lat="41.71739" lon="26.19547">
        <ele>98.273017</ele>
        <time>2022-02-26T10:00:29.269Z</time>
      </trkpt>
      <trkpt lat="41.7174" lon="26.19534">
        <ele>97.773664</ele>
        <time>2022-02-26T10:00:30.294Z</time>
      </trkpt>
      <trkpt lat="41.7174" lon="26.19521">
        <ele>97.246224</ele>
        <time>2022-02-26T10:00:31.333Z</time>
      </trkpt>
      <trkpt lat="41.7174" lon="26.19508">
        <ele>96.742878</ele>
        <time>2022-02-26T10:00:32.320Z</time>
      </trkpt>
      <trkpt lat="41.7174" lon="26.19496">
        <ele>96.243525</ele>
        <time>2022-02-26T10:00:33.293Z</time>
      </trkpt>
      <trkpt lat="41.71741" lon="26.19472">
        <ele>95.296426</ele>
        <time>2022-02-26T10:00:35.265Z</time>
      </trkpt>
      <trkpt lat="41.71741" lon="26.19448">
        <ele>94.487433</ele>
        <time>2022-02-26T10:00:37.272Z</time>
      </trkpt>
      <trkpt lat="41.71742" lon="26.19425">
        <ele>93.805509</ele>
        <time>2022-02-26T10:00:39.359Z</time>
      </trkpt>
      <trkpt lat="41.71742" lon="26.19401">
        <ele>93.126484</ele>
        <time>2022-02-26T10:00:41.307Z</time>
      </trkpt>
      <trkpt lat="41.71742" lon="26.19378">
        <ele>92.45633</ele>
        <time>2022-02-26T10:00:43.262Z</time>
      </trkpt>
      <trkpt lat="41.71743" lon="26.19355">
        <ele>91.791887</ele>
        <time>2022-02-26T10:00:45.269Z</time>
      </trkpt>
      <trkpt lat="41.71743" lon="26.19333">
        <ele>91.141633</ele>
        <time>2022-02-26T10:00:47.286Z</time>
      </trkpt>
      <trkpt lat="41.71743" lon="26.19311">
        <ele>90.506195</ele>
        <time>2022-02-26T10:00:49.294Z</time>
      </trkpt>
      <trkpt lat="41.71744" lon="26.1929">
        <ele>89.893469</ele>
        <time>2022-02-26T10:00:51.304Z</time>
      </trkpt>
      <trkpt lat="41.71745" lon="26.19269">
        <ele>89.30038</ele>
        <time>2022-02-26T10:00:53.284Z</time>
      </trkpt>
      <trkpt lat="41.71746" lon="26.1925">
        <ele>88.725328</ele>
        <time>2022-02-26T10:00:55.252Z</time>
      </trkpt>
      <trkpt lat="41.71746" lon="26.1923">
        <ele>88.162041</ele>
        <time>2022-02-26T10:00:57.259Z</time>
      </trkpt>
      <trkpt lat="41.71747" lon="26.19212">
        <ele>87.988227</ele>
        <time>2022-02-26T10:00:59.251Z</time>
      </trkpt>
      <trkpt lat="41.71747" lon="26.19195">
        <ele>88.163525</ele>
        <time>2022-02-26T10:01:01.263Z</time>
      </trkpt>
      <trkpt lat="41.71748" lon="26.1918">
        <ele>88.322492</ele>
        <time>2022-02-26T10:01:03.296Z</time>
      </trkpt>
      <trkpt lat="41.71749" lon="26.19165">
        <ele>88.478356</ele>
        <time>2022-02-26T10:01:05.275Z</time>
      </trkpt>
      <trkpt lat="41.7175" lon="26.1915">
        <ele>88.629908</ele>
        <time>2022-02-26T10:01:07.264Z</time>
      </trkpt>
      <trkpt lat="41.7175" lon="26.19136">
        <ele>88.77939</ele>
        <time>2022-02-26T10:01:09.260Z</time>
      </trkpt>
      <trkpt lat="41.71751" lon="26.19122">
        <ele>88.920593</ele>
        <time>2022-02-26T10:01:11.264Z</time>
      </trkpt>
      <trkpt lat="41.71751" lon="26.19109">
        <ele>89.057518</ele>
        <time>2022-02-26T10:01:13.309Z</time>
      </trkpt>
      <trkpt lat="41.71752" lon="26.19096">
        <ele>89.188583</ele>
        <time>2022-02-26T10:01:15.322Z</time>
      </trkpt>
      <trkpt lat="41.71753" lon="26.19084">
        <ele>89.319442</ele>
        <time>2022-02-26T10:01:17.271Z</time>
      </trkpt>
      <trkpt lat="41.71753" lon="26.19072">
        <ele>89.447197</ele>
        <time>2022-02-26T10:01:19.301Z</time>
      </trkpt>
      <trkpt lat="41.71754" lon="26.1906">
        <ele>89.571951</ele>
        <time>2022-02-26T10:01:21.283Z</time>
      </trkpt>
      <trkpt lat="41.71755" lon="26.19042">
        <ele>89.751601</ele>
        <time>2022-02-26T10:01:24.335Z</time>
      </trkpt>
      <trkpt lat="41.71756" lon="26.19026">
        <ele>89.924011</ele>
        <time>2022-02-26T10:01:27.296Z</time>
      </trkpt>
      <trkpt lat="41.71756" lon="26.19009">
        <ele>90.094448</ele>
        <time>2022-02-26T10:01:30.277Z</time>
      </trkpt>
      <trkpt lat="41.71757" lon="26.18993">
        <ele>90.26049</ele>
        <time>2022-02-26T10:01:33.255Z</time>
      </trkpt>
      <trkpt lat="41.71758" lon="26.18977">
        <ele>90.4238</ele>
        <time>2022-02-26T10:01:36.275Z</time>
      </trkpt>
      <trkpt lat="41.71759" lon="26.1896">
        <ele>90.565194</ele>
        <time>2022-02-26T10:01:39.287Z</time>
      </trkpt>
      <trkpt lat="41.7176" lon="26.18943">
        <ele>90.702653</ele>
        <time>2022-02-26T10:01:42.267Z</time>
      </trkpt>
      <trkpt lat="41.71761" lon="26.18926">
        <ele>90.83921</ele>
        <time>2022-02-26T10:01:45.275Z</time>
      </trkpt>
      <trkpt lat="41.71761" lon="26.1891">
        <ele>90.973879</ele>
        <time>2022-02-26T10:01:48.280Z</time>
      </trkpt>
      <trkpt lat="41.71762" lon="26.18894">
        <ele>91.107249</ele>
        <time>2022-02-26T10:01:51.278Z</time>
      </trkpt>
      <trkpt lat="41.71763" lon="26.18877">
        <ele>91.244426</ele>
        <time>2022-02-26T10:01:54.280Z</time>
      </trkpt>
      <trkpt lat="41.71763" lon="26.1886">
        <ele>91.381555</ele>
        <time>2022-02-26T10:01:57.267Z</time>
      </trkpt>
      <trkpt lat="41.71764" lon="26.18845">
        <ele>91.504866</ele>
        <time>2022-02-26T10:02:00.269Z</time>
      </trkpt>
      <trkpt lat="41.71765" lon="26.1883">
        <ele>91.633909</ele>
        <time>2022-02-26T10:02:03.280Z</time>
      </trkpt>
      <trkpt lat="41.71766" lon="26.18813">
        <ele>91.770391</ele>
        <time>2022-02-26T10:02:06.248Z</time>
      </trkpt>
      <trkpt lat="41.71767" lon="26.18796">
        <ele>91.908398</ele>
        <time>2022-02-26T10:02:09.288Z</time>
      </trkpt>
      <trkpt lat="41.71769" lon="26.18779">
        <ele>92.048849</ele>
        <time>2022-02-26T10:02:12.293Z</time>
      </trkpt>
      <trkpt lat="41.7177" lon="26.18763">
        <ele>92.180483</ele>
        <time>2022-02-26T10:02:15.275Z</time>
      </trkpt>
      <trkpt lat="41.71772" lon="26.18749">
        <ele>92.30108</ele>
        <time>2022-02-26T10:02:18.290Z</time>
      </trkpt>
      <trkpt lat="41.71774" lon="26.18734">
        <ele>92.370343</ele>
        <time>2022-02-26T10:02:21.270Z</time>
      </trkpt>
      <trkpt lat="41.71777" lon="26.18718">
        <ele>92.372327</ele>
        <time>2022-02-26T10:02:24.289Z</time>
      </trkpt>
      <trkpt lat="41.71781" lon="26.18703">
        <ele>92.37428</ele>
        <time>2022-02-26T10:02:27.287Z</time>
      </trkpt>
      <trkpt lat="41.71784" lon="26.18687">
        <ele>92.376294</ele>
        <time>2022-02-26T10:02:30.267Z</time>
      </trkpt>
      <trkpt lat="41.71788" lon="26.18672">
        <ele>92.378348</ele>
        <time>2022-02-26T10:02:33.271Z</time>
      </trkpt>
      <trkpt lat="41.71793" lon="26.18657">
        <ele>92.380377</ele>
        <time>2022-02-26T10:02:36.264Z</time>
      </trkpt>
      <trkpt lat="41.71798" lon="26.18641">
        <ele>92.382457</ele>
        <time>2022-02-26T10:02:39.296Z</time>
      </trkpt>
      <trkpt lat="41.71803" lon="26.18626">
        <ele>92.384535</ele>
        <time>2022-02-26T10:02:42.261Z</time>
      </trkpt>
      <trkpt lat="41.71808" lon="26.18612">
        <ele>92.386495</ele>
        <time>2022-02-26T10:02:45.281Z</time>
      </trkpt>
      <trkpt lat="41.71814" lon="26.18598">
        <ele>92.38842</ele>
        <time>2022-02-26T10:02:48.270Z</time>
      </trkpt>
      <trkpt lat="41.7182" lon="26.18584">
        <ele>92.390438</ele>
        <time>2022-02-26T10:02:51.279Z</time>
      </trkpt>
      <trkpt lat="41.71827" lon="26.18571">
        <ele>92.392483</ele>
        <time>2022-02-26T10:02:54.272Z</time>
      </trkpt>
      <trkpt lat="41.71834" lon="26.18558">
        <ele>92.394453</ele>
        <time>2022-02-26T10:02:57.337Z</time>
      </trkpt>
      <trkpt lat="41.71841" lon="26.18545">
        <ele>92.396393</ele>
        <time>2022-02-26T10:03:00.267Z</time>
      </trkpt>
      <trkpt lat="41.71848" lon="26.18533">
        <ele>92.398324</ele>
        <time>2022-02-26T10:03:03.268Z</time>
      </trkpt>
      <trkpt lat="41.71856" lon="26.18522">
        <ele>92.500254</ele>
        <time>2022-02-26T10:03:06.268Z</time>
      </trkpt>
      <trkpt lat="41.71864" lon="26.1851">
        <ele>92.718207</ele>
        <time>2022-02-26T10:03:09.283Z</time>
      </trkpt>
      <trkpt lat="41.71872" lon="26.18498">
        <ele>92.935655</ele>
        <time>2022-02-26T10:03:12.277Z</time>
      </trkpt>
      <trkpt lat="41.71881" lon="26.18486">
        <ele>93.16438</ele>
        <time>2022-02-26T10:03:15.323Z</time>
      </trkpt>
      <trkpt lat="41.7189" lon="26.18474">
        <ele>93.406984</ele>
        <time>2022-02-26T10:03:18.284Z</time>
      </trkpt>
      <trkpt lat="41.71896" lon="26.18465">
        <ele>93.571735</ele>
        <time>2022-02-26T10:03:20.314Z</time>
      </trkpt>
      <trkpt lat="41.71906" lon="26.18453">
        <ele>93.816952</ele>
        <time>2022-02-26T10:03:23.281Z</time>
      </trkpt>
      <trkpt lat="41.71915" lon="26.18442">
        <ele>94.037963</ele>
        <time>2022-02-26T10:03:26.267Z</time>
      </trkpt>
      <trkpt lat="41.71923" lon="26.18431">
        <ele>94.24471</ele>
        <time>2022-02-26T10:03:29.287Z</time>
      </trkpt>
      <trkpt lat="41.71931" lon="26.18419">
        <ele>94.464704</ele>
        <time>2022-02-26T10:03:32.275Z</time>
      </trkpt>
      <trkpt lat="41.71939" lon="26.18408">
        <ele>94.67823</ele>
        <time>2022-02-26T10:03:35.275Z</time>
      </trkpt>
      <trkpt lat="41.71948" lon="26.18396">
        <ele>94.904417</ele>
        <time>2022-02-26T10:03:38.289Z</time>
      </trkpt>
      <trkpt lat="41.71957" lon="26.18384">
        <ele>95.133777</ele>
        <time>2022-02-26T10:03:41.268Z</time>
      </trkpt>
      <trkpt lat="41.71965" lon="26.18373">
        <ele>95.35672</ele>
        <time>2022-02-26T10:03:44.286Z</time>
      </trkpt>
      <trkpt lat="41.71974" lon="26.18361">
        <ele>95.579291</ele>
        <time>2022-02-26T10:03:47.279Z</time>
      </trkpt>
      <trkpt lat="41.71982" lon="26.18349">
        <ele>95.765611</ele>
        <time>2022-02-26T10:03:50.270Z</time>
      </trkpt>
      <trkpt lat="41.71991" lon="26.18336">
        <ele>95.908041</ele>
        <time>2022-02-26T10:03:53.326Z</time>
      </trkpt>
      <trkpt lat="41.72" lon="26.18324">
        <ele>96.053605</ele>
        <time>2022-02-26T10:03:56.273Z</time>
      </trkpt>
      <trkpt lat="41.72009" lon="26.18311">
        <ele>96.201157</ele>
        <time>2022-02-26T10:03:59.322Z</time>
      </trkpt>
      <trkpt lat="41.72018" lon="26.183">
        <ele>96.338783</ele>
        <time>2022-02-26T10:04:02.301Z</time>
      </trkpt>
      <trkpt lat="41.72026" lon="26.18288">
        <ele>96.478005</ele>
        <time>2022-02-26T10:04:05.316Z</time>
      </trkpt>
      <trkpt lat="41.72035" lon="26.18276">
        <ele>96.616625</ele>
        <time>2022-02-26T10:04:08.301Z</time>
      </trkpt>
      <trkpt lat="41.72043" lon="26.18265">
        <ele>96.746922</ele>
        <time>2022-02-26T10:04:11.291Z</time>
      </trkpt>
      <trkpt lat="41.72051" lon="26.18254">
        <ele>96.877828</ele>
        <time>2022-02-26T10:04:14.282Z</time>
      </trkpt>
      <trkpt lat="41.72059" lon="26.18242">
        <ele>97.014109</ele>
        <time>2022-02-26T10:04:17.293Z</time>
      </trkpt>
      <trkpt lat="41.72068" lon="26.1823">
        <ele>97.155153</ele>
        <time>2022-02-26T10:04:20.296Z</time>
      </trkpt>
      <trkpt lat="41.72076" lon="26.18218">
        <ele>97.29252</ele>
        <time>2022-02-26T10:04:23.303Z</time>
      </trkpt>
      <trkpt lat="41.72082" lon="26.18209">
        <ele>97.394844</ele>
        <time>2022-02-26T10:04:25.268Z</time>
      </trkpt>
      <trkpt lat="41.72089" lon="26.182">
        <ele>97.497939</ele>
        <time>2022-02-26T10:04:27.273Z</time>
      </trkpt>
      <trkpt lat="41.72095" lon="26.18191">
        <ele>97.60126</ele>
        <time>2022-02-26T10:04:29.276Z</time>
      </trkpt>
      <trkpt lat="41.72104" lon="26.18177">
        <ele>97.584926</ele>
        <time>2022-02-26T10:04:32.277Z</time>
      </trkpt>
      <trkpt lat="41.72113" lon="26.18164">
        <ele>96.948157</ele>
        <time>2022-02-26T10:04:35.281Z</time>
      </trkpt>
      <trkpt lat="41.72122" lon="26.18151">
        <ele>96.308752</ele>
        <time>2022-02-26T10:04:38.289Z</time>
      </trkpt>
      <trkpt lat="41.72128" lon="26.18143">
        <ele>95.873437</ele>
        <time>2022-02-26T10:04:40.281Z</time>
      </trkpt>
      <trkpt lat="41.72137" lon="26.18131">
        <ele>95.283723</ele>
        <time>2022-02-26T10:04:43.282Z</time>
      </trkpt>
      <trkpt lat="41.72146" lon="26.18119">
        <ele>94.682844</ele>
        <time>2022-02-26T10:04:46.271Z</time>
      </trkpt>
      <trkpt lat="41.72155" lon="26.18108">
        <ele>94.087157</ele>
        <time>2022-02-26T10:04:49.298Z</time>
      </trkpt>
      <trkpt lat="41.72164" lon="26.18097">
        <ele>93.463957</ele>
        <time>2022-02-26T10:04:52.294Z</time>
      </trkpt>
      <trkpt lat="41.72175" lon="26.18085">
        <ele>92.820225</ele>
        <time>2022-02-26T10:04:55.296Z</time>
      </trkpt>
      <trkpt lat="41.72182" lon="26.18078">
        <ele>92.388972</ele>
        <time>2022-02-26T10:04:57.291Z</time>
      </trkpt>
      <trkpt lat="41.72189" lon="26.18071">
        <ele>91.939229</ele>
        <time>2022-02-26T10:04:59.306Z</time>
      </trkpt>
      <trkpt lat="41.72197" lon="26.18064">
        <ele>91.491512</ele>
        <time>2022-02-26T10:05:01.268Z</time>
      </trkpt>
      <trkpt lat="41.72208" lon="26.18054">
        <ele>90.847888</ele>
        <time>2022-02-26T10:05:04.291Z</time>
      </trkpt>
      <trkpt lat="41.7222" lon="26.18045">
        <ele>90.212456</ele>
        <time>2022-02-26T10:05:07.281Z</time>
      </trkpt>
      <trkpt lat="41.72228" lon="26.18039">
        <ele>89.776496</ele>
        <time>2022-02-26T10:05:09.323Z</time>
      </trkpt>
      <trkpt lat="41.72239" lon="26.18032">
        <ele>89.162672</ele>
        <time>2022-02-26T10:05:12.282Z</time>
      </trkpt>
      <trkpt lat="41.72251" lon="26.18025">
        <ele>89.039818</ele>
        <time>2022-02-26T10:05:15.304Z</time>
      </trkpt>
      <trkpt lat="41.72263" lon="26.18018">
        <ele>89.008913</ele>
        <time>2022-02-26T10:05:18.271Z</time>
      </trkpt>
      <trkpt lat="41.72275" lon="26.18012">
        <ele>88.975938</ele>
        <time>2022-02-26T10:05:21.291Z</time>
      </trkpt>
      <trkpt lat="41.72284" lon="26.18008">
        <ele>88.953524</ele>
        <time>2022-02-26T10:05:23.287Z</time>
      </trkpt>
      <trkpt lat="41.72293" lon="26.18004">
        <ele>88.931163</ele>
        <time>2022-02-26T10:05:25.272Z</time>
      </trkpt>
      <trkpt lat="41.72302" lon="26.18001">
        <ele>88.908214</ele>
        <time>2022-02-26T10:05:27.286Z</time>
      </trkpt>
      <trkpt lat="41.72313" lon="26.17997">
        <ele>88.883089</ele>
        <time>2022-02-26T10:05:29.275Z</time>
      </trkpt>
      <trkpt lat="41.72322" lon="26.17994">
        <ele>88.858693</ele>
        <time>2022-02-26T10:05:31.262Z</time>
      </trkpt>
      <trkpt lat="41.72333" lon="26.17991">
        <ele>88.83383</ele>
        <time>2022-02-26T10:05:33.266Z</time>
      </trkpt>
      <trkpt lat="41.72342" lon="26.17988">
        <ele>88.810429</ele>
        <time>2022-02-26T10:05:35.296Z</time>
      </trkpt>
      <trkpt lat="41.72352" lon="26.17986">
        <ele>88.787353</ele>
        <time>2022-02-26T10:05:37.318Z</time>
      </trkpt>
      <trkpt lat="41.72361" lon="26.17985">
        <ele>88.764638</ele>
        <time>2022-02-26T10:05:39.289Z</time>
      </trkpt>
      <trkpt lat="41.72371" lon="26.17984">
        <ele>88.741484</ele>
        <time>2022-02-26T10:05:41.281Z</time>
      </trkpt>
      <trkpt lat="41.7238" lon="26.17982">
        <ele>88.718093</ele>
        <time>2022-02-26T10:05:43.327Z</time>
      </trkpt>
      <trkpt lat="41.7239" lon="26.17982">
        <ele>88.695502</ele>
        <time>2022-02-26T10:05:45.276Z</time>
      </trkpt>
      <trkpt lat="41.72399" lon="26.17981">
        <ele>88.673174</ele>
        <time>2022-02-26T10:05:47.287Z</time>
      </trkpt>
      <trkpt lat="41.72408" lon="26.17981">
        <ele>88.650612</ele>
        <time>2022-02-26T10:05:49.334Z</time>
      </trkpt>
      <trkpt lat="41.72418" lon="26.17981">
        <ele>88.661885</ele>
        <time>2022-02-26T10:05:51.281Z</time>
      </trkpt>
      <trkpt lat="41.72428" lon="26.17982">
        <ele>88.766842</ele>
        <time>2022-02-26T10:05:53.286Z</time>
      </trkpt>
      <trkpt lat="41.72438" lon="26.17982">
        <ele>88.874981</ele>
        <time>2022-02-26T10:05:55.310Z</time>
      </trkpt>
      <trkpt lat="41.72448" lon="26.17982">
        <ele>88.975805</ele>
        <time>2022-02-26T10:05:57.270Z</time>
      </trkpt>
      <trkpt lat="41.72457" lon="26.17983">
        <ele>89.070372</ele>
        <time>2022-02-26T10:05:59.285Z</time>
      </trkpt>
      <trkpt lat="41.72466" lon="26.17984">
        <ele>89.167125</ele>
        <time>2022-02-26T10:06:01.322Z</time>
      </trkpt>
      <trkpt lat="41.72475" lon="26.17985">
        <ele>89.2619</ele>
        <time>2022-02-26T10:06:03.265Z</time>
      </trkpt>
      <trkpt lat="41.72484" lon="26.17986">
        <ele>89.357558</ele>
        <time>2022-02-26T10:06:05.259Z</time>
      </trkpt>
      <trkpt lat="41.72494" lon="26.17986">
        <ele>89.455411</ele>
        <time>2022-02-26T10:06:07.319Z</time>
      </trkpt>
      <trkpt lat="41.72503" lon="26.17987">
        <ele>89.552012</ele>
        <time>2022-02-26T10:06:09.289Z</time>
      </trkpt>
      <trkpt lat="41.72512" lon="26.17987">
        <ele>89.649724</ele>
        <time>2022-02-26T10:06:11.288Z</time>
      </trkpt>
      <trkpt lat="41.72522" lon="26.17988">
        <ele>89.750775</ele>
        <time>2022-02-26T10:06:13.349Z</time>
      </trkpt>
      <trkpt lat="41.72531" lon="26.17989">
        <ele>89.85055</ele>
        <time>2022-02-26T10:06:15.290Z</time>
      </trkpt>
      <trkpt lat="41.72541" lon="26.1799">
        <ele>89.948303</ele>
        <time>2022-02-26T10:06:17.276Z</time>
      </trkpt>
      <trkpt lat="41.7255" lon="26.1799">
        <ele>90.045953</ele>
        <time>2022-02-26T10:06:19.320Z</time>
      </trkpt>
      <trkpt lat="41.72559" lon="26.1799">
        <ele>90.141504</ele>
        <time>2022-02-26T10:06:21.279Z</time>
      </trkpt>
      <trkpt lat="41.72568" lon="26.17991">
        <ele>90.23721</ele>
        <time>2022-02-26T10:06:23.320Z</time>
      </trkpt>
      <trkpt lat="41.72581" lon="26.17992">
        <ele>90.373863</ele>
        <time>2022-02-26T10:06:26.265Z</time>
      </trkpt>
      <trkpt lat="41.7259" lon="26.17993">
        <ele>90.470464</ele>
        <time>2022-02-26T10:06:28.268Z</time>
      </trkpt>
      <trkpt lat="41.72603" lon="26.17993">
        <ele>90.583359</ele>
        <time>2022-02-26T10:06:31.303Z</time>
      </trkpt>
      <trkpt lat="41.72616" lon="26.17994">
        <ele>90.678725</ele>
        <time>2022-02-26T10:06:34.279Z</time>
      </trkpt>
      <trkpt lat="41.72625" lon="26.17994">
        <ele>90.746278</ele>
        <time>2022-02-26T10:06:36.337Z</time>
      </trkpt>
      <trkpt lat="41.72634" lon="26.17994">
        <ele>90.814639</ele>
        <time>2022-02-26T10:06:38.270Z</time>
      </trkpt>
      <trkpt lat="41.72647" lon="26.17995">
        <ele>90.910097</ele>
        <time>2022-02-26T10:06:41.274Z</time>
      </trkpt>
      <trkpt lat="41.72659" lon="26.17995">
        <ele>90.998683</ele>
        <time>2022-02-26T10:06:44.311Z</time>
      </trkpt>
      <trkpt lat="41.7267" lon="26.17996">
        <ele>91.087316</ele>
        <time>2022-02-26T10:06:47.285Z</time>
      </trkpt>
      <trkpt lat="41.72683" lon="26.17996">
        <ele>91.17818</ele>
        <time>2022-02-26T10:06:50.269Z</time>
      </trkpt>
      <trkpt lat="41.72695" lon="26.17997">
        <ele>91.269112</ele>
        <time>2022-02-26T10:06:53.333Z</time>
      </trkpt>
      <trkpt lat="41.72707" lon="26.17998">
        <ele>91.358545</ele>
        <time>2022-02-26T10:06:56.265Z</time>
      </trkpt>
      <trkpt lat="41.72718" lon="26.17998">
        <ele>91.447201</ele>
        <time>2022-02-26T10:06:59.325Z</time>
      </trkpt>
      <trkpt lat="41.7273" lon="26.17999">
        <ele>91.535108</ele>
        <time>2022-02-26T10:07:02.270Z</time>
      </trkpt>
      <trkpt lat="41.72742" lon="26.18">
        <ele>91.623764</ele>
        <time>2022-02-26T10:07:05.293Z</time>
      </trkpt>
      <trkpt lat="41.72753" lon="26.18">
        <ele>91.706359</ele>
        <time>2022-02-26T10:07:08.286Z</time>
      </trkpt>
      <trkpt lat="41.72764" lon="26.18001">
        <ele>91.789078</ele>
        <time>2022-02-26T10:07:11.274Z</time>
      </trkpt>
      <trkpt lat="41.72775" lon="26.18001">
        <ele>91.8709</ele>
        <time>2022-02-26T10:07:14.284Z</time>
      </trkpt>
      <trkpt lat="41.72786" lon="26.18002">
        <ele>92.232947</ele>
        <time>2022-02-26T10:07:17.262Z</time>
      </trkpt>
      <trkpt lat="41.72798" lon="26.18002">
        <ele>92.606023</ele>
        <time>2022-02-26T10:07:20.254Z</time>
      </trkpt>
      <trkpt lat="41.72808" lon="26.18003">
        <ele>92.947009</ele>
        <time>2022-02-26T10:07:23.252Z</time>
      </trkpt>
      <trkpt lat="41.72819" lon="26.18003">
        <ele>93.294324</ele>
        <time>2022-02-26T10:07:26.254Z</time>
      </trkpt>
      <trkpt lat="41.72829" lon="26.18002">
        <ele>93.610554</ele>
        <time>2022-02-26T10:07:29.253Z</time>
      </trkpt>
      <trkpt lat="41.72839" lon="26.18001">
        <ele>93.926265</ele>
        <time>2022-02-26T10:07:32.258Z</time>
      </trkpt>
      <trkpt lat="41.72849" lon="26.17999">
        <ele>94.275408</ele>
        <time>2022-02-26T10:07:35.252Z</time>
      </trkpt>
      <trkpt lat="41.72861" lon="26.17998">
        <ele>94.634396</ele>
        <time>2022-02-26T10:07:38.265Z</time>
      </trkpt>
      <trkpt lat="41.72871" lon="26.17995">
        <ele>94.977748</ele>
        <time>2022-02-26T10:07:41.253Z</time>
      </trkpt>
      <trkpt lat="41.72881" lon="26.17993">
        <ele>95.301258</ele>
        <time>2022-02-26T10:07:44.295Z</time>
      </trkpt>
      <trkpt lat="41.72891" lon="26.1799">
        <ele>95.631858</ele>
        <time>2022-02-26T10:07:47.254Z</time>
      </trkpt>
      <trkpt lat="41.72901" lon="26.17986">
        <ele>95.967437</ele>
        <time>2022-02-26T10:07:50.255Z</time>
      </trkpt>
      <trkpt lat="41.72911" lon="26.17981">
        <ele>96.303597</ele>
        <time>2022-02-26T10:07:53.259Z</time>
      </trkpt>
      <trkpt lat="41.72921" lon="26.17976">
        <ele>96.645163</ele>
        <time>2022-02-26T10:07:56.250Z</time>
      </trkpt>
      <trkpt lat="41.72931" lon="26.17971">
        <ele>96.981514</ele>
        <time>2022-02-26T10:07:59.259Z</time>
      </trkpt>
      <trkpt lat="41.72941" lon="26.17967">
        <ele>97.318498</ele>
        <time>2022-02-26T10:08:02.252Z</time>
      </trkpt>
      <trkpt lat="41.7295" lon="26.17963">
        <ele>97.652399</ele>
        <time>2022-02-26T10:08:05.249Z</time>
      </trkpt>
      <trkpt lat="41.7296" lon="26.17957">
        <ele>98.226346</ele>
        <time>2022-02-26T10:08:08.251Z</time>
      </trkpt>
      <trkpt lat="41.72968" lon="26.17951">
        <ele>98.753488</ele>
        <time>2022-02-26T10:08:11.267Z</time>
      </trkpt>
      <trkpt lat="41.72976" lon="26.17945">
        <ele>99.281646</ele>
        <time>2022-02-26T10:08:14.262Z</time>
      </trkpt>
      <trkpt lat="41.72985" lon="26.17939">
        <ele>99.846724</ele>
        <time>2022-02-26T10:08:17.282Z</time>
      </trkpt>
      <trkpt lat="41.72993" lon="26.17932">
        <ele>100.362288</ele>
        <time>2022-02-26T10:08:20.249Z</time>
      </trkpt>
      <trkpt lat="41.73003" lon="26.17924">
        <ele>101.01741</ele>
        <time>2022-02-26T10:08:24.253Z</time>
      </trkpt>
      <trkpt lat="41.73012" lon="26.17916">
        <ele>101.625737</ele>
        <time>2022-02-26T10:08:28.251Z</time>
      </trkpt>
      <trkpt lat="41.73021" lon="26.17908">
        <ele>102.269015</ele>
        <time>2022-02-26T10:08:32.257Z</time>
      </trkpt>
      <trkpt lat="41.73028" lon="26.179">
        <ele>102.784394</ele>
        <time>2022-02-26T10:08:35.267Z</time>
      </trkpt>
      <trkpt lat="41.73037" lon="26.1789">
        <ele>103.435772</ele>
        <time>2022-02-26T10:08:39.254Z</time>
      </trkpt>
      <trkpt lat="41.73045" lon="26.17879">
        <ele>104.06739</ele>
        <time>2022-02-26T10:08:43.260Z</time>
      </trkpt>
      <trkpt lat="41.73051" lon="26.17871">
        <ele>104.574832</ele>
        <time>2022-02-26T10:08:46.263Z</time>
      </trkpt>
      <trkpt lat="41.7306" lon="26.1786">
        <ele>105.226344</ele>
        <time>2022-02-26T10:08:50.281Z</time>
      </trkpt>
      <trkpt lat="41.73066" lon="26.17851">
        <ele>105.747706</ele>
        <time>2022-02-26T10:08:53.257Z</time>
      </trkpt>
      <trkpt lat="41.73074" lon="26.17841">
        <ele>106.327726</ele>
        <time>2022-02-26T10:08:57.260Z</time>
      </trkpt>
      <trkpt lat="41.7308" lon="26.17833">
        <ele>106.842126</ele>
        <time>2022-02-26T10:09:01.253Z</time>
      </trkpt>
      <trkpt lat="41.73087" lon="26.17824">
        <ele>107.372404</ele>
        <time>2022-02-26T10:09:05.262Z</time>
      </trkpt>
      <trkpt lat="41.73093" lon="26.17815">
        <ele>107.886786</ele>
        <time>2022-02-26T10:09:09.253Z</time>
      </trkpt>
      <trkpt lat="41.73102" lon="26.17804">
        <ele>108.393912</ele>
        <time>2022-02-26T10:09:14.257Z</time>
      </trkpt>
      <trkpt lat="41.73108" lon="26.17795">
        <ele>108.83488</ele>
        <time>2022-02-26T10:09:18.254Z</time>
      </trkpt>
      <trkpt lat="41.73116" lon="26.17785">
        <ele>109.307336</ele>
        <time>2022-02-26T10:09:23.256Z</time>
      </trkpt>
      <trkpt lat="41.73123" lon="26.17774">
        <ele>109.805281</ele>
        <time>2022-02-26T10:09:28.253Z</time>
      </trkpt>
      <trkpt lat="41.73131" lon="26.17764">
        <ele>110.292826</ele>
        <time>2022-02-26T10:09:33.252Z</time>
      </trkpt>
      <trkpt lat="41.73137" lon="26.17755">
        <ele>110.714047</ele>
        <time>2022-02-26T10:09:37.249Z</time>
      </trkpt>
      <trkpt lat="41.73146" lon="26.17744">
        <ele>111.23436</ele>
        <time>2022-02-26T10:09:42.271Z</time>
      </trkpt>
      <trkpt lat="41.73154" lon="26.17734">
        <ele>111.733564</ele>
        <time>2022-02-26T10:09:47.259Z</time>
      </trkpt>
      <trkpt lat="41.73162" lon="26.17725">
        <ele>112.24307</ele>
        <time>2022-02-26T10:09:52.278Z</time>
      </trkpt>
      <trkpt lat="41.73169" lon="26.17715">
        <ele>112.693091</ele>
        <time>2022-02-26T10:09:57.256Z</time>
      </trkpt>
      <trkpt lat="41.73176" lon="26.17707">
        <ele>113.10475</ele>
        <time>2022-02-26T10:10:02.255Z</time>
      </trkpt>
      <trkpt lat="41.73183" lon="26.17699">
        <ele>113.521661</ele>
        <time>2022-02-26T10:10:07.256Z</time>
      </trkpt>
      <trkpt lat="41.7319" lon="26.1769">
        <ele>113.971277</ele>
        <time>2022-02-26T10:10:12.253Z</time>
      </trkpt>
      <trkpt lat="41.73197" lon="26.1768">
        <ele>114.436446</ele>
        <time>2022-02-26T10:10:18.258Z</time>
      </trkpt>
      <trkpt lat="41.73204" lon="26.17671">
        <ele>114.852857</ele>
        <time>2022-02-26T10:10:24.255Z</time>
      </trkpt>
      <trkpt lat="41.73211" lon="26.17661">
        <ele>115.328581</ele>
        <time>2022-02-26T10:10:31.258Z</time>
      </trkpt>
      <trkpt lat="41.73218" lon="26.17651">
        <ele>115.779702</ele>
        <time>2022-02-26T10:10:37.262Z</time>
      </trkpt>
      <trkpt lat="41.73224" lon="26.17642">
        <ele>115.93484</ele>
        <time>2022-02-26T10:10:42.257Z</time>
      </trkpt>
      <trkpt lat="41.73231" lon="26.17633">
        <ele>115.93253</ele>
        <time>2022-02-26T10:10:47.259Z</time>
      </trkpt>
      <trkpt lat="41.73238" lon="26.17623">
        <ele>115.93006</ele>
        <time>2022-02-26T10:10:53.260Z</time>
      </trkpt>
      <trkpt lat="41.73246" lon="26.17613">
        <ele>115.927636</ele>
        <time>2022-02-26T10:10:59.260Z</time>
      </trkpt>
      <trkpt lat="41.73254" lon="26.17604">
        <ele>115.92512</ele>
        <time>2022-02-26T10:11:05.259Z</time>
      </trkpt>
      <trkpt lat="41.73261" lon="26.17595">
        <ele>115.922837</ele>
        <time>2022-02-26T10:11:11.252Z</time>
      </trkpt>
      <trkpt lat="41.73268" lon="26.17585">
        <ele>115.920362</ele>
        <time>2022-02-26T10:11:17.298Z</time>
      </trkpt>
      <trkpt lat="41.73276" lon="26.17575">
        <ele>115.917922</ele>
        <time>2022-02-26T10:11:23.250Z</time>
      </trkpt>
      <trkpt lat="41.73283" lon="26.17565">
        <ele>115.915407</ele>
        <time>2022-02-26T10:11:29.254Z</time>
      </trkpt>
      <trkpt lat="41.73289" lon="26.17556">
        <ele>115.913192</ele>
        <time>2022-02-26T10:11:34.256Z</time>
      </trkpt>
      <trkpt lat="41.73297" lon="26.17546">
        <ele>115.91066</ele>
        <time>2022-02-26T10:11:40.258Z</time>
      </trkpt>
      <trkpt lat="41.73304" lon="26.17538">
        <ele>115.908473</ele>
        <time>2022-02-26T10:11:45.251Z</time>
      </trkpt>
      <trkpt lat="41.73311" lon="26.17529">
        <ele>115.906315</ele>
        <time>2022-02-26T10:11:49.249Z</time>
      </trkpt>
      <trkpt lat="41.73318" lon="26.17519">
        <ele>115.903785</ele>
        <time>2022-02-26T10:11:53.259Z</time>
      </trkpt>
      <trkpt lat="41.73325" lon="26.17511">
        <ele>115.901656</ele>
        <time>2022-02-26T10:11:57.255Z</time>
      </trkpt>
      <trkpt lat="41.73331" lon="26.17502">
        <ele>115.899466</ele>
        <time>2022-02-26T10:12:01.278Z</time>
      </trkpt>
      <trkpt lat="41.73338" lon="26.17494">
        <ele>115.897293</ele>
        <time>2022-02-26T10:12:05.247Z</time>
      </trkpt>
      <trkpt lat="41.73346" lon="26.17483">
        <ele>115.894617</ele>
        <time>2022-02-26T10:12:10.253Z</time>
      </trkpt>
      <trkpt lat="41.73353" lon="26.17473">
        <ele>116.014021</ele>
        <time>2022-02-26T10:12:14.256Z</time>
      </trkpt>
      <trkpt lat="41.73361" lon="26.17463">
        <ele>116.208919</ele>
        <time>2022-02-26T10:12:18.271Z</time>
      </trkpt>
      <trkpt lat="41.73368" lon="26.17453">
        <ele>116.405123</ele>
        <time>2022-02-26T10:12:22.264Z</time>
      </trkpt>
      <trkpt lat="41.73375" lon="26.17443">
        <ele>116.589388</ele>
        <time>2022-02-26T10:12:26.248Z</time>
      </trkpt>
      <trkpt lat="41.73384" lon="26.17433">
        <ele>116.796015</ele>
        <time>2022-02-26T10:12:30.282Z</time>
      </trkpt>
      <trkpt lat="41.73392" lon="26.17421">
        <ele>117.015223</ele>
        <time>2022-02-26T10:12:34.248Z</time>
      </trkpt>
      <trkpt lat="41.73399" lon="26.17413">
        <ele>117.184699</ele>
        <time>2022-02-26T10:12:37.260Z</time>
      </trkpt>
      <trkpt lat="41.73406" lon="26.17405">
        <ele>117.354624</ele>
        <time>2022-02-26T10:12:40.255Z</time>
      </trkpt>
      <trkpt lat="41.73413" lon="26.17396">
        <ele>117.528651</ele>
        <time>2022-02-26T10:12:43.247Z</time>
      </trkpt>
      <trkpt lat="41.73421" lon="26.17387">
        <ele>117.715338</ele>
        <time>2022-02-26T10:12:46.250Z</time>
      </trkpt>
      <trkpt lat="41.73428" lon="26.17377">
        <ele>117.909487</ele>
        <time>2022-02-26T10:12:49.255Z</time>
      </trkpt>
      <trkpt lat="41.73437" lon="26.17367">
        <ele>118.110724</ele>
        <time>2022-02-26T10:12:52.248Z</time>
      </trkpt>
      <trkpt lat="41.73445" lon="26.17356">
        <ele>118.320301</ele>
        <time>2022-02-26T10:12:55.246Z</time>
      </trkpt>
      <trkpt lat="41.73453" lon="26.17345">
        <ele>118.538331</ele>
        <time>2022-02-26T10:12:58.252Z</time>
      </trkpt>
      <trkpt lat="41.73462" lon="26.17335">
        <ele>118.754502</ele>
        <time>2022-02-26T10:13:01.264Z</time>
      </trkpt>
      <trkpt lat="41.73471" lon="26.17323">
        <ele>118.979506</ele>
        <time>2022-02-26T10:13:04.256Z</time>
      </trkpt>
      <trkpt lat="41.7348" lon="26.17311">
        <ele>119.142131</ele>
        <time>2022-02-26T10:13:07.253Z</time>
      </trkpt>
      <trkpt lat="41.73489" lon="26.17299">
        <ele>118.947368</ele>
        <time>2022-02-26T10:13:10.254Z</time>
      </trkpt>
      <trkpt lat="41.73499" lon="26.17287">
        <ele>118.760862</ele>
        <time>2022-02-26T10:13:13.257Z</time>
      </trkpt>
      <trkpt lat="41.73508" lon="26.17276">
        <ele>118.576039</ele>
        <time>2022-02-26T10:13:16.249Z</time>
      </trkpt>
      <trkpt lat="41.73516" lon="26.17265">
        <ele>118.405751</ele>
        <time>2022-02-26T10:13:19.247Z</time>
      </trkpt>
      <trkpt lat="41.73524" lon="26.17255">
        <ele>118.235782</ele>
        <time>2022-02-26T10:13:22.251Z</time>
      </trkpt>
      <trkpt lat="41.73531" lon="26.17245">
        <ele>118.083887</ele>
        <time>2022-02-26T10:13:25.253Z</time>
      </trkpt>
      <trkpt lat="41.73539" lon="26.17236">
        <ele>117.936087</ele>
        <time>2022-02-26T10:13:28.257Z</time>
      </trkpt>
      <trkpt lat="41.73546" lon="26.17227">
        <ele>117.789421</ele>
        <time>2022-02-26T10:13:31.244Z</time>
      </trkpt>
      <trkpt lat="41.73553" lon="26.17219">
        <ele>117.653811</ele>
        <time>2022-02-26T10:13:34.263Z</time>
      </trkpt>
      <trkpt lat="41.73561" lon="26.17209">
        <ele>117.48761</ele>
        <time>2022-02-26T10:13:38.284Z</time>
      </trkpt>
      <trkpt lat="41.73569" lon="26.17199">
        <ele>117.331702</ele>
        <time>2022-02-26T10:13:42.251Z</time>
      </trkpt>
      <trkpt lat="41.73577" lon="26.17188">
        <ele>117.160327</ele>
        <time>2022-02-26T10:13:46.252Z</time>
      </trkpt>
      <trkpt lat="41.73586" lon="26.17177">
        <ele>116.985156</ele>
        <time>2022-02-26T10:13:50.274Z</time>
      </trkpt>
      <trkpt lat="41.73595" lon="26.17167">
        <ele>116.809006</ele>
        <time>2022-02-26T10:13:54.255Z</time>
      </trkpt>
      <trkpt lat="41.73603" lon="26.17157">
        <ele>116.646071</ele>
        <time>2022-02-26T10:13:58.255Z</time>
      </trkpt>
      <trkpt lat="41.7361" lon="26.17148">
        <ele>116.508759</ele>
        <time>2022-02-26T10:14:01.279Z</time>
      </trkpt>
      <trkpt lat="41.73617" lon="26.17138">
        <ele>116.660591</ele>
        <time>2022-02-26T10:14:04.255Z</time>
      </trkpt>
      <trkpt lat="41.73626" lon="26.17128">
        <ele>116.823216</ele>
        <time>2022-02-26T10:14:07.251Z</time>
      </trkpt>
      <trkpt lat="41.73634" lon="26.17117">
        <ele>116.994996</ele>
        <time>2022-02-26T10:14:10.250Z</time>
      </trkpt>
      <trkpt lat="41.73643" lon="26.17107">
        <ele>117.166015</ele>
        <time>2022-02-26T10:14:13.282Z</time>
      </trkpt>
      <trkpt lat="41.73652" lon="26.17097">
        <ele>117.326507</ele>
        <time>2022-02-26T10:14:16.254Z</time>
      </trkpt>
      <trkpt lat="41.7366" lon="26.17089">
        <ele>117.473682</ele>
        <time>2022-02-26T10:14:19.263Z</time>
      </trkpt>
      <trkpt lat="41.73667" lon="26.1708">
        <ele>117.619877</ele>
        <time>2022-02-26T10:14:22.245Z</time>
      </trkpt>
      <trkpt lat="41.73674" lon="26.17072">
        <ele>117.753359</ele>
        <time>2022-02-26T10:14:25.251Z</time>
      </trkpt>
      <trkpt lat="41.73683" lon="26.17062">
        <ele>117.922859</ele>
        <time>2022-02-26T10:14:29.251Z</time>
      </trkpt>
      <trkpt lat="41.7369" lon="26.17053">
        <ele>118.062456</ele>
        <time>2022-02-26T10:14:32.259Z</time>
      </trkpt>
      <trkpt lat="41.73698" lon="26.17044">
        <ele>118.209251</ele>
        <time>2022-02-26T10:14:35.268Z</time>
      </trkpt>
      <trkpt lat="41.73705" lon="26.17035">
        <ele>118.350131</ele>
        <time>2022-02-26T10:14:38.251Z</time>
      </trkpt>
      <trkpt lat="41.73712" lon="26.17025">
        <ele>118.495914</ele>
        <time>2022-02-26T10:14:41.255Z</time>
      </trkpt>
      <trkpt lat="41.73719" lon="26.17016">
        <ele>118.637824</ele>
        <time>2022-02-26T10:14:44.258Z</time>
      </trkpt>
      <trkpt lat="41.73725" lon="26.17005">
        <ele>118.785857</ele>
        <time>2022-02-26T10:14:47.282Z</time>
      </trkpt>
      <trkpt lat="41.7373" lon="26.16994">
        <ele>118.929243</ele>
        <time>2022-02-26T10:14:50.251Z</time>
      </trkpt>
      <trkpt lat="41.73735" lon="26.16982">
        <ele>119.074949</ele>
        <time>2022-02-26T10:14:53.253Z</time>
      </trkpt>
      <trkpt lat="41.73739" lon="26.1697">
        <ele>119.49159</ele>
        <time>2022-02-26T10:14:56.263Z</time>
      </trkpt>
      <trkpt lat="41.73743" lon="26.16959">
        <ele>119.965552</ele>
        <time>2022-02-26T10:14:59.264Z</time>
      </trkpt>
      <trkpt lat="41.73749" lon="26.16945">
        <ele>120.573649</ele>
        <time>2022-02-26T10:15:03.280Z</time>
      </trkpt>
      <trkpt lat="41.73756" lon="26.16937">
        <ele>121.040026</ele>
        <time>2022-02-26T10:15:06.283Z</time>
      </trkpt>
      <trkpt lat="41.73762" lon="26.16929">
        <ele>121.512792</ele>
        <time>2022-02-26T10:15:09.281Z</time>
      </trkpt>
      <trkpt lat="41.73771" lon="26.1692">
        <ele>122.056517</ele>
        <time>2022-02-26T10:15:13.262Z</time>
      </trkpt>
      <trkpt lat="41.73778" lon="26.1691">
        <ele>122.585654</ele>
        <time>2022-02-26T10:15:17.271Z</time>
      </trkpt>
      <trkpt lat="41.73786" lon="26.169">
        <ele>123.149365</ele>
        <time>2022-02-26T10:15:22.279Z</time>
      </trkpt>
      <trkpt lat="41.73794" lon="26.16891">
        <ele>123.691542</ele>
        <time>2022-02-26T10:15:27.279Z</time>
      </trkpt>
      <trkpt lat="41.73801" lon="26.16883">
        <ele>124.164205</ele>
        <time>2022-02-26T10:15:32.321Z</time>
      </trkpt>
      <trkpt lat="41.73808" lon="26.16875">
        <ele>124.649325</ele>
        <time>2022-02-26T10:15:38.273Z</time>
      </trkpt>
      <trkpt lat="41.73824" lon="26.1686">
        <ele>125.637137</ele>
        <time>2022-02-26T10:18:39.288Z</time>
      </trkpt>
      <trkpt lat="41.73831" lon="26.16852">
        <ele>126.115115</ele>
        <time>2022-02-26T10:18:48.281Z</time>
      </trkpt>
      <trkpt lat="41.73838" lon="26.16844">
        <ele>126.58526</ele>
        <time>2022-02-26T10:18:57.277Z</time>
      </trkpt>
      <trkpt lat="41.73847" lon="26.16832">
        <ele>127.270728</ele>
        <time>2022-02-26T10:20:52.262Z</time>
      </trkpt>
      <trkpt lat="41.73858" lon="26.16824">
        <ele>127.893846</ele>
        <time>2022-02-26T10:20:55.284Z</time>
      </trkpt>
      <trkpt lat="41.73867" lon="26.1682">
        <ele>128.355143</ele>
        <time>2022-02-26T10:20:57.249Z</time>
      </trkpt>
      <trkpt lat="41.73878" lon="26.16822">
        <ele>127.888311</ele>
        <time>2022-02-26T10:21:02.252Z</time>
      </trkpt>
      <trkpt lat="41.73887" lon="26.16828">
        <ele>127.449102</ele>
        <time>2022-02-26T10:21:05.253Z</time>
      </trkpt>
      <trkpt lat="41.73897" lon="26.16832">
        <ele>126.939436</ele>
        <time>2022-02-26T10:21:08.253Z</time>
      </trkpt>
      <trkpt lat="41.73907" lon="26.16829">
        <ele>126.500814</ele>
        <time>2022-02-26T10:21:11.253Z</time>
      </trkpt>
      <trkpt lat="41.73912" lon="26.16818">
        <ele>126.045728</ele>
        <time>2022-02-26T10:21:14.251Z</time>
      </trkpt>
      <trkpt lat="41.73918" lon="26.16806">
        <ele>125.559851</ele>
        <time>2022-02-26T10:21:18.263Z</time>
      </trkpt>
      <trkpt lat="41.73925" lon="26.16797">
        <ele>125.13547</ele>
        <time>2022-02-26T10:21:22.252Z</time>
      </trkpt>
      <trkpt lat="41.73936" lon="26.16782">
        <ele>124.397651</ele>
        <time>2022-02-26T10:23:11.271Z</time>
      </trkpt>
      <trkpt lat="41.73943" lon="26.16773">
        <ele>123.972598</ele>
        <time>2022-02-26T10:23:15.260Z</time>
      </trkpt>
      <trkpt lat="41.73951" lon="26.16764">
        <ele>123.507894</ele>
        <time>2022-02-26T10:23:19.263Z</time>
      </trkpt>
      <trkpt lat="41.73959" lon="26.16754">
        <ele>123.005375</ele>
        <time>2022-02-26T10:23:23.251Z</time>
      </trkpt>
      <trkpt lat="41.73964" lon="26.16743">
        <ele>122.587836</ele>
        <time>2022-02-26T10:23:26.256Z</time>
      </trkpt>
      <trkpt lat="41.73967" lon="26.16731">
        <ele>122.148139</ele>
        <time>2022-02-26T10:23:29.268Z</time>
      </trkpt>
      <trkpt lat="41.73971" lon="26.1672">
        <ele>121.728968</ele>
        <time>2022-02-26T10:23:32.247Z</time>
      </trkpt>
      <trkpt lat="41.73979" lon="26.16708">
        <ele>121.198843</ele>
        <time>2022-02-26T10:23:36.275Z</time>
      </trkpt>
      <trkpt lat="41.73986" lon="26.16699">
        <ele>120.75906</ele>
        <time>2022-02-26T10:23:39.251Z</time>
      </trkpt>
      <trkpt lat="41.73995" lon="26.1669">
        <ele>120.261276</ele>
        <time>2022-02-26T10:23:42.277Z</time>
      </trkpt>
      <trkpt lat="41.74003" lon="26.16681">
        <ele>119.811838</ele>
        <time>2022-02-26T10:23:45.263Z</time>
      </trkpt>
      <trkpt lat="41.74012" lon="26.16672">
        <ele>119.364806</ele>
        <time>2022-02-26T10:23:48.250Z</time>
      </trkpt>
      <trkpt lat="41.74021" lon="26.16665">
        <ele>118.917198</ele>
        <time>2022-02-26T10:23:51.250Z</time>
      </trkpt>
      <trkpt lat="41.74031" lon="26.16657">
        <ele>118.459327</ele>
        <time>2022-02-26T10:23:54.252Z</time>
      </trkpt>
      <trkpt lat="41.7404" lon="26.1665">
        <ele>118.022828</ele>
        <time>2022-02-26T10:23:57.246Z</time>
      </trkpt>
      <trkpt lat="41.7405" lon="26.16643">
        <ele>117.544852</ele>
        <time>2022-02-26T10:24:00.262Z</time>
      </trkpt>
      <trkpt lat="41.7406" lon="26.16638">
        <ele>117.09228</ele>
        <time>2022-02-26T10:24:03.251Z</time>
      </trkpt>
      <trkpt lat="41.74072" lon="26.16632">
        <ele>116.586296</ele>
        <time>2022-02-26T10:24:06.246Z</time>
      </trkpt>
      <trkpt lat="41.74084" lon="26.16627">
        <ele>116.052175</ele>
        <time>2022-02-26T10:24:09.267Z</time>
      </trkpt>
      <trkpt lat="41.74097" lon="26.16622">
        <ele>115.484409</ele>
        <time>2022-02-26T10:24:12.246Z</time>
      </trkpt>
      <trkpt lat="41.74107" lon="26.16618">
        <ele>115.088182</ele>
        <time>2022-02-26T10:24:14.255Z</time>
      </trkpt>
      <trkpt lat="41.74116" lon="26.16615">
        <ele>114.703643</ele>
        <time>2022-02-26T10:24:16.246Z</time>
      </trkpt>
      <trkpt lat="41.74125" lon="26.16613">
        <ele>114.331242</ele>
        <time>2022-02-26T10:24:18.248Z</time>
      </trkpt>
      <trkpt lat="41.74138" lon="26.1661">
        <ele>113.790515</ele>
        <time>2022-02-26T10:24:21.267Z</time>
      </trkpt>
      <trkpt lat="41.74148" lon="26.16609">
        <ele>113.376701</ele>
        <time>2022-02-26T10:24:23.263Z</time>
      </trkpt>
      <trkpt lat="41.74159" lon="26.16608">
        <ele>112.917606</ele>
        <time>2022-02-26T10:24:25.255Z</time>
      </trkpt>
      <trkpt lat="41.74169" lon="26.16608">
        <ele>112.574741</ele>
        <time>2022-02-26T10:24:27.249Z</time>
      </trkpt>
      <trkpt lat="41.7418" lon="26.16608">
        <ele>112.258671</ele>
        <time>2022-02-26T10:24:29.252Z</time>
      </trkpt>
      <trkpt lat="41.74191" lon="26.16608">
        <ele>111.936736</ele>
        <time>2022-02-26T10:24:31.246Z</time>
      </trkpt>
      <trkpt lat="41.74203" lon="26.16608">
        <ele>111.591642</ele>
        <time>2022-02-26T10:24:33.249Z</time>
      </trkpt>
      <trkpt lat="41.74215" lon="26.16609">
        <ele>111.255211</ele>
        <time>2022-02-26T10:24:35.263Z</time>
      </trkpt>
      <trkpt lat="41.74226" lon="26.1661">
        <ele>110.929858</ele>
        <time>2022-02-26T10:24:37.253Z</time>
      </trkpt>
      <trkpt lat="41.74238" lon="26.1661">
        <ele>110.590342</ele>
        <time>2022-02-26T10:24:39.249Z</time>
      </trkpt>
      <trkpt lat="41.7425" lon="26.1661">
        <ele>110.236569</ele>
        <time>2022-02-26T10:24:41.250Z</time>
      </trkpt>
      <trkpt lat="41.74263" lon="26.16611">
        <ele>109.868246</ele>
        <time>2022-02-26T10:24:43.249Z</time>
      </trkpt>
      <trkpt lat="41.74275" lon="26.16611">
        <ele>109.502855</ele>
        <time>2022-02-26T10:24:45.253Z</time>
      </trkpt>
      <trkpt lat="41.74288" lon="26.16612">
        <ele>109.148665</ele>
        <time>2022-02-26T10:24:47.250Z</time>
      </trkpt>
      <trkpt lat="41.743" lon="26.16612">
        <ele>108.783274</ele>
        <time>2022-02-26T10:24:49.249Z</time>
      </trkpt>
      <trkpt lat="41.74313" lon="26.16612">
        <ele>108.406254</ele>
        <time>2022-02-26T10:24:51.256Z</time>
      </trkpt>
      <trkpt lat="41.74326" lon="26.16612">
        <ele>108.040888</ele>
        <time>2022-02-26T10:24:53.258Z</time>
      </trkpt>
      <trkpt lat="41.74339" lon="26.16613">
        <ele>107.660926</ele>
        <time>2022-02-26T10:24:55.249Z</time>
      </trkpt>
      <trkpt lat="41.74353" lon="26.16613">
        <ele>106.990345</ele>
        <time>2022-02-26T10:24:57.251Z</time>
      </trkpt>
      <trkpt lat="41.74366" lon="26.16613">
        <ele>106.285119</ele>
        <time>2022-02-26T10:24:59.250Z</time>
      </trkpt>
      <trkpt lat="41.74379" lon="26.16614">
        <ele>105.620836</ele>
        <time>2022-02-26T10:25:01.250Z</time>
      </trkpt>
      <trkpt lat="41.74393" lon="26.16614">
        <ele>104.925427</ele>
        <time>2022-02-26T10:25:03.279Z</time>
      </trkpt>
      <trkpt lat="41.74407" lon="26.16615">
        <ele>104.209443</ele>
        <time>2022-02-26T10:25:05.253Z</time>
      </trkpt>
      <trkpt lat="41.7442" lon="26.16616">
        <ele>103.518835</ele>
        <time>2022-02-26T10:25:07.250Z</time>
      </trkpt>
      <trkpt lat="41.74433" lon="26.16616">
        <ele>102.880382</ele>
        <time>2022-02-26T10:25:09.253Z</time>
      </trkpt>
      <trkpt lat="41.74444" lon="26.16617">
        <ele>102.278034</ele>
        <time>2022-02-26T10:25:11.251Z</time>
      </trkpt>
      <trkpt lat="41.74456" lon="26.16617">
        <ele>101.696272</ele>
        <time>2022-02-26T10:25:13.249Z</time>
      </trkpt>
      <trkpt lat="41.74468" lon="26.16617">
        <ele>101.07858</ele>
        <time>2022-02-26T10:25:15.253Z</time>
      </trkpt>
      <trkpt lat="41.74479" lon="26.16617">
        <ele>100.47633</ele>
        <time>2022-02-26T10:25:17.250Z</time>
      </trkpt>
      <trkpt lat="41.74492" lon="26.16616">
        <ele>99.843104</ele>
        <time>2022-02-26T10:25:19.251Z</time>
      </trkpt>
      <trkpt lat="41.74504" lon="26.16617">
        <ele>99.178388</ele>
        <time>2022-02-26T10:25:21.245Z</time>
      </trkpt>
      <trkpt lat="41.74518" lon="26.16618">
        <ele>98.457506</ele>
        <time>2022-02-26T10:25:23.251Z</time>
      </trkpt>
      <trkpt lat="41.74533" lon="26.16618">
        <ele>97.751131</ele>
        <time>2022-02-26T10:25:25.254Z</time>
      </trkpt>
      <trkpt lat="41.74549" lon="26.16618">
        <ele>97.022555</ele>
        <time>2022-02-26T10:25:27.245Z</time>
      </trkpt>
      <trkpt lat="41.74565" lon="26.16619">
        <ele>96.293313</ele>
        <time>2022-02-26T10:25:29.249Z</time>
      </trkpt>
      <trkpt lat="41.7458" lon="26.1662">
        <ele>95.587401</ele>
        <time>2022-02-26T10:25:31.263Z</time>
      </trkpt>
      <trkpt lat="41.74594" lon="26.1662">
        <ele>94.895976</ele>
        <time>2022-02-26T10:25:33.260Z</time>
      </trkpt>
      <trkpt lat="41.7461" lon="26.16621">
        <ele>94.1899</ele>
        <time>2022-02-26T10:25:35.261Z</time>
      </trkpt>
      <trkpt lat="41.74623" lon="26.16622">
        <ele>93.539794</ele>
        <time>2022-02-26T10:25:37.246Z</time>
      </trkpt>
      <trkpt lat="41.74637" lon="26.16623">
        <ele>92.926992</ele>
        <time>2022-02-26T10:25:39.250Z</time>
      </trkpt>
      <trkpt lat="41.7465" lon="26.16625">
        <ele>92.308585</ele>
        <time>2022-02-26T10:25:41.273Z</time>
      </trkpt>
      <trkpt lat="41.74663" lon="26.16626">
        <ele>91.694547</ele>
        <time>2022-02-26T10:25:43.250Z</time>
      </trkpt>
      <trkpt lat="41.74676" lon="26.16627">
        <ele>91.07242</ele>
        <time>2022-02-26T10:25:45.252Z</time>
      </trkpt>
      <trkpt lat="41.74689" lon="26.16628">
        <ele>90.459183</ele>
        <time>2022-02-26T10:25:47.252Z</time>
      </trkpt>
      <trkpt lat="41.74702" lon="26.1663">
        <ele>89.877587</ele>
        <time>2022-02-26T10:25:49.259Z</time>
      </trkpt>
      <trkpt lat="41.74714" lon="26.16632">
        <ele>89.35333</ele>
        <time>2022-02-26T10:25:51.286Z</time>
      </trkpt>
      <trkpt lat="41.74728" lon="26.16633">
        <ele>88.797477</ele>
        <time>2022-02-26T10:25:53.256Z</time>
      </trkpt>
      <trkpt lat="41.74741" lon="26.16634">
        <ele>88.23771</ele>
        <time>2022-02-26T10:25:55.252Z</time>
      </trkpt>
      <trkpt lat="41.74754" lon="26.16635">
        <ele>87.731597</ele>
        <time>2022-02-26T10:25:57.249Z</time>
      </trkpt>
      <trkpt lat="41.74763" lon="26.16636">
        <ele>87.329849</ele>
        <time>2022-02-26T10:25:59.254Z</time>
      </trkpt>
      <trkpt lat="41.74775" lon="26.16637">
        <ele>86.824151</ele>
        <time>2022-02-26T10:26:02.256Z</time>
      </trkpt>
      <trkpt lat="41.74788" lon="26.16638">
        <ele>86.30875</ele>
        <time>2022-02-26T10:26:05.267Z</time>
      </trkpt>
      <trkpt lat="41.74797" lon="26.1664">
        <ele>85.921558</ele>
        <time>2022-02-26T10:26:08.249Z</time>
      </trkpt>
      <trkpt lat="41.7482" lon="26.16641">
        <ele>84.960982</ele>
        <time>2022-02-26T10:28:48.306Z</time>
      </trkpt>
      <trkpt lat="41.74832" lon="26.16643">
        <ele>84.480793</ele>
        <time>2022-02-26T10:28:52.261Z</time>
      </trkpt>
      <trkpt lat="41.74842" lon="26.16644">
        <ele>84.069236</ele>
        <time>2022-02-26T10:28:55.277Z</time>
      </trkpt>
      <trkpt lat="41.74852" lon="26.16646">
        <ele>83.640905</ele>
        <time>2022-02-26T10:28:58.280Z</time>
      </trkpt>
      <trkpt lat="41.74864" lon="26.16646">
        <ele>83.164861</ele>
        <time>2022-02-26T10:29:01.275Z</time>
      </trkpt>
      <trkpt lat="41.74875" lon="26.16647">
        <ele>82.697179</ele>
        <time>2022-02-26T10:29:04.294Z</time>
      </trkpt>
      <trkpt lat="41.74887" lon="26.16647">
        <ele>82.731848</ele>
        <time>2022-02-26T10:29:07.283Z</time>
      </trkpt>
      <trkpt lat="41.74899" lon="26.16647">
        <ele>83.10005</ele>
        <time>2022-02-26T10:29:10.271Z</time>
      </trkpt>
      <trkpt lat="41.74911" lon="26.16648">
        <ele>83.477703</ele>
        <time>2022-02-26T10:29:13.285Z</time>
      </trkpt>
      <trkpt lat="41.74924" lon="26.16648">
        <ele>83.867665</ele>
        <time>2022-02-26T10:29:16.328Z</time>
      </trkpt>
      <trkpt lat="41.74937" lon="26.16649">
        <ele>84.279591</ele>
        <time>2022-02-26T10:29:19.294Z</time>
      </trkpt>
      <trkpt lat="41.7495" lon="26.1665">
        <ele>84.69175</ele>
        <time>2022-02-26T10:29:22.281Z</time>
      </trkpt>
      <trkpt lat="41.74963" lon="26.16651">
        <ele>85.079197</ele>
        <time>2022-02-26T10:29:25.276Z</time>
      </trkpt>
      <trkpt lat="41.74975" lon="26.16652">
        <ele>85.464034</ele>
        <time>2022-02-26T10:29:28.274Z</time>
      </trkpt>
      <trkpt lat="41.74988" lon="26.16653">
        <ele>85.848697</ele>
        <time>2022-02-26T10:29:31.311Z</time>
      </trkpt>
      <trkpt lat="41.75" lon="26.16655">
        <ele>86.241009</ele>
        <time>2022-02-26T10:29:34.262Z</time>
      </trkpt>
      <trkpt lat="41.75013" lon="26.16657">
        <ele>86.633587</ele>
        <time>2022-02-26T10:29:37.334Z</time>
      </trkpt>
      <trkpt lat="41.75026" lon="26.16659">
        <ele>87.042079</ele>
        <time>2022-02-26T10:29:40.290Z</time>
      </trkpt>
      <trkpt lat="41.75039" lon="26.16662">
        <ele>87.439938</ele>
        <time>2022-02-26T10:29:43.301Z</time>
      </trkpt>
      <trkpt lat="41.75052" lon="26.16665">
        <ele>87.852096</ele>
        <time>2022-02-26T10:29:46.281Z</time>
      </trkpt>
      <trkpt lat="41.75065" lon="26.16667">
        <ele>87.990913</ele>
        <time>2022-02-26T10:29:49.323Z</time>
      </trkpt>
      <trkpt lat="41.75077" lon="26.16669">
        <ele>87.828626</ele>
        <time>2022-02-26T10:29:52.272Z</time>
      </trkpt>
      <trkpt lat="41.75089" lon="26.16671">
        <ele>87.672758</ele>
        <time>2022-02-26T10:29:55.300Z</time>
      </trkpt>
      <trkpt lat="41.75101" lon="26.16673">
        <ele>87.51599</ele>
        <time>2022-02-26T10:29:58.283Z</time>
      </trkpt>
      <trkpt lat="41.75112" lon="26.16676">
        <ele>87.367959</ele>
        <time>2022-02-26T10:30:01.310Z</time>
      </trkpt>
      <trkpt lat="41.75123" lon="26.16678">
        <ele>87.22121</ele>
        <time>2022-02-26T10:30:04.275Z</time>
      </trkpt>
      <trkpt lat="41.75135" lon="26.1668">
        <ele>87.07203</ele>
        <time>2022-02-26T10:30:07.329Z</time>
      </trkpt>
      <trkpt lat="41.75146" lon="26.16682">
        <ele>86.924387</ele>
        <time>2022-02-26T10:30:10.254Z</time>
      </trkpt>
      <trkpt lat="41.75157" lon="26.16683">
        <ele>86.777078</ele>
        <time>2022-02-26T10:30:13.244Z</time>
      </trkpt>
      <trkpt lat="41.75168" lon="26.16685">
        <ele>86.632628</ele>
        <time>2022-02-26T10:30:16.244Z</time>
      </trkpt>
      <trkpt lat="41.75179" lon="26.16686">
        <ele>86.491866</ele>
        <time>2022-02-26T10:30:19.249Z</time>
      </trkpt>
      <trkpt lat="41.7519" lon="26.16688">
        <ele>86.348619</ele>
        <time>2022-02-26T10:30:22.245Z</time>
      </trkpt>
      <trkpt lat="41.75201" lon="26.16689">
        <ele>86.204325</ele>
        <time>2022-02-26T10:30:25.249Z</time>
      </trkpt>
      <trkpt lat="41.75212" lon="26.1669">
        <ele>86.059875</ele>
        <time>2022-02-26T10:30:28.254Z</time>
      </trkpt>
      <trkpt lat="41.75223" lon="26.16691">
        <ele>85.920822</ele>
        <time>2022-02-26T10:30:31.253Z</time>
      </trkpt>
      <trkpt lat="41.75233" lon="26.16691">
        <ele>85.788574</ele>
        <time>2022-02-26T10:30:34.256Z</time>
      </trkpt>
      <trkpt lat="41.75243" lon="26.16692">
        <ele>85.851398</ele>
        <time>2022-02-26T10:30:37.261Z</time>
      </trkpt>
      <trkpt lat="41.75253" lon="26.16693">
        <ele>86.040925</ele>
        <time>2022-02-26T10:30:40.254Z</time>
      </trkpt>
      <trkpt lat="41.75263" lon="26.16693">
        <ele>86.222777</ele>
        <time>2022-02-26T10:30:43.247Z</time>
      </trkpt>
      <trkpt lat="41.75273" lon="26.16694">
        <ele>86.414028</ele>
        <time>2022-02-26T10:30:46.245Z</time>
      </trkpt>
      <trkpt lat="41.75284" lon="26.16693">
        <ele>86.622304</ele>
        <time>2022-02-26T10:30:49.247Z</time>
      </trkpt>
      <trkpt lat="41.75295" lon="26.16693">
        <ele>86.824974</ele>
        <time>2022-02-26T10:30:52.258Z</time>
      </trkpt>
      <trkpt lat="41.75306" lon="26.16693">
        <ele>87.029536</ele>
        <time>2022-02-26T10:30:55.248Z</time>
      </trkpt>
      <trkpt lat="41.75316" lon="26.16692">
        <ele>87.228661</ele>
        <time>2022-02-26T10:30:58.255Z</time>
      </trkpt>
      <trkpt lat="41.75327" lon="26.16691">
        <ele>87.426184</ele>
        <time>2022-02-26T10:31:01.254Z</time>
      </trkpt>
      <trkpt lat="41.75337" lon="26.1669">
        <ele>87.617748</ele>
        <time>2022-02-26T10:31:04.252Z</time>
      </trkpt>
      <trkpt lat="41.75347" lon="26.16689">
        <ele>87.805957</ele>
        <time>2022-02-26T10:31:07.248Z</time>
      </trkpt>
      <trkpt lat="41.75357" lon="26.16688">
        <ele>87.999705</ele>
        <time>2022-02-26T10:31:10.247Z</time>
      </trkpt>
      <trkpt lat="41.75367" lon="26.16687">
        <ele>88.189678</ele>
        <time>2022-02-26T10:31:13.249Z</time>
      </trkpt>
      <trkpt lat="41.75378" lon="26.16685">
        <ele>88.395916</ele>
        <time>2022-02-26T10:31:16.250Z</time>
      </trkpt>
      <trkpt lat="41.75388" lon="26.16683">
        <ele>88.597729</ele>
        <time>2022-02-26T10:31:19.268Z</time>
      </trkpt>
      <trkpt lat="41.75399" lon="26.16681">
        <ele>88.809261</ele>
        <time>2022-02-26T10:31:22.247Z</time>
      </trkpt>
      <trkpt lat="41.75411" lon="26.1668">
        <ele>89.026767</ele>
        <time>2022-02-26T10:31:25.254Z</time>
      </trkpt>
      <trkpt lat="41.75422" lon="26.16677">
        <ele>89.149514</ele>
        <time>2022-02-26T10:31:28.245Z</time>
      </trkpt>
      <trkpt lat="41.75432" lon="26.16674">
        <ele>89.166022</ele>
        <time>2022-02-26T10:31:31.253Z</time>
      </trkpt>
      <trkpt lat="41.75443" lon="26.16672">
        <ele>89.181975</ele>
        <time>2022-02-26T10:31:34.252Z</time>
      </trkpt>
      <trkpt lat="41.75453" lon="26.16669">
        <ele>89.197909</ele>
        <time>2022-02-26T10:31:37.254Z</time>
      </trkpt>
      <trkpt lat="41.75463" lon="26.16666">
        <ele>89.213348</ele>
        <time>2022-02-26T10:31:40.258Z</time>
      </trkpt>
      <trkpt lat="41.75472" lon="26.16663">
        <ele>89.228539</ele>
        <time>2022-02-26T10:31:43.253Z</time>
      </trkpt>
      <trkpt lat="41.75482" lon="26.1666">
        <ele>89.24353</ele>
        <time>2022-02-26T10:31:46.251Z</time>
      </trkpt>
      <trkpt lat="41.75492" lon="26.16658">
        <ele>89.258373</ele>
        <time>2022-02-26T10:31:49.249Z</time>
      </trkpt>
      <trkpt lat="41.75502" lon="26.16654">
        <ele>89.274209</ele>
        <time>2022-02-26T10:31:52.249Z</time>
      </trkpt>
      <trkpt lat="41.75512" lon="26.1665">
        <ele>89.290705</ele>
        <time>2022-02-26T10:31:55.273Z</time>
      </trkpt>
      <trkpt lat="41.75522" lon="26.16646">
        <ele>89.307166</ele>
        <time>2022-02-26T10:31:58.253Z</time>
      </trkpt>
      <trkpt lat="41.75532" lon="26.16642">
        <ele>89.322327</ele>
        <time>2022-02-26T10:32:01.290Z</time>
      </trkpt>
      <trkpt lat="41.75541" lon="26.16637">
        <ele>89.338268</ele>
        <time>2022-02-26T10:32:04.256Z</time>
      </trkpt>
      <trkpt lat="41.75551" lon="26.16632">
        <ele>89.354007</ele>
        <time>2022-02-26T10:32:07.250Z</time>
      </trkpt>
      <trkpt lat="41.75561" lon="26.16627">
        <ele>89.37015</ele>
        <time>2022-02-26T10:32:10.243Z</time>
      </trkpt>
      <trkpt lat="41.7557" lon="26.16623">
        <ele>89.385018</ele>
        <time>2022-02-26T10:32:13.255Z</time>
      </trkpt>
      <trkpt lat="41.75579" lon="26.16619">
        <ele>89.398727</ele>
        <time>2022-02-26T10:32:16.247Z</time>
      </trkpt>
      <trkpt lat="41.75587" lon="26.16614">
        <ele>89.412447</ele>
        <time>2022-02-26T10:32:19.255Z</time>
      </trkpt>
      <trkpt lat="41.75598" lon="26.1661">
        <ele>89.53028</ele>
        <time>2022-02-26T10:32:23.247Z</time>
      </trkpt>
      <trkpt lat="41.75607" lon="26.16605">
        <ele>89.657018</ele>
        <time>2022-02-26T10:32:26.251Z</time>
      </trkpt>
      <trkpt lat="41.75615" lon="26.16601">
        <ele>89.774558</ele>
        <time>2022-02-26T10:32:29.266Z</time>
      </trkpt>
      <trkpt lat="41.75626" lon="26.16595">
        <ele>89.917941</ele>
        <time>2022-02-26T10:32:33.287Z</time>
      </trkpt>
      <trkpt lat="41.75635" lon="26.16589">
        <ele>90.047198</ele>
        <time>2022-02-26T10:32:41.323Z</time>
      </trkpt>
      <trkpt lat="41.75643" lon="26.16584">
        <ele>90.166483</ele>
        <time>2022-02-26T10:32:45.288Z</time>
      </trkpt>
      <trkpt lat="41.75653" lon="26.16579">
        <ele>90.309288</ele>
        <time>2022-02-26T10:32:48.291Z</time>
      </trkpt>
      <trkpt lat="41.75663" lon="26.16571">
        <ele>90.45283</ele>
        <time>2022-02-26T10:32:51.267Z</time>
      </trkpt>
      <trkpt lat="41.75671" lon="26.16564">
        <ele>90.576236</ele>
        <time>2022-02-26T10:32:54.283Z</time>
      </trkpt>
      <trkpt lat="41.75679" lon="26.16556">
        <ele>90.715349</ele>
        <time>2022-02-26T10:32:58.265Z</time>
      </trkpt>
      <trkpt lat="41.75682" lon="26.16544">
        <ele>90.838361</ele>
        <time>2022-02-26T10:33:02.281Z</time>
      </trkpt>
      <trkpt lat="41.75683" lon="26.16528">
        <ele>90.985624</ele>
        <time>2022-02-26T10:33:06.273Z</time>
      </trkpt>
      <trkpt lat="41.75687" lon="26.16517">
        <ele>91.105825</ele>
        <time>2022-02-26T10:33:10.265Z</time>
      </trkpt>
      <trkpt lat="41.75693" lon="26.16508">
        <ele>91.225394</ele>
        <time>2022-02-26T10:33:14.293Z</time>
      </trkpt>
      <trkpt lat="41.75701" lon="26.165">
        <ele>91.350959</ele>
        <time>2022-02-26T10:33:19.276Z</time>
      </trkpt>
      <trkpt lat="41.75708" lon="26.16493">
        <ele>91.471913</ele>
        <time>2022-02-26T10:33:25.262Z</time>
      </trkpt>
      <trkpt lat="41.75716" lon="26.16486">
        <ele>91.594819</ele>
        <time>2022-02-26T10:33:31.267Z</time>
      </trkpt>
      <trkpt lat="41.75725" lon="26.1648">
        <ele>91.728606</ele>
        <time>2022-02-26T10:33:35.269Z</time>
      </trkpt>
      <trkpt lat="41.75735" lon="26.16472">
        <ele>92.001481</ele>
        <time>2022-02-26T10:33:39.272Z</time>
      </trkpt>
      <trkpt lat="41.75744" lon="26.16464">
        <ele>92.270284</ele>
        <time>2022-02-26T10:33:43.290Z</time>
      </trkpt>
      <trkpt lat="41.75753" lon="26.16457">
        <ele>92.529851</ele>
        <time>2022-02-26T10:33:47.272Z</time>
      </trkpt>
      <trkpt lat="41.75762" lon="26.16449">
        <ele>92.77798</ele>
        <time>2022-02-26T10:33:51.284Z</time>
      </trkpt>
      <trkpt lat="41.75769" lon="26.16442">
        <ele>93.013633</ele>
        <time>2022-02-26T10:33:56.270Z</time>
      </trkpt>
      <trkpt lat="41.75788" lon="26.16424">
        <ele>93.589818</ele>
        <time>2022-02-26T10:40:55.314Z</time>
      </trkpt>
      <trkpt lat="41.75795" lon="26.16412">
        <ele>93.875181</ele>
        <time>2022-02-26T10:40:59.276Z</time>
      </trkpt>
      <trkpt lat="41.758" lon="26.164">
        <ele>94.133448</ele>
        <time>2022-02-26T10:41:02.312Z</time>
      </trkpt>
      <trkpt lat="41.75804" lon="26.16389">
        <ele>94.365439</ele>
        <time>2022-02-26T10:41:05.274Z</time>
      </trkpt>
      <trkpt lat="41.7581" lon="26.16377">
        <ele>94.628674</ele>
        <time>2022-02-26T10:41:09.281Z</time>
      </trkpt>
      <trkpt lat="41.75815" lon="26.16365">
        <ele>94.886708</ele>
        <time>2022-02-26T10:41:13.288Z</time>
      </trkpt>
      <trkpt lat="41.75822" lon="26.16354">
        <ele>95.142254</ele>
        <time>2022-02-26T10:41:17.288Z</time>
      </trkpt>
      <trkpt lat="41.75826" lon="26.16343">
        <ele>95.371457</ele>
        <time>2022-02-26T10:41:21.270Z</time>
      </trkpt>
      <trkpt lat="41.75829" lon="26.16332">
        <ele>95.6022</ele>
        <time>2022-02-26T10:41:25.280Z</time>
      </trkpt>
      <trkpt lat="41.75835" lon="26.16322">
        <ele>95.830943</ele>
        <time>2022-02-26T10:41:31.284Z</time>
      </trkpt>
      <trkpt lat="41.75849" lon="26.16324">
        <ele>96.185426</ele>
        <time>2022-02-26T10:44:38.278Z</time>
      </trkpt>
      <trkpt lat="41.75859" lon="26.16328">
        <ele>96.161965</ele>
        <time>2022-02-26T10:44:42.272Z</time>
      </trkpt>
      <trkpt lat="41.7587" lon="26.16332">
        <ele>96.052585</ele>
        <time>2022-02-26T10:44:46.260Z</time>
      </trkpt>
      <trkpt lat="41.75881" lon="26.16336">
        <ele>95.938229</ele>
        <time>2022-02-26T10:44:50.281Z</time>
      </trkpt>
      <trkpt lat="41.7589" lon="26.16336">
        <ele>95.843034</ele>
        <time>2022-02-26T10:44:53.275Z</time>
      </trkpt>
      <trkpt lat="41.75899" lon="26.16333">
        <ele>95.753435</ele>
        <time>2022-02-26T10:44:56.272Z</time>
      </trkpt>
      <trkpt lat="41.7591" lon="26.16329">
        <ele>95.640852</ele>
        <time>2022-02-26T10:45:00.285Z</time>
      </trkpt>
      <trkpt lat="41.75919" lon="26.16325">
        <ele>95.549418</ele>
        <time>2022-02-26T10:45:03.282Z</time>
      </trkpt>
      <trkpt lat="41.75927" lon="26.16321">
        <ele>95.457751</ele>
        <time>2022-02-26T10:45:06.270Z</time>
      </trkpt>
      <trkpt lat="41.75938" lon="26.16314">
        <ele>95.340659</ele>
        <time>2022-02-26T10:45:10.287Z</time>
      </trkpt>
      <trkpt lat="41.75946" lon="26.16307">
        <ele>95.250049</ele>
        <time>2022-02-26T10:45:13.279Z</time>
      </trkpt>
      <trkpt lat="41.75953" lon="26.163">
        <ele>95.159965</ele>
        <time>2022-02-26T10:45:16.270Z</time>
      </trkpt>
      <trkpt lat="41.75961" lon="26.1629">
        <ele>95.047771</ele>
        <time>2022-02-26T10:45:20.281Z</time>
      </trkpt>
      <trkpt lat="41.75969" lon="26.16282">
        <ele>94.955673</ele>
        <time>2022-02-26T10:45:23.294Z</time>
      </trkpt>
      <trkpt lat="41.75979" lon="26.16275">
        <ele>94.840835</ele>
        <time>2022-02-26T10:45:27.275Z</time>
      </trkpt>
      <trkpt lat="41.75989" lon="26.16267">
        <ele>94.72821</ele>
        <time>2022-02-26T10:45:31.290Z</time>
      </trkpt>
      <trkpt lat="41.75998" lon="26.16258">
        <ele>94.614966</ele>
        <time>2022-02-26T10:45:35.268Z</time>
      </trkpt>
      <trkpt lat="41.76006" lon="26.16252">
        <ele>94.522215</ele>
        <time>2022-02-26T10:45:38.283Z</time>
      </trkpt>
      <trkpt lat="41.76014" lon="26.16246">
        <ele>94.455555</ele>
        <time>2022-02-26T10:45:41.308Z</time>
      </trkpt>
      <trkpt lat="41.76023" lon="26.16239">
        <ele>94.440284</ele>
        <time>2022-02-26T10:45:44.285Z</time>
      </trkpt>
      <trkpt lat="41.76031" lon="26.16232">
        <ele>94.425026</ele>
        <time>2022-02-26T10:45:47.267Z</time>
      </trkpt>
      <trkpt lat="41.76039" lon="26.16223">
        <ele>94.408233</ele>
        <time>2022-02-26T10:45:50.291Z</time>
      </trkpt>
      <trkpt lat="41.76048" lon="26.16215">
        <ele>94.391718</ele>
        <time>2022-02-26T10:45:53.274Z</time>
      </trkpt>
      <trkpt lat="41.76055" lon="26.16206">
        <ele>94.375231</ele>
        <time>2022-02-26T10:45:56.272Z</time>
      </trkpt>
      <trkpt lat="41.76063" lon="26.16197">
        <ele>94.358947</ele>
        <time>2022-02-26T10:45:59.325Z</time>
      </trkpt>
      <trkpt lat="41.76071" lon="26.16189">
        <ele>94.343329</ele>
        <time>2022-02-26T10:46:02.282Z</time>
      </trkpt>
      <trkpt lat="41.76078" lon="26.1618">
        <ele>94.327542</ele>
        <time>2022-02-26T10:46:05.271Z</time>
      </trkpt>
      <trkpt lat="41.76086" lon="26.16172">
        <ele>94.312087</ele>
        <time>2022-02-26T10:46:08.328Z</time>
      </trkpt>
      <trkpt lat="41.76093" lon="26.16163">
        <ele>94.296788</ele>
        <time>2022-02-26T10:46:11.283Z</time>
      </trkpt>
      <trkpt lat="41.761" lon="26.16155">
        <ele>94.281719</ele>
        <time>2022-02-26T10:46:14.255Z</time>
      </trkpt>
      <trkpt lat="41.76108" lon="26.16147">
        <ele>94.266328</ele>
        <time>2022-02-26T10:46:17.279Z</time>
      </trkpt>
      <trkpt lat="41.76115" lon="26.16139">
        <ele>94.251532</ele>
        <time>2022-02-26T10:46:20.268Z</time>
      </trkpt>
      <trkpt lat="41.76122" lon="26.16131">
        <ele>94.23701</ele>
        <time>2022-02-26T10:46:23.273Z</time>
      </trkpt>
      <trkpt lat="41.76129" lon="26.16123">
        <ele>94.222336</ele>
        <time>2022-02-26T10:46:26.276Z</time>
      </trkpt>
      <trkpt lat="41.76136" lon="26.16115">
        <ele>94.207871</ele>
        <time>2022-02-26T10:46:29.268Z</time>
      </trkpt>
      <trkpt lat="41.76145" lon="26.16106">
        <ele>94.189456</ele>
        <time>2022-02-26T10:46:33.280Z</time>
      </trkpt>
      <trkpt lat="41.76152" lon="26.16098">
        <ele>94.176587</ele>
        <time>2022-02-26T10:46:36.269Z</time>
      </trkpt>
      <trkpt lat="41.7616" lon="26.16089">
        <ele>94.279918</ele>
        <time>2022-02-26T10:46:39.274Z</time>
      </trkpt>
      <trkpt lat="41.76168" lon="26.16081">
        <ele>94.377203</ele>
        <time>2022-02-26T10:46:42.275Z</time>
      </trkpt>
      <trkpt lat="41.76175" lon="26.16072">
        <ele>94.4753</ele>
        <time>2022-02-26T10:46:45.271Z</time>
      </trkpt>
      <trkpt lat="41.76183" lon="26.16064">
        <ele>94.571346</ele>
        <time>2022-02-26T10:46:48.275Z</time>
      </trkpt>
      <trkpt lat="41.7619" lon="26.16057">
        <ele>94.661868</ele>
        <time>2022-02-26T10:46:51.278Z</time>
      </trkpt>
      <trkpt lat="41.76198" lon="26.16049">
        <ele>94.754819</ele>
        <time>2022-02-26T10:46:54.287Z</time>
      </trkpt>
      <trkpt lat="41.76205" lon="26.16041">
        <ele>94.851648</ele>
        <time>2022-02-26T10:46:57.272Z</time>
      </trkpt>
      <trkpt lat="41.76213" lon="26.16032">
        <ele>94.952029</ele>
        <time>2022-02-26T10:47:00.280Z</time>
      </trkpt>
      <trkpt lat="41.76221" lon="26.16024">
        <ele>95.046717</ele>
        <time>2022-02-26T10:47:03.270Z</time>
      </trkpt>
      <trkpt lat="41.76228" lon="26.16017">
        <ele>95.143093</ele>
        <time>2022-02-26T10:47:06.311Z</time>
      </trkpt>
      <trkpt lat="41.76236" lon="26.16009">
        <ele>95.239021</ele>
        <time>2022-02-26T10:47:09.281Z</time>
      </trkpt>
      <trkpt lat="41.76244" lon="26.16">
        <ele>95.338467</ele>
        <time>2022-02-26T10:47:12.299Z</time>
      </trkpt>
      <trkpt lat="41.76252" lon="26.15992">
        <ele>95.43761</ele>
        <time>2022-02-26T10:47:15.271Z</time>
      </trkpt>
      <trkpt lat="41.7626" lon="26.15983">
        <ele>95.540186</ele>
        <time>2022-02-26T10:47:18.303Z</time>
      </trkpt>
      <trkpt lat="41.76268" lon="26.15975">
        <ele>95.641073</ele>
        <time>2022-02-26T10:47:21.253Z</time>
      </trkpt>
      <trkpt lat="41.76275" lon="26.15966">
        <ele>95.739221</ele>
        <time>2022-02-26T10:47:24.258Z</time>
      </trkpt>
      <trkpt lat="41.76281" lon="26.15956">
        <ele>95.839129</ele>
        <time>2022-02-26T10:47:27.298Z</time>
      </trkpt>
      <trkpt lat="41.76288" lon="26.15946">
        <ele>95.938788</ele>
        <time>2022-02-26T10:47:30.250Z</time>
      </trkpt>
      <trkpt lat="41.76295" lon="26.15937">
        <ele>95.884979</ele>
        <time>2022-02-26T10:47:33.248Z</time>
      </trkpt>
      <trkpt lat="41.76302" lon="26.15926">
        <ele>95.761064</ele>
        <time>2022-02-26T10:47:37.254Z</time>
      </trkpt>
      <trkpt lat="41.76303" lon="26.1591">
        <ele>95.633472</ele>
        <time>2022-02-26T10:47:41.263Z</time>
      </trkpt>
      <trkpt lat="41.76302" lon="26.15898">
        <ele>95.533617</ele>
        <time>2022-02-26T10:47:44.279Z</time>
      </trkpt>
      <trkpt lat="41.76301" lon="26.15886">
        <ele>95.430826</ele>
        <time>2022-02-26T10:47:47.254Z</time>
      </trkpt>
      <trkpt lat="41.76302" lon="26.15872">
        <ele>95.317184</ele>
        <time>2022-02-26T10:47:50.256Z</time>
      </trkpt>
      <trkpt lat="41.76308" lon="26.15857">
        <ele>95.1749</ele>
        <time>2022-02-26T10:47:53.267Z</time>
      </trkpt>
      <trkpt lat="41.76315" lon="26.15848">
        <ele>95.064352</ele>
        <time>2022-02-26T10:47:55.246Z</time>
      </trkpt>
      <trkpt lat="41.76325" lon="26.1584">
        <ele>94.936014</ele>
        <time>2022-02-26T10:47:57.253Z</time>
      </trkpt>
      <trkpt lat="41.76335" lon="26.15832">
        <ele>94.808169</ele>
        <time>2022-02-26T10:47:59.249Z</time>
      </trkpt>
      <trkpt lat="41.76345" lon="26.15825">
        <ele>94.680905</ele>
        <time>2022-02-26T10:48:01.255Z</time>
      </trkpt>
      <trkpt lat="41.76356" lon="26.15818">
        <ele>94.550502</ele>
        <time>2022-02-26T10:48:03.253Z</time>
      </trkpt>
      <trkpt lat="41.76367" lon="26.15811">
        <ele>94.416568</ele>
        <time>2022-02-26T10:48:05.255Z</time>
      </trkpt>
      <trkpt lat="41.76377" lon="26.15804">
        <ele>94.282933</ele>
        <time>2022-02-26T10:48:07.259Z</time>
      </trkpt>
      <trkpt lat="41.76389" lon="26.15797">
        <ele>94.144292</ele>
        <time>2022-02-26T10:48:09.253Z</time>
      </trkpt>
      <trkpt lat="41.764" lon="26.1579">
        <ele>94.006594</ele>
        <time>2022-02-26T10:48:11.257Z</time>
      </trkpt>
      <trkpt lat="41.76411" lon="26.15782">
        <ele>93.853117</ele>
        <time>2022-02-26T10:48:13.254Z</time>
      </trkpt>
      <trkpt lat="41.76423" lon="26.15775">
        <ele>93.691404</ele>
        <time>2022-02-26T10:48:15.259Z</time>
      </trkpt>
      <trkpt lat="41.76434" lon="26.15767">
        <ele>93.526172</ele>
        <time>2022-02-26T10:48:17.259Z</time>
      </trkpt>
      <trkpt lat="41.76446" lon="26.15759">
        <ele>93.363049</ele>
        <time>2022-02-26T10:48:19.258Z</time>
      </trkpt>
      <trkpt lat="41.76458" lon="26.15752">
        <ele>93.197816</ele>
        <time>2022-02-26T10:48:21.268Z</time>
      </trkpt>
      <trkpt lat="41.76468" lon="26.15742">
        <ele>93.035624</ele>
        <time>2022-02-26T10:48:23.251Z</time>
      </trkpt>
      <trkpt lat="41.76478" lon="26.1573">
        <ele>92.868636</ele>
        <time>2022-02-26T10:48:25.246Z</time>
      </trkpt>
      <trkpt lat="41.76489" lon="26.15718">
        <ele>92.69221</ele>
        <time>2022-02-26T10:48:27.253Z</time>
      </trkpt>
      <trkpt lat="41.76499" lon="26.15705">
        <ele>92.509447</ele>
        <time>2022-02-26T10:48:29.245Z</time>
      </trkpt>
      <trkpt lat="41.76509" lon="26.15691">
        <ele>92.32872</ele>
        <time>2022-02-26T10:48:31.250Z</time>
      </trkpt>
      <trkpt lat="41.76515" lon="26.15676">
        <ele>92.163395</ele>
        <time>2022-02-26T10:48:33.255Z</time>
      </trkpt>
      <trkpt lat="41.76521" lon="26.15661">
        <ele>92.011835</ele>
        <time>2022-02-26T10:48:35.249Z</time>
      </trkpt>
      <trkpt lat="41.76525" lon="26.15647">
        <ele>91.867685</ele>
        <time>2022-02-26T10:48:37.255Z</time>
      </trkpt>
      <trkpt lat="41.76529" lon="26.15635">
        <ele>91.737416</ele>
        <time>2022-02-26T10:48:39.252Z</time>
      </trkpt>
      <trkpt lat="41.76532" lon="26.15623">
        <ele>91.847578</ele>
        <time>2022-02-26T10:48:41.268Z</time>
      </trkpt>
      <trkpt lat="41.76536" lon="26.15607">
        <ele>92.196519</ele>
        <time>2022-02-26T10:48:44.253Z</time>
      </trkpt>
      <trkpt lat="41.76541" lon="26.15591">
        <ele>92.536804</ele>
        <time>2022-02-26T10:48:47.256Z</time>
      </trkpt>
      <trkpt lat="41.76544" lon="26.15575">
        <ele>92.86404</ele>
        <time>2022-02-26T10:48:50.247Z</time>
      </trkpt>
      <trkpt lat="41.76548" lon="26.15561">
        <ele>93.178797</ele>
        <time>2022-02-26T10:48:53.247Z</time>
      </trkpt>
      <trkpt lat="41.76553" lon="26.15546">
        <ele>93.493766</ele>
        <time>2022-02-26T10:48:56.248Z</time>
      </trkpt>
      <trkpt lat="41.76557" lon="26.15532">
        <ele>93.796317</ele>
        <time>2022-02-26T10:48:59.250Z</time>
      </trkpt>
      <trkpt lat="41.76562" lon="26.15519">
        <ele>94.094623</ele>
        <time>2022-02-26T10:49:02.259Z</time>
      </trkpt>
      <trkpt lat="41.76566" lon="26.15506">
        <ele>94.393349</ele>
        <time>2022-02-26T10:49:05.268Z</time>
      </trkpt>
      <trkpt lat="41.76571" lon="26.15492">
        <ele>94.696287</ele>
        <time>2022-02-26T10:49:08.260Z</time>
      </trkpt>
      <trkpt lat="41.76577" lon="26.15478">
        <ele>95.014816</ele>
        <time>2022-02-26T10:49:11.260Z</time>
      </trkpt>
      <trkpt lat="41.76583" lon="26.15464">
        <ele>95.333957</ele>
        <time>2022-02-26T10:49:14.249Z</time>
      </trkpt>
      <trkpt lat="41.76588" lon="26.15451">
        <ele>95.646555</ele>
        <time>2022-02-26T10:49:17.256Z</time>
      </trkpt>
      <trkpt lat="41.76593" lon="26.15438">
        <ele>95.948504</ele>
        <time>2022-02-26T10:49:20.250Z</time>
      </trkpt>
      <trkpt lat="41.76599" lon="26.15425">
        <ele>96.239008</ele>
        <time>2022-02-26T10:49:23.283Z</time>
      </trkpt>
      <trkpt lat="41.76604" lon="26.15412">
        <ele>96.539425</ele>
        <time>2022-02-26T10:49:26.265Z</time>
      </trkpt>
      <trkpt lat="41.76611" lon="26.15399">
        <ele>96.250194</ele>
        <time>2022-02-26T10:49:29.275Z</time>
      </trkpt>
      <trkpt lat="41.76618" lon="26.15385">
        <ele>95.918462</ele>
        <time>2022-02-26T10:49:32.253Z</time>
      </trkpt>
      <trkpt lat="41.76625" lon="26.15371">
        <ele>95.582779</ele>
        <time>2022-02-26T10:49:35.264Z</time>
      </trkpt>
      <trkpt lat="41.76632" lon="26.15357">
        <ele>95.248822</ele>
        <time>2022-02-26T10:49:38.251Z</time>
      </trkpt>
      <trkpt lat="41.7664" lon="26.15343">
        <ele>94.889165</ele>
        <time>2022-02-26T10:49:41.249Z</time>
      </trkpt>
      <trkpt lat="41.76646" lon="26.15333">
        <ele>94.638698</ele>
        <time>2022-02-26T10:49:43.249Z</time>
      </trkpt>
      <trkpt lat="41.76652" lon="26.15323">
        <ele>94.376834</ele>
        <time>2022-02-26T10:49:45.251Z</time>
      </trkpt>
      <trkpt lat="41.76658" lon="26.15313">
        <ele>94.10832</ele>
        <time>2022-02-26T10:49:47.276Z</time>
      </trkpt>
      <trkpt lat="41.76665" lon="26.15302">
        <ele>93.839806</ele>
        <time>2022-02-26T10:49:49.254Z</time>
      </trkpt>
      <trkpt lat="41.76671" lon="26.15292">
        <ele>93.561697</ele>
        <time>2022-02-26T10:49:51.251Z</time>
      </trkpt>
      <trkpt lat="41.76678" lon="26.15281">
        <ele>93.280607</ele>
        <time>2022-02-26T10:49:53.279Z</time>
      </trkpt>
      <trkpt lat="41.76684" lon="26.1527">
        <ele>93.009132</ele>
        <time>2022-02-26T10:49:55.245Z</time>
      </trkpt>
      <trkpt lat="41.7669" lon="26.15259">
        <ele>92.739377</ele>
        <time>2022-02-26T10:49:57.268Z</time>
      </trkpt>
      <trkpt lat="41.76697" lon="26.15248">
        <ele>92.455138</ele>
        <time>2022-02-26T10:49:59.278Z</time>
      </trkpt>
      <trkpt lat="41.76702" lon="26.15237">
        <ele>92.180391</ele>
        <time>2022-02-26T10:50:01.247Z</time>
      </trkpt>
      <trkpt lat="41.76707" lon="26.15225">
        <ele>91.917252</ele>
        <time>2022-02-26T10:50:03.262Z</time>
      </trkpt>
      <trkpt lat="41.76712" lon="26.15208">
        <ele>91.830938</ele>
        <time>2022-02-26T10:50:06.268Z</time>
      </trkpt>
      <trkpt lat="41.76715" lon="26.15192">
        <ele>92.03545</ele>
        <time>2022-02-26T10:50:09.249Z</time>
      </trkpt>
      <trkpt lat="41.76718" lon="26.15177">
        <ele>92.236048</ele>
        <time>2022-02-26T10:50:12.246Z</time>
      </trkpt>
      <trkpt lat="41.7672" lon="26.1516">
        <ele>92.447629</ele>
        <time>2022-02-26T10:50:15.253Z</time>
      </trkpt>
      <trkpt lat="41.76723" lon="26.15143">
        <ele>92.654043</ele>
        <time>2022-02-26T10:50:18.248Z</time>
      </trkpt>
      <trkpt lat="41.76725" lon="26.15127">
        <ele>92.855639</ele>
        <time>2022-02-26T10:50:21.257Z</time>
      </trkpt>
      <trkpt lat="41.76727" lon="26.15112">
        <ele>93.049157</ele>
        <time>2022-02-26T10:50:24.261Z</time>
      </trkpt>
      <trkpt lat="41.76729" lon="26.15097">
        <ele>93.236256</ele>
        <time>2022-02-26T10:50:27.262Z</time>
      </trkpt>
      <trkpt lat="41.76732" lon="26.15082">
        <ele>93.423085</ele>
        <time>2022-02-26T10:50:30.246Z</time>
      </trkpt>
      <trkpt lat="41.76734" lon="26.15067">
        <ele>93.608975</ele>
        <time>2022-02-26T10:50:33.250Z</time>
      </trkpt>
      <trkpt lat="41.76736" lon="26.15052">
        <ele>93.788253</ele>
        <time>2022-02-26T10:50:36.246Z</time>
      </trkpt>
      <trkpt lat="41.76738" lon="26.15038">
        <ele>93.967786</ele>
        <time>2022-02-26T10:50:39.278Z</time>
      </trkpt>
      <trkpt lat="41.76741" lon="26.15024">
        <ele>94.151291</ele>
        <time>2022-02-26T10:50:42.253Z</time>
      </trkpt>
      <trkpt lat="41.76744" lon="26.1501">
        <ele>94.332074</ele>
        <time>2022-02-26T10:50:45.279Z</time>
      </trkpt>
      <trkpt lat="41.76749" lon="26.14996">
        <ele>94.518612</ele>
        <time>2022-02-26T10:50:48.245Z</time>
      </trkpt>
      <trkpt lat="41.76754" lon="26.14983">
        <ele>94.683783</ele>
        <time>2022-02-26T10:50:51.278Z</time>
      </trkpt>
      <trkpt lat="41.76762" lon="26.14972">
        <ele>94.589956</ele>
        <time>2022-02-26T10:50:54.248Z</time>
      </trkpt>
      <trkpt lat="41.76772" lon="26.14964">
        <ele>94.492221</ele>
        <time>2022-02-26T10:50:57.251Z</time>
      </trkpt>
      <trkpt lat="41.76782" lon="26.14953">
        <ele>94.387436</ele>
        <time>2022-02-26T10:51:00.250Z</time>
      </trkpt>
      <trkpt lat="41.76792" lon="26.14942">
        <ele>94.276261</ele>
        <time>2022-02-26T10:51:03.252Z</time>
      </trkpt>
      <trkpt lat="41.76802" lon="26.1493">
        <ele>94.166358</ele>
        <time>2022-02-26T10:51:06.250Z</time>
      </trkpt>
      <trkpt lat="41.76812" lon="26.14919">
        <ele>94.057809</ele>
        <time>2022-02-26T10:51:09.251Z</time>
      </trkpt>
      <trkpt lat="41.76823" lon="26.14909">
        <ele>93.949003</ele>
        <time>2022-02-26T10:51:12.247Z</time>
      </trkpt>
      <trkpt lat="41.76835" lon="26.14901">
        <ele>93.836459</ele>
        <time>2022-02-26T10:51:15.255Z</time>
      </trkpt>
      <trkpt lat="41.76848" lon="26.14896">
        <ele>93.726215</ele>
        <time>2022-02-26T10:51:18.291Z</time>
      </trkpt>
      <trkpt lat="41.76857" lon="26.14894">
        <ele>93.649666</ele>
        <time>2022-02-26T10:51:20.252Z</time>
      </trkpt>
      <trkpt lat="41.76865" lon="26.14891">
        <ele>93.573935</ele>
        <time>2022-02-26T10:51:22.251Z</time>
      </trkpt>
      <trkpt lat="41.76878" lon="26.14888">
        <ele>93.463787</ele>
        <time>2022-02-26T10:51:25.246Z</time>
      </trkpt>
      <trkpt lat="41.76891" lon="26.14885">
        <ele>93.360426</ele>
        <time>2022-02-26T10:51:28.252Z</time>
      </trkpt>
      <trkpt lat="41.76903" lon="26.14883">
        <ele>93.252429</ele>
        <time>2022-02-26T10:51:31.261Z</time>
      </trkpt>
      <trkpt lat="41.76915" lon="26.1488">
        <ele>93.038308</ele>
        <time>2022-02-26T10:51:34.245Z</time>
      </trkpt>
      <trkpt lat="41.76927" lon="26.14877">
        <ele>92.65987</ele>
        <time>2022-02-26T10:51:37.251Z</time>
      </trkpt>
      <trkpt lat="41.76937" lon="26.14872">
        <ele>92.303357</ele>
        <time>2022-02-26T10:51:40.255Z</time>
      </trkpt>
      <trkpt lat="41.76946" lon="26.14869">
        <ele>91.997624</ele>
        <time>2022-02-26T10:51:43.250Z</time>
      </trkpt>
      <trkpt lat="41.76956" lon="26.14883">
        <ele>91.504226</ele>
        <time>2022-02-26T10:52:13.259Z</time>
      </trkpt>
      <trkpt lat="41.7696" lon="26.14894">
        <ele>91.203929</ele>
        <time>2022-02-26T10:52:18.255Z</time>
      </trkpt>
      <trkpt lat="41.76967" lon="26.14904">
        <ele>90.87397</ele>
        <time>2022-02-26T10:52:25.272Z</time>
      </trkpt>
      <trkpt lat="41.76974" lon="26.14914">
        <ele>90.545056</ele>
        <time>2022-02-26T10:52:31.255Z</time>
      </trkpt>
      <trkpt lat="41.7698" lon="26.14923">
        <ele>90.240828</ele>
        <time>2022-02-26T10:52:36.253Z</time>
      </trkpt>
      <trkpt lat="41.76987" lon="26.14935">
        <ele>89.870528</ele>
        <time>2022-02-26T10:52:43.252Z</time>
      </trkpt>
      <trkpt lat="41.76993" lon="26.14945">
        <ele>89.564786</ele>
        <time>2022-02-26T10:52:51.279Z</time>
      </trkpt>
      <trkpt lat="41.77001" lon="26.14952">
        <ele>89.248856</ele>
        <time>2022-02-26T10:52:59.248Z</time>
      </trkpt>
      <trkpt lat="41.77013" lon="26.14939">
        <ele>88.753513</ele>
        <time>2022-02-26T10:53:36.276Z</time>
      </trkpt>
      <trkpt lat="41.77024" lon="26.14916">
        <ele>88.068412</ele>
        <time>2022-02-26T10:54:08.254Z</time>
      </trkpt>
      <trkpt lat="41.77032" lon="26.14907">
        <ele>87.742512</ele>
        <time>2022-02-26T10:54:13.249Z</time>
      </trkpt>
      <trkpt lat="41.77038" lon="26.14898">
        <ele>87.433821</ele>
        <time>2022-02-26T10:54:18.250Z</time>
      </trkpt>
      <trkpt lat="41.77046" lon="26.1489">
        <ele>87.170148</ele>
        <time>2022-02-26T10:54:25.251Z</time>
      </trkpt>
      <trkpt lat="41.77053" lon="26.14881">
        <ele>86.97502</ele>
        <time>2022-02-26T10:54:29.251Z</time>
      </trkpt>
      <trkpt lat="41.77062" lon="26.14872">
        <ele>86.723589</ele>
        <time>2022-02-26T10:54:34.258Z</time>
      </trkpt>
      <trkpt lat="41.77071" lon="26.14864">
        <ele>86.492808</ele>
        <time>2022-02-26T10:54:38.246Z</time>
      </trkpt>
      <trkpt lat="41.77078" lon="26.14856">
        <ele>86.293686</ele>
        <time>2022-02-26T10:54:42.253Z</time>
      </trkpt>
      <trkpt lat="41.77086" lon="26.14848">
        <ele>86.088977</ele>
        <time>2022-02-26T10:54:46.246Z</time>
      </trkpt>
      <trkpt lat="41.77093" lon="26.1484">
        <ele>85.878212</ele>
        <time>2022-02-26T10:54:50.252Z</time>
      </trkpt>
      <trkpt lat="41.77101" lon="26.14832">
        <ele>85.66707</ele>
        <time>2022-02-26T10:54:54.251Z</time>
      </trkpt>
      <trkpt lat="41.77109" lon="26.14823">
        <ele>85.441143</ele>
        <time>2022-02-26T10:54:58.246Z</time>
      </trkpt>
      <trkpt lat="41.77117" lon="26.14815">
        <ele>85.232068</ele>
        <time>2022-02-26T10:55:02.279Z</time>
      </trkpt>
      <trkpt lat="41.77126" lon="26.14806">
        <ele>84.997379</ele>
        <time>2022-02-26T10:55:06.246Z</time>
      </trkpt>
      <trkpt lat="41.77135" lon="26.14798">
        <ele>84.756774</ele>
        <time>2022-02-26T10:55:10.247Z</time>
      </trkpt>
      <trkpt lat="41.77145" lon="26.1479">
        <ele>84.501479</ele>
        <time>2022-02-26T10:55:14.255Z</time>
      </trkpt>
      <trkpt lat="41.77153" lon="26.14783">
        <ele>84.304671</ele>
        <time>2022-02-26T10:55:17.262Z</time>
      </trkpt>
      <trkpt lat="41.7716" lon="26.14776">
        <ele>84.106108</ele>
        <time>2022-02-26T10:55:20.246Z</time>
      </trkpt>
      <trkpt lat="41.77168" lon="26.1477">
        <ele>83.911012</ele>
        <time>2022-02-26T10:55:23.274Z</time>
      </trkpt>
      <trkpt lat="41.77176" lon="26.14763">
        <ele>83.706054</ele>
        <time>2022-02-26T10:55:26.249Z</time>
      </trkpt>
      <trkpt lat="41.77184" lon="26.14756">
        <ele>83.501244</ele>
        <time>2022-02-26T10:55:29.250Z</time>
      </trkpt>
      <trkpt lat="41.77192" lon="26.14748">
        <ele>83.457289</ele>
        <time>2022-02-26T10:55:32.245Z</time>
      </trkpt>
      <trkpt lat="41.77199" lon="26.14741">
        <ele>83.516493</ele>
        <time>2022-02-26T10:55:35.259Z</time>
      </trkpt>
      <trkpt lat="41.77207" lon="26.14735">
        <ele>83.572925</ele>
        <time>2022-02-26T10:55:38.251Z</time>
      </trkpt>
      <trkpt lat="41.77216" lon="26.14731">
        <ele>83.629858</ele>
        <time>2022-02-26T10:55:41.248Z</time>
      </trkpt>
      <trkpt lat="41.77225" lon="26.14729">
        <ele>83.688591</ele>
        <time>2022-02-26T10:55:44.252Z</time>
      </trkpt>
      <trkpt lat="41.77234" lon="26.1472">
        <ele>83.754528</ele>
        <time>2022-02-26T10:55:47.253Z</time>
      </trkpt>
      <trkpt lat="41.77242" lon="26.1471">
        <ele>83.823623</ele>
        <time>2022-02-26T10:55:50.273Z</time>
      </trkpt>
      <trkpt lat="41.7725" lon="26.14701">
        <ele>83.890871</ele>
        <time>2022-02-26T10:55:53.247Z</time>
      </trkpt>
      <trkpt lat="41.77259" lon="26.1469">
        <ele>83.961504</ele>
        <time>2022-02-26T10:55:56.275Z</time>
      </trkpt>
      <trkpt lat="41.77268" lon="26.14681">
        <ele>84.031523</ele>
        <time>2022-02-26T10:55:59.250Z</time>
      </trkpt>
      <trkpt lat="41.77277" lon="26.14674">
        <ele>84.096844</ele>
        <time>2022-02-26T10:56:02.248Z</time>
      </trkpt>
      <trkpt lat="41.77284" lon="26.14664">
        <ele>84.1604</ele>
        <time>2022-02-26T10:56:05.253Z</time>
      </trkpt>
      <trkpt lat="41.77292" lon="26.14655">
        <ele>84.226589</ele>
        <time>2022-02-26T10:56:08.248Z</time>
      </trkpt>
      <trkpt lat="41.773" lon="26.14645">
        <ele>84.29185</ele>
        <time>2022-02-26T10:56:11.252Z</time>
      </trkpt>
      <trkpt lat="41.77308" lon="26.14636">
        <ele>84.358039</ele>
        <time>2022-02-26T10:56:14.247Z</time>
      </trkpt>
      <trkpt lat="41.77317" lon="26.14626">
        <ele>84.428996</ele>
        <time>2022-02-26T10:56:17.254Z</time>
      </trkpt>
      <trkpt lat="41.77325" lon="26.14615">
        <ele>84.500556</ele>
        <time>2022-02-26T10:56:20.261Z</time>
      </trkpt>
      <trkpt lat="41.77334" lon="26.14605">
        <ele>84.917843</ele>
        <time>2022-02-26T10:56:23.256Z</time>
      </trkpt>
      <trkpt lat="41.77342" lon="26.14595">
        <ele>85.603923</ele>
        <time>2022-02-26T10:56:26.252Z</time>
      </trkpt>
      <trkpt lat="41.7735" lon="26.14583">
        <ele>86.320908</ele>
        <time>2022-02-26T10:56:30.243Z</time>
      </trkpt>
      <trkpt lat="41.77361" lon="26.14583">
        <ele>87.030851</ele>
        <time>2022-02-26T10:56:34.245Z</time>
      </trkpt>
      <trkpt lat="41.77367" lon="26.14593">
        <ele>87.597811</ele>
        <time>2022-02-26T10:56:37.252Z</time>
      </trkpt>
      <trkpt lat="41.77374" lon="26.14603">
        <ele>88.23546</ele>
        <time>2022-02-26T10:56:40.246Z</time>
      </trkpt>
      <trkpt lat="41.77381" lon="26.14615">
        <ele>88.937254</ele>
        <time>2022-02-26T10:56:43.251Z</time>
      </trkpt>
      <trkpt lat="41.77388" lon="26.14626">
        <ele>89.638506</ele>
        <time>2022-02-26T10:56:46.244Z</time>
      </trkpt>
      <trkpt lat="41.77396" lon="26.14638">
        <ele>90.370076</ele>
        <time>2022-02-26T10:56:49.250Z</time>
      </trkpt>
      <trkpt lat="41.77403" lon="26.14649">
        <ele>91.057967</ele>
        <time>2022-02-26T10:56:52.245Z</time>
      </trkpt>
      <trkpt lat="41.77411" lon="26.1466">
        <ele>91.727172</ele>
        <time>2022-02-26T10:56:55.253Z</time>
      </trkpt>
      <trkpt lat="41.77419" lon="26.14669">
        <ele>92.411099</ele>
        <time>2022-02-26T10:56:58.257Z</time>
      </trkpt>
      <trkpt lat="41.7743" lon="26.14669">
        <ele>93.133418</ele>
        <time>2022-02-26T10:57:02.254Z</time>
      </trkpt>
      <trkpt lat="41.77439" lon="26.14666">
        <ele>93.716892</ele>
        <time>2022-02-26T10:57:05.255Z</time>
      </trkpt>
      <trkpt lat="41.7745" lon="26.14657">
        <ele>94.516363</ele>
        <time>2022-02-26T10:57:09.245Z</time>
      </trkpt>
      <trkpt lat="41.77462" lon="26.14656">
        <ele>95.233359</ele>
        <time>2022-02-26T10:57:13.244Z</time>
      </trkpt>
      <trkpt lat="41.77472" lon="26.14657">
        <ele>95.729801</ele>
        <time>2022-02-26T10:57:16.243Z</time>
      </trkpt>
      <trkpt lat="41.77482" lon="26.14658">
        <ele>95.706682</ele>
        <time>2022-02-26T10:57:19.248Z</time>
      </trkpt>
      <trkpt lat="41.77491" lon="26.14659">
        <ele>95.6843</ele>
        <time>2022-02-26T10:57:22.261Z</time>
      </trkpt>
      <trkpt lat="41.77502" lon="26.14659">
        <ele>95.657209</ele>
        <time>2022-02-26T10:57:25.245Z</time>
      </trkpt>
      <trkpt lat="41.77513" lon="26.14656">
        <ele>95.631267</ele>
        <time>2022-02-26T10:57:28.251Z</time>
      </trkpt>
      <trkpt lat="41.77524" lon="26.1465">
        <ele>95.603465</ele>
        <time>2022-02-26T10:57:31.244Z</time>
      </trkpt>
      <trkpt lat="41.77534" lon="26.14642">
        <ele>95.576496</ele>
        <time>2022-02-26T10:57:34.245Z</time>
      </trkpt>
      <trkpt lat="41.77542" lon="26.14633">
        <ele>95.550242</ele>
        <time>2022-02-26T10:57:37.251Z</time>
      </trkpt>
      <trkpt lat="41.77551" lon="26.14624">
        <ele>95.525552</ele>
        <time>2022-02-26T10:57:40.245Z</time>
      </trkpt>
      <trkpt lat="41.77558" lon="26.14615">
        <ele>95.499977</ele>
        <time>2022-02-26T10:57:43.253Z</time>
      </trkpt>
      <trkpt lat="41.77567" lon="26.14606">
        <ele>95.474054</ele>
        <time>2022-02-26T10:57:46.251Z</time>
      </trkpt>
      <trkpt lat="41.77575" lon="26.14597">
        <ele>95.450603</ele>
        <time>2022-02-26T10:57:49.246Z</time>
      </trkpt>
      <trkpt lat="41.77586" lon="26.14598">
        <ele>95.423929</ele>
        <time>2022-02-26T10:57:53.248Z</time>
      </trkpt>
      <trkpt lat="41.77593" lon="26.14608">
        <ele>95.398796</ele>
        <time>2022-02-26T10:57:56.250Z</time>
      </trkpt>
      <trkpt lat="41.77601" lon="26.14618">
        <ele>95.373029</ele>
        <time>2022-02-26T10:57:59.248Z</time>
      </trkpt>
      <trkpt lat="41.7761" lon="26.14628">
        <ele>95.345923</ele>
        <time>2022-02-26T10:58:02.247Z</time>
      </trkpt>
      <trkpt lat="41.77619" lon="26.14637">
        <ele>95.318289</ele>
        <time>2022-02-26T10:58:05.243Z</time>
      </trkpt>
      <trkpt lat="41.77628" lon="26.14646">
        <ele>95.159632</ele>
        <time>2022-02-26T10:58:08.249Z</time>
      </trkpt>
      <trkpt lat="41.77638" lon="26.14645">
        <ele>94.922485</ele>
        <time>2022-02-26T10:58:11.253Z</time>
      </trkpt>
      <trkpt lat="41.77646" lon="26.14639">
        <ele>94.712352</ele>
        <time>2022-02-26T10:58:13.244Z</time>
      </trkpt>
      <trkpt lat="41.77654" lon="26.14628">
        <ele>94.447508</ele>
        <time>2022-02-26T10:58:16.248Z</time>
      </trkpt>
      <trkpt lat="41.77661" lon="26.14619">
        <ele>94.223104</ele>
        <time>2022-02-26T10:58:19.253Z</time>
      </trkpt>
      <trkpt lat="41.77669" lon="26.14611">
        <ele>93.993803</ele>
        <time>2022-02-26T10:58:22.246Z</time>
      </trkpt>
      <trkpt lat="41.77677" lon="26.14602">
        <ele>93.746302</ele>
        <time>2022-02-26T10:58:25.245Z</time>
      </trkpt>
      <trkpt lat="41.77685" lon="26.14593">
        <ele>93.502849</ele>
        <time>2022-02-26T10:58:28.254Z</time>
      </trkpt>
      <trkpt lat="41.77694" lon="26.14584">
        <ele>93.247801</ele>
        <time>2022-02-26T10:58:31.245Z</time>
      </trkpt>
      <trkpt lat="41.77703" lon="26.14574">
        <ele>92.974014</ele>
        <time>2022-02-26T10:58:34.251Z</time>
      </trkpt>
      <trkpt lat="41.77712" lon="26.14563">
        <ele>92.695841</ele>
        <time>2022-02-26T10:58:37.245Z</time>
      </trkpt>
      <trkpt lat="41.77721" lon="26.14554">
        <ele>92.422379</ele>
        <time>2022-02-26T10:58:40.255Z</time>
      </trkpt>
      <trkpt lat="41.77733" lon="26.1455">
        <ele>92.134708</ele>
        <time>2022-02-26T10:58:43.246Z</time>
      </trkpt>
      <trkpt lat="41.77746" lon="26.1455">
        <ele>91.846856</ele>
        <time>2022-02-26T10:58:46.246Z</time>
      </trkpt>
      <trkpt lat="41.77758" lon="26.14551">
        <ele>91.554158</ele>
        <time>2022-02-26T10:58:49.252Z</time>
      </trkpt>
      <trkpt lat="41.77769" lon="26.14552">
        <ele>91.2977</ele>
        <time>2022-02-26T10:58:52.251Z</time>
      </trkpt>
      <trkpt lat="41.77781" lon="26.14554">
        <ele>91.207293</ele>
        <time>2022-02-26T10:58:55.259Z</time>
      </trkpt>
      <trkpt lat="41.77793" lon="26.14555">
        <ele>91.418324</ele>
        <time>2022-02-26T10:58:58.248Z</time>
      </trkpt>
      <trkpt lat="41.77804" lon="26.14555">
        <ele>91.627386</ele>
        <time>2022-02-26T10:59:01.249Z</time>
      </trkpt>
      <trkpt lat="41.77816" lon="26.14556">
        <ele>91.84228</ele>
        <time>2022-02-26T10:59:04.250Z</time>
      </trkpt>
      <trkpt lat="41.77829" lon="26.14557">
        <ele>92.058848</ele>
        <time>2022-02-26T10:59:07.251Z</time>
      </trkpt>
      <trkpt lat="41.77841" lon="26.14558">
        <ele>92.278867</ele>
        <time>2022-02-26T10:59:10.249Z</time>
      </trkpt>
      <trkpt lat="41.77853" lon="26.14561">
        <ele>92.49726</ele>
        <time>2022-02-26T10:59:13.284Z</time>
      </trkpt>
      <trkpt lat="41.77865" lon="26.14563">
        <ele>92.706332</ele>
        <time>2022-02-26T10:59:16.260Z</time>
      </trkpt>
      <trkpt lat="41.77876" lon="26.14566">
        <ele>92.900912</ele>
        <time>2022-02-26T10:59:19.255Z</time>
      </trkpt>
      <trkpt lat="41.77887" lon="26.14565">
        <ele>93.101121</ele>
        <time>2022-02-26T10:59:23.267Z</time>
      </trkpt>
      <trkpt lat="41.77894" lon="26.14554">
        <ele>93.290292</ele>
        <time>2022-02-26T10:59:27.262Z</time>
      </trkpt>
      <trkpt lat="41.77898" lon="26.14541">
        <ele>93.47902</ele>
        <time>2022-02-26T10:59:30.244Z</time>
      </trkpt>
      <trkpt lat="41.77901" lon="26.14527">
        <ele>93.674751</ele>
        <time>2022-02-26T10:59:33.248Z</time>
      </trkpt>
      <trkpt lat="41.77904" lon="26.14511">
        <ele>93.886125</ele>
        <time>2022-02-26T10:59:36.249Z</time>
      </trkpt>
      <trkpt lat="41.77907" lon="26.14495">
        <ele>94.104476</ele>
        <time>2022-02-26T10:59:39.255Z</time>
      </trkpt>
      <trkpt lat="41.77909" lon="26.14479">
        <ele>94.319233</ele>
        <time>2022-02-26T10:59:42.256Z</time>
      </trkpt>
      <trkpt lat="41.77911" lon="26.14463">
        <ele>94.379227</ele>
        <time>2022-02-26T10:59:45.269Z</time>
      </trkpt>
      <trkpt lat="41.77913" lon="26.14446">
        <ele>94.441003</ele>
        <time>2022-02-26T10:59:48.250Z</time>
      </trkpt>
      <trkpt lat="41.77915" lon="26.14429">
        <ele>94.503848</ele>
        <time>2022-02-26T10:59:51.254Z</time>
      </trkpt>
      <trkpt lat="41.77918" lon="26.14411">
        <ele>94.568</ele>
        <time>2022-02-26T10:59:54.249Z</time>
      </trkpt>
      <trkpt lat="41.77919" lon="26.14394">
        <ele>94.632134</ele>
        <time>2022-02-26T10:59:57.262Z</time>
      </trkpt>
      <trkpt lat="41.7792" lon="26.14376">
        <ele>94.694778</ele>
        <time>2022-02-26T11:00:00.251Z</time>
      </trkpt>
      <trkpt lat="41.77923" lon="26.14359">
        <ele>94.757782</ele>
        <time>2022-02-26T11:00:03.252Z</time>
      </trkpt>
      <trkpt lat="41.77925" lon="26.14346">
        <ele>94.804917</ele>
        <time>2022-02-26T11:00:05.269Z</time>
      </trkpt>
      <trkpt lat="41.77926" lon="26.14334">
        <ele>94.851337</ele>
        <time>2022-02-26T11:00:07.248Z</time>
      </trkpt>
      <trkpt lat="41.77927" lon="26.14322">
        <ele>94.895047</ele>
        <time>2022-02-26T11:00:09.249Z</time>
      </trkpt>
      <trkpt lat="41.77929" lon="26.14304">
        <ele>94.959</ele>
        <time>2022-02-26T11:00:12.245Z</time>
      </trkpt>
      <trkpt lat="41.77931" lon="26.14286">
        <ele>95.023492</ele>
        <time>2022-02-26T11:00:15.263Z</time>
      </trkpt>
      <trkpt lat="41.77932" lon="26.14269">
        <ele>95.088051</ele>
        <time>2022-02-26T11:00:18.247Z</time>
      </trkpt>
      <trkpt lat="41.77934" lon="26.14253">
        <ele>95.145699</ele>
        <time>2022-02-26T11:00:21.249Z</time>
      </trkpt>
      <trkpt lat="41.77935" lon="26.14235">
        <ele>95.18585</ele>
        <time>2022-02-26T11:00:24.248Z</time>
      </trkpt>
      <trkpt lat="41.77937" lon="26.14223">
        <ele>95.179421</ele>
        <time>2022-02-26T11:00:26.253Z</time>
      </trkpt>
      <trkpt lat="41.77939" lon="26.14211">
        <ele>95.172952</ele>
        <time>2022-02-26T11:00:28.255Z</time>
      </trkpt>
      <trkpt lat="41.7794" lon="26.14199">
        <ele>95.166443</ele>
        <time>2022-02-26T11:00:30.252Z</time>
      </trkpt>
      <trkpt lat="41.77942" lon="26.14181">
        <ele>95.157139</ele>
        <time>2022-02-26T11:00:33.257Z</time>
      </trkpt>
      <trkpt lat="41.77943" lon="26.14163">
        <ele>95.147656</ele>
        <time>2022-02-26T11:00:36.249Z</time>
      </trkpt>
      <trkpt lat="41.77945" lon="26.1415">
        <ele>95.14095</ele>
        <time>2022-02-26T11:00:38.255Z</time>
      </trkpt>
      <trkpt lat="41.77946" lon="26.14138">
        <ele>95.134243</ele>
        <time>2022-02-26T11:00:40.247Z</time>
      </trkpt>
      <trkpt lat="41.77947" lon="26.14125">
        <ele>95.127579</ele>
        <time>2022-02-26T11:00:42.251Z</time>
      </trkpt>
      <trkpt lat="41.77948" lon="26.14112">
        <ele>95.120898</ele>
        <time>2022-02-26T11:00:44.247Z</time>
      </trkpt>
      <trkpt lat="41.7795" lon="26.141">
        <ele>95.114502</ele>
        <time>2022-02-26T11:00:46.261Z</time>
      </trkpt>
      <trkpt lat="41.77951" lon="26.14088">
        <ele>95.108073</ele>
        <time>2022-02-26T11:00:48.290Z</time>
      </trkpt>
      <trkpt lat="41.77952" lon="26.14076">
        <ele>95.101756</ele>
        <time>2022-02-26T11:00:50.252Z</time>
      </trkpt>
      <trkpt lat="41.77953" lon="26.14064">
        <ele>95.095413</ele>
        <time>2022-02-26T11:00:52.258Z</time>
      </trkpt>
      <trkpt lat="41.77955" lon="26.14046">
        <ele>95.086128</ele>
        <time>2022-02-26T11:00:55.249Z</time>
      </trkpt>
      <trkpt lat="41.77956" lon="26.14034">
        <ele>95.079395</ele>
        <time>2022-02-26T11:00:57.246Z</time>
      </trkpt>
      <trkpt lat="41.77957" lon="26.1402">
        <ele>95.072118</ele>
        <time>2022-02-26T11:00:59.256Z</time>
      </trkpt>
      <trkpt lat="41.77958" lon="26.14007">
        <ele>95.065162</ele>
        <time>2022-02-26T11:01:01.254Z</time>
      </trkpt>
      <trkpt lat="41.7796" lon="26.13993">
        <ele>94.902413</ele>
        <time>2022-02-26T11:01:03.247Z</time>
      </trkpt>
      <trkpt lat="41.77961" lon="26.1398">
        <ele>94.656562</ele>
        <time>2022-02-26T11:01:05.244Z</time>
      </trkpt>
      <trkpt lat="41.77962" lon="26.13967">
        <ele>94.409813</ele>
        <time>2022-02-26T11:01:07.254Z</time>
      </trkpt>
      <trkpt lat="41.77964" lon="26.13954">
        <ele>94.16544</ele>
        <time>2022-02-26T11:01:09.260Z</time>
      </trkpt>
      <trkpt lat="41.77965" lon="26.13942">
        <ele>93.925499</ele>
        <time>2022-02-26T11:01:11.271Z</time>
      </trkpt>
      <trkpt lat="41.77967" lon="26.1393">
        <ele>93.69591</ele>
        <time>2022-02-26T11:01:13.252Z</time>
      </trkpt>
      <trkpt lat="41.77968" lon="26.13917">
        <ele>93.447954</ele>
        <time>2022-02-26T11:01:15.246Z</time>
      </trkpt>
      <trkpt lat="41.7797" lon="26.13903">
        <ele>93.192165</ele>
        <time>2022-02-26T11:01:17.271Z</time>
      </trkpt>
      <trkpt lat="41.77972" lon="26.1389">
        <ele>92.93363</ele>
        <time>2022-02-26T11:01:19.247Z</time>
      </trkpt>
      <trkpt lat="41.77975" lon="26.13876">
        <ele>92.673863</ele>
        <time>2022-02-26T11:01:21.253Z</time>
      </trkpt>
      <trkpt lat="41.77977" lon="26.13863">
        <ele>92.423744</ele>
        <time>2022-02-26T11:01:23.244Z</time>
      </trkpt>
      <trkpt lat="41.7798" lon="26.13851">
        <ele>92.178715</ele>
        <time>2022-02-26T11:01:25.257Z</time>
      </trkpt>
      <trkpt lat="41.77983" lon="26.13839">
        <ele>91.940177</ele>
        <time>2022-02-26T11:01:27.262Z</time>
      </trkpt>
      <trkpt lat="41.77987" lon="26.13827">
        <ele>91.706042</ele>
        <time>2022-02-26T11:01:29.276Z</time>
      </trkpt>
      <trkpt lat="41.77991" lon="26.13815">
        <ele>91.467873</ele>
        <time>2022-02-26T11:01:31.269Z</time>
      </trkpt>
      <trkpt lat="41.77995" lon="26.13804">
        <ele>91.220772</ele>
        <time>2022-02-26T11:01:33.271Z</time>
      </trkpt>
      <trkpt lat="41.78" lon="26.13792">
        <ele>90.978159</ele>
        <time>2022-02-26T11:01:35.273Z</time>
      </trkpt>
      <trkpt lat="41.78005" lon="26.13782">
        <ele>90.747637</ele>
        <time>2022-02-26T11:01:37.284Z</time>
      </trkpt>
      <trkpt lat="41.78012" lon="26.13767">
        <ele>90.245719</ele>
        <time>2022-02-26T11:01:40.322Z</time>
      </trkpt>
      <trkpt lat="41.7802" lon="26.13754">
        <ele>89.502685</ele>
        <time>2022-02-26T11:01:43.268Z</time>
      </trkpt>
      <trkpt lat="41.78029" lon="26.13741">
        <ele>88.725679</ele>
        <time>2022-02-26T11:01:46.300Z</time>
      </trkpt>
      <trkpt lat="41.78038" lon="26.13728">
        <ele>87.951609</ele>
        <time>2022-02-26T11:01:49.269Z</time>
      </trkpt>
      <trkpt lat="41.78044" lon="26.1372">
        <ele>87.42211</ele>
        <time>2022-02-26T11:01:51.268Z</time>
      </trkpt>
      <trkpt lat="41.78051" lon="26.13711">
        <ele>86.892324</ele>
        <time>2022-02-26T11:01:53.283Z</time>
      </trkpt>
      <trkpt lat="41.78058" lon="26.13703">
        <ele>86.35528</ele>
        <time>2022-02-26T11:01:55.285Z</time>
      </trkpt>
      <trkpt lat="41.78065" lon="26.13695">
        <ele>85.806635</ele>
        <time>2022-02-26T11:01:57.269Z</time>
      </trkpt>
      <trkpt lat="41.78072" lon="26.13687">
        <ele>85.254632</ele>
        <time>2022-02-26T11:01:59.276Z</time>
      </trkpt>
      <trkpt lat="41.78079" lon="26.13679">
        <ele>84.723404</ele>
        <time>2022-02-26T11:02:01.281Z</time>
      </trkpt>
      <trkpt lat="41.78086" lon="26.13671">
        <ele>84.19329</ele>
        <time>2022-02-26T11:02:03.283Z</time>
      </trkpt>
      <trkpt lat="41.78093" lon="26.13663">
        <ele>83.640197</ele>
        <time>2022-02-26T11:02:05.264Z</time>
      </trkpt>
      <trkpt lat="41.78101" lon="26.13655">
        <ele>83.071777</ele>
        <time>2022-02-26T11:02:07.267Z</time>
      </trkpt>
      <trkpt lat="41.78108" lon="26.13646">
        <ele>82.493986</ele>
        <time>2022-02-26T11:02:09.272Z</time>
      </trkpt>
      <trkpt lat="41.78116" lon="26.13637">
        <ele>81.917765</ele>
        <time>2022-02-26T11:02:11.270Z</time>
      </trkpt>
      <trkpt lat="41.78123" lon="26.13628">
        <ele>81.334185</ele>
        <time>2022-02-26T11:02:13.273Z</time>
      </trkpt>
      <trkpt lat="41.7813" lon="26.1362">
        <ele>80.773804</ele>
        <time>2022-02-26T11:02:15.267Z</time>
      </trkpt>
      <trkpt lat="41.78138" lon="26.13611">
        <ele>80.203404</ele>
        <time>2022-02-26T11:02:17.282Z</time>
      </trkpt>
      <trkpt lat="41.78144" lon="26.13603">
        <ele>79.897023</ele>
        <time>2022-02-26T11:02:19.283Z</time>
      </trkpt>
      <trkpt lat="41.78154" lon="26.13591">
        <ele>79.649459</ele>
        <time>2022-02-26T11:02:22.269Z</time>
      </trkpt>
      <trkpt lat="41.78164" lon="26.1358">
        <ele>79.399508</ele>
        <time>2022-02-26T11:02:25.276Z</time>
      </trkpt>
      <trkpt lat="41.78171" lon="26.13572">
        <ele>79.222976</ele>
        <time>2022-02-26T11:02:27.276Z</time>
      </trkpt>
      <trkpt lat="41.78178" lon="26.13563">
        <ele>79.037412</ele>
        <time>2022-02-26T11:02:29.279Z</time>
      </trkpt>
      <trkpt lat="41.78186" lon="26.13555">
        <ele>78.850183</ele>
        <time>2022-02-26T11:02:31.275Z</time>
      </trkpt>
      <trkpt lat="41.78194" lon="26.13546">
        <ele>78.653384</ele>
        <time>2022-02-26T11:02:33.307Z</time>
      </trkpt>
      <trkpt lat="41.78202" lon="26.13538">
        <ele>78.456847</ele>
        <time>2022-02-26T11:02:35.275Z</time>
      </trkpt>
      <trkpt lat="41.78209" lon="26.1353">
        <ele>78.279462</ele>
        <time>2022-02-26T11:02:37.271Z</time>
      </trkpt>
      <trkpt lat="41.78217" lon="26.13523">
        <ele>78.096797</ele>
        <time>2022-02-26T11:02:39.294Z</time>
      </trkpt>
      <trkpt lat="41.78225" lon="26.13515">
        <ele>77.906224</ele>
        <time>2022-02-26T11:02:41.277Z</time>
      </trkpt>
      <trkpt lat="41.78234" lon="26.13508">
        <ele>77.714014</ele>
        <time>2022-02-26T11:02:43.266Z</time>
      </trkpt>
      <trkpt lat="41.78242" lon="26.13501">
        <ele>77.526666</ele>
        <time>2022-02-26T11:02:45.271Z</time>
      </trkpt>
      <trkpt lat="41.7825" lon="26.13494">
        <ele>77.344745</ele>
        <time>2022-02-26T11:02:47.265Z</time>
      </trkpt>
      <trkpt lat="41.78258" lon="26.13488">
        <ele>77.158056</ele>
        <time>2022-02-26T11:02:49.269Z</time>
      </trkpt>
      <trkpt lat="41.78266" lon="26.13481">
        <ele>76.980157</ele>
        <time>2022-02-26T11:02:51.267Z</time>
      </trkpt>
      <trkpt lat="41.78274" lon="26.13475">
        <ele>76.804915</ele>
        <time>2022-02-26T11:02:53.278Z</time>
      </trkpt>
      <trkpt lat="41.78282" lon="26.13469">
        <ele>76.625619</ele>
        <time>2022-02-26T11:02:55.320Z</time>
      </trkpt>
      <trkpt lat="41.7829" lon="26.13464">
        <ele>76.830021</ele>
        <time>2022-02-26T11:02:57.284Z</time>
      </trkpt>
      <trkpt lat="41.78302" lon="26.13456">
        <ele>77.410023</ele>
        <time>2022-02-26T11:03:00.268Z</time>
      </trkpt>
      <trkpt lat="41.7831" lon="26.13451">
        <ele>77.8302</ele>
        <time>2022-02-26T11:03:02.283Z</time>
      </trkpt>
      <trkpt lat="41.78319" lon="26.13445">
        <ele>78.27112</ele>
        <time>2022-02-26T11:03:04.285Z</time>
      </trkpt>
      <trkpt lat="41.78327" lon="26.1344">
        <ele>78.696891</ele>
        <time>2022-02-26T11:03:06.263Z</time>
      </trkpt>
      <trkpt lat="41.78335" lon="26.13435">
        <ele>79.110328</ele>
        <time>2022-02-26T11:03:08.287Z</time>
      </trkpt>
      <trkpt lat="41.78344" lon="26.13432">
        <ele>79.533943</ele>
        <time>2022-02-26T11:03:10.273Z</time>
      </trkpt>
      <trkpt lat="41.78353" lon="26.13428">
        <ele>79.958639</ele>
        <time>2022-02-26T11:03:12.266Z</time>
      </trkpt>
      <trkpt lat="41.78362" lon="26.13423">
        <ele>80.392191</ele>
        <time>2022-02-26T11:03:14.283Z</time>
      </trkpt>
      <trkpt lat="41.78375" lon="26.13419">
        <ele>81.004186</ele>
        <time>2022-02-26T11:03:17.289Z</time>
      </trkpt>
      <trkpt lat="41.78384" lon="26.13416">
        <ele>81.420931</ele>
        <time>2022-02-26T11:03:19.257Z</time>
      </trkpt>
      <trkpt lat="41.78393" lon="26.13413">
        <ele>81.844</ele>
        <time>2022-02-26T11:03:21.271Z</time>
      </trkpt>
      <trkpt lat="41.78402" lon="26.1341">
        <ele>82.259618</ele>
        <time>2022-02-26T11:03:23.283Z</time>
      </trkpt>
      <trkpt lat="41.78411" lon="26.13408">
        <ele>82.684885</ele>
        <time>2022-02-26T11:03:25.272Z</time>
      </trkpt>
      <trkpt lat="41.7842" lon="26.13406">
        <ele>83.106366</ele>
        <time>2022-02-26T11:03:27.278Z</time>
      </trkpt>
      <trkpt lat="41.78433" lon="26.13402">
        <ele>83.702127</ele>
        <time>2022-02-26T11:03:30.304Z</time>
      </trkpt>
      <trkpt lat="41.78442" lon="26.13401">
        <ele>84.121189</ele>
        <time>2022-02-26T11:03:32.264Z</time>
      </trkpt>
      <trkpt lat="41.78451" lon="26.13399">
        <ele>84.540681</ele>
        <time>2022-02-26T11:03:34.277Z</time>
      </trkpt>
      <trkpt lat="41.78464" lon="26.13397">
        <ele>85.149847</ele>
        <time>2022-02-26T11:03:37.292Z</time>
      </trkpt>
      <trkpt lat="41.78477" lon="26.13395">
        <ele>85.739278</ele>
        <time>2022-02-26T11:03:40.258Z</time>
      </trkpt>
      <trkpt lat="41.78486" lon="26.13394">
        <ele>86.163692</ele>
        <time>2022-02-26T11:03:42.278Z</time>
      </trkpt>
      <trkpt lat="41.78495" lon="26.13392">
        <ele>86.575775</ele>
        <time>2022-02-26T11:03:44.291Z</time>
      </trkpt>
      <trkpt lat="41.78504" lon="26.13391">
        <ele>86.991161</ele>
        <time>2022-02-26T11:03:46.275Z</time>
      </trkpt>
      <trkpt lat="41.78514" lon="26.13389">
        <ele>87.409186</ele>
        <time>2022-02-26T11:03:48.273Z</time>
      </trkpt>
      <trkpt lat="41.78522" lon="26.13386">
        <ele>87.823041</ele>
        <time>2022-02-26T11:03:50.253Z</time>
      </trkpt>
      <trkpt lat="41.78531" lon="26.13383">
        <ele>88.236485</ele>
        <time>2022-02-26T11:03:52.275Z</time>
      </trkpt>
      <trkpt lat="41.78545" lon="26.1338">
        <ele>88.855501</ele>
        <time>2022-02-26T11:03:55.287Z</time>
      </trkpt>
      <trkpt lat="41.78554" lon="26.13378">
        <ele>89.283569</ele>
        <time>2022-02-26T11:03:57.308Z</time>
      </trkpt>
      <trkpt lat="41.78563" lon="26.13376">
        <ele>89.711089</ele>
        <time>2022-02-26T11:03:59.266Z</time>
      </trkpt>
      <trkpt lat="41.78572" lon="26.13374">
        <ele>90.129114</ele>
        <time>2022-02-26T11:04:01.268Z</time>
      </trkpt>
      <trkpt lat="41.78581" lon="26.13373">
        <ele>90.544872</ele>
        <time>2022-02-26T11:04:03.308Z</time>
      </trkpt>
      <trkpt lat="41.78591" lon="26.13371">
        <ele>90.96965</ele>
        <time>2022-02-26T11:04:05.265Z</time>
      </trkpt>
      <trkpt lat="41.786" lon="26.13369">
        <ele>91.39568</ele>
        <time>2022-02-26T11:04:07.262Z</time>
      </trkpt>
      <trkpt lat="41.78609" lon="26.13367">
        <ele>91.816</ele>
        <time>2022-02-26T11:04:09.271Z</time>
      </trkpt>
      <trkpt lat="41.78618" lon="26.13364">
        <ele>92.224593</ele>
        <time>2022-02-26T11:04:11.274Z</time>
      </trkpt>
      <trkpt lat="41.78628" lon="26.13354">
        <ele>92.799581</ele>
        <time>2022-02-26T11:04:14.316Z</time>
      </trkpt>
      <trkpt lat="41.78632" lon="26.13338">
        <ele>92.836484</ele>
        <time>2022-02-26T11:04:17.287Z</time>
      </trkpt>
      <trkpt lat="41.78633" lon="26.13323">
        <ele>92.696081</ele>
        <time>2022-02-26T11:04:20.300Z</time>
      </trkpt>
      <trkpt lat="41.78634" lon="26.13311">
        <ele>92.57974</ele>
        <time>2022-02-26T11:04:23.274Z</time>
      </trkpt>
      <trkpt lat="41.78634" lon="26.13297">
        <ele>92.451936</ele>
        <time>2022-02-26T11:04:27.271Z</time>
      </trkpt>
      <trkpt lat="41.78635" lon="26.13284">
        <ele>92.327831</ele>
        <time>2022-02-26T11:04:32.262Z</time>
      </trkpt>
      <trkpt lat="41.78635" lon="26.1327">
        <ele>92.200027</ele>
        <time>2022-02-26T11:04:37.260Z</time>
      </trkpt>
      <trkpt lat="41.78636" lon="26.13257">
        <ele>92.077563</ele>
        <time>2022-02-26T11:04:42.255Z</time>
      </trkpt>
      <trkpt lat="41.78637" lon="26.13244">
        <ele>91.964328</ele>
        <time>2022-02-26T11:04:47.255Z</time>
      </trkpt>
      <trkpt lat="41.78638" lon="26.13232">
        <ele>91.848269</ele>
        <time>2022-02-26T11:04:52.279Z</time>
      </trkpt>
      <trkpt lat="41.78639" lon="26.13219">
        <ele>91.729639</ele>
        <time>2022-02-26T11:04:57.249Z</time>
      </trkpt>
      <trkpt lat="41.78641" lon="26.13206">
        <ele>91.605158</ele>
        <time>2022-02-26T11:05:03.270Z</time>
      </trkpt>
      <trkpt lat="41.78642" lon="26.13193">
        <ele>91.482106</ele>
        <time>2022-02-26T11:05:09.269Z</time>
      </trkpt>
      <trkpt lat="41.78644" lon="26.13179">
        <ele>91.350301</ele>
        <time>2022-02-26T11:05:15.267Z</time>
      </trkpt>
      <trkpt lat="41.78645" lon="26.13165">
        <ele>91.224168</ele>
        <time>2022-02-26T11:05:21.279Z</time>
      </trkpt>
      <trkpt lat="41.78647" lon="26.13152">
        <ele>91.095284</ele>
        <time>2022-02-26T11:05:27.268Z</time>
      </trkpt>
      <trkpt lat="41.78649" lon="26.13139">
        <ele>90.980315</ele>
        <time>2022-02-26T11:05:33.273Z</time>
      </trkpt>
      <trkpt lat="41.78651" lon="26.13127">
        <ele>90.860559</ele>
        <time>2022-02-26T11:05:39.274Z</time>
      </trkpt>
      <trkpt lat="41.78656" lon="26.13116">
        <ele>90.741474</ele>
        <time>2022-02-26T11:05:45.269Z</time>
      </trkpt>
      <trkpt lat="41.78661" lon="26.13105">
        <ele>90.829106</ele>
        <time>2022-02-26T11:05:50.270Z</time>
      </trkpt>
      <trkpt lat="41.78668" lon="26.13093">
        <ele>90.986537</ele>
        <time>2022-02-26T11:05:54.279Z</time>
      </trkpt>
      <trkpt lat="41.78674" lon="26.13083">
        <ele>91.128524</ele>
        <time>2022-02-26T11:05:57.264Z</time>
      </trkpt>
      <trkpt lat="41.7868" lon="26.13074">
        <ele>91.258382</ele>
        <time>2022-02-26T11:06:00.267Z</time>
      </trkpt>
      <trkpt lat="41.78687" lon="26.13061">
        <ele>91.421761</ele>
        <time>2022-02-26T11:06:04.298Z</time>
      </trkpt>
      <trkpt lat="41.78694" lon="26.13048">
        <ele>91.592091</ele>
        <time>2022-02-26T11:06:08.272Z</time>
      </trkpt>
      <trkpt lat="41.78699" lon="26.13035">
        <ele>91.758087</ele>
        <time>2022-02-26T11:06:12.273Z</time>
      </trkpt>
      <trkpt lat="41.78704" lon="26.13025">
        <ele>91.890193</ele>
        <time>2022-02-26T11:06:15.309Z</time>
      </trkpt>
      <trkpt lat="41.7871" lon="26.13011">
        <ele>92.057848</ele>
        <time>2022-02-26T11:06:19.281Z</time>
      </trkpt>
      <trkpt lat="41.78716" lon="26.12998">
        <ele>92.224276</ele>
        <time>2022-02-26T11:06:23.303Z</time>
      </trkpt>
      <trkpt lat="41.78723" lon="26.12986">
        <ele>92.386797</ele>
        <time>2022-02-26T11:06:27.273Z</time>
      </trkpt>
      <trkpt lat="41.78728" lon="26.12975">
        <ele>92.52043</ele>
        <time>2022-02-26T11:06:30.286Z</time>
      </trkpt>
      <trkpt lat="41.78735" lon="26.12963">
        <ele>92.688977</ele>
        <time>2022-02-26T11:06:34.283Z</time>
      </trkpt>
      <trkpt lat="41.78743" lon="26.1295">
        <ele>92.861977</ele>
        <time>2022-02-26T11:06:38.284Z</time>
      </trkpt>
      <trkpt lat="41.78749" lon="26.12941">
        <ele>92.994601</ele>
        <time>2022-02-26T11:06:41.270Z</time>
      </trkpt>
      <trkpt lat="41.78758" lon="26.12931">
        <ele>93.158735</ele>
        <time>2022-02-26T11:06:45.283Z</time>
      </trkpt>
      <trkpt lat="41.78765" lon="26.1292">
        <ele>93.302745</ele>
        <time>2022-02-26T11:06:49.306Z</time>
      </trkpt>
      <trkpt lat="41.78771" lon="26.12906">
        <ele>93.272206</ele>
        <time>2022-02-26T11:06:53.267Z</time>
      </trkpt>
      <trkpt lat="41.78776" lon="26.12896">
        <ele>93.248062</ele>
        <time>2022-02-26T11:06:56.285Z</time>
      </trkpt>
      <trkpt lat="41.78781" lon="26.12885">
        <ele>93.224924</ele>
        <time>2022-02-26T11:06:59.284Z</time>
      </trkpt>
      <trkpt lat="41.78788" lon="26.12873">
        <ele>93.195502</ele>
        <time>2022-02-26T11:07:03.275Z</time>
      </trkpt>
      <trkpt lat="41.78795" lon="26.1286">
        <ele>93.165624</ele>
        <time>2022-02-26T11:07:07.264Z</time>
      </trkpt>
      <trkpt lat="41.78801" lon="26.12851">
        <ele>93.142721</ele>
        <time>2022-02-26T11:07:10.281Z</time>
      </trkpt>
      <trkpt lat="41.78807" lon="26.12838">
        <ele>93.112796</ele>
        <time>2022-02-26T11:07:14.279Z</time>
      </trkpt>
      <trkpt lat="41.78814" lon="26.12825">
        <ele>93.083666</ele>
        <time>2022-02-26T11:07:18.290Z</time>
      </trkpt>
      <trkpt lat="41.78819" lon="26.12815">
        <ele>93.060712</ele>
        <time>2022-02-26T11:07:21.283Z</time>
      </trkpt>
      <trkpt lat="41.78824" lon="26.12804">
        <ele>93.036823</ele>
        <time>2022-02-26T11:07:24.260Z</time>
      </trkpt>
      <trkpt lat="41.78828" lon="26.12794">
        <ele>93.014111</ele>
        <time>2022-02-26T11:07:27.287Z</time>
      </trkpt>
      <trkpt lat="41.78834" lon="26.12783">
        <ele>92.99028</ele>
        <time>2022-02-26T11:07:30.280Z</time>
      </trkpt>
      <trkpt lat="41.7884" lon="26.12774">
        <ele>92.965405</ele>
        <time>2022-02-26T11:07:33.287Z</time>
      </trkpt>
      <trkpt lat="41.78847" lon="26.12764">
        <ele>92.940316</ele>
        <time>2022-02-26T11:07:36.290Z</time>
      </trkpt>
      <trkpt lat="41.78854" lon="26.12756">
        <ele>92.916103</ele>
        <time>2022-02-26T11:07:39.259Z</time>
      </trkpt>
      <trkpt lat="41.78862" lon="26.12746">
        <ele>92.889812</ele>
        <time>2022-02-26T11:07:43.271Z</time>
      </trkpt>
      <trkpt lat="41.7887" lon="26.12738">
        <ele>92.86451</ele>
        <time>2022-02-26T11:07:47.289Z</time>
      </trkpt>
      <trkpt lat="41.78878" lon="26.12729">
        <ele>92.711133</ele>
        <time>2022-02-26T11:07:51.285Z</time>
      </trkpt>
      <trkpt lat="41.78886" lon="26.1272">
        <ele>92.389603</ele>
        <time>2022-02-26T11:07:55.272Z</time>
      </trkpt>
      <trkpt lat="41.78895" lon="26.12711">
        <ele>92.0652</ele>
        <time>2022-02-26T11:07:59.282Z</time>
      </trkpt>
      <trkpt lat="41.78902" lon="26.12703">
        <ele>91.77513</ele>
        <time>2022-02-26T11:08:02.275Z</time>
      </trkpt>
      <trkpt lat="41.7891" lon="26.12694">
        <ele>91.466473</ele>
        <time>2022-02-26T11:08:05.285Z</time>
      </trkpt>
      <trkpt lat="41.7892" lon="26.12686">
        <ele>91.096212</ele>
        <time>2022-02-26T11:08:08.279Z</time>
      </trkpt>
      <trkpt lat="41.7893" lon="26.12676">
        <ele>90.727879</ele>
        <time>2022-02-26T11:08:11.277Z</time>
      </trkpt>
      <trkpt lat="41.78938" lon="26.12668">
        <ele>90.420636</ele>
        <time>2022-02-26T11:08:14.274Z</time>
      </trkpt>
      <trkpt lat="41.78945" lon="26.1266">
        <ele>90.135759</ele>
        <time>2022-02-26T11:08:17.283Z</time>
      </trkpt>
      <trkpt lat="41.78952" lon="26.12653">
        <ele>89.859423</ele>
        <time>2022-02-26T11:08:20.269Z</time>
      </trkpt>
      <trkpt lat="41.7896" lon="26.12646">
        <ele>89.573223</ele>
        <time>2022-02-26T11:08:23.283Z</time>
      </trkpt>
      <trkpt lat="41.78968" lon="26.12638">
        <ele>89.278837</ele>
        <time>2022-02-26T11:08:26.269Z</time>
      </trkpt>
      <trkpt lat="41.78975" lon="26.1263">
        <ele>88.995473</ele>
        <time>2022-02-26T11:08:29.269Z</time>
      </trkpt>
      <trkpt lat="41.78982" lon="26.12622">
        <ele>88.700991</ele>
        <time>2022-02-26T11:08:32.267Z</time>
      </trkpt>
      <trkpt lat="41.78989" lon="26.12613">
        <ele>88.412634</ele>
        <time>2022-02-26T11:08:35.282Z</time>
      </trkpt>
      <trkpt lat="41.78998" lon="26.12602">
        <ele>88.042781</ele>
        <time>2022-02-26T11:08:39.280Z</time>
      </trkpt>
      <trkpt lat="41.79005" lon="26.12594">
        <ele>87.755208</ele>
        <time>2022-02-26T11:08:42.284Z</time>
      </trkpt>
      <trkpt lat="41.79012" lon="26.12585">
        <ele>87.460027</ele>
        <time>2022-02-26T11:08:45.287Z</time>
      </trkpt>
      <trkpt lat="41.79019" lon="26.12577">
        <ele>87.427007</ele>
        <time>2022-02-26T11:08:48.271Z</time>
      </trkpt>
      <trkpt lat="41.79026" lon="26.12569">
        <ele>87.579679</ele>
        <time>2022-02-26T11:08:51.248Z</time>
      </trkpt>
      <trkpt lat="41.79034" lon="26.1256">
        <ele>87.741068</ele>
        <time>2022-02-26T11:08:54.280Z</time>
      </trkpt>
      <trkpt lat="41.7904" lon="26.12552">
        <ele>87.889904</ele>
        <time>2022-02-26T11:08:57.255Z</time>
      </trkpt>
      <trkpt lat="41.79048" lon="26.12543">
        <ele>88.051293</ele>
        <time>2022-02-26T11:09:01.253Z</time>
      </trkpt>
      <trkpt lat="41.79055" lon="26.12535">
        <ele>88.202964</ele>
        <time>2022-02-26T11:09:06.270Z</time>
      </trkpt>
      <trkpt lat="41.79066" lon="26.1252">
        <ele>88.461441</ele>
        <time>2022-02-26T11:10:04.260Z</time>
      </trkpt>
      <trkpt lat="41.79074" lon="26.12513">
        <ele>88.61042</ele>
        <time>2022-02-26T11:10:36.261Z</time>
      </trkpt>
      <trkpt lat="41.79083" lon="26.125">
        <ele>88.828813</ele>
        <time>2022-02-26T11:11:05.248Z</time>
      </trkpt>
      <trkpt lat="41.79091" lon="26.12491">
        <ele>88.996657</ele>
        <time>2022-02-26T11:11:12.245Z</time>
      </trkpt>
      <trkpt lat="41.79099" lon="26.12485">
        <ele>89.144101</ele>
        <time>2022-02-26T11:11:16.253Z</time>
      </trkpt>
      <trkpt lat="41.79108" lon="26.12479">
        <ele>89.321135</ele>
        <time>2022-02-26T11:11:21.260Z</time>
      </trkpt>
      <trkpt lat="41.79117" lon="26.12473">
        <ele>89.484606</ele>
        <time>2022-02-26T11:11:26.279Z</time>
      </trkpt>
      <trkpt lat="41.79125" lon="26.12468">
        <ele>89.632377</ele>
        <time>2022-02-26T11:11:31.251Z</time>
      </trkpt>
      <trkpt lat="41.79134" lon="26.12462">
        <ele>89.783471</ele>
        <time>2022-02-26T11:11:36.253Z</time>
      </trkpt>
      <trkpt lat="41.79142" lon="26.12457">
        <ele>89.932577</ele>
        <time>2022-02-26T11:11:41.244Z</time>
      </trkpt>
      <trkpt lat="41.79152" lon="26.12451">
        <ele>90.105611</ele>
        <time>2022-02-26T11:11:46.249Z</time>
      </trkpt>
      <trkpt lat="41.79161" lon="26.12444">
        <ele>90.270902</ele>
        <time>2022-02-26T11:11:51.256Z</time>
      </trkpt>
      <trkpt lat="41.7917" lon="26.12438">
        <ele>90.33219</ele>
        <time>2022-02-26T11:11:56.251Z</time>
      </trkpt>
      <trkpt lat="41.7918" lon="26.12433">
        <ele>90.394617</ele>
        <time>2022-02-26T11:12:01.248Z</time>
      </trkpt>
      <trkpt lat="41.7919" lon="26.12425">
        <ele>90.46048</ele>
        <time>2022-02-26T11:12:06.271Z</time>
      </trkpt>
      <trkpt lat="41.79198" lon="26.12418">
        <ele>90.518441</ele>
        <time>2022-02-26T11:12:10.247Z</time>
      </trkpt>
      <trkpt lat="41.79206" lon="26.12412">
        <ele>90.572328</ele>
        <time>2022-02-26T11:12:14.263Z</time>
      </trkpt>
      <trkpt lat="41.79215" lon="26.12405">
        <ele>90.633702</ele>
        <time>2022-02-26T11:12:19.251Z</time>
      </trkpt>
      <trkpt lat="41.79224" lon="26.124">
        <ele>90.688396</ele>
        <time>2022-02-26T11:12:23.242Z</time>
      </trkpt>
      <trkpt lat="41.79234" lon="26.12393">
        <ele>90.756297</ele>
        <time>2022-02-26T11:12:28.284Z</time>
      </trkpt>
      <trkpt lat="41.79244" lon="26.12386">
        <ele>90.819941</ele>
        <time>2022-02-26T11:12:32.248Z</time>
      </trkpt>
      <trkpt lat="41.79251" lon="26.12379">
        <ele>90.877024</ele>
        <time>2022-02-26T11:12:37.244Z</time>
      </trkpt>
      <trkpt lat="41.7926" lon="26.1237">
        <ele>90.937343</ele>
        <time>2022-02-26T11:12:42.253Z</time>
      </trkpt>
      <trkpt lat="41.79265" lon="26.12359">
        <ele>90.995364</ele>
        <time>2022-02-26T11:12:47.254Z</time>
      </trkpt>
      <trkpt lat="41.79273" lon="26.12351">
        <ele>91.053223</ele>
        <time>2022-02-26T11:12:54.259Z</time>
      </trkpt>
      <trkpt lat="41.79283" lon="26.12345">
        <ele>91.115596</ele>
        <time>2022-02-26T11:13:00.251Z</time>
      </trkpt>
      <trkpt lat="41.79291" lon="26.12338">
        <ele>91.173635</ele>
        <time>2022-02-26T11:13:05.247Z</time>
      </trkpt>
      <trkpt lat="41.79298" lon="26.12328">
        <ele>91.235536</ele>
        <time>2022-02-26T11:13:10.251Z</time>
      </trkpt>
      <trkpt lat="41.79306" lon="26.12318">
        <ele>91.297437</ele>
        <time>2022-02-26T11:13:15.247Z</time>
      </trkpt>
      <trkpt lat="41.79313" lon="26.12306">
        <ele>91.313513</ele>
        <time>2022-02-26T11:13:20.269Z</time>
      </trkpt>
      <trkpt lat="41.7932" lon="26.12297">
        <ele>91.296064</ele>
        <time>2022-02-26T11:13:24.256Z</time>
      </trkpt>
      <trkpt lat="41.79326" lon="26.12287">
        <ele>91.280214</ele>
        <time>2022-02-26T11:13:28.260Z</time>
      </trkpt>
      <trkpt lat="41.79334" lon="26.12278">
        <ele>91.261617</ele>
        <time>2022-02-26T11:13:33.250Z</time>
      </trkpt>
      <trkpt lat="41.79342" lon="26.12268">
        <ele>91.243613</ele>
        <time>2022-02-26T11:13:38.251Z</time>
      </trkpt>
      <trkpt lat="41.7935" lon="26.12257">
        <ele>91.22413</ele>
        <time>2022-02-26T11:13:43.248Z</time>
      </trkpt>
      <trkpt lat="41.79356" lon="26.12248">
        <ele>91.20802</ele>
        <time>2022-02-26T11:13:47.246Z</time>
      </trkpt>
      <trkpt lat="41.79363" lon="26.1224">
        <ele>91.191264</ele>
        <time>2022-02-26T11:13:51.272Z</time>
      </trkpt>
      <trkpt lat="41.79371" lon="26.12231">
        <ele>91.174463</ele>
        <time>2022-02-26T11:13:55.245Z</time>
      </trkpt>
      <trkpt lat="41.79378" lon="26.12223">
        <ele>91.158949</ele>
        <time>2022-02-26T11:13:59.247Z</time>
      </trkpt>
      <trkpt lat="41.79384" lon="26.12215">
        <ele>91.143266</ele>
        <time>2022-02-26T11:14:03.251Z</time>
      </trkpt>
      <trkpt lat="41.79391" lon="26.12205">
        <ele>91.12551</ele>
        <time>2022-02-26T11:14:08.249Z</time>
      </trkpt>
      <trkpt lat="41.79398" lon="26.12194">
        <ele>91.106882</ele>
        <time>2022-02-26T11:14:13.271Z</time>
      </trkpt>
      <trkpt lat="41.79406" lon="26.12183">
        <ele>91.088424</ele>
        <time>2022-02-26T11:14:18.248Z</time>
      </trkpt>
      <trkpt lat="41.79413" lon="26.12174">
        <ele>91.070545</ele>
        <time>2022-02-26T11:14:23.260Z</time>
      </trkpt>
      <trkpt lat="41.79421" lon="26.12164">
        <ele>91.051729</ele>
        <time>2022-02-26T11:14:28.262Z</time>
      </trkpt>
      <trkpt lat="41.79429" lon="26.12154">
        <ele>91.033156</ele>
        <time>2022-02-26T11:14:33.253Z</time>
      </trkpt>
      <trkpt lat="41.79436" lon="26.12145">
        <ele>91.016713</ele>
        <time>2022-02-26T11:14:38.252Z</time>
      </trkpt>
      <trkpt lat="41.79442" lon="26.12136">
        <ele>91.331241</ele>
        <time>2022-02-26T11:14:43.251Z</time>
      </trkpt>
      <trkpt lat="41.79449" lon="26.12126">
        <ele>91.724187</ele>
        <time>2022-02-26T11:14:48.280Z</time>
      </trkpt>
      <trkpt lat="41.79456" lon="26.12116">
        <ele>92.122315</ele>
        <time>2022-02-26T11:14:54.255Z</time>
      </trkpt>
      <trkpt lat="41.79464" lon="26.12106">
        <ele>92.510813</ele>
        <time>2022-02-26T11:14:59.272Z</time>
      </trkpt>
      <trkpt lat="41.79472" lon="26.12097">
        <ele>92.91407</ele>
        <time>2022-02-26T11:15:05.272Z</time>
      </trkpt>
      <trkpt lat="41.79479" lon="26.12088">
        <ele>93.3125</ele>
        <time>2022-02-26T11:15:10.269Z</time>
      </trkpt>
      <trkpt lat="41.79485" lon="26.12077">
        <ele>93.685424</ele>
        <time>2022-02-26T11:15:15.284Z</time>
      </trkpt>
      <trkpt lat="41.79492" lon="26.12067">
        <ele>94.066086</ele>
        <time>2022-02-26T11:15:20.273Z</time>
      </trkpt>
      <trkpt lat="41.79498" lon="26.12057">
        <ele>94.437777</ele>
        <time>2022-02-26T11:15:25.279Z</time>
      </trkpt>
      <trkpt lat="41.79505" lon="26.12047">
        <ele>94.832838</ele>
        <time>2022-02-26T11:15:30.265Z</time>
      </trkpt>
      <trkpt lat="41.79512" lon="26.12036">
        <ele>95.25227</ele>
        <time>2022-02-26T11:15:35.273Z</time>
      </trkpt>
      <trkpt lat="41.7952" lon="26.12025">
        <ele>95.677098</ele>
        <time>2022-02-26T11:15:40.284Z</time>
      </trkpt>
      <trkpt lat="41.79527" lon="26.12015">
        <ele>96.06696</ele>
        <time>2022-02-26T11:15:45.326Z</time>
      </trkpt>
      <trkpt lat="41.79534" lon="26.12006">
        <ele>96.443313</ele>
        <time>2022-02-26T11:15:50.274Z</time>
      </trkpt>
      <trkpt lat="41.7954" lon="26.11997">
        <ele>96.795523</ele>
        <time>2022-02-26T11:15:54.316Z</time>
      </trkpt>
      <trkpt lat="41.79548" lon="26.11987">
        <ele>97.206461</ele>
        <time>2022-02-26T11:15:59.276Z</time>
      </trkpt>
      <trkpt lat="41.79554" lon="26.11978">
        <ele>97.557856</ele>
        <time>2022-02-26T11:16:03.267Z</time>
      </trkpt>
      <trkpt lat="41.79561" lon="26.11969">
        <ele>97.90857</ele>
        <time>2022-02-26T11:16:07.277Z</time>
      </trkpt>
      <trkpt lat="41.79568" lon="26.11961">
        <ele>98.05295</ele>
        <time>2022-02-26T11:16:11.310Z</time>
      </trkpt>
      <trkpt lat="41.79576" lon="26.11951">
        <ele>98.213961</ele>
        <time>2022-02-26T11:16:16.291Z</time>
      </trkpt>
      <trkpt lat="41.79583" lon="26.11941">
        <ele>98.364354</ele>
        <time>2022-02-26T11:16:21.283Z</time>
      </trkpt>
      <trkpt lat="41.79587" lon="26.11928">
        <ele>98.532464</ele>
        <time>2022-02-26T11:16:26.293Z</time>
      </trkpt>
      <trkpt lat="41.79592" lon="26.11917">
        <ele>98.67874</ele>
        <time>2022-02-26T11:16:31.270Z</time>
      </trkpt>
      <trkpt lat="41.79599" lon="26.11908">
        <ele>98.816023</ele>
        <time>2022-02-26T11:16:37.294Z</time>
      </trkpt>
      <trkpt lat="41.79607" lon="26.11902">
        <ele>98.96278</ele>
        <time>2022-02-26T11:16:43.274Z</time>
      </trkpt>
      <trkpt lat="41.79614" lon="26.11894">
        <ele>99.100731</ele>
        <time>2022-02-26T11:16:48.285Z</time>
      </trkpt>
      <trkpt lat="41.79621" lon="26.11884">
        <ele>99.25088</ele>
        <time>2022-02-26T11:16:53.271Z</time>
      </trkpt>
      <trkpt lat="41.79628" lon="26.11874">
        <ele>99.418242</ele>
        <time>2022-02-26T11:16:58.272Z</time>
      </trkpt>
      <trkpt lat="41.79635" lon="26.11863">
        <ele>99.569537</ele>
        <time>2022-02-26T11:17:03.291Z</time>
      </trkpt>
      <trkpt lat="41.79642" lon="26.11855">
        <ele>99.716173</ele>
        <time>2022-02-26T11:17:10.281Z</time>
      </trkpt>
      <trkpt lat="41.79649" lon="26.11845">
        <ele>99.871175</ele>
        <time>2022-02-26T11:17:15.289Z</time>
      </trkpt>
      <trkpt lat="41.79656" lon="26.11834">
        <ele>100.035841</ele>
        <time>2022-02-26T11:17:20.261Z</time>
      </trkpt>
      <trkpt lat="41.79663" lon="26.11825">
        <ele>100.187418</ele>
        <time>2022-02-26T11:17:25.299Z</time>
      </trkpt>
      <trkpt lat="41.79672" lon="26.1182">
        <ele>100.326274</ele>
        <time>2022-02-26T11:17:30.267Z</time>
      </trkpt>
      <trkpt lat="41.79681" lon="26.11814">
        <ele>100.483237</ele>
        <time>2022-02-26T11:17:35.275Z</time>
      </trkpt>
      <trkpt lat="41.7969" lon="26.11807">
        <ele>100.63351</ele>
        <time>2022-02-26T11:17:40.266Z</time>
      </trkpt>
      <trkpt lat="41.79699" lon="26.118">
        <ele>100.635085</ele>
        <time>2022-02-26T11:17:45.263Z</time>
      </trkpt>
      <trkpt lat="41.79708" lon="26.11793">
        <ele>100.63672</ele>
        <time>2022-02-26T11:17:50.265Z</time>
      </trkpt>
      <trkpt lat="41.79717" lon="26.11786">
        <ele>100.6384</ele>
        <time>2022-02-26T11:17:55.284Z</time>
      </trkpt>
      <trkpt lat="41.79726" lon="26.11777">
        <ele>100.640102</ele>
        <time>2022-02-26T11:18:00.315Z</time>
      </trkpt>
      <trkpt lat="41.79735" lon="26.1177">
        <ele>100.641813</ele>
        <time>2022-02-26T11:18:05.274Z</time>
      </trkpt>
      <trkpt lat="41.79743" lon="26.11764">
        <ele>100.643285</ele>
        <time>2022-02-26T11:18:09.279Z</time>
      </trkpt>
      <trkpt lat="41.79752" lon="26.11757">
        <ele>100.644802</ele>
        <time>2022-02-26T11:18:13.266Z</time>
      </trkpt>
      <trkpt lat="41.79762" lon="26.11749">
        <ele>100.646662</ele>
        <time>2022-02-26T11:18:17.290Z</time>
      </trkpt>
      <trkpt lat="41.7977" lon="26.11743">
        <ele>100.648066</ele>
        <time>2022-02-26T11:18:20.288Z</time>
      </trkpt>
      <trkpt lat="41.79778" lon="26.11735">
        <ele>100.649677</ele>
        <time>2022-02-26T11:18:24.327Z</time>
      </trkpt>
      <trkpt lat="41.79788" lon="26.11727">
        <ele>100.651498</ele>
        <time>2022-02-26T11:18:28.262Z</time>
      </trkpt>
      <trkpt lat="41.79797" lon="26.1172">
        <ele>100.653112</ele>
        <time>2022-02-26T11:18:32.277Z</time>
      </trkpt>
      <trkpt lat="41.79807" lon="26.11712">
        <ele>100.654855</ele>
        <time>2022-02-26T11:18:37.275Z</time>
      </trkpt>
      <trkpt lat="41.79815" lon="26.11706">
        <ele>100.656293</ele>
        <time>2022-02-26T11:18:41.307Z</time>
      </trkpt>
      <trkpt lat="41.79824" lon="26.11699">
        <ele>100.658005</ele>
        <time>2022-02-26T11:18:45.289Z</time>
      </trkpt>
      <trkpt lat="41.79833" lon="26.11693">
        <ele>100.659533</ele>
        <time>2022-02-26T11:18:48.295Z</time>
      </trkpt>
      <trkpt lat="41.79841" lon="26.11687">
        <ele>100.660946</ele>
        <time>2022-02-26T11:18:51.255Z</time>
      </trkpt>
      <trkpt lat="41.79849" lon="26.1168">
        <ele>100.735543</ele>
        <time>2022-02-26T11:18:55.273Z</time>
      </trkpt>
      <trkpt lat="41.79858" lon="26.11675">
        <ele>100.855114</ele>
        <time>2022-02-26T11:19:00.296Z</time>
      </trkpt>
      <trkpt lat="41.79868" lon="26.11669">
        <ele>100.986981</ele>
        <time>2022-02-26T11:19:05.269Z</time>
      </trkpt>
      <trkpt lat="41.79876" lon="26.11664">
        <ele>101.100447</ele>
        <time>2022-02-26T11:19:09.275Z</time>
      </trkpt>
      <trkpt lat="41.79885" lon="26.11658">
        <ele>101.221504</ele>
        <time>2022-02-26T11:19:13.311Z</time>
      </trkpt>
      <trkpt lat="41.79893" lon="26.11653">
        <ele>101.334633</ele>
        <time>2022-02-26T11:19:17.283Z</time>
      </trkpt>
      <trkpt lat="41.79902" lon="26.11647">
        <ele>101.460253</ele>
        <time>2022-02-26T11:19:21.267Z</time>
      </trkpt>
      <trkpt lat="41.79911" lon="26.1164">
        <ele>101.585761</ele>
        <time>2022-02-26T11:19:25.316Z</time>
      </trkpt>
      <trkpt lat="41.7992" lon="26.11634">
        <ele>101.709532</ele>
        <time>2022-02-26T11:19:29.276Z</time>
      </trkpt>
      <trkpt lat="41.79928" lon="26.11627">
        <ele>101.828245</ele>
        <time>2022-02-26T11:19:34.288Z</time>
      </trkpt>
      <trkpt lat="41.79936" lon="26.1162">
        <ele>101.951852</ele>
        <time>2022-02-26T11:19:40.285Z</time>
      </trkpt>
      <trkpt lat="41.79944" lon="26.11614">
        <ele>102.06598</ele>
        <time>2022-02-26T11:19:45.285Z</time>
      </trkpt>
      <trkpt lat="41.79954" lon="26.11606">
        <ele>102.206385</ele>
        <time>2022-02-26T11:19:50.262Z</time>
      </trkpt>
      <trkpt lat="41.79962" lon="26.11599">
        <ele>102.320756</ele>
        <time>2022-02-26T11:19:56.280Z</time>
      </trkpt>
      <trkpt lat="41.7997" lon="26.11592">
        <ele>102.443589</ele>
        <time>2022-02-26T11:20:03.259Z</time>
      </trkpt>
      <trkpt lat="41.79978" lon="26.11584">
        <ele>102.574164</ele>
        <time>2022-02-26T11:20:09.311Z</time>
      </trkpt>
      <trkpt lat="41.79987" lon="26.11577">
        <ele>102.696996</ele>
        <time>2022-02-26T11:20:15.332Z</time>
      </trkpt>
      <trkpt lat="41.79995" lon="26.11569">
        <ele>102.826083</ele>
        <time>2022-02-26T11:20:21.270Z</time>
      </trkpt>
      <trkpt lat="41.80003" lon="26.11563">
        <ele>102.927321</ele>
        <time>2022-02-26T11:20:26.317Z</time>
      </trkpt>
      <trkpt lat="41.80012" lon="26.11555">
        <ele>103.023962</ele>
        <time>2022-02-26T11:20:32.268Z</time>
      </trkpt>
      <trkpt lat="41.8002" lon="26.11548">
        <ele>103.107966</ele>
        <time>2022-02-26T11:20:37.320Z</time>
      </trkpt>
      <trkpt lat="41.80028" lon="26.11542">
        <ele>103.190636</ele>
        <time>2022-02-26T11:20:42.273Z</time>
      </trkpt>
      <trkpt lat="41.80037" lon="26.11536">
        <ele>103.284636</ele>
        <time>2022-02-26T11:20:48.271Z</time>
      </trkpt>
      <trkpt lat="41.80046" lon="26.11529">
        <ele>103.380307</ele>
        <time>2022-02-26T11:20:54.320Z</time>
      </trkpt>
      <trkpt lat="41.80054" lon="26.11522">
        <ele>103.466432</ele>
        <time>2022-02-26T11:20:59.279Z</time>
      </trkpt>
      <trkpt lat="41.80062" lon="26.11515">
        <ele>103.553321</ele>
        <time>2022-02-26T11:21:04.274Z</time>
      </trkpt>
      <trkpt lat="41.80071" lon="26.11508">
        <ele>103.643288</ele>
        <time>2022-02-26T11:21:09.289Z</time>
      </trkpt>
      <trkpt lat="41.80079" lon="26.11501">
        <ele>103.73413</ele>
        <time>2022-02-26T11:21:14.273Z</time>
      </trkpt>
      <trkpt lat="41.80088" lon="26.11493">
        <ele>103.8334</ele>
        <time>2022-02-26T11:21:19.272Z</time>
      </trkpt>
      <trkpt lat="41.80095" lon="26.11484">
        <ele>103.91784</ele>
        <time>2022-02-26T11:21:24.264Z</time>
      </trkpt>
      <trkpt lat="41.80104" lon="26.11477">
        <ele>104.007388</ele>
        <time>2022-02-26T11:21:29.260Z</time>
      </trkpt>
      <trkpt lat="41.80113" lon="26.11472">
        <ele>104.098956</ele>
        <time>2022-02-26T11:21:34.294Z</time>
      </trkpt>
      <trkpt lat="41.80121" lon="26.11465">
        <ele>104.187322</ele>
        <time>2022-02-26T11:21:39.311Z</time>
      </trkpt>
      <trkpt lat="41.8013" lon="26.11457">
        <ele>104.285112</ele>
        <time>2022-02-26T11:21:44.260Z</time>
      </trkpt>
      <trkpt lat="41.80139" lon="26.11451">
        <ele>104.378789</ele>
        <time>2022-02-26T11:21:49.271Z</time>
      </trkpt>
      <trkpt lat="41.80147" lon="26.11444">
        <ele>104.462661</ele>
        <time>2022-02-26T11:21:53.266Z</time>
      </trkpt>
      <trkpt lat="41.80157" lon="26.11437">
        <ele>104.538488</ele>
        <time>2022-02-26T11:21:58.274Z</time>
      </trkpt>
      <trkpt lat="41.80166" lon="26.1143">
        <ele>104.571616</ele>
        <time>2022-02-26T11:22:03.270Z</time>
      </trkpt>
      <trkpt lat="41.80176" lon="26.11426">
        <ele>104.601396</ele>
        <time>2022-02-26T11:22:08.288Z</time>
      </trkpt>
      <trkpt lat="41.80186" lon="26.11422">
        <ele>104.634401</ele>
        <time>2022-02-26T11:22:13.268Z</time>
      </trkpt>
      <trkpt lat="41.80195" lon="26.11417">
        <ele>104.663919</ele>
        <time>2022-02-26T11:22:17.283Z</time>
      </trkpt>
      <trkpt lat="41.80205" lon="26.11409">
        <ele>104.698252</ele>
        <time>2022-02-26T11:22:22.274Z</time>
      </trkpt>
      <trkpt lat="41.80213" lon="26.11403">
        <ele>104.727337</ele>
        <time>2022-02-26T11:22:27.277Z</time>
      </trkpt>
      <trkpt lat="41.80221" lon="26.11396">
        <ele>104.757964</ele>
        <time>2022-02-26T11:22:33.260Z</time>
      </trkpt>
      <trkpt lat="41.80231" lon="26.11389">
        <ele>104.790455</ele>
        <time>2022-02-26T11:22:39.278Z</time>
      </trkpt>
      <trkpt lat="41.8024" lon="26.11383">
        <ele>104.822646</ele>
        <time>2022-02-26T11:22:44.262Z</time>
      </trkpt>
      <trkpt lat="41.80249" lon="26.11376">
        <ele>104.853273</ele>
        <time>2022-02-26T11:22:49.286Z</time>
      </trkpt>
      <trkpt lat="41.80257" lon="26.11368">
        <ele>104.88514</ele>
        <time>2022-02-26T11:22:54.282Z</time>
      </trkpt>
      <trkpt lat="41.80264" lon="26.11359">
        <ele>104.914607</ele>
        <time>2022-02-26T11:22:59.259Z</time>
      </trkpt>
      <trkpt lat="41.80272" lon="26.1135">
        <ele>104.946083</ele>
        <time>2022-02-26T11:23:05.272Z</time>
      </trkpt>
      <trkpt lat="41.80281" lon="26.11345">
        <ele>104.977333</ele>
        <time>2022-02-26T11:23:12.271Z</time>
      </trkpt>
      <trkpt lat="41.80291" lon="26.1134">
        <ele>105.009176</ele>
        <time>2022-02-26T11:23:18.269Z</time>
      </trkpt>
      <trkpt lat="41.80301" lon="26.11333">
        <ele>105.042114</ele>
        <time>2022-02-26T11:23:24.281Z</time>
      </trkpt>
      <trkpt lat="41.80308" lon="26.11325">
        <ele>105.070668</ele>
        <time>2022-02-26T11:23:29.275Z</time>
      </trkpt>
      <trkpt lat="41.80315" lon="26.11316">
        <ele>105.132135</ele>
        <time>2022-02-26T11:23:34.272Z</time>
      </trkpt>
      <trkpt lat="41.80325" lon="26.11312">
        <ele>105.199698</ele>
        <time>2022-02-26T11:23:40.261Z</time>
      </trkpt>
      <trkpt lat="41.80333" lon="26.11306">
        <ele>105.266289</ele>
        <time>2022-02-26T11:23:46.283Z</time>
      </trkpt>
      <trkpt lat="41.80341" lon="26.11299">
        <ele>105.332582</ele>
        <time>2022-02-26T11:23:51.304Z</time>
      </trkpt>
      <trkpt lat="41.8035" lon="26.11293">
        <ele>105.40281</ele>
        <time>2022-02-26T11:23:57.314Z</time>
      </trkpt>
      <trkpt lat="41.8036" lon="26.11288">
        <ele>105.473438</ele>
        <time>2022-02-26T11:24:03.269Z</time>
      </trkpt>
      <trkpt lat="41.80368" lon="26.11283">
        <ele>105.536887</ele>
        <time>2022-02-26T11:24:08.264Z</time>
      </trkpt>
      <trkpt lat="41.80376" lon="26.11275">
        <ele>105.603486</ele>
        <time>2022-02-26T11:24:14.288Z</time>
      </trkpt>
      <trkpt lat="41.80384" lon="26.11268">
        <ele>105.67178</ele>
        <time>2022-02-26T11:24:20.280Z</time>
      </trkpt>
      <trkpt lat="41.80393" lon="26.1126">
        <ele>105.745789</ele>
        <time>2022-02-26T11:24:26.285Z</time>
      </trkpt>
      <trkpt lat="41.80402" lon="26.11254">
        <ele>105.808876</ele>
        <time>2022-02-26T11:24:31.285Z</time>
      </trkpt>
      <trkpt lat="41.80412" lon="26.11251">
        <ele>105.879279</ele>
        <time>2022-02-26T11:24:37.267Z</time>
      </trkpt>
      <trkpt lat="41.80421" lon="26.11249">
        <ele>105.948338</ele>
        <time>2022-02-26T11:24:43.286Z</time>
      </trkpt>
      <trkpt lat="41.80431" lon="26.11246">
        <ele>106.015383</ele>
        <time>2022-02-26T11:24:49.289Z</time>
      </trkpt>
      <trkpt lat="41.80438" lon="26.11237">
        <ele>106.080375</ele>
        <time>2022-02-26T11:24:54.272Z</time>
      </trkpt>
      <trkpt lat="41.80445" lon="26.1123">
        <ele>106.143738</ele>
        <time>2022-02-26T11:24:59.306Z</time>
      </trkpt>
      <trkpt lat="41.80454" lon="26.11225">
        <ele>106.207076</ele>
        <time>2022-02-26T11:25:04.285Z</time>
      </trkpt>
      <trkpt lat="41.80463" lon="26.1122">
        <ele>106.275132</ele>
        <time>2022-02-26T11:25:09.285Z</time>
      </trkpt>
      <trkpt lat="41.80471" lon="26.11212">
        <ele>106.346673</ele>
        <time>2022-02-26T11:25:14.328Z</time>
      </trkpt>
      <trkpt lat="41.8048" lon="26.11203">
        <ele>106.423672</ele>
        <time>2022-02-26T11:25:19.284Z</time>
      </trkpt>
      <trkpt lat="41.8049" lon="26.112">
        <ele>106.495568</ele>
        <time>2022-02-26T11:25:24.273Z</time>
      </trkpt>
      <trkpt lat="41.80499" lon="26.11196">
        <ele>106.562227</ele>
        <time>2022-02-26T11:25:29.300Z</time>
      </trkpt>
      <trkpt lat="41.80507" lon="26.11188">
        <ele>106.638018</ele>
        <time>2022-02-26T11:25:35.275Z</time>
      </trkpt>
      <trkpt lat="41.80515" lon="26.1118">
        <ele>106.71055</ele>
        <time>2022-02-26T11:25:41.275Z</time>
      </trkpt>
      <trkpt lat="41.80525" lon="26.11175">
        <ele>106.784748</ele>
        <time>2022-02-26T11:25:46.271Z</time>
      </trkpt>
      <trkpt lat="41.80535" lon="26.11169">
        <ele>106.864594</ele>
        <time>2022-02-26T11:25:51.280Z</time>
      </trkpt>
      <trkpt lat="41.80544" lon="26.11163">
        <ele>106.930436</ele>
        <time>2022-02-26T11:25:55.273Z</time>
      </trkpt>
      <trkpt lat="41.80552" lon="26.11156">
        <ele>107.000936</ele>
        <time>2022-02-26T11:25:59.278Z</time>
      </trkpt>
      <trkpt lat="41.8056" lon="26.11147">
        <ele>107.079584</ele>
        <time>2022-02-26T11:26:04.274Z</time>
      </trkpt>
      <trkpt lat="41.80568" lon="26.11139">
        <ele>107.146197</ele>
        <time>2022-02-26T11:26:09.269Z</time>
      </trkpt>
      <trkpt lat="41.80577" lon="26.11135">
        <ele>107.211629</ele>
        <time>2022-02-26T11:26:14.270Z</time>
      </trkpt>
      <trkpt lat="41.80585" lon="26.11129">
        <ele>107.281382</ele>
        <time>2022-02-26T11:26:19.304Z</time>
      </trkpt>
      <trkpt lat="41.80593" lon="26.11122">
        <ele>107.345329</ele>
        <time>2022-02-26T11:26:23.271Z</time>
      </trkpt>
      <trkpt lat="41.80601" lon="26.11117">
        <ele>107.410012</ele>
        <time>2022-02-26T11:26:27.295Z</time>
      </trkpt>
      <trkpt lat="41.80611" lon="26.11112">
        <ele>107.489139</ele>
        <time>2022-02-26T11:26:32.260Z</time>
      </trkpt>
      <trkpt lat="41.80621" lon="26.11106">
        <ele>107.566845</ele>
        <time>2022-02-26T11:26:37.261Z</time>
      </trkpt>
      <trkpt lat="41.80631" lon="26.11099">
        <ele>107.315379</ele>
        <time>2022-02-26T11:26:42.287Z</time>
      </trkpt>
      <trkpt lat="41.80641" lon="26.11092">
        <ele>106.86563</ele>
        <time>2022-02-26T11:26:47.267Z</time>
      </trkpt>
      <trkpt lat="41.80651" lon="26.11086">
        <ele>106.40329</ele>
        <time>2022-02-26T11:26:52.269Z</time>
      </trkpt>
      <trkpt lat="41.80659" lon="26.1108">
        <ele>106.018015</ele>
        <time>2022-02-26T11:26:56.298Z</time>
      </trkpt>
      <trkpt lat="41.80669" lon="26.11074">
        <ele>105.594239</ele>
        <time>2022-02-26T11:27:01.270Z</time>
      </trkpt>
      <trkpt lat="41.80679" lon="26.11068">
        <ele>105.153238</ele>
        <time>2022-02-26T11:27:06.283Z</time>
      </trkpt>
      <trkpt lat="41.80687" lon="26.11063">
        <ele>104.780023</ele>
        <time>2022-02-26T11:27:10.274Z</time>
      </trkpt>
      <trkpt lat="41.80696" lon="26.11058">
        <ele>104.374372</ele>
        <time>2022-02-26T11:27:14.307Z</time>
      </trkpt>
      <trkpt lat="41.80705" lon="26.11055">
        <ele>104.00619</ele>
        <time>2022-02-26T11:27:19.293Z</time>
      </trkpt>
      <trkpt lat="41.80714" lon="26.11054">
        <ele>103.622067</ele>
        <time>2022-02-26T11:27:24.271Z</time>
      </trkpt>
      <trkpt lat="41.80724" lon="26.11055">
        <ele>103.231149</ele>
        <time>2022-02-26T11:27:28.288Z</time>
      </trkpt>
      <trkpt lat="41.80733" lon="26.11055">
        <ele>102.848479</ele>
        <time>2022-02-26T11:27:32.283Z</time>
      </trkpt>
      <trkpt lat="41.80744" lon="26.11052">
        <ele>102.414349</ele>
        <time>2022-02-26T11:27:38.272Z</time>
      </trkpt>
      <trkpt lat="41.80755" lon="26.11051">
        <ele>101.96048</ele>
        <time>2022-02-26T11:27:44.283Z</time>
      </trkpt>
      <trkpt lat="41.80765" lon="26.11049">
        <ele>101.557381</ele>
        <time>2022-02-26T11:27:48.264Z</time>
      </trkpt>
      <trkpt lat="41.80774" lon="26.11046">
        <ele>101.164393</ele>
        <time>2022-02-26T11:27:52.279Z</time>
      </trkpt>
      <trkpt lat="41.80786" lon="26.11043">
        <ele>100.690143</ele>
        <time>2022-02-26T11:27:56.271Z</time>
      </trkpt>
      <trkpt lat="41.80794" lon="26.11039">
        <ele>100.323442</ele>
        <time>2022-02-26T11:27:59.285Z</time>
      </trkpt>
      <trkpt lat="41.80804" lon="26.11032">
        <ele>99.961634</ele>
        <time>2022-02-26T11:28:03.266Z</time>
      </trkpt>
      <trkpt lat="41.80813" lon="26.11025">
        <ele>99.635508</ele>
        <time>2022-02-26T11:28:07.287Z</time>
      </trkpt>
      <trkpt lat="41.80821" lon="26.11017">
        <ele>99.336591</ele>
        <time>2022-02-26T11:28:11.289Z</time>
      </trkpt>
      <trkpt lat="41.80828" lon="26.11008">
        <ele>99.030269</ele>
        <time>2022-02-26T11:28:15.284Z</time>
      </trkpt>
      <trkpt lat="41.80836" lon="26.10998">
        <ele>98.707766</ele>
        <time>2022-02-26T11:28:19.275Z</time>
      </trkpt>
      <trkpt lat="41.80844" lon="26.10988">
        <ele>98.368557</ele>
        <time>2022-02-26T11:28:23.293Z</time>
      </trkpt>
      <trkpt lat="41.80851" lon="26.10978">
        <ele>98.035312</ele>
        <time>2022-02-26T11:28:27.257Z</time>
      </trkpt>
      <trkpt lat="41.80859" lon="26.10967">
        <ele>97.694944</ele>
        <time>2022-02-26T11:28:31.273Z</time>
      </trkpt>
      <trkpt lat="41.80866" lon="26.10956">
        <ele>97.360903</ele>
        <time>2022-02-26T11:28:35.293Z</time>
      </trkpt>
      <trkpt lat="41.80874" lon="26.10949">
        <ele>97.061987</ele>
        <time>2022-02-26T11:28:39.287Z</time>
      </trkpt>
      <trkpt lat="41.80883" lon="26.10943">
        <ele>96.762857</ele>
        <time>2022-02-26T11:28:43.321Z</time>
      </trkpt>
      <trkpt lat="41.80893" lon="26.10937">
        <ele>96.426267</ele>
        <time>2022-02-26T11:28:47.283Z</time>
      </trkpt>
      <trkpt lat="41.80902" lon="26.10932">
        <ele>96.107504</ele>
        <time>2022-02-26T11:28:51.268Z</time>
      </trkpt>
      <trkpt lat="41.80911" lon="26.10924">
        <ele>95.786784</ele>
        <time>2022-02-26T11:28:56.289Z</time>
      </trkpt>
      <trkpt lat="41.80919" lon="26.10916">
        <ele>95.484018</ele>
        <time>2022-02-26T11:29:02.280Z</time>
      </trkpt>
      <trkpt lat="41.80926" lon="26.10908">
        <ele>95.183642</ele>
        <time>2022-02-26T11:29:07.270Z</time>
      </trkpt>
      <trkpt lat="41.80934" lon="26.109">
        <ele>94.882754</ele>
        <time>2022-02-26T11:29:12.284Z</time>
      </trkpt>
      <trkpt lat="41.80942" lon="26.10892">
        <ele>94.779272</ele>
        <time>2022-02-26T11:29:17.306Z</time>
      </trkpt>
      <trkpt lat="41.80949" lon="26.10884">
        <ele>94.915879</ele>
        <time>2022-02-26T11:29:21.291Z</time>
      </trkpt>
      <trkpt lat="41.80959" lon="26.10879">
        <ele>95.077731</ele>
        <time>2022-02-26T11:29:26.267Z</time>
      </trkpt>
      <trkpt lat="41.80968" lon="26.10872">
        <ele>95.243941</ele>
        <time>2022-02-26T11:29:31.282Z</time>
      </trkpt>
      <trkpt lat="41.80976" lon="26.10865">
        <ele>95.384309</ele>
        <time>2022-02-26T11:29:35.260Z</time>
      </trkpt>
      <trkpt lat="41.80984" lon="26.10859">
        <ele>95.528085</ele>
        <time>2022-02-26T11:29:40.287Z</time>
      </trkpt>
      <trkpt lat="41.80993" lon="26.10854">
        <ele>95.675495</ele>
        <time>2022-02-26T11:29:48.282Z</time>
      </trkpt>
      <trkpt lat="41.81003" lon="26.10848">
        <ele>95.835306</ele>
        <time>2022-02-26T11:29:52.308Z</time>
      </trkpt>
      <trkpt lat="41.81012" lon="26.10842">
        <ele>95.988824</ele>
        <time>2022-02-26T11:29:59.279Z</time>
      </trkpt>
      <trkpt lat="41.81018" lon="26.10833">
        <ele>96.125265</ele>
        <time>2022-02-26T11:30:05.263Z</time>
      </trkpt>
      <trkpt lat="41.81027" lon="26.10825">
        <ele>96.285057</ele>
        <time>2022-02-26T11:30:10.277Z</time>
      </trkpt>
      <trkpt lat="41.81036" lon="26.10821">
        <ele>96.422959</ele>
        <time>2022-02-26T11:30:14.282Z</time>
      </trkpt>
      <trkpt lat="41.81045" lon="26.10816">
        <ele>96.577799</ele>
        <time>2022-02-26T11:30:18.287Z</time>
      </trkpt>
      <trkpt lat="41.81055" lon="26.10809">
        <ele>96.749687</ele>
        <time>2022-02-26T11:30:22.282Z</time>
      </trkpt>
      <trkpt lat="41.81066" lon="26.10801">
        <ele>96.930015</ele>
        <time>2022-02-26T11:30:26.259Z</time>
      </trkpt>
      <trkpt lat="41.81074" lon="26.10795">
        <ele>97.075245</ele>
        <time>2022-02-26T11:30:30.264Z</time>
      </trkpt>
      <trkpt lat="41.81083" lon="26.10789">
        <ele>97.221026</ele>
        <time>2022-02-26T11:30:34.262Z</time>
      </trkpt>
      <trkpt lat="41.81091" lon="26.10782">
        <ele>97.361591</ele>
        <time>2022-02-26T11:30:38.277Z</time>
      </trkpt>
      <trkpt lat="41.811" lon="26.10775">
        <ele>97.428738</ele>
        <time>2022-02-26T11:30:42.308Z</time>
      </trkpt>
      <trkpt lat="41.81109" lon="26.10768">
        <ele>97.424958</ele>
        <time>2022-02-26T11:30:47.274Z</time>
      </trkpt>
      <trkpt lat="41.81118" lon="26.10759">
        <ele>97.421218</ele>
        <time>2022-02-26T11:30:51.258Z</time>
      </trkpt>
      <trkpt lat="41.81127" lon="26.1075">
        <ele>97.41729</ele>
        <time>2022-02-26T11:30:55.263Z</time>
      </trkpt>
      <trkpt lat="41.81137" lon="26.10742">
        <ele>97.41359</ele>
        <time>2022-02-26T11:30:59.270Z</time>
      </trkpt>
      <trkpt lat="41.81146" lon="26.10738">
        <ele>97.410203</ele>
        <time>2022-02-26T11:31:04.269Z</time>
      </trkpt>
      <trkpt lat="41.81156" lon="26.10733">
        <ele>97.406675</ele>
        <time>2022-02-26T11:31:09.280Z</time>
      </trkpt>
      <trkpt lat="41.81164" lon="26.10725">
        <ele>97.403245</ele>
        <time>2022-02-26T11:31:13.279Z</time>
      </trkpt>
      <trkpt lat="41.81172" lon="26.10716">
        <ele>97.399675</ele>
        <time>2022-02-26T11:31:17.263Z</time>
      </trkpt>
      <trkpt lat="41.81181" lon="26.10708">
        <ele>97.396048</ele>
        <time>2022-02-26T11:31:21.277Z</time>
      </trkpt>
      <trkpt lat="41.81189" lon="26.107">
        <ele>97.392572</ele>
        <time>2022-02-26T11:31:26.265Z</time>
      </trkpt>
      <trkpt lat="41.81196" lon="26.10689">
        <ele>97.388976</ele>
        <time>2022-02-26T11:31:32.268Z</time>
      </trkpt>
      <trkpt lat="41.81203" lon="26.1068">
        <ele>97.385659</ele>
        <time>2022-02-26T11:31:37.281Z</time>
      </trkpt>
      <trkpt lat="41.8121" lon="26.10671">
        <ele>97.382465</ele>
        <time>2022-02-26T11:31:45.284Z</time>
      </trkpt>
      <trkpt lat="41.81217" lon="26.10664">
        <ele>97.379163</ele>
        <time>2022-02-26T11:31:52.254Z</time>
      </trkpt>
      <trkpt lat="41.81225" lon="26.10656">
        <ele>97.375954</ele>
        <time>2022-02-26T11:31:57.285Z</time>
      </trkpt>
      <trkpt lat="41.81233" lon="26.10648">
        <ele>97.372725</ele>
        <time>2022-02-26T11:32:04.305Z</time>
      </trkpt>
      <trkpt lat="41.81239" lon="26.10638">
        <ele>97.391423</ele>
        <time>2022-02-26T11:32:10.263Z</time>
      </trkpt>
      <trkpt lat="41.81246" lon="26.10627">
        <ele>97.948953</ele>
        <time>2022-02-26T11:32:18.269Z</time>
      </trkpt>
      <trkpt lat="41.81253" lon="26.1062">
        <ele>98.44102</ele>
        <time>2022-02-26T11:32:23.290Z</time>
      </trkpt>
      <trkpt lat="41.81261" lon="26.10612">
        <ele>98.927425</ele>
        <time>2022-02-26T11:32:29.259Z</time>
      </trkpt>
      <trkpt lat="41.81269" lon="26.10606">
        <ele>99.46754</ele>
        <time>2022-02-26T11:32:35.276Z</time>
      </trkpt>
      <trkpt lat="41.81278" lon="26.106">
        <ele>99.970702</ele>
        <time>2022-02-26T11:32:41.271Z</time>
      </trkpt>
      <trkpt lat="41.81287" lon="26.10595">
        <ele>100.481999</ele>
        <time>2022-02-26T11:32:47.263Z</time>
      </trkpt>
      <trkpt lat="41.81296" lon="26.10591">
        <ele>100.973308</ele>
        <time>2022-02-26T11:32:52.259Z</time>
      </trkpt>
      <trkpt lat="41.81305" lon="26.10586">
        <ele>101.495907</ele>
        <time>2022-02-26T11:32:57.272Z</time>
      </trkpt>
      <trkpt lat="41.81314" lon="26.1058">
        <ele>102.026711</ele>
        <time>2022-02-26T11:33:03.281Z</time>
      </trkpt>
      <trkpt lat="41.81323" lon="26.10572">
        <ele>102.614261</ele>
        <time>2022-02-26T11:33:09.283Z</time>
      </trkpt>
      <trkpt lat="41.81331" lon="26.10565">
        <ele>103.100587</ele>
        <time>2022-02-26T11:33:14.274Z</time>
      </trkpt>
      <trkpt lat="41.81339" lon="26.10558">
        <ele>103.627037</ele>
        <time>2022-02-26T11:33:20.281Z</time>
      </trkpt>
      <trkpt lat="41.81348" lon="26.10552">
        <ele>104.153742</ele>
        <time>2022-02-26T11:33:26.288Z</time>
      </trkpt>
      <trkpt lat="41.81357" lon="26.10547">
        <ele>104.655241</ele>
        <time>2022-02-26T11:33:31.268Z</time>
      </trkpt>
      <trkpt lat="41.81366" lon="26.10541">
        <ele>105.187369</ele>
        <time>2022-02-26T11:33:37.282Z</time>
      </trkpt>
      <trkpt lat="41.81374" lon="26.10537">
        <ele>105.681464</ele>
        <time>2022-02-26T11:33:41.291Z</time>
      </trkpt>
      <trkpt lat="41.81383" lon="26.10532">
        <ele>106.15876</ele>
        <time>2022-02-26T11:33:45.301Z</time>
      </trkpt>
      <trkpt lat="41.81392" lon="26.10526">
        <ele>106.707042</ele>
        <time>2022-02-26T11:33:50.266Z</time>
      </trkpt>
      <trkpt lat="41.81401" lon="26.10522">
        <ele>106.87509</ele>
        <time>2022-02-26T11:33:55.277Z</time>
      </trkpt>
      <trkpt lat="41.8141" lon="26.10517">
        <ele>106.837531</ele>
        <time>2022-02-26T11:33:59.271Z</time>
      </trkpt>
      <trkpt lat="41.81419" lon="26.10513">
        <ele>106.798512</ele>
        <time>2022-02-26T11:34:03.260Z</time>
      </trkpt>
      <trkpt lat="41.81428" lon="26.10509">
        <ele>106.758794</ele>
        <time>2022-02-26T11:34:07.257Z</time>
      </trkpt>
      <trkpt lat="41.81437" lon="26.10503">
        <ele>106.714749</ele>
        <time>2022-02-26T11:34:11.278Z</time>
      </trkpt>
      <trkpt lat="41.81447" lon="26.10497">
        <ele>106.669452</ele>
        <time>2022-02-26T11:34:15.280Z</time>
      </trkpt>
      <trkpt lat="41.81456" lon="26.1049">
        <ele>106.625844</ele>
        <time>2022-02-26T11:34:19.303Z</time>
      </trkpt>
      <trkpt lat="41.81466" lon="26.10481">
        <ele>106.578489</ele>
        <time>2022-02-26T11:34:23.259Z</time>
      </trkpt>
      <trkpt lat="41.81476" lon="26.10474">
        <ele>106.529453</ele>
        <time>2022-02-26T11:34:27.275Z</time>
      </trkpt>
      <trkpt lat="41.81487" lon="26.10469">
        <ele>106.481484</ele>
        <time>2022-02-26T11:34:31.271Z</time>
      </trkpt>
      <trkpt lat="41.81498" lon="26.10464">
        <ele>106.433906</ele>
        <time>2022-02-26T11:34:35.274Z</time>
      </trkpt>
      <trkpt lat="41.81509" lon="26.10458">
        <ele>106.387389</ele>
        <time>2022-02-26T11:34:39.284Z</time>
      </trkpt>
      <trkpt lat="41.81517" lon="26.10454">
        <ele>106.348726</ele>
        <time>2022-02-26T11:34:43.274Z</time>
      </trkpt>
      <trkpt lat="41.81527" lon="26.10451">
        <ele>106.307232</ele>
        <time>2022-02-26T11:34:47.316Z</time>
      </trkpt>
      <trkpt lat="41.81537" lon="26.10448">
        <ele>106.265263</ele>
        <time>2022-02-26T11:34:51.252Z</time>
      </trkpt>
      <trkpt lat="41.81547" lon="26.10446">
        <ele>106.223702</ele>
        <time>2022-02-26T11:34:55.262Z</time>
      </trkpt>
      <trkpt lat="41.81554" lon="26.10438">
        <ele>106.184862</ele>
        <time>2022-02-26T11:34:59.314Z</time>
      </trkpt>
      <trkpt lat="41.81564" lon="26.10434">
        <ele>106.18541</ele>
        <time>2022-02-26T11:35:03.268Z</time>
      </trkpt>
      <trkpt lat="41.81574" lon="26.10429">
        <ele>106.296244</ele>
        <time>2022-02-26T11:35:07.272Z</time>
      </trkpt>
      <trkpt lat="41.81585" lon="26.10425">
        <ele>106.410605</ele>
        <time>2022-02-26T11:35:11.282Z</time>
      </trkpt>
      <trkpt lat="41.81596" lon="26.10419">
        <ele>106.523637</ele>
        <time>2022-02-26T11:35:15.276Z</time>
      </trkpt>
      <trkpt lat="41.81605" lon="26.10415">
        <ele>106.622355</ele>
        <time>2022-02-26T11:35:18.272Z</time>
      </trkpt>
      <trkpt lat="41.81615" lon="26.1041">
        <ele>106.729111</ele>
        <time>2022-02-26T11:35:22.284Z</time>
      </trkpt>
      <trkpt lat="41.81625" lon="26.10404">
        <ele>106.842051</ele>
        <time>2022-02-26T11:35:26.292Z</time>
      </trkpt>
      <trkpt lat="41.81634" lon="26.10399">
        <ele>106.942136</ele>
        <time>2022-02-26T11:35:29.261Z</time>
      </trkpt>
      <trkpt lat="41.81643" lon="26.10388">
        <ele>107.057995</ele>
        <time>2022-02-26T11:35:33.271Z</time>
      </trkpt>
      <trkpt lat="41.81651" lon="26.10381">
        <ele>107.155989</ele>
        <time>2022-02-26T11:35:36.277Z</time>
      </trkpt>
      <trkpt lat="41.8166" lon="26.10376">
        <ele>107.249668</ele>
        <time>2022-02-26T11:35:39.304Z</time>
      </trkpt>
      <trkpt lat="41.81671" lon="26.10369">
        <ele>107.372729</ele>
        <time>2022-02-26T11:35:43.304Z</time>
      </trkpt>
      <trkpt lat="41.81681" lon="26.10362">
        <ele>107.489291</ele>
        <time>2022-02-26T11:35:47.273Z</time>
      </trkpt>
      <trkpt lat="41.81691" lon="26.10363">
        <ele>107.590598</ele>
        <time>2022-02-26T11:35:51.269Z</time>
      </trkpt>
      <trkpt lat="41.81702" lon="26.10361">
        <ele>107.699334</ele>
        <time>2022-02-26T11:35:55.265Z</time>
      </trkpt>
      <trkpt lat="41.81713" lon="26.10357">
        <ele>107.808686</ele>
        <time>2022-02-26T11:35:59.263Z</time>
      </trkpt>
      <trkpt lat="41.81724" lon="26.10351">
        <ele>107.925998</ele>
        <time>2022-02-26T11:36:03.271Z</time>
      </trkpt>
      <trkpt lat="41.81734" lon="26.10347">
        <ele>107.938183</ele>
        <time>2022-02-26T11:36:07.260Z</time>
      </trkpt>
      <trkpt lat="41.81744" lon="26.10341">
        <ele>107.909592</ele>
        <time>2022-02-26T11:36:11.280Z</time>
      </trkpt>
      <trkpt lat="41.81753" lon="26.10336">
        <ele>107.882227</ele>
        <time>2022-02-26T11:36:15.273Z</time>
      </trkpt>
      <trkpt lat="41.81762" lon="26.10329">
        <ele>107.855719</ele>
        <time>2022-02-26T11:36:20.276Z</time>
      </trkpt>
      <trkpt lat="41.8177" lon="26.10321">
        <ele>107.828924</ele>
        <time>2022-02-26T11:36:25.277Z</time>
      </trkpt>
      <trkpt lat="41.81779" lon="26.10318">
        <ele>107.804722</ele>
        <time>2022-02-26T11:36:29.271Z</time>
      </trkpt>
      <trkpt lat="41.81788" lon="26.10313">
        <ele>107.77841</ele>
        <time>2022-02-26T11:36:34.271Z</time>
      </trkpt>
      <trkpt lat="41.81797" lon="26.10306">
        <ele>107.751748</ele>
        <time>2022-02-26T11:36:40.277Z</time>
      </trkpt>
      <trkpt lat="41.81806" lon="26.103">
        <ele>107.724768</ele>
        <time>2022-02-26T11:36:46.278Z</time>
      </trkpt>
      <trkpt lat="41.81815" lon="26.10295">
        <ele>107.697773</ele>
        <time>2022-02-26T11:36:52.271Z</time>
      </trkpt>
      <trkpt lat="41.81824" lon="26.10288">
        <ele>107.670936</ele>
        <time>2022-02-26T11:36:58.274Z</time>
      </trkpt>
      <trkpt lat="41.81834" lon="26.10282">
        <ele>107.642652</ele>
        <time>2022-02-26T11:37:04.294Z</time>
      </trkpt>
      <trkpt lat="41.81842" lon="26.10276">
        <ele>107.617297</ele>
        <time>2022-02-26T11:37:08.257Z</time>
      </trkpt>
      <trkpt lat="41.8185" lon="26.1027">
        <ele>107.593377</ele>
        <time>2022-02-26T11:37:12.266Z</time>
      </trkpt>
      <trkpt lat="41.81859" lon="26.10263">
        <ele>107.565745</ele>
        <time>2022-02-26T11:37:17.319Z</time>
      </trkpt>
      <trkpt lat="41.81868" lon="26.10258">
        <ele>107.540126</ele>
        <time>2022-02-26T11:37:22.287Z</time>
      </trkpt>
      <trkpt lat="41.81876" lon="26.10251">
        <ele>107.513714</ele>
        <time>2022-02-26T11:37:27.280Z</time>
      </trkpt>
      <trkpt lat="41.81886" lon="26.10245">
        <ele>107.484806</ele>
        <time>2022-02-26T11:37:32.279Z</time>
      </trkpt>
      <trkpt lat="41.81897" lon="26.1024">
        <ele>107.067603</ele>
        <time>2022-02-26T11:37:37.254Z</time>
      </trkpt>
      <trkpt lat="41.81906" lon="26.10236">
        <ele>106.680869</ele>
        <time>2022-02-26T11:37:41.273Z</time>
      </trkpt>
      <trkpt lat="41.81915" lon="26.1023">
        <ele>106.2734</ele>
        <time>2022-02-26T11:37:45.268Z</time>
      </trkpt>
      <trkpt lat="41.81923" lon="26.10223">
        <ele>105.904408</ele>
        <time>2022-02-26T11:37:49.271Z</time>
      </trkpt>
      <trkpt lat="41.81933" lon="26.10217">
        <ele>105.451896</ele>
        <time>2022-02-26T11:37:53.275Z</time>
      </trkpt>
      <trkpt lat="41.81942" lon="26.10211">
        <ele>105.056911</ele>
        <time>2022-02-26T11:37:57.271Z</time>
      </trkpt>
      <trkpt lat="41.81951" lon="26.10206">
        <ele>104.677266</ele>
        <time>2022-02-26T11:38:01.285Z</time>
      </trkpt>
      <trkpt lat="41.81961" lon="26.10201">
        <ele>104.262813</ele>
        <time>2022-02-26T11:38:05.266Z</time>
      </trkpt>
      <trkpt lat="41.81969" lon="26.10196">
        <ele>103.891854</ele>
        <time>2022-02-26T11:38:08.310Z</time>
      </trkpt>
      <trkpt lat="41.81978" lon="26.10191">
        <ele>103.508996</ele>
        <time>2022-02-26T11:38:11.274Z</time>
      </trkpt>
      <trkpt lat="41.81987" lon="26.10184">
        <ele>103.063512</ele>
        <time>2022-02-26T11:38:15.273Z</time>
      </trkpt>
      <trkpt lat="41.81996" lon="26.10178">
        <ele>102.692384</ele>
        <time>2022-02-26T11:38:20.262Z</time>
      </trkpt>
      <trkpt lat="41.82005" lon="26.10171">
        <ele>102.2808</ele>
        <time>2022-02-26T11:38:25.333Z</time>
      </trkpt>
      <trkpt lat="41.82015" lon="26.10165">
        <ele>101.824645</ele>
        <time>2022-02-26T11:38:29.286Z</time>
      </trkpt>
      <trkpt lat="41.82023" lon="26.1016">
        <ele>101.456318</ele>
        <time>2022-02-26T11:38:32.267Z</time>
      </trkpt>
      <trkpt lat="41.82032" lon="26.10157">
        <ele>101.089914</ele>
        <time>2022-02-26T11:38:35.259Z</time>
      </trkpt>
      <trkpt lat="41.82044" lon="26.10154">
        <ele>100.624697</ele>
        <time>2022-02-26T11:38:39.267Z</time>
      </trkpt>
      <trkpt lat="41.82055" lon="26.10152">
        <ele>100.221391</ele>
        <time>2022-02-26T11:38:43.283Z</time>
      </trkpt>
      <trkpt lat="41.82064" lon="26.10145">
        <ele>100.104955</ele>
        <time>2022-02-26T11:38:47.312Z</time>
      </trkpt>
      <trkpt lat="41.82072" lon="26.10138">
        <ele>99.991537</ele>
        <time>2022-02-26T11:38:51.256Z</time>
      </trkpt>
      <trkpt lat="41.8208" lon="26.10131">
        <ele>99.880016</ele>
        <time>2022-02-26T11:38:55.273Z</time>
      </trkpt>
      <trkpt lat="41.82088" lon="26.10125">
        <ele>99.768667</ele>
        <time>2022-02-26T11:38:59.328Z</time>
      </trkpt>
      <trkpt lat="41.82098" lon="26.10125">
        <ele>99.655715</ele>
        <time>2022-02-26T11:39:04.257Z</time>
      </trkpt>
      <trkpt lat="41.82107" lon="26.10118">
        <ele>99.534986</ele>
        <time>2022-02-26T11:39:09.314Z</time>
      </trkpt>
      <trkpt lat="41.82115" lon="26.10109">
        <ele>99.408791</ele>
        <time>2022-02-26T11:39:13.273Z</time>
      </trkpt>
      <trkpt lat="41.82125" lon="26.10105">
        <ele>99.287202</ele>
        <time>2022-02-26T11:39:17.277Z</time>
      </trkpt>
      <trkpt lat="41.82135" lon="26.101">
        <ele>99.15458</ele>
        <time>2022-02-26T11:39:21.268Z</time>
      </trkpt>
      <trkpt lat="41.82146" lon="26.10095">
        <ele>99.028519</ele>
        <time>2022-02-26T11:39:25.277Z</time>
      </trkpt>
      <trkpt lat="41.82157" lon="26.10092">
        <ele>98.894473</ele>
        <time>2022-02-26T11:39:29.280Z</time>
      </trkpt>
      <trkpt lat="41.82167" lon="26.10088">
        <ele>98.77062</ele>
        <time>2022-02-26T11:39:33.263Z</time>
      </trkpt>
      <trkpt lat="41.82176" lon="26.1008">
        <ele>98.648795</ele>
        <time>2022-02-26T11:39:37.281Z</time>
      </trkpt>
      <trkpt lat="41.82185" lon="26.10074">
        <ele>98.529763</ele>
        <time>2022-02-26T11:39:41.281Z</time>
      </trkpt>
      <trkpt lat="41.82195" lon="26.10068">
        <ele>98.401219</ele>
        <time>2022-02-26T11:39:45.291Z</time>
      </trkpt>
      <trkpt lat="41.82203" lon="26.10064">
        <ele>98.2919</ele>
        <time>2022-02-26T11:39:48.273Z</time>
      </trkpt>
      <trkpt lat="41.82212" lon="26.10058">
        <ele>98.179043</ele>
        <time>2022-02-26T11:39:52.280Z</time>
      </trkpt>
      <trkpt lat="41.82221" lon="26.10054">
        <ele>98.116096</ele>
        <time>2022-02-26T11:39:56.280Z</time>
      </trkpt>
      <trkpt lat="41.82232" lon="26.10049">
        <ele>98.079001</ele>
        <time>2022-02-26T11:40:01.324Z</time>
      </trkpt>
      <trkpt lat="41.82239" lon="26.10041">
        <ele>98.047765</ele>
        <time>2022-02-26T11:40:05.275Z</time>
      </trkpt>
      <trkpt lat="41.82248" lon="26.10035">
        <ele>98.014112</ele>
        <time>2022-02-26T11:40:09.272Z</time>
      </trkpt>
      <trkpt lat="41.82259" lon="26.1003">
        <ele>97.977132</ele>
        <time>2022-02-26T11:40:13.279Z</time>
      </trkpt>
      <trkpt lat="41.82269" lon="26.10026">
        <ele>97.942676</ele>
        <time>2022-02-26T11:40:17.263Z</time>
      </trkpt>
      <trkpt lat="41.82279" lon="26.1002">
        <ele>97.905133</ele>
        <time>2022-02-26T11:40:21.270Z</time>
      </trkpt>
      <trkpt lat="41.82287" lon="26.10014">
        <ele>97.873653</ele>
        <time>2022-02-26T11:40:25.274Z</time>
      </trkpt>
      <trkpt lat="41.82299" lon="26.10008">
        <ele>97.833008</ele>
        <time>2022-02-26T11:40:29.300Z</time>
      </trkpt>
      <trkpt lat="41.82309" lon="26.10008">
        <ele>97.800408</ele>
        <time>2022-02-26T11:40:33.279Z</time>
      </trkpt>
      <trkpt lat="41.82317" lon="26.10003">
        <ele>97.769435</ele>
        <time>2022-02-26T11:40:37.277Z</time>
      </trkpt>
      <trkpt lat="41.82327" lon="26.09995">
        <ele>97.731994</ele>
        <time>2022-02-26T11:40:41.305Z</time>
      </trkpt>
      <trkpt lat="41.82336" lon="26.09989">
        <ele>97.696293</ele>
        <time>2022-02-26T11:40:45.303Z</time>
      </trkpt>
      <trkpt lat="41.82346" lon="26.09985">
        <ele>97.6619</ele>
        <time>2022-02-26T11:40:49.281Z</time>
      </trkpt>
      <trkpt lat="41.82357" lon="26.09979">
        <ele>97.624222</ele>
        <time>2022-02-26T11:40:53.285Z</time>
      </trkpt>
      <trkpt lat="41.82367" lon="26.09973">
        <ele>97.585549</ele>
        <time>2022-02-26T11:40:57.276Z</time>
      </trkpt>
      <trkpt lat="41.82378" lon="26.09968">
        <ele>97.546678</ele>
        <time>2022-02-26T11:41:01.257Z</time>
      </trkpt>
      <trkpt lat="41.82388" lon="26.09962">
        <ele>97.513605</ele>
        <time>2022-02-26T11:41:05.273Z</time>
      </trkpt>
      <trkpt lat="41.82397" lon="26.09954">
        <ele>97.480405</ele>
        <time>2022-02-26T11:41:09.257Z</time>
      </trkpt>
      <trkpt lat="41.82405" lon="26.0995">
        <ele>97.452487</ele>
        <time>2022-02-26T11:41:12.285Z</time>
      </trkpt>
      <trkpt lat="41.82416" lon="26.09944">
        <ele>97.417201</ele>
        <time>2022-02-26T11:41:16.263Z</time>
      </trkpt>
      <trkpt lat="41.82426" lon="26.09938">
        <ele>97.381253</ele>
        <time>2022-02-26T11:41:20.280Z</time>
      </trkpt>
      <trkpt lat="41.82434" lon="26.09932">
        <ele>97.353031</ele>
        <time>2022-02-26T11:41:23.269Z</time>
      </trkpt>
      <trkpt lat="41.82445" lon="26.09926">
        <ele>97.317837</ele>
        <time>2022-02-26T11:41:27.264Z</time>
      </trkpt>
      <trkpt lat="41.82455" lon="26.09919">
        <ele>97.283644</ele>
        <time>2022-02-26T11:41:31.281Z</time>
      </trkpt>
      <trkpt lat="41.82465" lon="26.09913">
        <ele>97.248792</ele>
        <time>2022-02-26T11:41:35.276Z</time>
      </trkpt>
      <trkpt lat="41.82475" lon="26.09907">
        <ele>97.212828</ele>
        <time>2022-02-26T11:41:39.289Z</time>
      </trkpt>
      <trkpt lat="41.82486" lon="26.09901">
        <ele>97.177823</ele>
        <time>2022-02-26T11:41:43.273Z</time>
      </trkpt>
      <trkpt lat="41.82495" lon="26.09894">
        <ele>97.144288</ele>
        <time>2022-02-26T11:41:47.304Z</time>
      </trkpt>
      <trkpt lat="41.82505" lon="26.0989">
        <ele>97.1133</ele>
        <time>2022-02-26T11:41:51.273Z</time>
      </trkpt>
      <trkpt lat="41.82513" lon="26.09886">
        <ele>97.084892</ele>
        <time>2022-02-26T11:41:54.312Z</time>
      </trkpt>
      <trkpt lat="41.82521" lon="26.0988">
        <ele>97.05667</ele>
        <time>2022-02-26T11:41:57.275Z</time>
      </trkpt>
      <trkpt lat="41.82531" lon="26.09874">
        <ele>97.022227</ele>
        <time>2022-02-26T11:42:01.292Z</time>
      </trkpt>
      <trkpt lat="41.82541" lon="26.09869">
        <ele>96.989502</ele>
        <time>2022-02-26T11:42:05.303Z</time>
      </trkpt>
      <trkpt lat="41.82551" lon="26.09863">
        <ele>97.086313</ele>
        <time>2022-02-26T11:42:09.262Z</time>
      </trkpt>
      <trkpt lat="41.82561" lon="26.09856">
        <ele>97.251914</ele>
        <time>2022-02-26T11:42:13.261Z</time>
      </trkpt>
      <trkpt lat="41.82571" lon="26.09851">
        <ele>97.399139</ele>
        <time>2022-02-26T11:42:16.269Z</time>
      </trkpt>
      <trkpt lat="41.8258" lon="26.09846">
        <ele>97.538562</ele>
        <time>2022-02-26T11:42:19.302Z</time>
      </trkpt>
      <trkpt lat="41.82591" lon="26.09841">
        <ele>97.700472</ele>
        <time>2022-02-26T11:42:23.301Z</time>
      </trkpt>
      <trkpt lat="41.82601" lon="26.09835">
        <ele>97.860163</ele>
        <time>2022-02-26T11:42:27.271Z</time>
      </trkpt>
      <trkpt lat="41.82611" lon="26.09829">
        <ele>98.012148</ele>
        <time>2022-02-26T11:42:31.280Z</time>
      </trkpt>
      <trkpt lat="41.82621" lon="26.09824">
        <ele>98.163617</ele>
        <time>2022-02-26T11:42:35.283Z</time>
      </trkpt>
      <trkpt lat="41.82631" lon="26.09821">
        <ele>98.311121</ele>
        <time>2022-02-26T11:42:39.289Z</time>
      </trkpt>
      <trkpt lat="41.82641" lon="26.09817">
        <ele>98.461511</ele>
        <time>2022-02-26T11:42:43.271Z</time>
      </trkpt>
      <trkpt lat="41.82652" lon="26.09814">
        <ele>98.625983</ele>
        <time>2022-02-26T11:42:47.319Z</time>
      </trkpt>
      <trkpt lat="41.82663" lon="26.09809">
        <ele>98.788209</ele>
        <time>2022-02-26T11:42:51.284Z</time>
      </trkpt>
      <trkpt lat="41.82671" lon="26.09803">
        <ele>98.921857</ele>
        <time>2022-02-26T11:42:54.279Z</time>
      </trkpt>
      <trkpt lat="41.82682" lon="26.09798">
        <ele>99.086407</ele>
        <time>2022-02-26T11:42:58.278Z</time>
      </trkpt>
      <trkpt lat="41.82693" lon="26.09791">
        <ele>99.250849</ele>
        <time>2022-02-26T11:43:02.277Z</time>
      </trkpt>
      <trkpt lat="41.82701" lon="26.09784">
        <ele>99.396718</ele>
        <time>2022-02-26T11:43:06.282Z</time>
      </trkpt>
      <trkpt lat="41.82711" lon="26.09778">
        <ele>99.544675</ele>
        <time>2022-02-26T11:43:10.269Z</time>
      </trkpt>
      <trkpt lat="41.82721" lon="26.09772">
        <ele>99.589156</ele>
        <time>2022-02-26T11:43:14.263Z</time>
      </trkpt>
      <trkpt lat="41.8273" lon="26.09766">
        <ele>99.628634</ele>
        <time>2022-02-26T11:43:18.283Z</time>
      </trkpt>
      <trkpt lat="41.8274" lon="26.09761">
        <ele>99.670869</ele>
        <time>2022-02-26T11:43:22.277Z</time>
      </trkpt>
      <trkpt lat="41.82749" lon="26.09757">
        <ele>99.708895</ele>
        <time>2022-02-26T11:43:26.303Z</time>
      </trkpt>
      <trkpt lat="41.82758" lon="26.09751">
        <ele>99.749346</ele>
        <time>2022-02-26T11:43:30.273Z</time>
      </trkpt>
      <trkpt lat="41.82766" lon="26.09742">
        <ele>99.790004</ele>
        <time>2022-02-26T11:43:34.278Z</time>
      </trkpt>
      <trkpt lat="41.82776" lon="26.09735">
        <ele>99.834382</ele>
        <time>2022-02-26T11:43:38.274Z</time>
      </trkpt>
      <trkpt lat="41.82786" lon="26.09728">
        <ele>99.879288</ele>
        <time>2022-02-26T11:43:42.275Z</time>
      </trkpt>
      <trkpt lat="41.82797" lon="26.09724">
        <ele>99.923851</ele>
        <time>2022-02-26T11:43:46.312Z</time>
      </trkpt>
      <trkpt lat="41.82807" lon="26.09719">
        <ele>99.968167</ele>
        <time>2022-02-26T11:43:50.275Z</time>
      </trkpt>
      <trkpt lat="41.82817" lon="26.0971">
        <ele>100.01428</ele>
        <time>2022-02-26T11:43:54.268Z</time>
      </trkpt>
      <trkpt lat="41.82828" lon="26.09704">
        <ele>100.059716</ele>
        <time>2022-02-26T11:43:58.281Z</time>
      </trkpt>
      <trkpt lat="41.82837" lon="26.09699">
        <ele>100.100109</ele>
        <time>2022-02-26T11:44:02.263Z</time>
      </trkpt>
      <trkpt lat="41.82848" lon="26.09697">
        <ele>100.141655</ele>
        <time>2022-02-26T11:44:07.271Z</time>
      </trkpt>
      <trkpt lat="41.82857" lon="26.09695">
        <ele>100.179802</ele>
        <time>2022-02-26T11:44:11.273Z</time>
      </trkpt>
      <trkpt lat="41.82867" lon="26.09699">
        <ele>100.2196</ele>
        <time>2022-02-26T11:44:14.285Z</time>
      </trkpt>
      <trkpt lat="41.82875" lon="26.09706">
        <ele>100.249439</ele>
        <time>2022-02-26T11:44:18.284Z</time>
      </trkpt>
      <trkpt lat="41.82885" lon="26.09703">
        <ele>100.183617</ele>
        <time>2022-02-26T11:44:22.310Z</time>
      </trkpt>
      <trkpt lat="41.82895" lon="26.09698">
        <ele>100.119487</ele>
        <time>2022-02-26T11:44:25.276Z</time>
      </trkpt>
      <trkpt lat="41.82903" lon="26.0969">
        <ele>100.05761</ele>
        <time>2022-02-26T11:44:28.267Z</time>
      </trkpt>
      <trkpt lat="41.82911" lon="26.09682">
        <ele>99.995172</ele>
        <time>2022-02-26T11:44:31.288Z</time>
      </trkpt>
      <trkpt lat="41.82919" lon="26.09674">
        <ele>99.930701</ele>
        <time>2022-02-26T11:44:34.277Z</time>
      </trkpt>
      <trkpt lat="41.82928" lon="26.09667">
        <ele>99.867269</ele>
        <time>2022-02-26T11:44:37.274Z</time>
      </trkpt>
      <trkpt lat="41.82936" lon="26.0966">
        <ele>99.804867</ele>
        <time>2022-02-26T11:44:40.270Z</time>
      </trkpt>
      <trkpt lat="41.82945" lon="26.09652">
        <ele>99.739613</ele>
        <time>2022-02-26T11:44:43.288Z</time>
      </trkpt>
      <trkpt lat="41.82955" lon="26.09645">
        <ele>99.67112</ele>
        <time>2022-02-26T11:44:46.272Z</time>
      </trkpt>
      <trkpt lat="41.82964" lon="26.09637">
        <ele>99.603316</ele>
        <time>2022-02-26T11:44:49.274Z</time>
      </trkpt>
      <trkpt lat="41.82973" lon="26.0963">
        <ele>99.535419</ele>
        <time>2022-02-26T11:44:52.273Z</time>
      </trkpt>
      <trkpt lat="41.82983" lon="26.09623">
        <ele>99.466844</ele>
        <time>2022-02-26T11:44:55.269Z</time>
      </trkpt>
      <trkpt lat="41.82993" lon="26.09616">
        <ele>99.400769</ele>
        <time>2022-02-26T11:44:58.307Z</time>
      </trkpt>
      <trkpt lat="41.83002" lon="26.0961">
        <ele>99.337547</ele>
        <time>2022-02-26T11:45:01.289Z</time>
      </trkpt>
      <trkpt lat="41.83011" lon="26.09604">
        <ele>99.271139</ele>
        <time>2022-02-26T11:45:04.294Z</time>
      </trkpt>
      <trkpt lat="41.83022" lon="26.09598">
        <ele>99.199404</ele>
        <time>2022-02-26T11:45:07.263Z</time>
      </trkpt>
      <trkpt lat="41.83033" lon="26.09592">
        <ele>99.135372</ele>
        <time>2022-02-26T11:45:10.279Z</time>
      </trkpt>
      <trkpt lat="41.83043" lon="26.09586">
        <ele>99.156665</ele>
        <time>2022-02-26T11:45:13.270Z</time>
      </trkpt>
      <trkpt lat="41.83053" lon="26.0958">
        <ele>99.177447</ele>
        <time>2022-02-26T11:45:16.273Z</time>
      </trkpt>
      <trkpt lat="41.83064" lon="26.09574">
        <ele>99.198866</ele>
        <time>2022-02-26T11:45:19.272Z</time>
      </trkpt>
      <trkpt lat="41.83074" lon="26.09567">
        <ele>99.220731</ele>
        <time>2022-02-26T11:45:22.286Z</time>
      </trkpt>
      <trkpt lat="41.83085" lon="26.09561">
        <ele>99.243106</ele>
        <time>2022-02-26T11:45:25.301Z</time>
      </trkpt>
      <trkpt lat="41.83096" lon="26.09555">
        <ele>99.26522</ele>
        <time>2022-02-26T11:45:28.274Z</time>
      </trkpt>
      <trkpt lat="41.83107" lon="26.09548">
        <ele>99.287654</ele>
        <time>2022-02-26T11:45:31.281Z</time>
      </trkpt>
      <trkpt lat="41.83118" lon="26.09542">
        <ele>99.310257</ele>
        <time>2022-02-26T11:45:34.271Z</time>
      </trkpt>
      <trkpt lat="41.83129" lon="26.09535">
        <ele>99.332581</ele>
        <time>2022-02-26T11:45:37.255Z</time>
      </trkpt>
      <trkpt lat="41.8314" lon="26.09529">
        <ele>99.354899</ele>
        <time>2022-02-26T11:45:40.276Z</time>
      </trkpt>
      <trkpt lat="41.83151" lon="26.09522">
        <ele>99.377907</ele>
        <time>2022-02-26T11:45:43.270Z</time>
      </trkpt>
      <trkpt lat="41.83162" lon="26.09515">
        <ele>99.400054</ele>
        <time>2022-02-26T11:45:46.262Z</time>
      </trkpt>
      <trkpt lat="41.83174" lon="26.09508">
        <ele>99.423512</ele>
        <time>2022-02-26T11:45:49.277Z</time>
      </trkpt>
      <trkpt lat="41.83186" lon="26.09501">
        <ele>99.447939</ele>
        <time>2022-02-26T11:45:52.319Z</time>
      </trkpt>
      <trkpt lat="41.83197" lon="26.09495">
        <ele>99.476718</ele>
        <time>2022-02-26T11:45:55.262Z</time>
      </trkpt>
      <trkpt lat="41.83209" lon="26.09488">
        <ele>99.553062</ele>
        <time>2022-02-26T11:45:58.269Z</time>
      </trkpt>
      <trkpt lat="41.8322" lon="26.09481">
        <ele>99.625953</ele>
        <time>2022-02-26T11:46:01.274Z</time>
      </trkpt>
      <trkpt lat="41.83231" lon="26.09475">
        <ele>99.697207</ele>
        <time>2022-02-26T11:46:04.316Z</time>
      </trkpt>
      <trkpt lat="41.83242" lon="26.09469">
        <ele>99.769202</ele>
        <time>2022-02-26T11:46:07.266Z</time>
      </trkpt>
      <trkpt lat="41.83254" lon="26.09462">
        <ele>99.845953</ele>
        <time>2022-02-26T11:46:10.267Z</time>
      </trkpt>
      <trkpt lat="41.83266" lon="26.09456">
        <ele>99.920876</ele>
        <time>2022-02-26T11:46:13.295Z</time>
      </trkpt>
      <trkpt lat="41.83277" lon="26.09449">
        <ele>99.995419</ele>
        <time>2022-02-26T11:46:16.306Z</time>
      </trkpt>
      <trkpt lat="41.83289" lon="26.09443">
        <ele>100.072339</ele>
        <time>2022-02-26T11:46:19.258Z</time>
      </trkpt>
      <trkpt lat="41.83301" lon="26.09436">
        <ele>100.146374</ele>
        <time>2022-02-26T11:46:22.273Z</time>
      </trkpt>
      <trkpt lat="41.83312" lon="26.0943">
        <ele>100.218369</ele>
        <time>2022-02-26T11:46:25.267Z</time>
      </trkpt>
      <trkpt lat="41.83322" lon="26.09424">
        <ele>100.287268</ele>
        <time>2022-02-26T11:46:28.267Z</time>
      </trkpt>
      <trkpt lat="41.83332" lon="26.09419">
        <ele>100.350386</ele>
        <time>2022-02-26T11:46:31.277Z</time>
      </trkpt>
      <trkpt lat="41.83342" lon="26.09413">
        <ele>100.413466</ele>
        <time>2022-02-26T11:46:34.267Z</time>
      </trkpt>
      <trkpt lat="41.83352" lon="26.09407">
        <ele>100.47947</ele>
        <time>2022-02-26T11:46:37.283Z</time>
      </trkpt>
      <trkpt lat="41.83363" lon="26.09401">
        <ele>100.563745</ele>
        <time>2022-02-26T11:46:40.287Z</time>
      </trkpt>
      <trkpt lat="41.83374" lon="26.09395">
        <ele>100.891492</ele>
        <time>2022-02-26T11:46:43.292Z</time>
      </trkpt>
      <trkpt lat="41.83385" lon="26.09389">
        <ele>101.225047</ele>
        <time>2022-02-26T11:46:46.271Z</time>
      </trkpt>
      <trkpt lat="41.83395" lon="26.09382">
        <ele>101.550152</ele>
        <time>2022-02-26T11:46:49.268Z</time>
      </trkpt>
      <trkpt lat="41.83406" lon="26.09377">
        <ele>101.864487</ele>
        <time>2022-02-26T11:46:52.273Z</time>
      </trkpt>
      <trkpt lat="41.83416" lon="26.09371">
        <ele>102.16106</ele>
        <time>2022-02-26T11:46:55.273Z</time>
      </trkpt>
      <trkpt lat="41.83425" lon="26.09365">
        <ele>102.450704</ele>
        <time>2022-02-26T11:46:58.271Z</time>
      </trkpt>
      <trkpt lat="41.83434" lon="26.0936">
        <ele>102.722626</ele>
        <time>2022-02-26T11:47:01.274Z</time>
      </trkpt>
      <trkpt lat="41.83443" lon="26.09355">
        <ele>102.993689</ele>
        <time>2022-02-26T11:47:04.307Z</time>
      </trkpt>
      <trkpt lat="41.83453" lon="26.09348">
        <ele>103.294576</ele>
        <time>2022-02-26T11:47:07.280Z</time>
      </trkpt>
      <trkpt lat="41.83463" lon="26.09342">
        <ele>103.607127</ele>
        <time>2022-02-26T11:47:10.292Z</time>
      </trkpt>
      <trkpt lat="41.83474" lon="26.09336">
        <ele>103.928024</ele>
        <time>2022-02-26T11:47:13.274Z</time>
      </trkpt>
      <trkpt lat="41.83484" lon="26.09329">
        <ele>104.249799</ele>
        <time>2022-02-26T11:47:16.269Z</time>
      </trkpt>
      <trkpt lat="41.83493" lon="26.09321">
        <ele>104.557479</ele>
        <time>2022-02-26T11:47:19.255Z</time>
      </trkpt>
      <trkpt lat="41.83503" lon="26.09315">
        <ele>104.854354</ele>
        <time>2022-02-26T11:47:22.281Z</time>
      </trkpt>
      <trkpt lat="41.83511" lon="26.09303">
        <ele>105.180255</ele>
        <time>2022-02-26T11:47:25.275Z</time>
      </trkpt>
      <trkpt lat="41.83508" lon="26.0929">
        <ele>105.456537</ele>
        <time>2022-02-26T11:47:28.275Z</time>
      </trkpt>
      <trkpt lat="41.83505" lon="26.09276">
        <ele>105.62938</ele>
        <time>2022-02-26T11:47:31.278Z</time>
      </trkpt>
      <trkpt lat="41.83502" lon="26.09261">
        <ele>105.752813</ele>
        <time>2022-02-26T11:47:34.262Z</time>
      </trkpt>
      <trkpt lat="41.83499" lon="26.09248">
        <ele>105.865452</ele>
        <time>2022-02-26T11:47:37.281Z</time>
      </trkpt>
      <trkpt lat="41.83497" lon="26.09236">
        <ele>105.969487</ele>
        <time>2022-02-26T11:47:40.294Z</time>
      </trkpt>
      <trkpt lat="41.83495" lon="26.09223">
        <ele>106.075685</ele>
        <time>2022-02-26T11:47:43.306Z</time>
      </trkpt>
      <trkpt lat="41.83494" lon="26.0921">
        <ele>106.189262</ele>
        <time>2022-02-26T11:47:46.264Z</time>
      </trkpt>
      <trkpt lat="41.83491" lon="26.09194">
        <ele>106.320797</ele>
        <time>2022-02-26T11:47:49.279Z</time>
      </trkpt>
      <trkpt lat="41.83488" lon="26.0918">
        <ele>106.44875</ele>
        <time>2022-02-26T11:47:52.288Z</time>
      </trkpt>
      <trkpt lat="41.83484" lon="26.09167">
        <ele>106.566628</ele>
        <time>2022-02-26T11:47:55.261Z</time>
      </trkpt>
      <trkpt lat="41.83481" lon="26.09155">
        <ele>106.669862</ele>
        <time>2022-02-26T11:47:58.274Z</time>
      </trkpt>
      <trkpt lat="41.83483" lon="26.09142">
        <ele>106.780343</ele>
        <time>2022-02-26T11:48:01.273Z</time>
      </trkpt>
      <trkpt lat="41.83492" lon="26.09133">
        <ele>106.902154</ele>
        <time>2022-02-26T11:48:05.313Z</time>
      </trkpt>
      <trkpt lat="41.83502" lon="26.09128">
        <ele>107.023535</ele>
        <time>2022-02-26T11:48:09.269Z</time>
      </trkpt>
      <trkpt lat="41.83513" lon="26.09123">
        <ele>107.148927</ele>
        <time>2022-02-26T11:48:13.260Z</time>
      </trkpt>
      <trkpt lat="41.83523" lon="26.09116">
        <ele>107.279225</ele>
        <time>2022-02-26T11:48:17.270Z</time>
      </trkpt>
      <trkpt lat="41.83534" lon="26.09109">
        <ele>107.412083</ele>
        <time>2022-02-26T11:48:21.273Z</time>
      </trkpt>
      <trkpt lat="41.83544" lon="26.09103">
        <ele>107.533896</ele>
        <time>2022-02-26T11:48:25.281Z</time>
      </trkpt>
      <trkpt lat="41.83554" lon="26.09097">
        <ele>107.640458</ele>
        <time>2022-02-26T11:48:29.276Z</time>
      </trkpt>
      <trkpt lat="41.83564" lon="26.0909">
        <ele>107.744772</ele>
        <time>2022-02-26T11:48:33.281Z</time>
      </trkpt>
      <trkpt lat="41.83574" lon="26.09083">
        <ele>107.849245</ele>
        <time>2022-02-26T11:48:37.303Z</time>
      </trkpt>
      <trkpt lat="41.83585" lon="26.09076">
        <ele>107.957375</ele>
        <time>2022-02-26T11:48:41.262Z</time>
      </trkpt>
      <trkpt lat="41.83594" lon="26.09071">
        <ele>108.045181</ele>
        <time>2022-02-26T11:48:44.270Z</time>
      </trkpt>
      <trkpt lat="41.83602" lon="26.09065">
        <ele>108.134686</ele>
        <time>2022-02-26T11:48:47.280Z</time>
      </trkpt>
      <trkpt lat="41.83611" lon="26.09062">
        <ele>108.221066</ele>
        <time>2022-02-26T11:48:50.308Z</time>
      </trkpt>
      <trkpt lat="41.8362" lon="26.09057">
        <ele>108.304976</ele>
        <time>2022-02-26T11:48:53.267Z</time>
      </trkpt>
      <trkpt lat="41.83631" lon="26.09051">
        <ele>108.415014</ele>
        <time>2022-02-26T11:48:57.275Z</time>
      </trkpt>
      <trkpt lat="41.83641" lon="26.09044">
        <ele>108.516948</ele>
        <time>2022-02-26T11:49:01.275Z</time>
      </trkpt>
      <trkpt lat="41.83649" lon="26.09039">
        <ele>108.604546</ele>
        <time>2022-02-26T11:49:04.261Z</time>
      </trkpt>
      <trkpt lat="41.83659" lon="26.09035">
        <ele>108.701902</ele>
        <time>2022-02-26T11:49:08.266Z</time>
      </trkpt>
      <trkpt lat="41.83668" lon="26.09029">
        <ele>108.788588</ele>
        <time>2022-02-26T11:49:11.279Z</time>
      </trkpt>
      <trkpt lat="41.83676" lon="26.09024">
        <ele>108.876164</ele>
        <time>2022-02-26T11:49:14.271Z</time>
      </trkpt>
      <trkpt lat="41.83685" lon="26.09018">
        <ele>108.968803</ele>
        <time>2022-02-26T11:49:17.260Z</time>
      </trkpt>
      <trkpt lat="41.83695" lon="26.09012">
        <ele>109.065372</ele>
        <time>2022-02-26T11:49:20.281Z</time>
      </trkpt>
      <trkpt lat="41.83704" lon="26.09005">
        <ele>109.164208</ele>
        <time>2022-02-26T11:49:23.268Z</time>
      </trkpt>
      <trkpt lat="41.83714" lon="26.08999">
        <ele>109.30972</ele>
        <time>2022-02-26T11:49:26.286Z</time>
      </trkpt>
      <trkpt lat="41.83724" lon="26.08993">
        <ele>109.48902</ele>
        <time>2022-02-26T11:49:29.284Z</time>
      </trkpt>
      <trkpt lat="41.83734" lon="26.08987">
        <ele>109.679907</ele>
        <time>2022-02-26T11:49:32.271Z</time>
      </trkpt>
      <trkpt lat="41.83743" lon="26.08982">
        <ele>109.83755</ele>
        <time>2022-02-26T11:49:35.271Z</time>
      </trkpt>
      <trkpt lat="41.83753" lon="26.08976">
        <ele>110.013977</ele>
        <time>2022-02-26T11:49:39.262Z</time>
      </trkpt>
      <trkpt lat="41.83762" lon="26.08971">
        <ele>110.184716</ele>
        <time>2022-02-26T11:49:47.262Z</time>
      </trkpt>
      <trkpt lat="41.83772" lon="26.08965">
        <ele>110.352445</ele>
        <time>2022-02-26T11:49:51.266Z</time>
      </trkpt>
      <trkpt lat="41.83782" lon="26.08959">
        <ele>110.540811</ele>
        <time>2022-02-26T11:49:55.260Z</time>
      </trkpt>
      <trkpt lat="41.83793" lon="26.08952">
        <ele>110.736357</ele>
        <time>2022-02-26T11:49:59.273Z</time>
      </trkpt>
      <trkpt lat="41.83801" lon="26.08947">
        <ele>110.893</ele>
        <time>2022-02-26T11:50:02.259Z</time>
      </trkpt>
      <trkpt lat="41.83811" lon="26.08942">
        <ele>111.063901</ele>
        <time>2022-02-26T11:50:05.274Z</time>
      </trkpt>
      <trkpt lat="41.83819" lon="26.08936">
        <ele>111.221738</ele>
        <time>2022-02-26T11:50:08.278Z</time>
      </trkpt>
      <trkpt lat="41.83828" lon="26.0893">
        <ele>111.380138</ele>
        <time>2022-02-26T11:50:11.272Z</time>
      </trkpt>
      <trkpt lat="41.83836" lon="26.08925">
        <ele>111.529299</ele>
        <time>2022-02-26T11:50:14.276Z</time>
      </trkpt>
      <trkpt lat="41.83845" lon="26.0892">
        <ele>111.685954</ele>
        <time>2022-02-26T11:50:17.270Z</time>
      </trkpt>
      <trkpt lat="41.83853" lon="26.08914">
        <ele>111.847161</ele>
        <time>2022-02-26T11:50:20.278Z</time>
      </trkpt>
      <trkpt lat="41.83862" lon="26.08908">
        <ele>112.010927</ele>
        <time>2022-02-26T11:50:23.274Z</time>
      </trkpt>
      <trkpt lat="41.83871" lon="26.08902">
        <ele>112.173401</ele>
        <time>2022-02-26T11:50:26.275Z</time>
      </trkpt>
      <trkpt lat="41.8388" lon="26.08897">
        <ele>112.274103</ele>
        <time>2022-02-26T11:50:29.305Z</time>
      </trkpt>
      <trkpt lat="41.83889" lon="26.08892">
        <ele>112.373411</ele>
        <time>2022-02-26T11:50:32.268Z</time>
      </trkpt>
      <trkpt lat="41.83898" lon="26.08887">
        <ele>112.469899</ele>
        <time>2022-02-26T11:50:35.320Z</time>
      </trkpt>
      <trkpt lat="41.83907" lon="26.08882">
        <ele>112.562764</ele>
        <time>2022-02-26T11:50:38.281Z</time>
      </trkpt>
      <trkpt lat="41.83917" lon="26.08876">
        <ele>112.668063</ele>
        <time>2022-02-26T11:50:42.261Z</time>
      </trkpt>
      <trkpt lat="41.83925" lon="26.0887">
        <ele>112.764072</ele>
        <time>2022-02-26T11:50:46.271Z</time>
      </trkpt>
      <trkpt lat="41.83933" lon="26.08864">
        <ele>112.858518</ele>
        <time>2022-02-26T11:50:49.267Z</time>
      </trkpt>
      <trkpt lat="41.83943" lon="26.08858">
        <ele>112.961177</ele>
        <time>2022-02-26T11:50:52.337Z</time>
      </trkpt>
      <trkpt lat="41.83951" lon="26.08852">
        <ele>113.050681</ele>
        <time>2022-02-26T11:50:55.283Z</time>
      </trkpt>
      <trkpt lat="41.83959" lon="26.08846">
        <ele>113.14316</ele>
        <time>2022-02-26T11:50:58.271Z</time>
      </trkpt>
      <trkpt lat="41.83967" lon="26.08841">
        <ele>113.237605</ele>
        <time>2022-02-26T11:51:01.268Z</time>
      </trkpt>
      <trkpt lat="41.83976" lon="26.08836">
        <ele>113.328428</ele>
        <time>2022-02-26T11:51:04.271Z</time>
      </trkpt>
      <trkpt lat="41.83984" lon="26.0883">
        <ele>113.418652</ele>
        <time>2022-02-26T11:51:07.292Z</time>
      </trkpt>
      <trkpt lat="41.83994" lon="26.08822">
        <ele>113.541122</ele>
        <time>2022-02-26T11:51:11.260Z</time>
      </trkpt>
      <trkpt lat="41.84004" lon="26.08816">
        <ele>113.651241</ele>
        <time>2022-02-26T11:51:14.280Z</time>
      </trkpt>
      <trkpt lat="41.84015" lon="26.08809">
        <ele>113.763793</ele>
        <time>2022-02-26T11:51:17.263Z</time>
      </trkpt>
      <trkpt lat="41.84025" lon="26.08802">
        <ele>113.879038</ele>
        <time>2022-02-26T11:51:21.298Z</time>
      </trkpt>
      <trkpt lat="41.84035" lon="26.08795">
        <ele>113.946928</ele>
        <time>2022-02-26T11:51:25.288Z</time>
      </trkpt>
      <trkpt lat="41.84044" lon="26.0879">
        <ele>113.855629</ele>
        <time>2022-02-26T11:51:28.262Z</time>
      </trkpt>
      <trkpt lat="41.84052" lon="26.08784">
        <ele>113.761376</ele>
        <time>2022-02-26T11:51:31.267Z</time>
      </trkpt>
      <trkpt lat="41.84061" lon="26.0878">
        <ele>113.669211</ele>
        <time>2022-02-26T11:51:34.291Z</time>
      </trkpt>
      <trkpt lat="41.84073" lon="26.08775">
        <ele>113.552279</ele>
        <time>2022-02-26T11:51:38.323Z</time>
      </trkpt>
      <trkpt lat="41.84084" lon="26.08772">
        <ele>113.443585</ele>
        <time>2022-02-26T11:51:42.260Z</time>
      </trkpt>
      <trkpt lat="41.84094" lon="26.08771">
        <ele>113.33967</ele>
        <time>2022-02-26T11:51:46.268Z</time>
      </trkpt>
      <trkpt lat="41.84103" lon="26.08766">
        <ele>113.250142</ele>
        <time>2022-02-26T11:51:49.279Z</time>
      </trkpt>
      <trkpt lat="41.84103" lon="26.08754">
        <ele>113.16127</ele>
        <time>2022-02-26T11:51:53.268Z</time>
      </trkpt>
      <trkpt lat="41.84103" lon="26.08739">
        <ele>113.047011</ele>
        <time>2022-02-26T11:51:57.269Z</time>
      </trkpt>
      <trkpt lat="41.84103" lon="26.08726">
        <ele>112.952397</ele>
        <time>2022-02-26T11:52:00.269Z</time>
      </trkpt>
      <trkpt lat="41.84103" lon="26.08711">
        <ele>112.846868</ele>
        <time>2022-02-26T11:52:03.275Z</time>
      </trkpt>
      <trkpt lat="41.84103" lon="26.08697">
        <ele>112.742793</ele>
        <time>2022-02-26T11:52:06.271Z</time>
      </trkpt>
      <trkpt lat="41.84103" lon="26.08682">
        <ele>112.63654</ele>
        <time>2022-02-26T11:52:09.265Z</time>
      </trkpt>
      <trkpt lat="41.84102" lon="26.08667">
        <ele>112.528473</ele>
        <time>2022-02-26T11:52:12.281Z</time>
      </trkpt>
      <trkpt lat="41.84102" lon="26.08655">
        <ele>112.436027</ele>
        <time>2022-02-26T11:52:15.268Z</time>
      </trkpt>
      <trkpt lat="41.84102" lon="26.08642">
        <ele>112.343555</ele>
        <time>2022-02-26T11:52:18.269Z</time>
      </trkpt>
      <trkpt lat="41.84104" lon="26.0863">
        <ele>112.254775</ele>
        <time>2022-02-26T11:52:21.273Z</time>
      </trkpt>
      <trkpt lat="41.84113" lon="26.08624">
        <ele>112.26303</ele>
        <time>2022-02-26T11:52:25.278Z</time>
      </trkpt>
      <trkpt lat="41.84124" lon="26.08625">
        <ele>112.354157</ele>
        <time>2022-02-26T11:52:29.271Z</time>
      </trkpt>
      <trkpt lat="41.8413" lon="26.08611">
        <ele>112.446289</ele>
        <time>2022-02-26T11:52:33.283Z</time>
      </trkpt>
      <trkpt lat="41.8414" lon="26.08603">
        <ele>112.541229</ele>
        <time>2022-02-26T11:52:37.260Z</time>
      </trkpt>
      <trkpt lat="41.84148" lon="26.08599">
        <ele>112.615003</ele>
        <time>2022-02-26T11:52:40.265Z</time>
      </trkpt>
      <trkpt lat="41.84159" lon="26.08594">
        <ele>112.701743</ele>
        <time>2022-02-26T11:52:43.276Z</time>
      </trkpt>
      <trkpt lat="41.84169" lon="26.08589">
        <ele>112.788327</ele>
        <time>2022-02-26T11:52:46.275Z</time>
      </trkpt>
      <trkpt lat="41.84178" lon="26.08584">
        <ele>112.868905</ele>
        <time>2022-02-26T11:52:49.263Z</time>
      </trkpt>
      <trkpt lat="41.84188" lon="26.08579">
        <ele>112.955161</ele>
        <time>2022-02-26T11:52:52.269Z</time>
      </trkpt>
      <trkpt lat="41.84198" lon="26.08575">
        <ele>113.040031</ele>
        <time>2022-02-26T11:52:55.281Z</time>
      </trkpt>
      <trkpt lat="41.84208" lon="26.08571">
        <ele>113.126969</ele>
        <time>2022-02-26T11:52:58.264Z</time>
      </trkpt>
      <trkpt lat="41.84219" lon="26.08565">
        <ele>113.215692</ele>
        <time>2022-02-26T11:53:01.279Z</time>
      </trkpt>
      <trkpt lat="41.84228" lon="26.08561">
        <ele>113.297855</ele>
        <time>2022-02-26T11:53:04.266Z</time>
      </trkpt>
      <trkpt lat="41.84238" lon="26.08557">
        <ele>113.374332</ele>
        <time>2022-02-26T11:53:07.267Z</time>
      </trkpt>
      <trkpt lat="41.84247" lon="26.08553">
        <ele>113.450776</ele>
        <time>2022-02-26T11:53:10.285Z</time>
      </trkpt>
      <trkpt lat="41.84256" lon="26.08549">
        <ele>113.530651</ele>
        <time>2022-02-26T11:53:13.269Z</time>
      </trkpt>
      <trkpt lat="41.84266" lon="26.08544">
        <ele>113.61607</ele>
        <time>2022-02-26T11:53:16.257Z</time>
      </trkpt>
      <trkpt lat="41.84277" lon="26.08539">
        <ele>113.748741</ele>
        <time>2022-02-26T11:53:19.274Z</time>
      </trkpt>
      <trkpt lat="41.84287" lon="26.08535">
        <ele>113.913561</ele>
        <time>2022-02-26T11:53:22.271Z</time>
      </trkpt>
      <trkpt lat="41.84298" lon="26.08531">
        <ele>114.072827</ele>
        <time>2022-02-26T11:53:25.250Z</time>
      </trkpt>
      <trkpt lat="41.84308" lon="26.08526">
        <ele>114.234194</ele>
        <time>2022-02-26T11:53:28.280Z</time>
      </trkpt>
      <trkpt lat="41.84318" lon="26.08522">
        <ele>114.394151</ele>
        <time>2022-02-26T11:53:31.275Z</time>
      </trkpt>
      <trkpt lat="41.84329" lon="26.08518">
        <ele>114.555813</ele>
        <time>2022-02-26T11:53:34.270Z</time>
      </trkpt>
      <trkpt lat="41.84339" lon="26.08513">
        <ele>114.716126</ele>
        <time>2022-02-26T11:53:37.263Z</time>
      </trkpt>
      <trkpt lat="41.84348" lon="26.08508">
        <ele>114.858613</ele>
        <time>2022-02-26T11:53:40.274Z</time>
      </trkpt>
      <trkpt lat="41.84355" lon="26.08501">
        <ele>114.995091</ele>
        <time>2022-02-26T11:53:43.311Z</time>
      </trkpt>
      <trkpt lat="41.84363" lon="26.08495">
        <ele>115.13468</ele>
        <time>2022-02-26T11:53:46.279Z</time>
      </trkpt>
      <trkpt lat="41.84374" lon="26.08487">
        <ele>115.308347</ele>
        <time>2022-02-26T11:53:50.276Z</time>
      </trkpt>
      <trkpt lat="41.84382" lon="26.08481">
        <ele>115.45432</ele>
        <time>2022-02-26T11:53:53.272Z</time>
      </trkpt>
      <trkpt lat="41.84391" lon="26.08474">
        <ele>115.606381</ele>
        <time>2022-02-26T11:53:56.273Z</time>
      </trkpt>
      <trkpt lat="41.844" lon="26.08467">
        <ele>115.762762</ele>
        <time>2022-02-26T11:53:59.286Z</time>
      </trkpt>
      <trkpt lat="41.84409" lon="26.0846">
        <ele>115.921631</ele>
        <time>2022-02-26T11:54:02.271Z</time>
      </trkpt>
      <trkpt lat="41.8442" lon="26.08451">
        <ele>116.098841</ele>
        <time>2022-02-26T11:54:05.272Z</time>
      </trkpt>
      <trkpt lat="41.8443" lon="26.08442">
        <ele>116.282764</ele>
        <time>2022-02-26T11:54:08.275Z</time>
      </trkpt>
      <trkpt lat="41.84439" lon="26.08434">
        <ele>116.333655</ele>
        <time>2022-02-26T11:54:11.275Z</time>
      </trkpt>
      <trkpt lat="41.84448" lon="26.08428">
        <ele>116.333655</ele>
        <time>2022-02-26T11:54:14.270Z</time>
      </trkpt>
      <trkpt lat="41.84456" lon="26.08422">
        <ele>116.333655</ele>
        <time>2022-02-26T11:54:17.277Z</time>
      </trkpt>
      <trkpt lat="41.84465" lon="26.08414">
        <ele>116.333655</ele>
        <time>2022-02-26T11:54:20.277Z</time>
      </trkpt>
      <trkpt lat="41.84475" lon="26.08406">
        <ele>116.333655</ele>
        <time>2022-02-26T11:54:23.275Z</time>
      </trkpt>
      <trkpt lat="41.84484" lon="26.08398">
        <ele>116.333655</ele>
        <time>2022-02-26T11:54:26.274Z</time>
      </trkpt>
      <trkpt lat="41.84492" lon="26.08392">
        <ele>116.333655</ele>
        <time>2022-02-26T11:54:29.264Z</time>
      </trkpt>
      <trkpt lat="41.84501" lon="26.08384">
        <ele>116.333655</ele>
        <time>2022-02-26T11:54:33.270Z</time>
      </trkpt>
      <trkpt lat="41.84501" lon="26.08368">
        <ele>116.333655</ele>
        <time>2022-02-26T11:54:37.271Z</time>
      </trkpt>
      <trkpt lat="41.84497" lon="26.08353">
        <ele>116.333655</ele>
        <time>2022-02-26T11:54:40.285Z</time>
      </trkpt>
      <trkpt lat="41.84492" lon="26.08339">
        <ele>116.333655</ele>
        <time>2022-02-26T11:54:43.269Z</time>
      </trkpt>
      <trkpt lat="41.84487" lon="26.08328">
        <ele>116.333655</ele>
        <time>2022-02-26T11:54:46.263Z</time>
      </trkpt>
      <trkpt lat="41.84483" lon="26.08316">
        <ele>116.333655</ele>
        <time>2022-02-26T11:54:49.278Z</time>
      </trkpt>
      <trkpt lat="41.84478" lon="26.08302">
        <ele>116.333655</ele>
        <time>2022-02-26T11:54:53.331Z</time>
      </trkpt>
      <trkpt lat="41.84474" lon="26.08289">
        <ele>116.333655</ele>
        <time>2022-02-26T11:54:57.282Z</time>
      </trkpt>
      <trkpt lat="41.84468" lon="26.08276">
        <ele>116.333655</ele>
        <time>2022-02-26T11:55:01.259Z</time>
      </trkpt>
      <trkpt lat="41.84462" lon="26.08265">
        <ele>116.333655</ele>
        <time>2022-02-26T11:55:05.254Z</time>
      </trkpt>
      <trkpt lat="41.84457" lon="26.08254">
        <ele>116.333655</ele>
        <time>2022-02-26T11:55:12.263Z</time>
      </trkpt>
      <trkpt lat="41.84442" lon="26.08241">
        <ele>116.333655</ele>
        <time>2022-02-26T11:59:28.244Z</time>
      </trkpt>
      <trkpt lat="41.84447" lon="26.08252">
        <ele>116.333655</ele>
        <time>2022-02-26T11:59:42.239Z</time>
      </trkpt>
      <trkpt lat="41.84453" lon="26.08261">
        <ele>116.333655</ele>
        <time>2022-02-26T11:59:52.243Z</time>
      </trkpt>
      <trkpt lat="41.84461" lon="26.08268">
        <ele>116.333655</ele>
        <time>2022-02-26T12:00:50.251Z</time>
      </trkpt>
    </trkseg>
  </trk>
</gpx>